# Wetter Temperatur Luftdruck Luftfeuchtigkeit Sichtweite Windgeschwindigkeit Windrichtung Zeit
1 Smoke 26 1016 47 4000 5.1 330 09:40 29.01.2020
2 Smoke 26 1016 47 4000 5.1 330 09:22 29.01.2020
3 Smoke 26 1016 47 3000 5.7 310 08:58 29.01.2020
4 Smoke 26 1017 47 3000 4.6 340 08:39 29.01.2020
5 Smoke 25 1017 47 3000 4.6 340 08:20 29.01.2020
6 Smoke 25 1018 53 3000 4.1 330 07:45 29.01.2020
7 Smoke 24 1018 53 3000 4.6 330 07:25 29.01.2020
8 Smoke 25 1018 53 3000 3.6 280 06:55 29.01.2020
9 Haze 24 1018 56 3000 3.1 340 06:37 29.01.2020
10 Haze 24 1018 56 3000 3.1 340 06:18 29.01.2020
11 Haze 24 1018 56 2500 2.6 20 05:45 29.01.2020
12 Haze 23 1018 60 2500 4.6 340 05:26 29.01.2020
13 Haze 22 1017 68 2500 2.6 30 04:38 29.01.2020
14 Haze 22 1016 68 2500 3.6 10 03:49 29.01.2020
15 Haze 22 1015 73 3000 2.6 40 02:33 29.01.2020
16 Haze 23 1014 69 3500 2.1 20 00:44 29.01.2020
17 Haze 23 1014 69 3500 2.6 30 00:25 29.01.2020
18 Haze 23 1014 69 3500 1.5 0 23:58 28.01.2020
19 Haze 23 1014 69 3500 3.1 340 23:37 28.01.2020
20 Haze 23 1014 69 3500 3.1 340 23:18 28.01.2020
21 Haze 23 1014 69 3000 2.6 330 22:41 28.01.2020
22 Haze 23 1014 69 3000 2.1 330 22:21 28.01.2020
23 Haze 24 1014 64 3000 2.1 320 21:42 28.01.2020
24 Haze 24 1014 64 3000 2.1 320 21:24 28.01.2020
25 Haze 24 1014 64 3000 2.6 340 20:59 28.01.2020
26 Haze 24 1014 64 3000 2.6 340 20:59 28.01.2020
27 Haze 24 1015 64 3000 3.6 10 20:40 28.01.2020
28 Haze 24 1015 64 3000 3.6 10 20:21 28.01.2020
29 Haze 24 1015 64 3000 3.6 310 19:39 28.01.2020
30 Haze 24 1015 64 3000 3.6 310 19:21 28.01.2020
31 Haze 24 1015 69 3000 4.1 330 18:59 28.01.2020
32 Haze 24 1015 69 3000 4.1 310 18:40 28.01.2020
33 Haze 24 1015 69 3000 4.1 310 18:22 28.01.2020
34 Haze 24 1015 69 3000 4.1 310 18:22 28.01.2020
35 Haze 24 1014 69 3000 3.6 320 17:59 28.01.2020
36 Haze 25 1014 65 3000 3.6 340 17:38 28.01.2020
37 Haze 25 1014 65 3000 3.6 340 17:38 28.01.2020
38 Haze 25 1014 65 3000 3.6 340 17:19 28.01.2020
39 Haze 24 1014 69 4000 4.1 360 16:55 28.01.2020
40 Haze 24 1014 73 4000 3.6 320 16:37 28.01.2020
41 Haze 24 1014 73 4000 3.6 320 16:19 28.01.2020
42 Haze 25 1013 69 4000 3.1 330 15:44 28.01.2020
43 Haze 25 1013 69 5000 4.1 310 15:19 28.01.2020
44 Haze 25 1012 69 5000 3.6 310 14:57 28.01.2020
45 Haze 26 1012 65 5000 4.1 240 14:38 28.01.2020
46 Haze 26 1012 65 5000 4.1 240 14:18 28.01.2020
47 Clouds 27 1012 57 6000 3.6 210 13:39 28.01.2020
48 Clouds 27 1012 57 6000 3.6 210 13:21 28.01.2020
49 Clouds 27 1012 57 6000 4.1 240 12:42 28.01.2020
50 Clouds 28 1011 54 6000 5.1 260 12:24 28.01.2020
51 Clouds 28 1011 54 6000 4.6 230 11:55 28.01.2020
52 Clouds 28 1011 48 6000 4.6 260 11:37 28.01.2020
53 Clouds 29 1011 48 6000 4.6 260 11:19 28.01.2020
54 Smoke 29 1012 48 5000 4.6 250 10:41 28.01.2020
55 Smoke 29 1012 48 5000 4.6 250 10:22 28.01.2020
56 Clouds 28 1013 57 6000 3.1 230 09:55 28.01.2020
57 Smoke 28 1012 47 5000 4.1 270 09:37 28.01.2020
58 Smoke 28 1012 47 5000 4.1 270 09:18 28.01.2020
59 Smoke 29 1013 45 4000 2.6 270 08:41 28.01.2020
60 Smoke 28 1013 45 4000 2.6 270 08:20 28.01.2020
61 Smoke 27 1014 51 3500 3.6 270 07:38 28.01.2020
62 Haze 27 1014 61 2500 2.1 190 06:51 28.01.2020
63 Haze 27 1014 61 2500 2.1 190 06:29 28.01.2020
64 Haze 27 1014 61 2500 2.1 190 06:29 28.01.2020
65 Haze 26 1014 65 2200 1.5 120 05:55 28.01.2020
66 Haze 26 1014 69 2200 1.5 110 05:33 28.01.2020
67 Haze 23 1013 78 2200 1.5 110 04:38 28.01.2020
68 Mist 23 1013 78 2500 2.1 100 03:36 28.01.2020
69 Mist 23 1012 78 3000 2.6 120 02:25 28.01.2020
70 Mist 23 1012 78 3000 2.6 120 01:58 28.01.2020
71 Mist 23 1012 78 3500 2.6 130 01:40 28.01.2020
72 Mist 23 1012 78 3500 2.6 130 01:40 28.01.2020
73 Mist 23 1011 78 3500 1.5 0 00:51 28.01.2020
74 Mist 24 1011 73 3500 0.83 294 00:29 28.01.2020
75 Mist 23 1011 78 3500 0.83 294 23:53 27.01.2020
76 Haze 24 1011 73 3500 2.1 230 23:30 27.01.2020
77 Haze 24 1011 73 3500 1.37 267 22:59 27.01.2020
78 Haze 24 1012 73 3500 1.5 250 22:41 27.01.2020
79 Haze 24 1012 73 3500 1.5 250 22:20 27.01.2020
80 Haze 24 1012 73 3500 1.5 310 21:57 27.01.2020
81 Haze 24 1012 69 3500 2.6 250 21:38 27.01.2020
82 Haze 24 1012 69 3500 2.6 250 21:18 27.01.2020
83 Haze 24 1012 69 4000 1.37 267 20:55 27.01.2020
84 Haze 25 1013 69 4000 2.1 330 20:37 27.01.2020
85 Haze 25 1013 69 4000 2.1 330 20:18 27.01.2020
86 Haze 24 1013 69 4000 2.6 320 19:41 27.01.2020
87 Haze 24 1013 69 4000 2.6 320 19:23 27.01.2020
88 Haze 24 1013 69 4000 2.1 300 18:56 27.01.2020
89 Haze 24 1013 64 4000 2.6 290 18:38 27.01.2020
90 Haze 24 1013 64 4000 2.6 290 18:20 27.01.2020
91 Haze 24 1013 69 3500 3.6 300 17:40 27.01.2020
92 Haze 24 1013 69 3500 3.6 300 17:21 27.01.2020
93 Haze 24 1013 69 3500 3.6 300 16:59 27.01.2020
94 Haze 24 1012 73 3000 2.1 310 16:41 27.01.2020
95 Haze 24 1012 73 3000 2.1 310 16:41 27.01.2020
96 Haze 24 1012 73 3000 2.1 310 16:23 27.01.2020
97 Haze 25 1012 69 3000 2.6 330 15:55 27.01.2020
98 Haze 25 1011 69 3000 4.1 300 15:37 27.01.2020
99 Haze 25 1011 69 3000 4.1 300 15:19 27.01.2020
100 Haze 25 1011 69 3000 4.1 300 15:19 27.01.2020
101 Haze 25 1011 65 4000 3.6 290 14:43 27.01.2020
102 Haze 27 1011 65 4000 3.6 290 14:23 27.01.2020
103 Smoke 26 1010 57 5000 4.6 310 13:58 27.01.2020
104 Smoke 28 1010 57 5000 5.1 290 13:40 27.01.2020
105 Smoke 27 1010 57 5000 5.1 290 13:20 27.01.2020
106 Smoke 27 1010 69 5000 5.1 300 12:55 27.01.2020
107 Smoke 27 1010 65 5000 4.6 290 12:37 27.01.2020
108 Smoke 27 1010 65 5000 4.6 290 12:18 27.01.2020
109 Smoke 27 1010 47 5000 6.2 290 11:41 27.01.2020
110 Smoke 28 1010 47 5000 6.2 290 11:21 27.01.2020
111 Smoke 29 1011 45 5000 5.1 290 10:43 27.01.2020
112 Smoke 30 1011 30 5000 5.1 270 10:25 27.01.2020
113 Smoke 29 1011 42 4000 5.7 270 09:56 27.01.2020
114 Smoke 29 1012 48 4000 5.1 270 09:38 27.01.2020
115 Smoke 29 1012 48 4000 5.1 270 09:18 27.01.2020
116 Smoke 29 1012 51 4000 5.1 260 08:42 27.01.2020
117 Smoke 28 1013 48 3000 4.6 290 08:20 27.01.2020
118 Smoke 28 1013 51 3000 5.1 270 07:54 27.01.2020
119 Smoke 28 1014 54 3000 4.1 300 07:34 27.01.2020
120 Smoke 28 1014 57 3000 3.6 280 06:53 27.01.2020
121 Smoke 28 1014 51 3000 1.5 320 06:25 27.01.2020
122 Haze 26 1014 65 2500 2.6 290 05:24 27.01.2020
123 Haze 24 1012 69 1900 1.5 0 03:49 27.01.2020
124 Haze 24 1011 78 2100 2.6 360 02:42 27.01.2020
125 Mist 24 1011 78 2000 1.5 320 01:29 27.01.2020
126 Mist 24 1010 83 2100 2.6 300 00:58 27.01.2020
127 Mist 24 1010 88 2000 1.5 310 00:37 27.01.2020
128 Mist 24 1010 88 2000 1.5 310 00:18 27.01.2020
129 Mist 24 1010 88 1800 2.1 280 23:41 26.01.2020
130 Mist 24 1010 88 1800 2.1 280 23:19 26.01.2020
131 Mist 24 1010 88 1700 2.1 230 22:55 26.01.2020
132 Haze 25 1011 83 1800 2.6 230 22:37 26.01.2020
133 Haze 25 1011 83 1800 2.6 230 22:18 26.01.2020
134 Haze 25 1011 83 1700 1.5 210 21:56 26.01.2020
135 Haze 25 1011 83 1700 1.39 126 21:38 26.01.2020
136 Haze 25 1011 83 1700 1.39 126 21:19 26.01.2020
137 Haze 25 1011 83 1700 1.5 180 20:55 26.01.2020
138 Haze 25 1011 83 1800 2.1 200 20:37 26.01.2020
139 Haze 25 1011 83 1800 2.1 200 20:18 26.01.2020
140 Haze 26 1012 78 1800 2.6 210 19:56 26.01.2020
141 Haze 27 1012 69 1800 2.6 230 19:37 26.01.2020
142 Haze 27 1012 69 1800 2.6 230 19:37 26.01.2020
143 Haze 27 1012 69 1800 2.6 230 19:18 26.01.2020
144 Haze 25 1012 78 2500 3.1 220 18:41 26.01.2020
145 Haze 25 1012 78 2500 3.1 220 18:22 26.01.2020
146 Haze 26 1012 69 2500 3.1 210 17:58 26.01.2020
147 Haze 26 1012 69 2500 3.1 210 17:58 26.01.2020
148 Haze 27 1011 57 2500 1.59 134 17:39 26.01.2020
149 Haze 27 1011 57 2500 0.56 325 17:20 26.01.2020
150 Haze 27 1011 57 2500 0.56 325 16:58 26.01.2020
151 Haze 27 1011 57 2500 0.56 325 16:58 26.01.2020
152 Smoke 27 1011 57 3000 1.5 0 16:39 26.01.2020
153 Smoke 27 1011 57 3000 1.5 0 16:39 26.01.2020
154 Smoke 27 1011 57 3000 1.5 0 16:39 26.01.2020
155 Smoke 27 1011 57 3000 1.5 0 16:20 26.01.2020
156 Clear 25 1012 58 0 0.56 325 15:58 26.01.2020
157 Clear 25 1012 58 0 0.56 325 15:39 26.01.2020
158 Clear 25 1012 58 0 0.56 325 15:18 26.01.2020
159 Clear 25 1012 58 0 0.56 325 14:40 26.01.2020
160 Clear 32 1007 40 0 3.07 290 14:21 26.01.2020
161 Clear 32 1006 41 0 3.07 290 13:55 26.01.2020
162 Clear 33 1006 41 0 3.07 290 13:37 26.01.2020
163 Clear 33 1006 41 0 3.07 290 13:37 26.01.2020
164 Clear 33 1006 41 0 2.93 286 13:18 26.01.2020
165 Clear 33 1006 41 0 2.93 286 13:18 26.01.2020
166 Clear 33 1006 40 0 2.93 286 12:42 26.01.2020
167 Clear 33 1006 39 0 2.93 286 12:23 26.01.2020
168 Clear 33 1006 38 0 2.93 286 11:57 26.01.2020
169 Clear 33 1006 38 0 2.93 286 11:39 26.01.2020
170 Smoke 31 1011 51 3000 4.6 270 11:19 26.01.2020
171 Smoke 31 1011 51 3000 4.6 270 10:58 26.01.2020
172 Smoke 30 1011 51 3000 4.6 270 10:38 26.01.2020
173 Smoke 30 1011 51 3000 4.6 270 10:20 26.01.2020
174 Smoke 31 1011 45 3000 4.6 270 09:57 26.01.2020
175 Smoke 30 1012 45 3000 4.1 260 09:39 26.01.2020
176 Smoke 30 1012 45 3000 4.1 260 09:39 26.01.2020
177 Smoke 31 1012 45 3000 4.1 260 09:21 26.01.2020
178 Smoke 31 1012 45 2800 4.6 270 08:43 26.01.2020
179 Smoke 31 1013 45 2500 4.1 250 08:22 26.01.2020
180 Smoke 31 1013 33 2500 2.6 200 07:57 26.01.2020
181 Smoke 30 1014 38 2200 1.5 150 07:39 26.01.2020
182 Smoke 30 1014 38 2200 1.5 150 07:21 26.01.2020
183 Smoke 29 1014 45 2000 2.1 360 06:31 26.01.2020
184 Smoke 28 1014 54 1600 1.93 292 05:32 26.01.2020
185 Haze 25 1013 61 1500 1.5 50 04:45 26.01.2020
186 Haze 23 1012 65 2200 2.1 210 02:54 26.01.2020
187 Haze 25 1011 65 3000 1.71 37 01:49 26.01.2020
188 Haze 25 1011 61 3000 1.71 37 01:25 26.01.2020
189 Smoke 25 1011 61 3000 1.5 0 00:48 26.01.2020
190 Smoke 26 1011 54 3000 1.33 46 00:29 26.01.2020
191 Clear 23 1012 43 0 1.33 46 23:41 25.01.2020
192 Clear 23 1012 43 0 1.33 46 23:22 25.01.2020
193 Clear 24 1012 46 0 1.61 56 22:59 25.01.2020
194 Clear 24 1012 46 0 1.61 56 22:40 25.01.2020
195 Clear 24 1012 46 0 1.61 56 22:19 25.01.2020
196 Clear 24 1012 46 0 1.61 56 21:57 25.01.2020
197 Clear 24 1012 46 0 1.61 56 21:38 25.01.2020
198 Clear 24 1012 46 0 1.61 56 21:20 25.01.2020
199 Clear 24 1012 46 0 1.61 56 20:44 25.01.2020
200 Clear 24 1012 46 0 1.61 56 20:44 25.01.2020
201 Clear 24 1012 46 0 1.61 56 20:25 25.01.2020
202 Clouds 25 1014 49 0 1.52 50 19:55 25.01.2020
203 Clouds 25 1014 49 0 1.52 50 19:37 25.01.2020
204 Clouds 25 1014 51 0 1.21 56 19:18 25.01.2020
205 Clouds 25 1014 49 0 1.52 50 18:42 25.01.2020
206 Clouds 25 1014 51 0 1.21 56 18:22 25.01.2020
207 Clouds 25 1014 49 0 1.52 50 17:58 25.01.2020
208 Clouds 25 1014 49 0 1.52 50 17:38 25.01.2020
209 Clear 26 1013 46 0 1.7 18 17:19 25.01.2020
210 Clear 26 1013 46 0 1.7 18 16:43 25.01.2020
211 Clear 26 1013 46 0 1.7 18 16:23 25.01.2020
212 Clear 26 1013 46 0 1.7 18 15:58 25.01.2020
213 Clear 26 1013 46 0 1.7 18 15:58 25.01.2020
214 Clear 26 1013 46 0 1.7 18 15:39 25.01.2020
215 Clear 26 1013 46 0 1.7 18 15:21 25.01.2020
216 Clear 26 1013 46 0 1.7 18 14:43 25.01.2020
217 Clouds 33 1008 43 0 7.83 316 14:19 25.01.2020
218 Clouds 33 1008 43 0 7.83 316 13:54 25.01.2020
219 Clouds 33 1008 43 0 7.83 316 13:36 25.01.2020
220 Clouds 33 1008 44 0 7.47 316 13:18 25.01.2020
221 Clouds 33 1008 44 0 7.47 316 13:18 25.01.2020
222 Smoke 31 1011 48 3000 5.7 300 12:41 25.01.2020
223 Smoke 31 1011 48 3000 5.7 300 12:20 25.01.2020
224 Smoke 32 1011 43 3000 4.1 300 11:40 25.01.2020
225 Smoke 32 1011 43 3000 4.1 300 11:20 25.01.2020
226 Smoke 32 1012 46 3000 4.1 310 10:56 25.01.2020
227 Smoke 31 1011 43 3000 5.7 300 10:38 25.01.2020
228 Smoke 31 1011 43 3000 5.7 300 10:38 25.01.2020
229 Smoke 31 1011 43 3000 5.7 300 10:18 25.01.2020
230 Smoke 32 1012 36 3500 2.6 280 09:40 25.01.2020
231 Smoke 32 1012 36 3500 2.6 280 09:20 25.01.2020
232 Smoke 32 1013 36 3500 2.1 130 08:43 25.01.2020
233 Smoke 32 1014 40 2500 1.5 0 08:00 25.01.2020
234 Smoke 31 1015 40 2500 2.6 60 07:40 25.01.2020
235 Smoke 31 1015 43 2500 2.1 70 06:44 25.01.2020
236 Smoke 30 1016 45 2500 2.6 60 06:24 25.01.2020
237 Smoke 28 1015 48 2500 3.1 40 05:44 25.01.2020
238 Smoke 26 1015 57 2000 2.6 40 04:24 25.01.2020
239 Smoke 24 1014 61 2000 2.1 30 03:50 25.01.2020
240 Haze 25 1013 61 3000 2.1 100 02:38 25.01.2020
241 Haze 24 1013 69 3000 1.5 120 01:58 25.01.2020
242 Haze 24 1013 69 3000 1.5 80 01:23 25.01.2020
243 Haze 24 1013 69 3000 2.55 50 00:41 25.01.2020
244 Haze 24 1013 69 3000 2.55 50 00:41 25.01.2020
245 Haze 24 1013 69 3000 2.55 50 00:22 25.01.2020
246 Haze 25 1013 65 3500 2.55 50 23:42 24.01.2020
247 Haze 25 1013 65 3500 2.55 50 23:24 24.01.2020
248 Smoke 26 1013 65 3500 1.5 320 22:47 24.01.2020
249 Smoke 26 1014 65 3500 2.18 57 22:29 24.01.2020
250 Smoke 26 1014 65 3500 2.18 57 21:59 24.01.2020
251 Smoke 27 1014 61 3500 2.6 210 21:41 24.01.2020
252 Smoke 27 1014 61 3500 2.6 210 21:19 24.01.2020
253 Smoke 26 1014 65 3500 1.5 280 20:44 24.01.2020
254 Smoke 28 1014 51 3500 2.41 45 20:23 24.01.2020
255 Smoke 28 1014 54 3500 2.96 41 19:59 24.01.2020
256 Smoke 28 1014 51 3500 2.96 41 19:41 24.01.2020
257 Smoke 28 1014 51 3500 2.96 41 19:22 24.01.2020
258 Smoke 28 1014 51 3500 2.6 70 18:57 24.01.2020
259 Smoke 29 1014 51 3500 2.6 30 18:39 24.01.2020
260 Smoke 29 1014 51 3500 2.6 30 18:21 24.01.2020
261 Smoke 29 1014 51 3500 2.6 30 18:21 24.01.2020
262 Smoke 29 1014 51 3500 3.6 50 17:42 24.01.2020
263 Smoke 29 1014 51 3500 3.6 50 17:21 24.01.2020
264 Smoke 29 1014 51 3500 3.1 20 16:57 24.01.2020
265 Smoke 29 1014 51 3500 3.1 20 16:57 24.01.2020
266 Smoke 29 1013 48 3500 2.6 360 16:38 24.01.2020
267 Smoke 29 1013 48 3500 2.6 360 16:18 24.01.2020
268 Smoke 30 1013 48 4000 3.6 340 15:41 24.01.2020
269 Smoke 30 1013 48 4000 3.6 340 15:21 24.01.2020
270 Smoke 29 1012 45 4000 3.1 340 14:42 24.01.2020
271 Smoke 29 1012 45 4500 3.1 320 14:24 24.01.2020
272 Smoke 30 1012 40 5000 3.6 310 13:59 24.01.2020
273 Smoke 31 1011 40 5000 3.6 310 13:40 24.01.2020
274 Smoke 31 1011 40 5000 3.6 310 13:21 24.01.2020
275 Smoke 31 1011 43 4500 4.1 330 12:42 24.01.2020
276 Smoke 31 1011 45 4500 4.6 310 12:20 24.01.2020
277 Smoke 32 1011 41 4000 5.7 310 11:44 24.01.2020
278 Smoke 32 1011 41 4000 5.7 310 11:19 24.01.2020
279 Smoke 33 1011 41 4000 4.6 300 10:56 24.01.2020
280 Smoke 33 1012 41 4000 4.6 300 10:38 24.01.2020
281 Smoke 32 1012 41 4000 4.6 300 10:18 24.01.2020
282 Smoke 32 1013 41 3000 4.1 290 09:41 24.01.2020
283 Smoke 32 1013 41 3000 4.1 290 09:23 24.01.2020
284 Smoke 32 1014 33 3000 1.5 110 08:41 24.01.2020
285 Smoke 32 1014 33 3000 1.5 110 08:21 24.01.2020
286 Smoke 32 1015 38 2500 2.1 360 07:58 24.01.2020
287 Smoke 31 1015 40 2500 1.5 80 07:37 24.01.2020
288 Smoke 30 1015 42 2500 2.6 50 06:53 24.01.2020
289 Smoke 30 1016 45 2500 2.1 20 06:33 24.01.2020
290 Smoke 29 1016 51 2500 3.6 20 05:59 24.01.2020
291 Smoke 28 1015 51 2500 2.1 30 05:18 24.01.2020
292 Smoke 24 1013 57 2500 2.1 70 02:54 24.01.2020
293 Haze 26 1013 57 3000 2.1 80 02:27 24.01.2020
294 Haze 26 1012 57 3000 1.5 80 01:56 24.01.2020
295 Haze 25 1012 61 3000 1.5 30 01:35 24.01.2020
296 Haze 26 1012 57 3000 2.1 70 00:33 24.01.2020
297 Haze 26 1013 57 3000 1.5 30 23:58 23.01.2020
298 Haze 26 1013 57 3000 2.6 40 23:40 23.01.2020
299 Haze 26 1013 57 3000 2.6 40 23:20 23.01.2020
300 Haze 26 1013 61 3000 2.29 72 22:55 23.01.2020
301 Smoke 27 1013 54 3000 1.5 70 22:36 23.01.2020
302 Smoke 27 1013 54 3000 1.5 70 22:18 23.01.2020
303 Smoke 27 1013 57 3000 2.1 160 21:54 23.01.2020
304 Smoke 27 1014 57 3000 2.6 180 21:36 23.01.2020
305 Smoke 27 1014 57 3000 2.6 180 21:18 23.01.2020
306 Smoke 28 1014 51 3000 1.5 0 20:40 23.01.2020
307 Smoke 28 1014 51 3000 1.5 0 20:22 23.01.2020
308 Smoke 28 1014 51 3000 2.6 40 19:57 23.01.2020
309 Smoke 28 1015 51 3000 2.6 30 19:38 23.01.2020
310 Smoke 28 1015 51 3000 2.6 30 19:38 23.01.2020
311 Smoke 28 1015 51 3000 2.6 30 19:20 23.01.2020
312 Smoke 28 1015 51 3000 2.6 10 18:56 23.01.2020
313 Smoke 28 1014 54 3000 2.6 360 18:37 23.01.2020
314 Smoke 28 1014 54 3000 2.6 360 18:19 23.01.2020
315 Smoke 28 1014 54 3000 4.6 10 17:43 23.01.2020
316 Smoke 28 1014 54 3000 4.6 10 17:20 23.01.2020
317 Smoke 29 1014 51 3000 3.1 30 16:58 23.01.2020
318 Smoke 29 1013 51 3000 2.6 10 16:38 23.01.2020
319 Smoke 29 1013 51 3000 2.6 10 16:19 23.01.2020
320 Smoke 29 1013 51 3000 3.1 340 15:57 23.01.2020
321 Smoke 29 1013 54 3000 3.6 340 15:38 23.01.2020
322 Smoke 29 1012 51 3000 2.6 330 15:18 23.01.2020
323 Smoke 29 1013 54 3000 3.6 340 15:18 23.01.2020
324 Smoke 29 1012 51 3000 2.6 330 14:56 23.01.2020
325 Smoke 29 1012 51 3000 2.6 330 14:56 23.01.2020
326 Smoke 29 1012 51 3500 3.1 310 14:38 23.01.2020
327 Smoke 30 1012 51 3500 3.1 310 14:20 23.01.2020
328 Smoke 31 1012 43 3500 4.1 320 13:45 23.01.2020
329 Smoke 31 1012 43 3500 4.1 320 13:21 23.01.2020
330 Smoke 31 1012 45 3500 4.6 310 12:55 23.01.2020
331 Smoke 31 1012 48 3500 5.1 330 12:36 23.01.2020
332 Smoke 31 1012 48 3500 5.1 330 12:18 23.01.2020
333 Smoke 31 1012 45 3500 3.6 300 11:43 23.01.2020
334 Smoke 32 1012 43 3500 5.7 270 11:24 23.01.2020
335 Smoke 32 1012 40 3500 5.1 300 10:58 23.01.2020
336 Smoke 32 1012 43 3500 4.6 270 10:40 23.01.2020
337 Smoke 32 1012 43 3500 4.6 270 10:18 23.01.2020
338 Smoke 33 1013 34 4000 4.1 130 09:41 23.01.2020
339 Smoke 33 1013 34 4000 4.1 130 09:41 23.01.2020
340 Smoke 33 1013 34 4000 4.1 130 09:21 23.01.2020
341 Smoke 33 1014 36 4000 4.1 90 08:56 23.01.2020
342 Smoke 33 1015 36 4000 3.6 80 08:37 23.01.2020
343 Smoke 32 1015 36 4000 3.6 80 08:18 23.01.2020
344 Smoke 32 1016 38 3000 3.6 60 07:37 23.01.2020
345 Smoke 32 1016 38 3000 3.6 60 07:18 23.01.2020
346 Smoke 30 1016 42 2500 3.6 70 06:44 23.01.2020
347 Smoke 29 1016 45 2500 4.1 90 06:18 23.01.2020
348 Smoke 25 1015 54 2200 3.1 70 04:25 23.01.2020
349 Smoke 22 1014 60 2500 1.5 70 03:23 23.01.2020
350 Smoke 23 1013 64 3000 3.16 54 01:53 23.01.2020
351 Smoke 24 1013 60 3000 1.5 0 00:44 23.01.2020
352 Smoke 24 1013 60 3000 2.85 49 00:24 23.01.2020
353 Smoke 24 1013 60 3000 2.85 49 23:46 22.01.2020
354 Smoke 25 1013 61 3000 2.85 49 23:28 22.01.2020
355 Smoke 25 1013 61 3500 1.5 50 22:43 22.01.2020
356 Smoke 25 1014 61 3500 1.5 130 22:25 22.01.2020
357 Smoke 25 1014 61 3500 2.1 350 21:59 22.01.2020
358 Smoke 25 1014 61 3500 2.6 180 21:38 22.01.2020
359 Smoke 25 1014 61 3500 2.6 180 21:19 22.01.2020
360 Smoke 26 1015 57 3500 2.1 170 20:42 22.01.2020
361 Smoke 26 1015 57 3500 2.1 170 20:42 22.01.2020
362 Smoke 26 1015 57 3500 2.1 170 20:23 22.01.2020
363 Smoke 27 1015 54 3500 2.1 180 19:59 22.01.2020
364 Smoke 27 1015 54 3500 1.5 180 19:41 22.01.2020
365 Smoke 27 1015 54 3500 1.5 180 19:21 22.01.2020
366 Smoke 26 1015 57 3500 2.52 51 18:59 22.01.2020
367 Smoke 27 1016 54 3500 3.1 40 18:40 22.01.2020
368 Smoke 27 1016 54 3500 3.1 40 18:21 22.01.2020
369 Smoke 27 1016 54 3500 2.6 20 17:59 22.01.2020
370 Smoke 27 1015 57 3500 2.1 30 17:39 22.01.2020
371 Smoke 27 1015 57 3500 2.1 30 17:20 22.01.2020
372 Smoke 27 1015 57 3500 2.1 30 17:20 22.01.2020
373 Smoke 27 1015 54 3500 2.1 350 16:56 22.01.2020
374 Smoke 28 1015 51 3500 3.1 340 16:37 22.01.2020
375 Smoke 28 1015 51 3500 3.1 340 16:18 22.01.2020
376 Smoke 28 1014 54 3500 3.1 340 15:43 22.01.2020
377 Smoke 28 1014 51 3500 3.6 340 15:24 22.01.2020
378 Smoke 27 1014 51 3500 2.1 320 14:59 22.01.2020
379 Smoke 27 1013 54 3500 3.6 320 14:38 22.01.2020
380 Smoke 29 1013 54 3500 3.6 320 14:20 22.01.2020
381 Smoke 28 1013 51 4000 3.1 330 13:57 22.01.2020
382 Smoke 29 1013 51 4000 4.6 310 13:37 22.01.2020
383 Smoke 29 1013 51 4000 4.6 310 13:19 22.01.2020
384 Smoke 30 1013 51 3500 4.1 310 12:57 22.01.2020
385 Smoke 30 1013 45 3500 4.1 310 12:38 22.01.2020
386 Smoke 31 1013 45 3500 4.1 310 12:19 22.01.2020
387 Smoke 31 1013 48 3500 3.6 320 11:56 22.01.2020
388 Smoke 31 1013 45 3500 3.1 300 11:38 22.01.2020
389 Smoke 31 1013 45 3500 3.1 300 11:19 22.01.2020
390 Smoke 30 1014 48 3500 4.6 280 10:45 22.01.2020
391 Smoke 30 1014 48 3500 4.6 280 10:21 22.01.2020
392 Smoke 31 1014 36 3500 3.1 270 09:58 22.01.2020
393 Smoke 31 1015 38 3000 1.5 20 09:40 22.01.2020
394 Smoke 31 1015 38 3000 1.5 20 09:21 22.01.2020
395 Smoke 31 1015 35 3000 2.1 100 08:55 22.01.2020
396 Smoke 31 1016 35 2500 3.6 70 08:36 22.01.2020
397 Smoke 31 1016 35 2500 3.6 70 08:18 22.01.2020
398 Smoke 30 1017 40 2500 2.6 70 07:42 22.01.2020
399 Smoke 30 1017 40 2500 2.6 70 07:23 22.01.2020
400 Smoke 29 1017 45 2500 2.6 60 06:34 22.01.2020
401 Smoke 28 1017 48 2300 2.6 70 05:45 22.01.2020
402 Smoke 23 1016 64 2500 2.51 43 04:25 22.01.2020
403 Haze 23 1015 60 2500 2.51 43 03:26 22.01.2020
404 Haze 24 1015 57 2500 1.5 100 02:42 22.01.2020
405 Haze 24 1014 60 3000 2.17 49 00:47 22.01.2020
406 Haze 24 1014 64 3000 2.17 49 00:27 22.01.2020
407 Haze 23 1014 64 3000 2.17 49 23:57 21.01.2020
408 Haze 25 1014 57 3000 2.17 49 23:37 21.01.2020
409 Haze 25 1014 57 3000 2.04 75 23:19 21.01.2020
410 Smoke 24 1014 60 3000 2.04 75 22:40 21.01.2020
411 Smoke 24 1014 60 3000 2.04 75 22:21 21.01.2020
412 Smoke 25 1014 53 3000 2.04 75 21:58 21.01.2020
413 Smoke 26 1015 50 3000 2.04 75 21:38 21.01.2020
414 Smoke 26 1015 50 3000 2.04 75 21:20 21.01.2020
415 Smoke 26 1015 47 3000 2.1 160 20:57 21.01.2020
416 Smoke 26 1015 47 4000 2.04 75 20:38 21.01.2020
417 Smoke 26 1015 47 4000 0.95 47 20:20 21.01.2020
418 Smoke 27 1015 44 4000 1.5 20 19:57 21.01.2020
419 Smoke 26 1015 47 4000 1.33 45 19:39 21.01.2020
420 Smoke 26 1015 47 4000 1.33 45 19:20 21.01.2020
421 Smoke 26 1015 47 4000 1.33 45 19:20 21.01.2020
422 Smoke 26 1015 47 4000 1.33 45 18:55 21.01.2020
423 Smoke 26 1016 47 4000 1.5 30 18:37 21.01.2020
424 Smoke 27 1016 44 4000 3.1 60 18:18 21.01.2020
425 Smoke 27 1016 44 4000 3.1 60 17:45 21.01.2020
426 Smoke 26 1016 47 4000 1.66 337 17:20 21.01.2020
427 Smoke 26 1015 47 4000 1.5 60 16:59 21.01.2020
428 Smoke 27 1015 42 4000 2.1 340 16:37 21.01.2020
429 Smoke 27 1015 42 4000 2.1 340 16:37 21.01.2020
430 Smoke 27 1015 42 4000 2.1 340 16:37 21.01.2020
431 Smoke 27 1015 42 4000 2.1 340 16:19 21.01.2020
432 Smoke 27 1015 42 4000 1.5 290 15:54 21.01.2020
433 Smoke 27 1014 42 4000 1.5 330 15:36 21.01.2020
434 Smoke 27 1014 42 4000 1.5 330 15:18 21.01.2020
435 Smoke 27 1013 51 3500 4.1 300 14:38 21.01.2020
436 Smoke 28 1013 51 3500 4.1 300 14:20 21.01.2020
437 Smoke 29 1013 54 3500 4.1 300 13:40 21.01.2020
438 Smoke 29 1013 54 3500 4.1 300 13:19 21.01.2020
439 Smoke 29 1013 54 3500 4.6 300 12:45 21.01.2020
440 Smoke 30 1012 45 3500 3.6 310 12:27 21.01.2020
441 Smoke 30 1012 54 3500 3.6 300 11:58 21.01.2020
442 Smoke 29 1012 51 3000 3.6 290 11:40 21.01.2020
443 Smoke 29 1012 51 3000 3.6 290 11:21 21.01.2020
444 Smoke 29 1012 51 3000 3.6 290 11:21 21.01.2020
445 Smoke 29 1013 54 3000 4.6 300 10:55 21.01.2020
446 Smoke 29 1013 58 3000 3.6 320 10:37 21.01.2020
447 Smoke 29 1013 58 3000 3.6 320 10:18 21.01.2020
448 Smoke 29 1014 54 3000 4.1 280 09:41 21.01.2020
449 Smoke 29 1014 54 3000 4.1 280 09:22 21.01.2020
450 Smoke 29 1014 45 3000 4.1 290 08:50 21.01.2020
451 Smoke 29 1015 45 3000 4.6 280 08:30 21.01.2020
452 Smoke 28 1015 47 2500 4.6 290 07:59 21.01.2020
453 Smoke 29 1015 54 2200 3.6 280 07:40 21.01.2020
454 Smoke 28 1015 54 2200 3.6 280 07:22 21.01.2020
455 Smoke 29 1016 45 2200 1.5 200 06:49 21.01.2020
456 Smoke 28 1016 48 1900 1.64 299 06:29 21.01.2020
457 Smoke 28 1016 48 1900 1.64 299 06:29 21.01.2020
458 Smoke 28 1016 48 1900 1.64 299 06:29 21.01.2020
459 Haze 27 1016 65 1500 2.1 150 05:42 21.01.2020
460 Haze 23 1015 73 1200 2.1 130 04:40 21.01.2020
461 Haze 23 1014 73 1800 1.41 85 02:57 21.01.2020
462 Haze 23 1013 78 2200 2.1 340 01:55 21.01.2020
463 Haze 23 1012 78 2200 0.77 95 01:18 21.01.2020
464 Haze 23 1012 78 2200 1.5 260 00:37 21.01.2020
465 Haze 23 1012 78 2200 0.77 95 23:59 20.01.2020
466 Haze 24 1012 73 2200 2.1 160 23:39 20.01.2020
467 Haze 24 1012 73 2200 2.1 160 23:39 20.01.2020
468 Haze 24 1012 73 2200 2.1 160 23:19 20.01.2020
469 Haze 24 1013 69 2200 3.6 120 22:56 20.01.2020
470 Haze 25 1013 61 2500 2.6 100 22:37 20.01.2020
471 Haze 25 1013 61 2500 2.6 100 22:19 20.01.2020
472 Haze 25 1013 61 2500 2.6 120 21:57 20.01.2020
473 Haze 26 1013 57 2500 2.6 70 21:37 20.01.2020
474 Haze 26 1013 57 2500 2.6 70 21:19 20.01.2020
475 Haze 26 1014 57 2500 1.5 160 20:56 20.01.2020
476 Haze 26 1014 57 2500 1.5 160 20:56 20.01.2020
477 Smoke 26 1014 57 2500 2.6 130 20:38 20.01.2020
478 Smoke 26 1014 57 2500 1.5 90 20:18 20.01.2020
479 Smoke 26 1014 57 2500 1.5 90 19:56 20.01.2020
480 Smoke 26 1014 57 2500 1.5 90 19:56 20.01.2020
481 Smoke 26 1014 57 2500 1.02 21 19:37 20.01.2020
482 Smoke 26 1014 57 2500 1.02 21 19:18 20.01.2020
483 Smoke 26 1015 57 2500 1.02 21 18:44 20.01.2020
484 Smoke 26 1015 57 2500 1.02 21 18:22 20.01.2020
485 Smoke 27 1014 54 3000 2.6 350 17:41 20.01.2020
486 Smoke 27 1014 54 3000 2.6 350 17:20 20.01.2020
487 Smoke 27 1014 54 3000 2.6 350 17:20 20.01.2020
488 Smoke 27 1014 54 3000 2.6 340 16:59 20.01.2020
489 Smoke 27 1014 57 3000 2.1 340 16:39 20.01.2020
490 Smoke 27 1014 57 3000 2.1 340 16:19 20.01.2020
491 Smoke 27 1014 57 3000 2.1 340 16:18 20.01.2020
492 Smoke 27 1014 57 3000 2.1 340 16:18 20.01.2020
493 Smoke 27 1014 57 3000 2.1 340 16:18 20.01.2020
494 Smoke 27 1014 57 3000 2.1 340 16:18 20.01.2020
495 Smoke 26 1013 61 3000 2.1 300 15:56 20.01.2020
496 Smoke 26 1013 61 3000 2.6 320 15:38 20.01.2020
497 Smoke 26 1013 61 3000 2.6 320 15:20 20.01.2020
498 Smoke 28 1012 54 3000 2.1 300 14:41 20.01.2020
499 Smoke 28 1012 54 3000 2.1 300 14:22 20.01.2020
500 Smoke 29 1012 51 2500 4.1 330 13:58 20.01.2020
501 Smoke 29 1011 51 2500 3.6 310 13:40 20.01.2020
502 Smoke 29 1011 51 2500 3.6 310 13:21 20.01.2020
503 Smoke 29 1011 51 3000 4.6 300 12:46 20.01.2020
504 Smoke 30 1011 45 3000 4.1 280 12:28 20.01.2020
505 Smoke 30 1011 45 3000 4.1 300 11:58 20.01.2020
506 Smoke 30 1011 45 3000 5.1 280 11:39 20.01.2020
507 Smoke 30 1011 48 3000 4.1 290 11:20 20.01.2020
508 Smoke 30 1011 48 3000 4.1 290 10:48 20.01.2020
509 Smoke 30 1012 48 3000 4.6 280 10:22 20.01.2020
510 Smoke 32 1012 43 3000 3.6 280 09:57 20.01.2020
511 Smoke 32 1012 36 3000 2.1 80 09:39 20.01.2020
512 Smoke 32 1012 36 3000 2.1 80 09:20 20.01.2020
513 Smoke 32 1013 38 2500 3.1 110 08:44 20.01.2020
514 Smoke 32 1014 43 2500 3.1 90 08:26 20.01.2020
515 Smoke 31 1014 42 2500 3.6 120 07:45 20.01.2020
516 Smoke 30 1015 45 2500 3.6 110 07:25 20.01.2020
517 Smoke 29 1015 45 2200 3.6 130 06:54 20.01.2020
518 Smoke 28 1015 48 2200 3.1 100 06:28 20.01.2020
519 Smoke 27 1015 51 2200 2.6 60 05:43 20.01.2020
520 Smoke 27 1015 54 2100 2.6 120 05:22 20.01.2020
521 Haze 25 1015 61 1800 2.1 90 04:47 20.01.2020
522 Haze 23 1013 64 3000 1 50 02:58 20.01.2020
523 Haze 23 1013 64 3000 1 50 02:58 20.01.2020
524 Haze 23 1012 64 5000 1.5 70 01:55 20.01.2020
525 Clear 23 1012 64 6000 1.5 170 01:37 20.01.2020
526 Clear 23 1012 69 6000 2.07 55 00:45 20.01.2020
527 Clear 23 1012 64 6000 2.07 55 00:24 20.01.2020
528 Haze 23 1012 69 4000 2.07 55 23:39 19.01.2020
529 Haze 23 1012 69 4000 1.84 91 23:20 19.01.2020
530 Haze 23 1012 69 3000 1 120 22:57 19.01.2020
531 Haze 24 1013 60 2800 1.84 91 22:39 19.01.2020
532 Haze 24 1013 60 2800 1.84 91 22:20 19.01.2020
533 Haze 24 1013 60 2500 1.84 91 21:57 19.01.2020
534 Haze 24 1013 69 2500 1.84 91 21:39 19.01.2020
535 Haze 24 1013 69 2500 1.84 91 21:20 19.01.2020
536 Smoke 25 1013 57 2500 1.84 91 20:57 19.01.2020
537 Smoke 25 1013 57 2500 2.1 180 20:39 19.01.2020
538 Smoke 25 1013 57 2500 2.1 180 20:21 19.01.2020
539 Smoke 25 1014 57 2500 1.62 55 19:57 19.01.2020
540 Smoke 25 1014 57 2500 1.62 55 19:39 19.01.2020
541 Smoke 25 1014 57 2500 1.62 55 19:21 19.01.2020
542 Smoke 25 1014 57 2500 1.62 55 18:59 19.01.2020
543 Smoke 26 1014 54 2500 2.1 10 18:41 19.01.2020
544 Smoke 26 1014 57 2500 2.6 50 18:21 19.01.2020
545 Smoke 26 1014 57 2500 2.6 50 17:59 19.01.2020
546 Smoke 26 1014 57 2500 2.1 340 17:40 19.01.2020
547 Smoke 26 1014 57 2500 2.1 340 17:21 19.01.2020
548 Smoke 26 1014 57 2500 2.1 340 16:59 19.01.2020
549 Smoke 26 1013 57 2500 2.1 330 16:40 19.01.2020
550 Smoke 26 1013 57 2500 2.1 330 16:40 19.01.2020
551 Smoke 26 1013 57 2500 2.1 330 16:22 19.01.2020
552 Smoke 27 1013 54 2500 2.1 300 15:59 19.01.2020
553 Smoke 27 1013 54 2500 2.1 300 15:40 19.01.2020
554 Smoke 27 1013 54 2500 2.1 300 15:21 19.01.2020
555 Smoke 27 1012 54 2500 2.1 310 14:59 19.01.2020
556 Smoke 27 1012 54 2500 2.6 330 14:39 19.01.2020
557 Smoke 28 1012 54 2500 2.6 330 14:19 19.01.2020
558 Smoke 28 1011 48 3000 3.1 310 13:58 19.01.2020
559 Smoke 28 1011 51 3000 3.6 310 13:38 19.01.2020
560 Smoke 28 1011 51 3000 3.6 310 13:20 19.01.2020
561 Smoke 29 1011 48 3000 3.6 300 12:56 19.01.2020
562 Smoke 30 1011 48 3000 3.1 290 12:37 19.01.2020
563 Smoke 30 1011 48 3000 3.1 290 12:37 19.01.2020
564 Smoke 30 1011 48 3000 3.1 290 12:19 19.01.2020
565 Smoke 29 1011 48 2500 5.1 270 11:43 19.01.2020
566 Smoke 30 1012 45 2500 4.6 290 11:21 19.01.2020
567 Smoke 30 1012 43 2500 3.6 280 10:57 19.01.2020
568 Smoke 30 1012 45 2500 5.1 260 10:39 19.01.2020
569 Smoke 30 1012 45 2500 5.1 260 10:19 19.01.2020
570 Smoke 30 1012 33 2500 1.5 320 09:56 19.01.2020
571 Smoke 30 1012 33 2500 1.5 320 09:56 19.01.2020
572 Smoke 30 1012 33 2500 1.5 320 09:56 19.01.2020
573 Smoke 30 1013 35 2500 2.6 350 09:37 19.01.2020
574 Smoke 30 1013 35 2500 2.6 350 09:19 19.01.2020
575 Smoke 30 1013 38 2500 2.1 10 08:54 19.01.2020
576 Smoke 29 1014 37 2500 3.1 80 08:30 19.01.2020
577 Smoke 28 1015 39 2500 3.1 20 07:46 19.01.2020
578 Smoke 29 1015 39 2500 2.1 50 07:27 19.01.2020
579 Smoke 27 1016 44 2200 3.1 30 06:54 19.01.2020
580 Smoke 26 1015 47 2200 4.6 40 06:21 19.01.2020
581 Haze 21 1014 68 1700 2.6 180 03:51 19.01.2020
582 Haze 22 1013 64 1800 2.6 70 02:28 19.01.2020
583 Haze 21 1012 73 1800 2.75 52 01:38 19.01.2020
584 Haze 21 1012 73 1800 2.77 53 01:18 19.01.2020
585 Haze 21 1012 73 1800 2.77 53 01:18 19.01.2020
586 Haze 21 1012 73 1800 1.5 300 00:41 19.01.2020
587 Haze 21 1012 73 1800 1.5 300 00:41 19.01.2020
588 Haze 21 1012 73 1800 1.5 300 00:19 19.01.2020
589 Haze 21 1012 73 2200 2.77 53 23:42 18.01.2020
590 Haze 21 1012 73 2200 2.77 53 23:24 18.01.2020
591 Haze 22 1012 68 2200 2.84 33 22:58 18.01.2020
592 Haze 22 1012 68 2200 2.84 33 22:40 18.01.2020
593 Haze 22 1012 68 2200 2.84 33 22:21 18.01.2020
594 Haze 22 1013 68 2200 2.84 33 21:58 18.01.2020
595 Haze 22 1013 73 2200 2.84 33 21:38 18.01.2020
596 Haze 22 1013 73 2200 2.84 33 21:20 18.01.2020
597 Haze 23 1013 64 2200 2.1 340 20:55 18.01.2020
598 Haze 23 1013 69 2200 1.5 40 20:36 18.01.2020
599 Haze 23 1013 69 2200 1.5 40 20:18 18.01.2020
600 Haze 23 1013 64 2200 3.35 32 19:42 18.01.2020
601 Haze 23 1013 64 2200 3.35 32 19:24 18.01.2020
602 Haze 24 1014 60 2200 1.5 340 18:43 18.01.2020
603 Haze 24 1014 60 2200 2.6 10 18:43 18.01.2020
604 Haze 24 1014 60 2200 2.6 10 18:24 18.01.2020
605 Haze 24 1014 60 2200 2.1 340 17:57 18.01.2020
606 Smoke 24 1013 60 2200 2.1 340 17:39 18.01.2020
607 Smoke 24 1013 60 2200 2.1 340 17:20 18.01.2020
608 Smoke 25 1013 53 3000 2.2 354 16:56 18.01.2020
609 Smoke 25 1013 53 3000 2.1 340 16:37 18.01.2020
610 Smoke 25 1013 53 3000 2.1 340 16:19 18.01.2020
611 Smoke 26 1013 47 3500 3.1 340 15:43 18.01.2020
612 Smoke 26 1013 47 3500 3.1 340 15:24 18.01.2020
613 Smoke 26 1012 44 3500 2.6 330 14:58 18.01.2020
614 Smoke 26 1012 44 4000 3.1 320 14:39 18.01.2020
615 Smoke 27 1012 44 4000 3.1 320 14:19 18.01.2020
616 Smoke 27 1011 44 4000 3.6 330 13:55 18.01.2020
617 Smoke 28 1011 42 4000 4.6 320 13:36 18.01.2020
618 Smoke 28 1011 42 4000 4.6 320 13:18 18.01.2020
619 Smoke 28 1011 45 4000 3.6 310 12:40 18.01.2020
620 Smoke 28 1011 45 4000 3.6 310 12:21 18.01.2020
621 Smoke 29 1011 39 3500 4.1 300 11:44 18.01.2020
622 Smoke 29 1011 39 3500 4.1 300 11:24 18.01.2020
623 Smoke 29 1011 37 3000 4.1 310 10:58 18.01.2020
624 Smoke 29 1012 42 3000 4.1 280 10:39 18.01.2020
625 Smoke 29 1012 42 3000 4.1 280 10:20 18.01.2020
626 Smoke 29 1012 42 3000 3.1 270 09:49 18.01.2020
627 Smoke 28 1012 37 3000 3.6 260 09:31 18.01.2020
628 Smoke 28 1013 32 3000 1.5 60 08:58 18.01.2020
629 Smoke 28 1014 32 3000 2.1 20 08:39 18.01.2020
630 Smoke 28 1014 32 3000 2.1 20 08:19 18.01.2020
631 Smoke 27 1014 34 2500 3.1 80 07:52 18.01.2020
632 Smoke 26 1014 34 2500 2.1 20 07:32 18.01.2020
633 Smoke 25 1015 36 2500 1.5 80 06:48 18.01.2020
634 Smoke 24 1015 38 2500 3.1 80 06:18 18.01.2020
635 Smoke 22 1015 43 2200 2.6 60 05:25 18.01.2020
636 Haze 18 1013 59 2200 2.1 120 03:25 18.01.2020
637 Haze 18 1013 63 2500 1.5 100 01:59 18.01.2020
638 Haze 19 1012 59 2500 1.5 140 01:35 18.01.2020
639 Haze 19 1012 59 2500 1.5 50 00:38 18.01.2020
640 Haze 19 1012 59 2500 1.5 20 00:19 18.01.2020
641 Haze 19 1012 59 2500 1.5 20 23:44 17.01.2020
642 Haze 19 1013 63 2500 1.5 20 23:20 17.01.2020
643 Haze 19 1013 63 2500 2.1 10 22:59 17.01.2020
644 Haze 19 1014 63 2500 2.1 40 22:40 17.01.2020
645 Haze 19 1014 63 2500 2.1 40 22:19 17.01.2020
646 Haze 20 1014 60 2500 2.1 40 21:42 17.01.2020
647 Haze 20 1014 60 2500 2.6 50 21:24 17.01.2020
648 Smoke 20 1014 60 2500 3.6 40 20:59 17.01.2020
649 Haze 20 1014 60 2500 3.1 20 20:40 17.01.2020
650 Haze 20 1014 60 2500 3.1 20 20:20 17.01.2020
651 Haze 20 1014 60 2500 2.6 340 19:57 17.01.2020
652 Haze 20 1015 60 2200 2.6 350 19:38 17.01.2020
653 Haze 20 1015 60 2200 2.6 350 19:19 17.01.2020
654 Haze 20 1015 60 2500 3.1 340 18:57 17.01.2020
655 Smoke 20 1015 60 2500 2.6 350 18:37 17.01.2020
656 Smoke 20 1015 60 2500 2.6 350 18:19 17.01.2020
657 Smoke 21 1015 56 2500 3.6 30 17:39 17.01.2020
658 Smoke 21 1015 56 2500 3.6 30 17:21 17.01.2020
659 Smoke 21 1014 56 3000 2.6 10 16:44 17.01.2020
660 Smoke 22 1014 53 3000 4.1 10 16:21 17.01.2020
661 Haze 21 1014 56 2500 4.6 340 15:58 17.01.2020
662 Haze 21 1014 56 2500 4.6 340 15:58 17.01.2020
663 Haze 21 1014 64 2500 4.1 340 15:40 17.01.2020
664 Haze 21 1014 64 2500 4.1 340 15:22 17.01.2020
665 Haze 22 1013 60 2500 3.6 310 14:43 17.01.2020
666 Smoke 22 1013 60 2500 4.1 320 14:25 17.01.2020
667 Smoke 23 1013 56 3000 3.6 310 13:46 17.01.2020
668 Smoke 23 1013 56 3000 5.7 330 13:23 17.01.2020
669 Smoke 24 1013 53 3500 5.1 320 12:56 17.01.2020
670 Smoke 24 1013 53 3500 6.7 310 12:37 17.01.2020
671 Smoke 24 1013 53 3500 6.7 310 12:18 17.01.2020
672 Smoke 25 1013 49 3500 5.7 310 11:38 17.01.2020
673 Smoke 24 1013 49 3500 5.7 310 11:18 17.01.2020
674 Smoke 25 1014 44 4000 6.2 320 10:42 17.01.2020
675 Smoke 25 1014 44 4000 6.2 320 10:22 17.01.2020
676 Smoke 25 1014 41 4000 6.2 310 09:58 17.01.2020
677 Smoke 26 1015 38 4000 5.7 310 09:38 17.01.2020
678 Smoke 25 1015 38 4000 5.7 310 09:19 17.01.2020
679 Smoke 25 1015 33 4000 6.2 290 08:43 17.01.2020
680 Smoke 25 1016 31 4000 2.1 340 08:24 17.01.2020
681 Smoke 24 1016 33 4000 2.1 310 07:53 17.01.2020
682 Smoke 23 1017 33 4000 2.6 10 07:31 17.01.2020
683 Smoke 23 1017 35 3500 3.6 320 06:57 17.01.2020
684 Smoke 22 1018 37 3500 3.6 360 06:38 17.01.2020
685 Smoke 21 1017 42 3000 2.1 10 05:38 17.01.2020
686 Clear 16 1016 48 0 3.42 38 03:39 17.01.2020
687 Clear 16 1016 48 0 3.42 38 02:52 17.01.2020
688 Clear 16 1014 53 0 3.25 38 01:47 17.01.2020
689 Clear 16 1014 53 0 3.25 38 01:29 17.01.2020
690 Clear 16 1013 51 0 4.07 27 00:50 17.01.2020
691 Clear 18 1014 52 6000 4.07 27 00:26 17.01.2020
692 Clear 18 1014 52 6000 4.07 27 23:44 16.01.2020
693 Clear 18 1014 52 6000 4.07 27 23:26 16.01.2020
694 Clear 18 1014 48 6000 2.1 10 22:57 16.01.2020
695 Clear 19 1014 48 6000 2.6 10 22:39 16.01.2020
696 Clear 19 1014 48 6000 2.6 10 22:20 16.01.2020
697 Clear 19 1014 45 6000 2.6 40 21:55 16.01.2020
698 Clear 19 1014 52 6000 1 70 21:36 16.01.2020
699 Clear 19 1014 52 6000 1 70 21:18 16.01.2020
700 Clear 20 1015 49 6000 2.6 110 20:41 16.01.2020
701 Clear 20 1015 49 6000 2.6 110 20:21 16.01.2020
702 Clear 20 1015 37 6000 3.1 60 19:59 16.01.2020
703 Clear 20 1015 42 6000 3.1 20 19:41 16.01.2020
704 Clear 20 1015 42 6000 3.1 20 19:22 16.01.2020
705 -273 0 0 0 0 0 19:22 16.01.2020
706 Clear 20 1015 42 6000 3.1 20 19:22 16.01.2020
707 Clear 20 1015 49 6000 2.6 10 18:57 16.01.2020
708 Clear 20 1015 52 6000 2.6 20 18:38 16.01.2020
709 Clear 20 1015 52 6000 2.6 20 18:20 16.01.2020
710 Clear 21 1015 46 6000 2.6 10 17:58 16.01.2020
711 Clear 20 1015 52 6000 2.1 0 17:39 16.01.2020
712 Clear 20 1015 52 6000 2.1 0 17:20 16.01.2020
713 Clear 21 1015 52 6000 4.1 330 16:42 16.01.2020
714 Clear 21 1015 52 6000 4.1 330 16:24 16.01.2020
715 Clear 21 1014 56 6000 4.1 330 15:59 16.01.2020
716 Clear 21 1014 56 6000 4.6 320 15:39 16.01.2020
717 Clear 21 1014 56 6000 4.6 320 15:20 16.01.2020
718 Clear 21 1014 56 6000 4.1 310 14:45 16.01.2020
719 Clear 23 1013 49 6000 4.1 320 14:24 16.01.2020
720 Clear 23 1013 46 6000 6.2 320 13:56 16.01.2020
721 Clear 24 1013 49 6000 6.2 320 13:37 16.01.2020
722 Clear 24 1013 49 6000 6.2 320 13:19 16.01.2020
723 Clouds 24 1013 47 6000 4.6 310 12:42 16.01.2020
724 Clouds 24 1013 47 6000 4.6 310 12:22 16.01.2020
725 Clouds 24 1013 47 6000 5.1 330 11:43 16.01.2020
726 Clouds 25 1013 47 6000 4.6 340 11:25 16.01.2020
727 Clouds 25 1013 44 6000 5.7 310 10:59 16.01.2020
728 Smoke 25 1013 41 4000 7.2 290 10:38 16.01.2020
729 Smoke 25 1013 41 4000 7.2 290 10:20 16.01.2020
730 Smoke 25 1014 41 4000 5.7 320 09:56 16.01.2020
731 Smoke 25 1014 44 4000 5.7 300 09:37 16.01.2020
732 Smoke 25 1014 44 4000 5.7 300 09:19 16.01.2020
733 Smoke 25 1015 44 4000 6.7 290 08:49 16.01.2020
734 Smoke 25 1015 44 4000 4.6 340 08:29 16.01.2020
735 Smoke 24 1016 46 4000 4.6 320 07:57 16.01.2020
736 Smoke 24 1016 53 3000 2.1 330 07:37 16.01.2020
737 Smoke 23 1016 53 3000 2.1 330 07:18 16.01.2020
738 Smoke 23 1017 53 3000 1.5 20 06:42 16.01.2020
739 Smoke 23 1017 60 3000 2.1 30 05:58 16.01.2020
740 Haze 22 1016 64 2500 3.1 40 05:40 16.01.2020
741 Haze 21 1015 60 2200 2.6 60 04:37 16.01.2020
742 Haze 21 1015 60 2200 2.6 60 04:37 16.01.2020
743 Haze 20 1014 68 2500 2.6 110 03:28 16.01.2020
744 Haze 20 1014 68 2500 2.6 100 02:42 16.01.2020
745 Haze 20 1013 68 3000 3.1 120 00:53 16.01.2020
746 Haze 21 1013 64 3000 1.5 100 00:24 16.01.2020
747 Haze 20 1013 68 3000 1.5 30 23:50 15.01.2020
748 Haze 20 1013 68 3000 2.1 90 23:23 15.01.2020
749 Haze 20 1013 68 3000 1.5 70 22:58 15.01.2020
750 Haze 21 1014 64 3000 2.1 50 22:40 15.01.2020
751 Haze 21 1014 64 3000 2.1 50 22:19 15.01.2020
752 Haze 21 1014 64 3000 1.5 70 21:58 15.01.2020
753 Haze 21 1014 64 3000 2.1 60 21:40 15.01.2020
754 Haze 21 1014 64 3000 2.1 60 21:21 15.01.2020
755 Haze 21 1014 64 3000 2.1 20 20:58 15.01.2020
756 Haze 21 1014 64 3000 2.1 20 20:58 15.01.2020
757 Smoke 22 1014 60 3000 4.1 50 20:40 15.01.2020
758 Smoke 22 1014 60 3000 4.1 50 20:21 15.01.2020
759 Smoke 22 1014 60 3000 2.1 350 19:55 15.01.2020
760 Smoke 22 1015 60 3000 3.1 310 19:37 15.01.2020
761 Smoke 22 1015 60 3000 3.1 310 19:19 15.01.2020
762 Smoke 22 1015 60 3000 1.5 260 18:57 15.01.2020
763 Smoke 22 1015 60 3000 2.6 310 18:38 15.01.2020
764 Smoke 22 1015 60 3000 2.6 310 18:20 15.01.2020
765 Smoke 22 1015 60 3000 2.6 310 18:20 15.01.2020
766 Smoke 22 1015 60 3000 2.6 310 18:20 15.01.2020
767 Smoke 23 1015 56 3000 4.1 300 17:58 15.01.2020
768 Smoke 23 1015 56 3000 3.1 310 17:40 15.01.2020
769 Smoke 23 1015 56 3000 3.1 310 17:21 15.01.2020
770 Smoke 24 1014 53 3000 3.6 360 16:42 15.01.2020
771 Smoke 24 1014 53 3000 3.6 360 16:24 15.01.2020
772 Smoke 23 1014 53 3000 4.1 310 15:59 15.01.2020
773 Smoke 24 1014 50 3000 6.2 300 15:41 15.01.2020
774 Smoke 24 1014 50 3000 6.2 300 15:20 15.01.2020
775 Smoke 24 1013 53 4000 4.6 310 14:45 15.01.2020
776 Smoke 25 1013 57 4000 4.6 320 14:21 15.01.2020
777 -273 0 0 0 0 0 13:58 15.01.2020
778 Smoke 26 1012 53 5000 6.2 300 13:40 15.01.2020
779 Smoke 25 1012 53 5000 6.2 300 13:22 15.01.2020
780 Smoke 26 1012 47 5000 5.1 340 12:55 15.01.2020
781 Smoke 26 1011 44 5000 3.6 300 12:36 15.01.2020
782 Smoke 26 1011 44 5000 3.6 300 12:18 15.01.2020
783 Smoke 27 1011 44 4000 5.1 280 11:38 15.01.2020
784 Smoke 27 1011 44 4000 5.1 280 11:20 15.01.2020
785 Smoke 27 1011 44 4000 2.1 270 10:48 15.01.2020
786 Smoke 27 1012 44 4000 2.1 270 10:29 15.01.2020
787 Smoke 28 1013 42 4000 1.5 0 09:59 15.01.2020
788 Smoke 28 1013 42 4000 2.1 0 09:41 15.01.2020
789 Smoke 28 1013 42 4000 2.1 0 09:21 15.01.2020
790 Smoke 28 1013 42 4000 2.6 0 08:44 15.01.2020
791 Smoke 28 1013 42 4000 2.6 0 08:44 15.01.2020
792 Smoke 27 1013 42 3500 2.6 0 08:26 15.01.2020
793 Smoke 26 1014 41 3500 2.6 350 07:54 15.01.2020
794 Smoke 26 1014 41 3500 2.6 0 07:33 15.01.2020
795 Smoke 26 1014 41 3500 2.6 320 06:54 15.01.2020
796 Smoke 25 1015 47 3000 1.5 230 06:32 15.01.2020
797 Smoke 23 1015 49 3000 2.1 290 05:32 15.01.2020
798 Smoke 20 1013 52 3000 2.1 10 03:20 15.01.2020
799 Smoke 22 1012 53 3000 3.1 340 01:48 15.01.2020
800 Smoke 22 1011 56 3000 2.6 240 01:22 15.01.2020
801 Smoke 22 1011 56 3000 2.1 200 00:37 15.01.2020
802 Smoke 22 1011 56 3000 2.1 200 00:19 15.01.2020
803 Smoke 21 1011 64 3000 2.33 22 23:46 14.01.2020
804 Smoke 22 1012 60 3000 2.33 22 23:28 14.01.2020
805 Smoke 22 1012 60 3000 3.2 16 22:57 14.01.2020
806 Smoke 23 1012 53 3000 2.1 230 22:39 14.01.2020
807 Smoke 23 1012 53 3000 2.1 230 22:18 14.01.2020
808 Smoke 23 1012 53 3000 2.1 160 21:57 14.01.2020
809 Smoke 23 1012 53 3000 1.5 0 21:39 14.01.2020
810 Smoke 23 1012 53 3000 1.5 0 21:19 14.01.2020
811 Smoke 24 1013 47 3000 1.5 0 20:54 14.01.2020
812 Smoke 24 1013 47 3000 3.1 70 20:36 14.01.2020
813 Smoke 24 1013 47 3000 3.1 70 20:18 14.01.2020
814 Smoke 24 1013 47 3000 3.1 70 19:54 14.01.2020
815 Smoke 24 1013 47 3000 3.1 10 19:36 14.01.2020
816 Smoke 24 1013 47 3000 3.1 10 19:18 14.01.2020
817 Smoke 24 1013 47 3000 3.1 30 18:40 14.01.2020
818 Smoke 24 1013 47 3000 3.1 30 18:20 14.01.2020
819 Smoke 24 1013 47 3000 3.1 30 17:56 14.01.2020
820 Smoke 24 1013 50 3000 3.1 290 17:36 14.01.2020
821 Smoke 24 1013 47 3000 3.1 340 17:18 14.01.2020
822 Smoke 24 1013 47 3000 4.6 330 16:42 14.01.2020
823 Smoke 24 1013 47 3000 4.6 330 16:22 14.01.2020
824 Smoke 25 1012 47 3000 6.2 340 15:56 14.01.2020
825 Smoke 25 1012 47 3000 5.7 330 15:38 14.01.2020
826 Smoke 25 1012 47 3000 5.7 330 15:19 14.01.2020
827 Smoke 24 1012 53 3000 3.1 320 14:43 14.01.2020
828 Smoke 27 1011 50 3500 4.6 310 14:20 14.01.2020
829 Smoke 27 1011 54 3500 3.6 350 13:55 14.01.2020
830 Smoke 27 1011 51 3500 5.1 330 13:37 14.01.2020
831 Smoke 27 1011 51 3500 5.1 330 13:18 14.01.2020
832 Smoke 27 1010 51 3500 4.6 320 12:41 14.01.2020
833 Smoke 27 1010 51 3500 4.6 320 12:21 14.01.2020
834 Smoke 27 1010 51 3500 5.7 310 11:55 14.01.2020
835 Smoke 27 1010 51 3500 5.1 330 11:36 14.01.2020
836 Smoke 28 1010 51 3500 5.1 330 11:18 14.01.2020
837 Smoke 29 1011 51 3500 4.1 320 10:40 14.01.2020
838 Smoke 29 1011 51 3500 4.1 320 10:20 14.01.2020
839 Smoke 29 1011 58 3500 5.1 310 09:58 14.01.2020
840 Haze 28 1012 61 3500 5.7 310 09:40 14.01.2020
841 Haze 28 1012 61 3500 5.7 310 09:21 14.01.2020
842 Haze 28 1012 58 3500 5.1 310 08:48 14.01.2020
843 Haze 28 1013 54 3500 2.6 320 08:25 14.01.2020
844 Haze 28 1013 61 3500 2.6 360 07:56 14.01.2020
845 Haze 28 1014 61 3500 1.5 360 07:34 14.01.2020
846 Haze 27 1014 65 3500 2.1 320 06:57 14.01.2020
847 Haze 27 1014 65 3000 1.5 100 06:34 14.01.2020
848 Haze 25 1014 73 2200 2.1 20 05:28 14.01.2020
849 Mist 23 1013 88 1500 3.6 20 03:57 14.01.2020
850 Mist 23 1013 88 2200 2.6 40 03:35 14.01.2020
851 Mist 23 1012 88 3000 2.6 80 01:58 14.01.2020
852 Haze 24 1012 83 3000 1.5 0 01:18 14.01.2020
853 Haze 24 1011 83 3000 2.1 20 00:38 14.01.2020
854 Haze 24 1011 83 3000 1.5 0 23:59 13.01.2020
855 Haze 24 1011 83 3000 2.1 10 23:37 13.01.2020
856 Haze 24 1011 83 3000 2.1 10 23:18 13.01.2020
857 Haze 24 1011 88 3000 2.6 40 22:45 13.01.2020
858 Haze 24 1011 83 3000 2.1 10 22:22 13.01.2020
859 Haze 24 1012 83 3000 2.42 354 21:58 13.01.2020
860 Haze 24 1012 83 3000 1.5 320 21:39 13.01.2020
861 Haze 24 1012 83 3000 1.5 320 21:19 13.01.2020
862 Haze 25 1012 78 3000 1.5 10 20:59 13.01.2020
863 Haze 25 1012 83 3000 2.6 340 20:41 13.01.2020
864 Haze 25 1012 83 3000 2.6 340 20:22 13.01.2020
865 Haze 25 1012 83 3000 2.6 340 20:22 13.01.2020
866 Haze 25 1012 83 3000 2.6 50 19:59 13.01.2020
867 Haze 25 1013 83 3000 1.5 350 19:40 13.01.2020
868 Haze 25 1013 83 3000 1.5 350 19:20 13.01.2020
869 Haze 25 1013 78 3000 1.5 340 18:57 13.01.2020
870 Haze 25 1013 78 3000 2.1 310 18:37 13.01.2020
871 Haze 25 1013 78 3000 2.1 310 18:37 13.01.2020
872 Haze 25 1013 78 3000 2.1 310 18:19 13.01.2020
873 Haze 26 1013 74 3000 2.1 330 17:55 13.01.2020
874 Haze 26 1013 74 3000 3.1 10 17:36 13.01.2020
875 Haze 26 1013 74 3000 3.1 10 17:18 13.01.2020
876 Clear 24 1012 73 0 2.71 324 16:40 13.01.2020
877 Clear 24 1012 73 0 2.71 324 16:21 13.01.2020
878 Clear 24 1012 73 0 2.71 324 15:55 13.01.2020
879 Clear 24 1012 73 0 2.71 324 15:36 13.01.2020
880 Clear 24 1012 73 0 2.71 324 15:18 13.01.2020
881 Clear 24 1012 73 0 2.71 324 14:42 13.01.2020
882 Clear 31 1008 59 0 2.71 324 14:23 13.01.2020
883 Clear 31 1007 57 0 5.61 307 13:57 13.01.2020
884 Clear 31 1007 58 0 5.61 307 13:39 13.01.2020
885 Clear 31 1007 55 0 5.12 303 13:21 13.01.2020
886 Smoke 28 1010 65 3500 4.1 280 12:54 13.01.2020
887 Smoke 28 1010 65 3500 4.1 280 12:36 13.01.2020
888 Smoke 28 1010 65 3500 4.1 280 12:18 13.01.2020
889 Smoke 28 1010 65 3500 5.1 280 11:39 13.01.2020
890 Smoke 29 1010 65 3500 5.1 280 11:19 13.01.2020
891 Smoke 29 1010 61 3500 5.1 280 10:57 13.01.2020
892 Smoke 29 1011 58 3500 4.6 270 10:38 13.01.2020
893 Smoke 29 1011 58 3500 4.6 270 10:20 13.01.2020
894 Smoke 29 1011 58 3500 4.6 270 10:20 13.01.2020
895 Haze 29 1011 58 3000 2.6 310 09:56 13.01.2020
896 Haze 29 1012 65 3000 5.7 270 09:38 13.01.2020
897 Haze 29 1012 65 3000 5.7 270 09:19 13.01.2020
898 Haze 29 1013 62 3000 3.1 310 08:39 13.01.2020
899 Haze 29 1013 62 3000 3.1 310 08:20 13.01.2020
900 Haze 29 1014 61 2500 3.1 280 07:46 13.01.2020
901 Haze 28 1014 69 2500 3.6 310 07:27 13.01.2020
902 Haze 28 1014 65 2500 1.5 340 06:40 13.01.2020
903 Haze 28 1014 65 2500 1.5 340 06:19 13.01.2020
904 Haze 27 1014 74 1700 1.5 110 05:22 13.01.2020
905 Mist 25 1013 78 1300 2.1 140 03:52 13.01.2020
906 Mist 25 1013 78 1200 2.1 70 03:22 13.01.2020
907 Mist 25 1012 78 2200 2.1 110 02:39 13.01.2020
908 Mist 25 1012 78 2200 2.1 110 02:18 13.01.2020
909 Mist 25 1012 78 2200 2.6 90 01:18 13.01.2020
910 Mist 25 1012 83 2200 1.35 26 00:40 13.01.2020
911 Mist 25 1012 83 2200 1.35 26 00:21 13.01.2020
912 Mist 25 1011 83 2500 1.5 40 23:42 12.01.2020
913 Mist 25 1011 83 2500 1.5 40 23:23 12.01.2020
914 Mist 26 1012 83 2500 1.5 40 22:57 12.01.2020
915 Mist 26 1012 83 2500 2.6 80 22:39 12.01.2020
916 Mist 26 1012 83 2500 2.6 80 22:21 12.01.2020
917 Haze 26 1012 83 3000 2.1 30 21:55 12.01.2020
918 Haze 26 1012 83 3000 2.1 30 21:55 12.01.2020
919 Haze 26 1013 83 3000 1.5 20 21:37 12.01.2020
920 Haze 26 1013 83 3000 1.5 20 21:19 12.01.2020
921 Haze 26 1013 83 3000 1.5 20 20:56 12.01.2020
922 Haze 26 1013 83 3000 2.6 20 20:37 12.01.2020
923 Haze 26 1013 83 3000 2.6 20 20:19 12.01.2020
924 Haze 26 1013 83 3000 1.5 330 19:55 12.01.2020
925 Haze 27 1013 78 3000 3.6 360 19:37 12.01.2020
926 Haze 27 1013 78 3000 3.6 360 19:18 12.01.2020
927 Haze 27 1013 78 3000 3.6 360 19:18 12.01.2020
928 Haze 27 1013 78 3000 2.6 340 18:56 12.01.2020
929 Haze 27 1014 78 3000 2.1 330 18:38 12.01.2020
930 Haze 27 1014 78 3000 2.1 330 18:19 12.01.2020
931 Haze 27 1014 74 3000 2.1 340 17:42 12.01.2020
932 Haze 27 1014 74 3000 2.1 340 17:22 12.01.2020
933 Haze 28 1013 69 3000 3.1 320 16:58 12.01.2020
934 Haze 27 1013 74 3000 3.1 300 16:39 12.01.2020
935 Haze 27 1013 74 3000 3.1 300 16:20 12.01.2020
936 Haze 27 1013 74 3000 2.6 290 15:56 12.01.2020
937 Haze 27 1013 74 3000 3.1 290 15:38 12.01.2020
938 Haze 27 1012 69 3000 3.1 270 15:20 12.01.2020
939 Haze 27 1012 65 3000 3.6 260 14:42 12.01.2020
940 Haze 29 1012 65 3000 3.6 260 14:23 12.01.2020
941 Haze 29 1012 61 3000 4.1 250 13:57 12.01.2020
942 Smoke 29 1012 58 3000 4.1 250 13:39 12.01.2020
943 Smoke 29 1012 58 3000 4.1 250 13:20 12.01.2020
944 Smoke 29 1011 54 3000 4.6 250 12:56 12.01.2020
945 Smoke 30 1011 45 3000 4.6 240 12:37 12.01.2020
946 Smoke 30 1011 45 3000 4.6 240 12:19 12.01.2020
947 Smoke 30 1011 48 3000 5.1 250 11:42 12.01.2020
948 Smoke 30 1011 48 3000 5.1 250 11:22 12.01.2020
949 Smoke 31 1011 45 3000 5.7 240 10:57 12.01.2020
950 Smoke 31 1011 43 3000 5.7 250 10:39 12.01.2020
951 Smoke 32 1011 43 3000 5.7 250 10:20 12.01.2020
952 Smoke 32 1012 40 3000 2.6 170 09:42 12.01.2020
953 Smoke 32 1012 40 3000 2.6 170 09:23 12.01.2020
954 Smoke 32 1013 43 3000 2.6 160 08:48 12.01.2020
955 Smoke 31 1014 43 3000 3.1 120 08:24 12.01.2020
956 Smoke 31 1014 45 3000 3.6 140 07:56 12.01.2020
957 Smoke 30 1015 45 2500 2.6 130 07:37 12.01.2020
958 Smoke 30 1015 45 2500 2.6 130 07:19 12.01.2020
959 Smoke 29 1015 54 2200 3.1 100 06:38 12.01.2020
960 Smoke 28 1016 57 2200 2.6 140 05:55 12.01.2020
961 Haze 26 1015 57 2100 2.1 80 04:56 12.01.2020
962 Haze 24 1014 65 2200 2.1 130 03:44 12.01.2020
963 Haze 24 1014 69 2200 2.6 130 02:52 12.01.2020
964 Haze 25 1013 69 2500 2.1 150 02:27 12.01.2020
965 Haze 25 1013 69 2500 1.5 150 01:35 12.01.2020
966 Haze 25 1013 69 2500 1.7 68 00:57 12.01.2020
967 Haze 25 1013 69 2500 1.7 68 00:37 12.01.2020
968 Haze 25 1013 69 2500 1.7 68 00:18 12.01.2020
969 Haze 26 1013 69 2500 1.5 170 23:41 11.01.2020
970 Haze 26 1013 69 2500 1.5 170 23:19 11.01.2020
971 Haze 26 1013 69 2500 1.5 40 22:56 11.01.2020
972 Haze 26 1013 69 2500 1.87 91 22:38 11.01.2020
973 Haze 26 1013 69 2500 1.87 91 22:20 11.01.2020
974 Haze 25 1013 73 2500 1.87 91 21:44 11.01.2020
975 Haze 25 1013 73 2500 1.5 60 21:20 11.01.2020
976 Haze 26 1014 69 2500 2.1 30 20:59 11.01.2020
977 Haze 27 1014 61 2500 2.1 30 20:39 11.01.2020
978 Haze 27 1014 61 2500 2.1 30 20:20 11.01.2020
979 Haze 28 1014 61 2500 3.6 70 19:57 11.01.2020
980 Haze 28 1014 58 2500 1.5 170 19:38 11.01.2020
981 Haze 28 1014 58 2500 1.5 170 19:20 11.01.2020
982 Haze 27 1014 61 2500 2.1 260 18:56 11.01.2020
983 Haze 28 1014 58 2500 2.1 210 18:37 11.01.2020
984 Haze 28 1014 58 2500 2.1 210 18:19 11.01.2020
985 Haze 28 1014 58 2500 2.1 210 18:19 11.01.2020
986 Smoke 28 1014 58 3000 2.1 20 17:57 11.01.2020
987 Smoke 28 1014 58 3000 2.1 270 17:39 11.01.2020
988 Smoke 28 1014 58 3000 2.1 270 17:18 11.01.2020
989 Smoke 28 1013 58 3500 2.1 340 16:44 11.01.2020
990 Smoke 28 1013 58 3500 2.1 340 16:25 11.01.2020
991 Smoke 29 1013 54 3500 1.5 320 15:57 11.01.2020
992 Smoke 29 1013 51 3500 2.1 320 15:39 11.01.2020
993 Smoke 29 1013 51 3500 2.1 320 15:20 11.01.2020
994 Smoke 29 1012 51 3500 2.1 330 14:47 11.01.2020
995 Smoke 30 1012 48 3500 3.1 320 14:26 11.01.2020
996 Smoke 30 1012 51 4000 2.6 290 13:59 11.01.2020
997 Smoke 31 1012 45 4000 3.6 290 13:38 11.01.2020
998 Smoke 31 1012 45 4000 3.6 290 13:20 11.01.2020
999 Smoke 31 1012 48 3500 4.1 290 12:56 11.01.2020
1000 Smoke 32 1012 40 3500 3.6 280 12:38 11.01.2020
1001 Smoke 32 1012 40 3500 3.6 280 12:20 11.01.2020
1002 Smoke 32 1011 38 3000 3.1 290 11:45 11.01.2020
1003 Smoke 32 1012 38 3000 2.1 220 11:24 11.01.2020
1004 Smoke 32 1012 38 3000 2.6 140 10:50 11.01.2020
1005 Smoke 32 1012 40 3000 2.6 110 10:30 11.01.2020
1006 Smoke 32 1013 40 3000 4.1 140 09:44 11.01.2020
1007 Smoke 32 1013 40 3000 2.6 130 09:21 11.01.2020
1008 Smoke 32 1013 40 3000 2.6 130 09:21 11.01.2020
1009 Smoke 32 1013 40 3000 2.6 130 09:21 11.01.2020
1010 Smoke 32 1013 40 3000 2.6 130 09:21 11.01.2020
1011 Smoke 32 1013 40 3000 2.6 130 09:21 11.01.2020
1012 Smoke 32 1014 43 2500 4.1 140 08:59 11.01.2020
1013 Smoke 31 1014 43 2500 3.6 90 08:41 11.01.2020
1014 Smoke 31 1014 43 2500 3.6 90 08:20 11.01.2020
1015 Smoke 30 1015 45 2500 3.1 120 07:43 11.01.2020
1016 Smoke 30 1015 48 2500 4.6 100 07:24 11.01.2020
1017 Smoke 29 1016 45 2500 3.6 100 06:45 11.01.2020
1018 Smoke 26 1016 50 2200 4.6 100 05:31 11.01.2020
1019 Smoke 26 1015 57 2200 3.6 70 04:43 11.01.2020
1020 Smoke 24 1015 57 2200 3.1 60 04:25 11.01.2020
1021 Haze 24 1013 60 2200 2.6 80 02:48 11.01.2020
1022 Haze 24 1013 64 2500 2.1 40 01:48 11.01.2020
1023 Haze 24 1013 64 2500 2.6 50 01:30 11.01.2020
1024 Haze 25 1012 61 2500 2.1 50 00:58 11.01.2020
1025 Haze 25 1012 61 2500 2.1 50 00:29 11.01.2020
1026 Haze 25 1012 61 2500 2.6 60 23:59 10.01.2020
1027 Haze 25 1012 61 2500 3.1 30 23:39 10.01.2020
1028 Haze 25 1012 61 2500 3.1 30 23:20 10.01.2020
1029 Haze 25 1012 61 2500 2.1 40 22:55 10.01.2020
1030 Haze 25 1012 61 2500 1.5 60 22:37 10.01.2020
1031 Haze 25 1012 61 2500 1.5 60 22:18 10.01.2020
1032 Haze 25 1012 61 2500 2.1 40 21:54 10.01.2020
1033 Haze 25 1012 61 3000 1.5 30 21:36 10.01.2020
1034 Haze 25 1012 61 3000 1.5 30 21:18 10.01.2020
1035 Haze 26 1013 61 3000 2.1 40 20:42 10.01.2020
1036 Haze 26 1013 61 3000 2.1 40 20:24 10.01.2020
1037 Haze 26 1013 61 3000 2.1 50 19:54 10.01.2020
1038 Haze 27 1013 57 3000 3.6 70 19:36 10.01.2020
1039 Haze 27 1013 57 3000 3.6 70 19:18 10.01.2020
1040 Haze 27 1014 57 3500 1.5 90 18:41 10.01.2020
1041 Haze 27 1014 57 3500 1.5 90 18:19 10.01.2020
1042 Haze 27 1014 57 3500 1.5 20 17:57 10.01.2020
1043 Smoke 27 1014 57 3500 2.6 360 17:38 10.01.2020
1044 Smoke 27 1014 57 3500 2.6 360 17:20 10.01.2020
1045 Smoke 27 1014 57 3500 2.6 360 17:20 10.01.2020
1046 Smoke 27 1013 57 3500 2.1 20 16:55 10.01.2020
1047 Smoke 27 1013 57 3500 1.5 340 16:37 10.01.2020
1048 Smoke 27 1013 57 3500 1.5 340 16:19 10.01.2020
1049 Smoke 27 1013 54 3500 2.1 340 15:55 10.01.2020
1050 Smoke 27 1012 57 3500 2.6 350 15:36 10.01.2020
1051 Smoke 27 1012 57 3500 2.6 350 15:18 10.01.2020
1052 Smoke 26 1012 57 3000 3.6 330 14:54 10.01.2020
1053 Smoke 27 1012 58 3000 2.6 320 14:36 10.01.2020
1054 Smoke 28 1012 58 3000 2.6 320 14:18 10.01.2020
1055 Smoke 30 1011 48 3500 3.1 300 13:41 10.01.2020
1056 Smoke 30 1011 48 3500 3.1 300 13:23 10.01.2020
1057 Smoke 30 1011 48 3500 3.1 290 12:58 10.01.2020
1058 Smoke 30 1011 45 3500 3.6 290 12:38 10.01.2020
1059 Smoke 30 1011 45 3500 3.6 290 12:19 10.01.2020
1060 Smoke 31 1011 43 3000 3.1 300 11:55 10.01.2020
1061 Smoke 31 1011 38 3000 3.1 340 11:37 10.01.2020
1062 Smoke 32 1011 38 3000 2.1 100 11:18 10.01.2020
1063 Smoke 32 1011 38 3000 2.1 100 10:43 10.01.2020
1064 Smoke 31 1011 40 3000 3.6 80 10:24 10.01.2020
1065 Smoke 31 1012 40 3000 4.1 140 09:56 10.01.2020
1066 Smoke 30 1012 40 3000 4.1 120 09:38 10.01.2020
1067 Smoke 30 1012 40 3000 4.1 120 09:20 10.01.2020
1068 Smoke 29 1014 42 3000 3.6 120 08:42 10.01.2020
1069 Smoke 29 1014 42 3000 3.6 120 08:23 10.01.2020
1070 Smoke 29 1014 42 3000 4.1 130 07:46 10.01.2020
1071 Smoke 29 1015 47 3000 4.6 120 07:26 10.01.2020
1072 Smoke 28 1015 44 2500 3.6 90 06:50 10.01.2020
1073 Smoke 28 1015 44 2500 3.1 80 06:26 10.01.2020
1074 Smoke 25 1015 47 2500 3.1 100 05:51 10.01.2020
1075 Smoke 23 1014 49 2200 4.1 70 03:46 10.01.2020
1076 Smoke 22 1013 53 2500 3.1 70 03:27 10.01.2020
1077 Smoke 23 1013 49 2500 3.1 80 02:50 10.01.2020
1078 Smoke 22 1012 53 4000 2.6 60 01:47 10.01.2020
1079 Smoke 23 1012 49 4000 2.6 50 01:28 10.01.2020
1080 Smoke 23 1011 49 4000 2.6 80 00:44 10.01.2020
1081 Smoke 23 1011 49 4000 2.6 80 00:19 10.01.2020
1082 Haze 22 1011 60 3000 2.1 120 23:39 09.01.2020
1083 Haze 22 1011 60 3000 2.1 120 23:39 09.01.2020
1084 Haze 22 1011 60 3000 2.1 120 23:39 09.01.2020
1085 Haze 22 1011 60 3000 2.1 120 23:20 09.01.2020
1086 Haze 23 1011 56 3000 2.1 60 22:58 09.01.2020
1087 Haze 23 1011 56 3000 2.1 60 22:58 09.01.2020
1088 Haze 23 1011 53 3000 2.1 50 22:39 09.01.2020
1089 Haze 23 1011 53 3000 2.1 50 22:39 09.01.2020
1090 Haze 23 1011 53 3000 2.1 50 22:19 09.01.2020
1091 Haze 23 1012 53 3000 2.1 50 21:57 09.01.2020
1092 Haze 23 1012 56 3000 2.6 80 21:38 09.01.2020
1093 Haze 23 1012 56 3000 2.6 80 21:20 09.01.2020
1094 Haze 23 1012 56 3000 2.1 30 20:58 09.01.2020
1095 Haze 23 1012 56 3000 2.1 30 20:39 09.01.2020
1096 Haze 23 1013 56 3000 2.3 36 20:20 09.01.2020
1097 Haze 23 1013 60 3000 1.5 40 19:58 09.01.2020
1098 Haze 23 1013 56 3000 2.1 20 19:39 09.01.2020
1099 Haze 23 1013 56 3000 2.1 20 19:20 09.01.2020
1100 Haze 23 1013 60 3000 2.1 10 18:56 09.01.2020
1101 Smoke 23 1014 60 3000 2.1 340 18:37 09.01.2020
1102 Smoke 23 1014 60 3000 2.1 340 18:19 09.01.2020
1103 Smoke 24 1014 57 3000 3.1 40 17:41 09.01.2020
1104 Smoke 24 1014 53 3000 3.1 340 17:19 09.01.2020
1105 Smoke 24 1014 53 3000 3.1 340 16:56 09.01.2020
1106 Smoke 25 1014 47 3000 3.6 360 16:37 09.01.2020
1107 Smoke 25 1014 47 3000 3.6 360 16:19 09.01.2020
1108 Smoke 25 1014 47 4000 5.7 340 15:42 09.01.2020
1109 Smoke 25 1013 47 4000 5.1 340 15:21 09.01.2020
1110 Smoke 24 1013 50 4000 3.6 320 14:55 09.01.2020
1111 Smoke 26 1012 53 4000 2.6 310 14:37 09.01.2020
1112 Smoke 26 1012 53 4000 2.6 310 14:18 09.01.2020
1113 Smoke 27 1012 47 4000 4.1 310 13:55 09.01.2020
1114 Smoke 27 1013 47 3500 5.7 320 13:37 09.01.2020
1115 Smoke 27 1013 47 3500 5.7 320 13:18 09.01.2020
1116 Smoke 27 1012 50 3000 5.1 310 12:42 09.01.2020
1117 Smoke 28 1012 47 3000 6.2 310 12:42 09.01.2020
1118 Smoke 28 1012 47 3000 6.2 310 12:23 09.01.2020
1119 Smoke 28 1012 51 3000 5.7 310 11:59 09.01.2020
1120 Smoke 28 1012 51 3000 5.7 300 11:41 09.01.2020
1121 Smoke 28 1012 51 3000 5.7 300 11:23 09.01.2020
1122 Smoke 28 1012 51 3000 4.6 300 10:56 09.01.2020
1123 Smoke 28 1012 45 3000 5.1 300 10:37 09.01.2020
1124 Smoke 28 1012 45 3000 5.1 300 10:19 09.01.2020
1125 Smoke 28 1012 45 3000 5.1 300 10:19 09.01.2020
1126 Smoke 28 1012 45 3000 4.6 300 09:41 09.01.2020
1127 Smoke 28 1013 45 3000 4.1 310 09:22 09.01.2020
1128 Smoke 28 1013 45 3000 3.1 290 08:56 09.01.2020
1129 Smoke 28 1014 42 3000 2.1 80 08:37 09.01.2020
1130 Smoke 28 1014 42 3000 2.1 80 08:19 09.01.2020
1131 Smoke 27 1015 47 3000 1.5 320 07:44 09.01.2020
1132 Smoke 27 1015 44 3000 1.5 0 07:24 09.01.2020
1133 Smoke 26 1016 50 2500 2.1 50 06:39 09.01.2020
1134 Smoke 26 1016 50 2500 2.1 50 06:21 09.01.2020
1135 Smoke 25 1016 47 2500 2.1 50 05:50 09.01.2020
1136 Smoke 22 1015 49 2200 3.6 60 04:45 09.01.2020
1137 Smoke 20 1014 60 2500 1.5 0 03:54 09.01.2020
1138 Haze 21 1014 56 2500 1.5 10 02:55 09.01.2020
1139 Haze 22 1013 56 3000 2.6 30 02:30 09.01.2020
1140 Haze 21 1013 60 3000 2.6 340 01:40 09.01.2020
1141 Haze 22 1012 60 3000 2.1 50 00:44 09.01.2020
1142 Haze 22 1012 60 3000 2.1 50 00:22 09.01.2020
1143 Haze 22 1012 60 3000 2.6 10 23:56 08.01.2020
1144 Haze 22 1012 60 3000 3.1 10 23:37 08.01.2020
1145 Haze 22 1012 60 3000 3.1 10 23:19 08.01.2020
1146 Haze 23 1013 60 3000 3.1 10 22:39 08.01.2020
1147 Haze 23 1013 60 3000 3.1 10 22:21 08.01.2020
1148 Haze 23 1013 60 3000 3.1 10 22:21 08.01.2020
1149 Haze 23 1013 60 3000 1.5 10 21:58 08.01.2020
1150 Haze 24 1013 57 3000 2.1 350 21:39 08.01.2020
1151 Haze 24 1013 57 3000 2.1 350 21:20 08.01.2020
1152 Haze 24 1013 60 3000 2.1 350 20:58 08.01.2020
1153 Haze 24 1013 60 3000 2.1 350 20:40 08.01.2020
1154 Haze 25 1013 57 3000 2.6 50 20:20 08.01.2020
1155 Haze 25 1013 57 3000 2.6 50 20:20 08.01.2020
1156 Haze 24 1014 57 3000 3.1 50 19:57 08.01.2020
1157 Haze 24 1014 64 3000 2.6 20 19:37 08.01.2020
1158 Haze 24 1014 64 3000 2.6 20 19:19 08.01.2020
1159 Haze 25 1014 61 3000 3.1 350 18:56 08.01.2020
1160 Haze 25 1014 61 3000 2.6 330 18:37 08.01.2020
1161 Haze 25 1014 61 3000 2.6 330 18:18 08.01.2020
1162 Haze 25 1014 61 3000 2.1 340 17:56 08.01.2020
1163 Smoke 26 1014 57 3000 3.1 30 17:37 08.01.2020
1164 Smoke 26 1014 57 3000 3.1 30 17:18 08.01.2020
1165 Smoke 25 1014 61 4000 3.6 260 16:54 08.01.2020
1166 Haze 25 1014 61 4000 4.1 330 16:36 08.01.2020
1167 Haze 25 1014 61 4000 4.1 330 16:18 08.01.2020
1168 Haze 26 1013 61 4000 4.1 330 15:41 08.01.2020
1169 Haze 26 1013 61 4000 3.1 340 15:21 08.01.2020
1170 Smoke 25 1013 57 4000 3.6 340 14:57 08.01.2020
1171 Smoke 25 1013 57 4000 3.6 340 14:39 08.01.2020
1172 Smoke 27 1012 57 4000 3.1 310 14:20 08.01.2020
1173 Smoke 27 1012 57 4500 3.1 310 13:40 08.01.2020
1174 Smoke 27 1012 57 4500 3.1 310 13:40 08.01.2020
1175 Smoke 28 1012 57 5000 4.1 300 13:19 08.01.2020
1176 Smoke 28 1012 54 5000 4.6 320 12:42 08.01.2020
1177 Smoke 28 1011 54 5000 5.1 310 12:20 08.01.2020
1178 Smoke 28 1011 54 4500 4.6 310 11:55 08.01.2020
1179 Smoke 28 1011 54 4500 4.6 310 11:55 08.01.2020
1180 Smoke 29 1011 54 4500 4.6 310 11:37 08.01.2020
1181 Smoke 29 1011 54 4500 4.6 310 11:19 08.01.2020
1182 Smoke 29 1011 54 4500 4.6 310 11:19 08.01.2020
1183 Smoke 29 1011 54 4000 3.1 290 10:55 08.01.2020
1184 Smoke 29 1011 58 4000 3.6 310 10:37 08.01.2020
1185 Smoke 29 1011 58 4000 3.6 310 10:37 08.01.2020
1186 Smoke 29 1011 58 4000 3.6 310 10:37 08.01.2020
1187 Smoke 29 1011 58 4000 3.6 310 10:18 08.01.2020
1188 Smoke 29 1012 54 4000 4.1 300 09:41 08.01.2020
1189 Smoke 29 1012 54 3500 3.1 320 09:19 08.01.2020
1190 Smoke 29 1013 54 3500 4.1 270 08:57 08.01.2020
1191 Smoke 29 1013 54 3500 3.1 280 08:37 08.01.2020
1192 Smoke 29 1013 54 3500 3.1 280 08:19 08.01.2020
1193 Smoke 29 1014 58 3000 4.6 260 07:49 08.01.2020
1194 Smoke 29 1014 58 3000 3.1 290 07:30 08.01.2020
1195 Smoke 28 1015 61 2500 2.1 330 06:48 08.01.2020
1196 Smoke 28 1015 61 2500 2.1 330 06:24 08.01.2020
1197 Smoke 28 1015 69 2500 1.5 290 05:41 08.01.2020
1198 Smoke 26 1015 74 2200 2.1 340 04:57 08.01.2020
1199 Smoke 25 1014 69 2200 1.18 57 04:25 08.01.2020
1200 Haze 24 1013 65 2500 1.5 360 02:45 08.01.2020
1201 Haze 25 1012 65 2500 1.5 80 02:22 08.01.2020
1202 Haze 25 1012 65 2500 1.83 16 01:50 08.01.2020
1203 Haze 25 1011 65 2500 1.83 16 01:23 08.01.2020
1204 Haze 26 1011 61 2500 1.65 15 00:38 08.01.2020
1205 Haze 26 1011 61 2500 1.65 15 00:20 08.01.2020
1206 Haze 26 1011 65 2500 1.5 10 23:43 07.01.2020
1207 Haze 26 1011 65 2500 1.5 10 23:20 07.01.2020
1208 Haze 26 1011 65 2500 1.5 10 23:20 07.01.2020
1209 Haze 26 1012 65 2500 1.5 340 22:40 07.01.2020
1210 Haze 26 1012 65 2500 1.5 340 22:20 07.01.2020
1211 Haze 26 1013 65 2500 1.5 340 21:57 07.01.2020
1212 Haze 27 1013 65 2500 2.39 348 21:38 07.01.2020
1213 Haze 27 1013 65 2500 2.39 348 21:20 07.01.2020
1214 Haze 26 1013 69 2500 2.39 348 20:56 07.01.2020
1215 Haze 26 1013 69 2500 1.5 320 20:38 07.01.2020
1216 Haze 26 1013 69 2500 1.5 320 20:19 07.01.2020
1217 Haze 27 1013 65 2500 2.6 350 19:38 07.01.2020
1218 Haze 27 1013 65 2500 2.6 350 19:20 07.01.2020
1219 Haze 26 1014 74 2500 2.6 340 18:58 07.01.2020
1220 Haze 27 1014 69 2500 2.6 140 18:40 07.01.2020
1221 Haze 27 1014 69 2500 2.6 140 18:19 07.01.2020
1222 Haze 27 1014 69 2500 1.5 30 18:00 07.01.2020
1223 Haze 27 1014 74 2500 1.5 20 17:39 07.01.2020
1224 Haze 27 1014 74 2500 1.5 20 17:21 07.01.2020
1225 Haze 27 1013 69 2500 2.1 350 16:57 07.01.2020
1226 Haze 27 1013 74 2100 2.1 330 16:38 07.01.2020
1227 Haze 27 1013 74 2100 2.1 330 16:19 07.01.2020
1228 Haze 27 1013 74 2100 2.6 320 15:58 07.01.2020
1229 Haze 27 1013 74 2100 2.6 320 15:40 07.01.2020
1230 Haze 27 1012 74 1800 3.6 300 15:22 07.01.2020
1231 Haze 27 1012 74 1900 3.1 310 14:55 07.01.2020
1232 Haze 27 1012 74 2200 4.1 290 14:37 07.01.2020
1233 Haze 28 1012 74 2200 4.1 290 14:18 07.01.2020
1234 Haze 29 1011 65 3000 4.1 280 13:39 07.01.2020
1235 Haze 29 1011 65 3000 4.1 280 13:19 07.01.2020
1236 Smoke 28 1011 61 3000 4.1 280 12:41 07.01.2020
1237 Smoke 29 1011 54 3000 4.1 290 12:20 07.01.2020
1238 Smoke 29 1011 55 3000 3.1 280 11:57 07.01.2020
1239 Smoke 30 1011 51 3000 4.1 260 11:38 07.01.2020
1240 Smoke 30 1011 51 3000 4.1 260 11:20 07.01.2020
1241 Smoke 30 1011 51 3000 4.6 240 10:42 07.01.2020
1242 Smoke 30 1011 51 3000 4.1 250 10:24 07.01.2020
1243 Smoke 31 1011 48 3000 3.6 240 09:58 07.01.2020
1244 Smoke 31 1012 48 3000 3.1 250 09:38 07.01.2020
1245 Smoke 31 1012 48 3000 3.1 250 09:20 07.01.2020
1246 Smoke 31 1012 45 3000 3.1 200 08:43 07.01.2020
1247 Smoke 30 1013 48 2500 3.1 180 08:25 07.01.2020
1248 Smoke 30 1014 51 2500 3.6 180 07:54 07.01.2020
1249 Smoke 30 1014 51 2500 1.5 180 07:28 07.01.2020
1250 Smoke 30 1014 51 2500 1.5 180 07:28 07.01.2020
1251 Smoke 29 1015 51 2500 1.5 0 06:53 07.01.2020
1252 Smoke 29 1015 54 2500 2.1 130 06:34 07.01.2020
1253 Smoke 28 1015 54 2500 2.1 130 05:55 07.01.2020
1254 Smoke 25 1014 61 2200 2.1 150 04:41 07.01.2020
1255 Smoke 25 1013 64 2500 2.1 80 03:27 07.01.2020
1256 Haze 25 1012 65 3500 2.6 150 02:22 07.01.2020
1257 Haze 25 1012 65 3500 1.5 180 01:54 07.01.2020
1258 Haze 24 1012 69 3500 1.5 180 01:30 07.01.2020
1259 Haze 25 1012 65 3500 2.17 48 00:37 07.01.2020
1260 Haze 25 1012 65 3500 2.17 48 00:18 07.01.2020
1261 Haze 25 1012 65 3500 2.17 48 23:55 06.01.2020
1262 Haze 25 1012 65 3500 2.17 48 23:36 06.01.2020
1263 Haze 25 1012 65 3500 2.45 44 23:18 06.01.2020
1264 Haze 26 1012 61 3000 2.45 44 22:42 06.01.2020
1265 Haze 26 1013 61 3000 2.45 44 22:22 06.01.2020
1266 Haze 25 1013 69 3000 2.45 44 21:56 06.01.2020
1267 Haze 26 1013 65 3000 2.45 44 21:38 06.01.2020
1268 Haze 26 1013 65 3000 2.45 44 21:19 06.01.2020
1269 Haze 27 1013 61 3000 2.1 160 20:56 06.01.2020
1270 Haze 26 1014 69 3000 2.45 44 20:37 06.01.2020
1271 Haze 26 1014 69 3000 2.61 47 20:19 06.01.2020
1272 Haze 26 1014 69 3000 2.6 160 19:55 06.01.2020
1273 Haze 27 1014 65 3000 2.61 47 19:37 06.01.2020
1274 Haze 27 1014 65 3000 2.61 47 19:19 06.01.2020
1275 Haze 26 1014 69 3000 2.6 290 18:45 06.01.2020
1276 Haze 26 1015 69 3000 2.61 47 18:21 06.01.2020
1277 Haze 27 1015 69 3500 1.5 350 17:56 06.01.2020
1278 Haze 27 1014 65 3500 1.5 10 17:37 06.01.2020
1279 Haze 27 1014 65 3500 1.5 10 17:18 06.01.2020
1280 Haze 27 1014 65 4000 3.1 340 16:42 06.01.2020
1281 Haze 27 1014 65 4000 3.1 340 16:42 06.01.2020
1282 Haze 27 1014 65 4000 3.1 340 16:23 06.01.2020
1283 Haze 28 1014 61 4000 3.6 360 15:59 06.01.2020
1284 Haze 28 1014 58 3500 3.1 320 15:37 06.01.2020
1285 Haze 28 1014 58 3500 3.1 320 15:37 06.01.2020
1286 Haze 28 1014 58 3500 3.1 320 15:18 06.01.2020
1287 Smoke 27 1013 61 3000 3.1 290 14:42 06.01.2020
1288 Smoke 29 1013 61 3000 3.1 290 14:23 06.01.2020
1289 Smoke 29 1013 61 3500 4.1 270 14:23 06.01.2020
1290 Smoke 29 1013 61 3500 4.1 270 13:59 06.01.2020
1291 Smoke 29 1012 54 3500 4.1 290 13:40 06.01.2020
1292 Smoke 30 1012 54 3500 4.1 290 13:22 06.01.2020
1293 Smoke 30 1012 54 4000 4.1 280 12:58 06.01.2020
1294 Smoke 30 1012 54 4000 5.1 270 12:39 06.01.2020
1295 Smoke 30 1012 54 4000 5.1 270 12:20 06.01.2020
1296 Smoke 30 1012 48 4000 4.1 290 11:55 06.01.2020
1297 Smoke 31 1012 46 4000 4.6 270 11:37 06.01.2020
1298 Smoke 31 1012 46 4000 4.6 270 11:18 06.01.2020
1299 Smoke 32 1012 36 4000 2.6 150 10:41 06.01.2020
1300 Smoke 32 1012 35 4000 2.6 170 10:21 06.01.2020
1301 Smoke 32 1012 35 3500 3.1 80 09:42 06.01.2020
1302 Smoke 32 1013 38 3000 4.1 130 09:24 06.01.2020
1303 Smoke 32 1013 38 3000 4.6 80 08:57 06.01.2020
1304 Smoke 31 1014 40 3000 4.6 130 08:38 06.01.2020
1305 Smoke 31 1014 40 3000 4.6 130 08:38 06.01.2020
1306 Smoke 31 1014 40 3000 4.6 130 08:19 06.01.2020
1307 Smoke 30 1015 45 2500 3.6 100 07:44 06.01.2020
1308 Smoke 28 1016 47 2500 4.6 120 06:53 06.01.2020
1309 Smoke 28 1016 47 2500 4.1 80 06:35 06.01.2020
1310 Smoke 27 1016 47 2500 4.1 100 05:48 06.01.2020
1311 Smoke 26 1016 50 2500 4.6 100 05:24 06.01.2020
1312 Smoke 24 1015 57 2500 3.1 80 04:24 06.01.2020
1313 Smoke 24 1015 57 2500 4.1 80 03:51 06.01.2020
1314 Smoke 24 1013 57 2500 4.6 40 02:28 06.01.2020
1315 Smoke 24 1013 57 2500 4.1 70 01:53 06.01.2020
1316 Smoke 24 1012 57 2500 2.1 50 01:30 06.01.2020
1317 Smoke 24 1012 57 3000 3.1 30 00:46 06.01.2020
1318 Smoke 24 1012 60 3000 3.1 30 00:27 06.01.2020
1319 Smoke 24 1012 60 3000 2.1 40 23:57 05.01.2020
1320 Smoke 24 1012 60 3000 2.1 40 23:57 05.01.2020
1321 Smoke 24 1012 60 3000 2.1 30 23:38 05.01.2020
1322 Smoke 24 1012 60 3000 2.1 30 23:20 05.01.2020
1323 Smoke 24 1012 60 3000 3.1 30 22:40 05.01.2020
1324 Smoke 25 1012 57 3000 1.5 80 22:21 05.01.2020
1325 Smoke 25 1012 53 3000 2.1 60 21:58 05.01.2020
1326 Smoke 25 1012 53 3000 2.6 40 21:40 05.01.2020
1327 Smoke 25 1012 53 3000 2.6 40 21:20 05.01.2020
1328 Smoke 25 1012 53 3000 2.6 30 20:58 05.01.2020
1329 Smoke 25 1012 53 3000 2.6 50 20:39 05.01.2020
1330 Smoke 25 1012 53 3000 2.6 50 20:19 05.01.2020
1331 Smoke 25 1013 57 3000 3.1 50 19:58 05.01.2020
1332 Smoke 25 1013 53 3000 3.1 40 19:39 05.01.2020
1333 Smoke 25 1013 53 3000 3.1 40 19:20 05.01.2020
1334 Smoke 26 1013 50 3000 2.6 40 18:55 05.01.2020
1335 Smoke 26 1013 54 3000 2.1 120 18:37 05.01.2020
1336 Smoke 26 1013 54 3000 2.1 120 18:19 05.01.2020
1337 Smoke 26 1013 57 3000 2.6 40 17:57 05.01.2020
1338 Smoke 26 1013 57 3000 2.1 70 17:38 05.01.2020
1339 Smoke 26 1013 57 3000 2.1 70 17:38 05.01.2020
1340 Smoke 26 1013 57 3000 2.1 70 17:38 05.01.2020
1341 Smoke 26 1013 57 3000 2.1 70 17:19 05.01.2020
1342 Smoke 26 1013 57 3000 2.1 70 17:19 05.01.2020
1343 Smoke 26 1013 57 3000 2.1 10 16:56 05.01.2020
1344 Smoke 26 1013 57 3000 1.5 320 16:38 05.01.2020
1345 Smoke 26 1013 57 3000 1.5 320 16:19 05.01.2020
1346 Smoke 26 1013 57 3000 2.6 340 15:39 05.01.2020
1347 Smoke 26 1012 57 3000 3.1 350 15:20 05.01.2020
1348 Smoke 25 1012 61 3000 2.1 320 14:56 05.01.2020
1349 Smoke 26 1011 57 3500 2.1 310 14:38 05.01.2020
1350 Smoke 27 1011 57 3500 2.1 310 14:20 05.01.2020
1351 Smoke 27 1011 61 4000 2.6 310 13:56 05.01.2020
1352 Smoke 28 1010 58 4000 3.6 280 13:38 05.01.2020
1353 Smoke 28 1010 58 4000 3.6 280 13:19 05.01.2020
1354 Smoke 29 1010 48 4000 4.6 280 12:55 05.01.2020
1355 Smoke 29 1010 48 4000 4.6 280 12:55 05.01.2020
1356 Smoke 29 1010 45 4000 4.1 280 12:37 05.01.2020
1357 Smoke 29 1010 45 4000 4.1 280 12:37 05.01.2020
1358 Smoke 29 1010 45 4000 4.1 280 12:18 05.01.2020
1359 Smoke 30 1010 40 4000 3.6 290 11:44 05.01.2020
1360 Smoke 30 1011 48 5000 4.1 280 11:20 05.01.2020
1361 Smoke 30 1011 35 4000 2.6 90 10:58 05.01.2020
1362 Smoke 30 1011 37 3500 3.6 70 10:40 05.01.2020
1363 Smoke 30 1011 37 3500 3.6 70 10:19 05.01.2020
1364 Smoke 30 1011 39 3500 2.1 50 09:42 05.01.2020
1365 Smoke 29 1012 39 3000 3.6 100 09:22 05.01.2020
1366 Smoke 29 1012 39 2500 4.1 100 08:51 05.01.2020
1367 Smoke 29 1013 45 2500 5.1 100 08:32 05.01.2020
1368 Smoke 28 1014 45 2500 4.6 100 07:59 05.01.2020
1369 -273 0 0 0 0 0 07:39 05.01.2020
1370 Smoke 27 1014 47 2500 4.6 90 07:20 05.01.2020
1371 Smoke 27 1015 47 2500 5.7 60 06:40 05.01.2020
1372 Smoke 23 1016 53 2200 4.6 40 05:34 05.01.2020
1373 Smoke 24 1015 53 2200 4.6 70 04:49 05.01.2020
1374 Smoke 23 1015 56 2200 2.6 40 04:18 05.01.2020
1375 Smoke 22 1014 60 2500 3.6 40 03:18 05.01.2020
1376 Haze 21 1013 64 2500 4.1 80 02:32 05.01.2020
1377 Haze 21 1012 68 2500 4.1 80 01:49 05.01.2020
1378 Haze 21 1012 68 2500 3.6 90 01:20 05.01.2020
1379 Haze 21 1012 73 2500 3.1 90 00:56 05.01.2020
1380 Haze 20 1012 77 2500 2.1 120 00:37 05.01.2020
1381 Haze 20 1012 77 2500 2.1 120 00:19 05.01.2020
1382 Haze 21 1011 73 2200 3.1 90 23:41 04.01.2020
1383 Haze 22 1012 73 2200 2.6 40 23:20 04.01.2020
1384 Haze 21 1012 77 2200 2.1 70 22:55 04.01.2020
1385 Haze 22 1012 68 2200 2.6 40 22:37 04.01.2020
1386 Haze 22 1012 68 2200 2.6 40 22:19 04.01.2020
1387 Haze 22 1012 68 2200 3.6 120 21:55 04.01.2020
1388 Haze 22 1013 68 2200 2.6 90 21:36 04.01.2020
1389 Haze 22 1013 68 2200 2.6 90 21:18 04.01.2020
1390 Haze 23 1013 64 2500 2.1 40 20:41 04.01.2020
1391 Haze 23 1013 64 2500 2.1 40 20:22 04.01.2020
1392 Haze 22 1013 64 2500 1.68 40 19:57 04.01.2020
1393 Haze 23 1013 60 2500 1.68 40 19:38 04.01.2020
1394 Haze 23 1013 60 2500 1.68 40 19:20 04.01.2020
1395 Haze 23 1014 60 2500 1.5 30 18:56 04.01.2020
1396 Haze 23 1014 60 2500 1.68 40 18:37 04.01.2020
1397 Haze 23 1014 60 2500 1.68 40 18:19 04.01.2020
1398 Haze 23 1014 60 2500 2.1 30 17:42 04.01.2020
1399 Haze 23 1014 60 2500 2.1 20 17:24 04.01.2020
1400 Smoke 23 1014 60 3000 3.1 40 16:59 04.01.2020
1401 Smoke 23 1014 60 3000 3.1 40 16:40 04.01.2020
1402 Smoke 23 1014 60 3000 3.1 350 16:22 04.01.2020
1403 Smoke 23 1013 60 3000 3.6 340 15:56 04.01.2020
1404 Smoke 24 1013 57 3000 3.6 360 15:38 04.01.2020
1405 Smoke 24 1013 57 3000 3.6 360 15:19 04.01.2020
1406 Smoke 23 1013 57 3000 4.1 340 14:54 04.01.2020
1407 Smoke 23 1012 57 3000 2.6 340 14:36 04.01.2020
1408 Smoke 25 1012 57 3000 2.6 340 14:18 04.01.2020
1409 Smoke 25 1012 57 3000 4.6 300 13:39 04.01.2020
1410 Smoke 25 1012 57 3000 4.6 300 13:39 04.01.2020
1411 Smoke 25 1012 57 3000 4.6 300 13:20 04.01.2020
1412 Smoke 26 1012 57 3000 4.6 320 12:59 04.01.2020
1413 Smoke 26 1012 57 3000 4.6 320 12:41 04.01.2020
1414 Smoke 26 1011 50 3000 5.7 310 12:19 04.01.2020
1415 Smoke 26 1011 50 3000 5.1 300 11:57 04.01.2020
1416 Smoke 26 1012 50 3000 4.6 320 11:38 04.01.2020
1417 Smoke 26 1012 50 3000 4.6 320 11:19 04.01.2020
1418 Smoke 26 1012 50 3000 4.1 310 10:42 04.01.2020
1419 Smoke 26 1012 50 3000 5.7 300 10:23 04.01.2020
1420 Smoke 26 1013 50 2500 4.6 310 09:57 04.01.2020
1421 Smoke 26 1013 47 2500 5.1 310 09:39 04.01.2020
1422 Smoke 26 1013 47 2500 5.1 310 09:20 04.01.2020
1423 Smoke 26 1014 47 2500 4.1 310 08:40 04.01.2020
1424 Smoke 26 1014 44 2500 3.1 300 08:20 04.01.2020
1425 Smoke 26 1015 44 2500 2.6 320 07:42 04.01.2020
1426 Smoke 25 1015 47 2200 4.1 290 07:19 04.01.2020
1427 Smoke 24 1016 49 2100 1.5 40 06:33 04.01.2020
1428 Smoke 22 1016 56 1700 1.5 30 05:19 04.01.2020
1429 Haze 20 1015 60 1700 2.1 40 04:34 04.01.2020
1430 Haze 20 1015 60 1700 1.5 40 03:43 04.01.2020
1431 Haze 19 1015 63 2200 2.6 30 03:18 04.01.2020
1432 Haze 20 1014 64 2200 2.1 20 02:21 04.01.2020
1433 Haze 20 1013 68 2200 2.6 10 01:55 04.01.2020
1434 Haze 20 1013 68 2200 2.6 350 01:31 04.01.2020
1435 Haze 20 1013 68 2200 2.6 350 00:44 04.01.2020
1436 Haze 20 1013 72 2200 3.1 360 00:23 04.01.2020
1437 Haze 20 1013 72 2200 2.1 330 23:46 03.01.2020
1438 Haze 21 1013 68 2200 2.6 350 23:25 03.01.2020
1439 Haze 22 1014 68 2500 2.1 10 22:41 03.01.2020
1440 Haze 22 1014 68 2500 2.1 10 22:20 03.01.2020
1441 Haze 22 1014 68 2500 1.5 0 21:59 03.01.2020
1442 Haze 22 1014 68 2500 1.5 0 21:39 03.01.2020
1443 Haze 22 1014 68 2500 1.5 0 21:19 03.01.2020
1444 Haze 22 1014 68 2500 1.5 0 21:19 03.01.2020
1445 Haze 22 1014 68 2500 2.6 30 20:59 03.01.2020
1446 Haze 22 1014 68 2500 3.1 340 20:41 03.01.2020
1447 Haze 22 1014 68 2500 3.1 340 20:18 03.01.2020
1448 Haze 23 1014 64 2500 2.6 30 19:57 03.01.2020
1449 Haze 23 1015 64 2500 3.1 20 19:38 03.01.2020
1450 Haze 23 1015 64 2500 3.1 20 19:20 03.01.2020
1451 Haze 23 1015 64 2500 2.6 30 18:44 03.01.2020
1452 Haze 23 1015 64 3000 3.1 360 18:25 03.01.2020
1453 Haze 23 1015 69 3000 2.6 350 17:56 03.01.2020
1454 Haze 23 1015 69 3000 3.1 350 17:38 03.01.2020
1455 Haze 23 1015 69 3000 3.1 350 17:19 03.01.2020
1456 Haze 24 1015 64 3000 2.6 360 16:42 03.01.2020
1457 Haze 24 1014 60 3000 2.6 340 16:24 03.01.2020
1458 Haze 24 1014 60 3000 3.1 350 15:58 03.01.2020
1459 Haze 24 1014 60 3000 4.1 260 15:40 03.01.2020
1460 Haze 24 1014 60 3000 4.1 260 15:18 03.01.2020
1461 Smoke 24 1014 57 2500 4.1 340 14:39 03.01.2020
1462 Smoke 26 1014 57 2500 4.1 340 14:19 03.01.2020
1463 Smoke 26 1014 57 3000 4.6 320 13:56 03.01.2020
1464 Smoke 26 1014 57 3000 4.6 330 13:37 03.01.2020
1465 Smoke 26 1014 57 3000 4.6 330 13:19 03.01.2020
1466 Smoke 26 1013 53 3000 5.1 340 12:39 03.01.2020
1467 Smoke 26 1013 53 3000 5.1 340 12:21 03.01.2020
1468 Smoke 27 1014 61 3000 6.2 340 11:48 03.01.2020
1469 Smoke 27 1013 57 2500 5.7 300 11:29 03.01.2020
1470 Smoke 27 1013 54 2500 6.7 300 10:47 03.01.2020
1471 Smoke 27 1014 54 2500 4.6 310 10:27 03.01.2020
1472 Smoke 27 1014 54 2500 6.2 290 09:59 03.01.2020
1473 Smoke 27 1015 50 2500 4.6 320 09:41 03.01.2020
1474 Smoke 27 1015 50 2500 4.6 320 09:22 03.01.2020
1475 Smoke 27 1015 50 2500 3.6 300 08:57 03.01.2020
1476 Smoke 27 1016 47 2500 3.1 320 08:38 03.01.2020
1477 Smoke 27 1016 47 2500 3.1 320 08:19 03.01.2020
1478 Smoke 27 1016 47 2500 1.5 300 07:40 03.01.2020
1479 Smoke 26 1017 53 2500 2.6 350 07:19 03.01.2020
1480 Smoke 26 1017 53 2500 2.1 350 06:54 03.01.2020
1481 Smoke 25 1018 57 2500 1.5 60 06:35 03.01.2020
1482 Smoke 25 1018 57 2200 2.1 10 05:47 03.01.2020
1483 Haze 21 1017 68 2200 1.5 340 04:31 03.01.2020
1484 Haze 21 1016 64 1800 1.5 50 03:18 03.01.2020
1485 Haze 20 1016 68 1800 2.1 60 02:45 03.01.2020
1486 Haze 21 1015 73 2200 1.5 80 01:45 03.01.2020
1487 Haze 21 1015 68 2200 2.6 30 00:56 03.01.2020
1488 Haze 21 1014 68 2200 2.1 30 00:32 03.01.2020
1489 Haze 21 1015 68 2200 2.6 30 23:58 02.01.2020
1490 Haze 22 1015 64 2200 1.5 30 23:39 02.01.2020
1491 Haze 22 1015 64 2200 1.5 30 23:19 02.01.2020
1492 Haze 22 1015 64 2200 2.39 29 22:58 02.01.2020
1493 Haze 22 1015 68 2200 1.5 80 22:39 02.01.2020
1494 Haze 22 1015 68 2200 1.5 80 22:19 02.01.2020
1495 Haze 22 1015 73 2200 1.5 0 21:54 02.01.2020
1496 Haze 23 1015 69 2200 1.5 180 21:36 02.01.2020
1497 Haze 23 1015 69 2200 1.5 180 21:36 02.01.2020
1498 Haze 23 1015 69 2200 1.5 180 21:18 02.01.2020
1499 Haze 23 1016 73 2000 2.39 29 20:40 02.01.2020
1500 Haze 23 1016 73 2000 2.54 8 20:21 02.01.2020
1501 Haze 23 1016 78 1800 2.89 11 19:56 02.01.2020
1502 Haze 23 1017 73 1800 2.89 11 19:38 02.01.2020
1503 Haze 23 1017 73 1800 2.89 11 19:19 02.01.2020
1504 Haze 24 1017 69 2000 2.1 130 18:58 02.01.2020
1505 Haze 24 1017 69 2000 2.1 130 18:40 02.01.2020
1506 Haze 24 1017 64 2000 2.1 30 18:22 02.01.2020
1507 Haze 24 1017 64 1800 3.6 20 17:57 02.01.2020
1508 Haze 24 1017 73 1500 3.6 20 17:37 02.01.2020
1509 Haze 24 1017 73 1500 3.6 20 17:19 02.01.2020
1510 Haze 24 1017 73 2200 3.1 340 16:57 02.01.2020
1511 Haze 25 1017 69 2200 2.6 340 16:38 02.01.2020
1512 Haze 25 1017 69 2200 2.6 340 16:20 02.01.2020
1513 Haze 25 1016 69 2200 2.6 350 15:56 02.01.2020
1514 Haze 25 1016 69 2200 3.6 350 15:37 02.01.2020
1515 Haze 25 1016 69 2500 3.1 310 15:19 02.01.2020
1516 Haze 25 1016 69 2500 3.1 310 14:54 02.01.2020
1517 Haze 25 1016 69 2500 3.1 310 14:54 02.01.2020
1518 Haze 25 1015 65 2500 3.1 310 14:36 02.01.2020
1519 Haze 27 1015 61 3000 3.1 300 14:18 02.01.2020
1520 Smoke 27 1015 57 3000 3.6 290 13:45 02.01.2020
1521 Smoke 27 1015 57 3000 3.6 290 13:26 02.01.2020
1522 Smoke 26 1014 57 3000 4.1 320 12:43 02.01.2020
1523 Smoke 27 1014 54 3000 5.7 290 12:24 02.01.2020
1524 Smoke 27 1014 54 3000 5.7 290 12:24 02.01.2020
1525 Smoke 27 1014 57 3000 4.6 310 11:43 02.01.2020
1526 Smoke 28 1014 57 3000 4.6 310 11:24 02.01.2020
1527 Smoke 28 1014 51 3000 4.6 310 10:56 02.01.2020
1528 Smoke 27 1014 48 2500 5.1 270 10:37 02.01.2020
1529 Smoke 28 1014 48 2500 5.1 270 10:18 02.01.2020
1530 Smoke 28 1015 48 2500 5.1 260 09:41 02.01.2020
1531 Smoke 28 1015 48 2500 5.1 260 09:22 02.01.2020
1532 Smoke 28 1016 54 2500 3.6 280 08:44 02.01.2020
1533 Smoke 28 1016 54 2500 4.6 300 08:25 02.01.2020
1534 Smoke 28 1017 54 2500 4.1 290 07:48 02.01.2020
1535 Smoke 27 1017 51 2200 3.6 290 07:28 02.01.2020
1536 Smoke 27 1017 51 2200 1.5 170 06:43 02.01.2020
1537 Haze 26 1018 57 1700 1.5 140 05:58 02.01.2020
1538 Haze 23 1017 64 1200 1.74 58 04:40 02.01.2020
1539 Haze 22 1017 68 1200 1.74 58 04:21 02.01.2020
1540 Haze 22 1017 68 1200 1.74 58 04:21 02.01.2020
1541 Haze 20 1015 82 1200 2.6 120 02:28 02.01.2020
1542 Haze 21 1015 77 1300 1.5 130 01:58 02.01.2020
1543 Haze 21 1015 77 1400 1.5 100 01:32 02.01.2020
1544 Haze 21 1014 73 1400 1.5 40 00:53 02.01.2020
1545 Haze 21 1014 73 1400 2.19 54 00:33 02.01.2020
1546 Haze 21 1014 73 1300 2.19 54 23:49 01.01.2020
1547 Haze 22 1014 68 1700 2.6 350 23:26 01.01.2020
1548 Haze 22 1015 73 1700 2.04 40 22:55 01.01.2020
1549 Haze 22 1015 73 1700 2.04 40 22:37 01.01.2020
1550 Haze 22 1015 73 1700 2.04 40 22:18 01.01.2020
1551 Haze 22 1015 73 1700 2.04 40 21:42 01.01.2020
1552 Haze 22 1015 73 1700 2.04 40 21:21 01.01.2020
1553 Haze 22 1015 78 1700 2.04 40 20:59 01.01.2020
1554 Haze 22 1015 78 1700 2.04 40 20:39 01.01.2020
1555 Haze 22 1015 78 1700 2.04 40 20:39 01.01.2020
1556 Haze 22 1015 78 1700 1.7 25 20:21 01.01.2020
1557 Haze 22 1015 78 1700 1.5 60 19:58 01.01.2020
1558 Haze 22 1015 78 1700 1.5 60 19:39 01.01.2020
1559 Haze 23 1015 73 1700 2.6 20 19:20 01.01.2020
1560 Haze 23 1015 69 1700 2.6 340 18:57 01.01.2020
1561 Haze 23 1015 69 1700 2.6 340 18:39 01.01.2020
1562 Haze 23 1016 69 2200 2.6 10 18:20 01.01.2020
1563 Haze 23 1016 69 2200 2.1 340 17:59 01.01.2020
1564 Haze 23 1016 69 2200 2.1 340 17:40 01.01.2020
1565 Haze 24 1015 64 2200 2.1 20 17:20 01.01.2020
1566 Haze 24 1015 64 2200 3.1 360 16:59 01.01.2020
1567 Haze 24 1015 60 2200 2.6 350 16:38 01.01.2020
1568 Haze 24 1015 60 2200 2.6 350 16:20 01.01.2020
1569 Haze 24 1015 60 2200 1.5 330 15:57 01.01.2020
1570 Haze 24 1015 60 2200 1.5 330 15:57 01.01.2020
1571 Smoke 25 1014 57 2200 3.6 20 15:38 01.01.2020
1572 Smoke 25 1014 57 2200 3.6 20 15:20 01.01.2020
1573 Smoke 24 1014 57 2500 2.1 350 14:56 01.01.2020
1574 Smoke 24 1014 57 2500 2.1 310 14:37 01.01.2020
1575 Smoke 26 1014 57 2500 2.1 310 14:19 01.01.2020
1576 Smoke 26 1014 57 2500 2.1 310 14:19 01.01.2020
1577 Smoke 26 1013 57 2500 1.5 290 13:55 01.01.2020
1578 Smoke 27 1013 54 2500 1.5 300 13:36 01.01.2020
1579 Smoke 27 1013 54 2500 1.5 300 13:18 01.01.2020
1580 Smoke 26 1012 54 2500 3.6 290 12:54 01.01.2020
1581 Smoke 26 1012 50 2500 3.1 240 12:36 01.01.2020
1582 Smoke 26 1012 50 2500 3.1 240 12:18 01.01.2020
1583 Smoke 27 1012 47 2500 4.6 260 11:41 01.01.2020
1584 Smoke 28 1012 44 2500 3.1 240 11:21 01.01.2020
1585 Smoke 28 1012 44 2500 3.1 240 11:21 01.01.2020
1586 Smoke 28 1012 39 2500 3.6 260 10:56 01.01.2020
1587 Smoke 28 1013 39 2500 3.1 230 10:38 01.01.2020
1588 Smoke 28 1013 39 2500 3.1 230 10:19 01.01.2020
1589 Smoke 28 1013 39 2500 2.6 300 09:40 01.01.2020
1590 Smoke 28 1013 39 2500 2.6 300 09:22 01.01.2020
1591 Smoke 28 1014 44 2500 2.6 280 08:57 01.01.2020
1592 Smoke 27 1015 47 3000 3.6 250 08:38 01.01.2020
1593 Smoke 27 1015 47 3000 3.6 250 08:38 01.01.2020
1594 Smoke 26 1015 47 3000 3.6 250 08:20 01.01.2020
1595 Smoke 26 1015 47 2400 1.43 287 07:57 01.01.2020
1596 Smoke 27 1016 47 2400 1.5 0 07:39 01.01.2020
1597 Smoke 26 1016 50 2200 2.6 130 06:55 01.01.2020
1598 Haze 26 1016 53 2200 2.6 130 06:36 01.01.2020
1599 Haze 25 1016 50 2000 3.1 90 05:51 01.01.2020
1600 Haze 21 1015 64 2200 2.6 110 04:28 01.01.2020
1601 Haze 19 1014 64 2200 2.1 100 03:39 01.01.2020
1602 Haze 19 1014 68 2200 2.6 80 03:21 01.01.2020
1603 Haze 20 1013 64 1700 1.5 100 02:42 01.01.2020
1604 Haze 20 1012 64 1800 2.1 150 02:23 01.01.2020
1605 Haze 20 1012 68 2100 1.5 80 01:42 01.01.2020
1606 Haze 20 1012 68 2100 1.5 80 01:22 01.01.2020
1607 Haze 20 1011 68 2200 1.82 77 00:45 01.01.2020
1608 Haze 20 1011 68 2200 1.82 77 00:26 01.01.2020
1609 Haze 20 1011 68 2200 1.82 77 23:56 31.12.2019
1610 Haze 20 1011 68 2200 1.5 100 23:36 31.12.2019
1611 Haze 20 1011 68 2200 1.5 100 23:18 31.12.2019
1612 Haze 20 1011 64 2200 1.7 70 22:55 31.12.2019
1613 Haze 20 1011 64 2200 1.7 70 22:55 31.12.2019
1614 Haze 21 1012 60 2200 1.5 350 22:36 31.12.2019
1615 Haze 21 1012 60 2200 1.5 350 22:18 31.12.2019
1616 Haze 21 1012 64 2500 1.7 70 21:42 31.12.2019
1617 Haze 21 1012 60 2500 1.5 350 21:24 31.12.2019
1618 Smoke 21 1013 64 2500 1.7 70 20:57 31.12.2019
1619 Smoke 21 1013 64 2500 1.7 70 20:57 31.12.2019
1620 Smoke 22 1013 60 2500 1.5 70 20:38 31.12.2019
1621 Smoke 22 1013 60 2500 1.5 70 20:20 31.12.2019
1622 Smoke 22 1013 56 2500 2.1 20 19:57 31.12.2019
1623 Smoke 22 1013 53 3000 1.5 30 19:39 31.12.2019
1624 Smoke 22 1013 53 3000 1.5 30 19:20 31.12.2019
1625 Smoke 22 1014 56 3000 2 36 18:56 31.12.2019
1626 Smoke 22 1014 60 3000 2 36 18:38 31.12.2019
1627 Smoke 22 1014 60 3000 2 36 18:19 31.12.2019
1628 Smoke 23 1014 53 3000 2.1 60 17:55 31.12.2019
1629 Smoke 23 1014 53 3000 2.1 40 17:36 31.12.2019
1630 Smoke 23 1014 53 3000 2.1 40 17:36 31.12.2019
1631 Smoke 23 1014 53 3000 2.1 40 17:18 31.12.2019
1632 Smoke 23 1013 53 3000 2.6 340 16:56 31.12.2019
1633 Smoke 24 1013 50 3500 3.6 350 16:37 31.12.2019
1634 Smoke 24 1013 50 3500 3.6 350 16:18 31.12.2019
1635 Smoke 24 1013 50 3500 4.6 340 15:56 31.12.2019
1636 Smoke 24 1013 50 3500 3.1 340 15:37 31.12.2019
1637 Smoke 24 1013 50 3500 3.1 340 15:19 31.12.2019
1638 Smoke 24 1012 47 3500 2.6 320 14:55 31.12.2019
1639 Smoke 24 1012 47 3500 3.1 320 14:37 31.12.2019
1640 Smoke 26 1012 47 3500 3.1 320 14:18 31.12.2019
1641 Smoke 26 1012 39 3500 3.6 310 13:56 31.12.2019
1642 Smoke 27 1012 39 3500 4.6 290 13:37 31.12.2019
1643 Smoke 27 1012 39 3500 4.6 290 13:19 31.12.2019
1644 Smoke 26 1012 36 3500 3.1 350 12:55 31.12.2019
1645 Smoke 26 1012 39 3500 4.1 310 12:37 31.12.2019
1646 Smoke 26 1012 39 3500 4.1 310 12:18 31.12.2019
1647 Smoke 26 1011 39 3500 4.6 310 11:55 31.12.2019
1648 Smoke 27 1011 39 3500 4.1 310 11:36 31.12.2019
1649 Smoke 28 1011 39 3500 4.1 310 11:18 31.12.2019
1650 Smoke 28 1012 41 3500 5.1 300 10:55 31.12.2019
1651 Smoke 28 1012 42 3500 5.1 300 10:37 31.12.2019
1652 Smoke 28 1012 42 3500 5.1 300 10:19 31.12.2019
1653 Smoke 28 1012 39 3500 4.1 290 09:56 31.12.2019
1654 Smoke 28 1013 42 2500 4.1 300 09:38 31.12.2019
1655 Smoke 28 1013 42 2500 4.1 300 09:18 31.12.2019
1656 Smoke 28 1013 42 2500 4.6 290 08:42 31.12.2019
1657 Smoke 27 1014 39 2500 3.1 310 08:23 31.12.2019
1658 Smoke 27 1014 42 2500 2.1 140 07:57 31.12.2019
1659 Smoke 26 1015 44 2500 1.5 160 07:38 31.12.2019
1660 Smoke 27 1015 44 2500 1.5 160 07:18 31.12.2019
1661 Smoke 27 1015 44 2500 1.5 60 06:40 31.12.2019
1662 Smoke 22 1015 56 2200 2.6 50 04:58 31.12.2019
1663 Haze 22 1014 60 2100 2.1 40 04:25 31.12.2019
1664 Smoke 22 1013 56 2500 1.5 30 02:59 31.12.2019
1665 Haze 23 1013 53 3000 2.6 10 02:34 31.12.2019
1666 Haze 22 1012 64 3000 2.1 10 01:51 31.12.2019
1667 Haze 22 1012 64 3000 2.01 46 01:32 31.12.2019
1668 Haze 22 1012 64 3000 1.9 42 01:32 31.12.2019
1669 Haze 22 1012 64 3000 2.1 360 00:54 31.12.2019
1670 Haze 23 1012 60 3000 1.5 0 00:36 31.12.2019
1671 Haze 23 1012 60 3000 1.5 0 00:18 31.12.2019
1672 Haze 23 1012 64 3000 2.6 350 23:54 30.12.2019
1673 Haze 23 1012 69 3000 2.6 340 23:36 30.12.2019
1674 Haze 23 1012 69 3000 2.6 340 23:18 30.12.2019
1675 Haze 23 1012 69 3000 2.6 320 22:54 30.12.2019
1676 Haze 23 1012 64 3000 2.1 330 22:36 30.12.2019
1677 Haze 23 1012 64 3000 2.1 330 22:18 30.12.2019
1678 Haze 24 1012 60 3000 2.1 320 21:55 30.12.2019
1679 Haze 24 1012 64 3000 2.1 340 21:36 30.12.2019
1680 Haze 24 1012 64 3000 2.1 340 21:18 30.12.2019
1681 Haze 24 1013 64 3000 3.1 10 20:41 30.12.2019
1682 Haze 25 1013 65 3000 3.1 320 20:20 30.12.2019
1683 Haze 24 1013 69 3000 2.6 330 19:59 30.12.2019
1684 Haze 24 1013 69 3000 2.6 330 19:40 30.12.2019
1685 Haze 24 1013 69 3000 3.6 340 19:20 30.12.2019
1686 Haze 24 1013 73 3000 3.1 340 18:59 30.12.2019
1687 Haze 24 1013 73 3000 3.1 340 18:41 30.12.2019
1688 Haze 24 1014 69 3000 2.1 350 18:21 30.12.2019
1689 Haze 25 1014 69 3000 4.1 350 17:58 30.12.2019
1690 Haze 25 1014 69 3000 4.1 350 17:40 30.12.2019
1691 Haze 25 1013 69 3000 3.1 320 17:19 30.12.2019
1692 Haze 25 1013 69 3000 3.1 300 16:59 30.12.2019
1693 Haze 25 1013 69 3000 2.6 310 16:38 30.12.2019
1694 Haze 25 1013 69 3000 2.6 310 16:20 30.12.2019
1695 Haze 25 1012 69 3000 4.1 310 15:56 30.12.2019
1696 Haze 25 1012 69 3000 3.1 310 15:38 30.12.2019
1697 Haze 25 1012 69 3000 3.1 310 15:19 30.12.2019
1698 Haze 26 1011 65 3000 3.1 310 14:43 30.12.2019
1699 Haze 27 1011 61 3000 5.1 300 14:21 30.12.2019
1700 Smoke 27 1010 57 3000 3.6 320 13:59 30.12.2019
1701 Smoke 28 1010 57 3000 3.6 320 13:41 30.12.2019
1702 Smoke 28 1010 54 3000 3.1 310 13:22 30.12.2019
1703 Smoke 29 1010 51 3000 4.6 300 12:57 30.12.2019
1704 -273 0 0 0 0 0 12:38 30.12.2019
1705 Smoke 27 1010 47 3000 4.6 310 12:18 30.12.2019
1706 Smoke 27 1010 47 3000 4.6 310 12:18 30.12.2019
1707 Smoke 27 1010 54 3000 5.7 300 11:46 30.12.2019
1708 Smoke 29 1010 51 3000 4.6 280 11:22 30.12.2019
1709 Smoke 29 1010 54 2500 4.6 280 10:59 30.12.2019
1710 Smoke 29 1010 51 2500 4.6 280 10:40 30.12.2019
1711 Smoke 29 1010 51 2500 4.6 280 10:19 30.12.2019
1712 Smoke 29 1011 54 2500 3.6 270 09:43 30.12.2019
1713 Smoke 29 1011 57 2500 4.1 270 09:21 30.12.2019
1714 Smoke 29 1012 54 2500 4.6 270 08:57 30.12.2019
1715 Smoke 29 1012 54 2500 2.1 250 08:38 30.12.2019
1716 Smoke 29 1012 54 2500 2.1 250 08:20 30.12.2019
1717 Smoke 28 1013 58 2500 2.6 270 07:48 30.12.2019
1718 Smoke 28 1013 58 2500 3.6 260 07:23 30.12.2019
1719 Smoke 28 1014 51 2500 2.6 130 06:32 30.12.2019
1720 Haze 25 1012 61 2500 3.1 70 04:31 30.12.2019
1721 Haze 23 1012 60 2500 2.1 100 03:50 30.12.2019
1722 Haze 23 1012 69 2500 1.5 140 02:47 30.12.2019
1723 Haze 23 1011 73 2500 1.5 150 02:26 30.12.2019
1724 Haze 24 1011 69 2200 1.55 71 01:29 30.12.2019
1725 Haze 24 1011 64 2200 1.5 60 00:59 30.12.2019
1726 Haze 24 1011 64 2200 1.5 60 00:39 30.12.2019
1727 Haze 24 1010 73 2200 2.1 120 23:55 29.12.2019
1728 Haze 24 1010 78 2200 1.5 80 23:36 29.12.2019
1729 Haze 24 1010 78 2200 1.5 80 23:18 29.12.2019
1730 Haze 24 1010 78 2200 1.09 352 22:40 29.12.2019
1731 Haze 24 1011 78 2200 2.1 40 22:21 29.12.2019
1732 Haze 25 1011 73 2200 1.5 10 21:56 29.12.2019
1733 Haze 25 1011 73 2500 1.09 352 21:38 29.12.2019
1734 Haze 25 1011 73 2500 1.09 352 21:19 29.12.2019
1735 Haze 25 1011 73 2500 1.5 330 20:55 29.12.2019
1736 Haze 25 1011 78 2500 3.1 240 20:37 29.12.2019
1737 Haze 25 1011 78 2500 3.1 240 20:18 29.12.2019
1738 Haze 26 1011 69 2500 2.1 170 19:56 29.12.2019
1739 Haze 26 1011 69 2500 1.5 0 19:37 29.12.2019
1740 Haze 26 1011 69 2500 1.5 0 19:19 29.12.2019
1741 Haze 26 1012 69 2500 1.56 36 18:55 29.12.2019
1742 Haze 26 1012 69 2500 1.56 36 18:37 29.12.2019
1743 Haze 26 1012 69 2500 1.56 36 18:18 29.12.2019
1744 Haze 26 1012 69 2500 2.6 30 17:56 29.12.2019
1745 Haze 26 1012 69 2500 2.6 30 17:37 29.12.2019
1746 Haze 26 1012 69 2500 2.6 30 17:37 29.12.2019
1747 Haze 26 1012 69 2500 2.6 30 17:37 29.12.2019
1748 Haze 26 1012 69 2500 2.6 30 17:19 29.12.2019
1749 Haze 26 1011 69 2500 2.1 40 16:55 29.12.2019
1750 Haze 27 1012 65 2500 2.1 350 16:36 29.12.2019
1751 Haze 27 1012 65 2500 2.1 350 16:36 29.12.2019
1752 Haze 27 1012 65 2500 2.1 350 16:18 29.12.2019
1753 Haze 26 1011 69 2500 2.6 350 15:55 29.12.2019
1754 Haze 27 1011 65 2500 2.6 350 15:37 29.12.2019
1755 Haze 27 1011 65 2500 2.6 350 15:18 29.12.2019
1756 Haze 26 1011 65 2500 3.1 310 14:55 29.12.2019
1757 Haze 26 1011 69 2500 4.6 310 14:37 29.12.2019
1758 Haze 28 1011 69 2500 4.6 310 14:18 29.12.2019
1759 Haze 28 1011 69 2500 3.6 320 13:41 29.12.2019
1760 Smoke 29 1010 61 2500 3.1 320 13:22 29.12.2019
1761 Smoke 29 1010 58 2500 4.1 290 12:59 29.12.2019
1762 Smoke 30 1010 58 2500 4.1 290 12:41 29.12.2019
1763 Smoke 30 1010 58 2500 3.6 280 12:22 29.12.2019
1764 Smoke 30 1010 62 2500 5.1 270 11:54 29.12.2019
1765 Smoke 30 1010 62 2500 5.1 270 11:36 29.12.2019
1766 Smoke 30 1010 62 2500 5.1 270 11:18 29.12.2019
1767 Smoke 31 1010 58 2500 4.6 260 10:41 29.12.2019
1768 Smoke 31 1010 48 2500 4.6 260 10:20 29.12.2019
1769 Smoke 31 1010 45 2500 1.5 170 09:54 29.12.2019
1770 Smoke 31 1011 45 3000 4.7 265 09:36 29.12.2019
1771 Smoke 31 1011 45 3000 4.7 265 09:18 29.12.2019
1772 Smoke 31 1013 48 3000 3.6 120 08:44 29.12.2019
1773 Smoke 30 1013 48 3000 3.6 120 08:24 29.12.2019
1774 Smoke 31 1013 48 3000 4.1 120 07:54 29.12.2019
1775 Smoke 29 1013 51 3000 3.6 110 07:27 29.12.2019
1776 Smoke 29 1014 51 3000 3.1 110 06:53 29.12.2019
1777 Smoke 29 1014 51 2500 3.6 110 06:23 29.12.2019
1778 Smoke 28 1014 54 2500 3.1 100 05:48 29.12.2019
1779 Smoke 26 1013 61 2500 2.6 80 04:34 29.12.2019
1780 Haze 25 1012 61 3000 2.6 70 03:40 29.12.2019
1781 Haze 25 1012 61 3000 2.1 80 02:49 29.12.2019
1782 Haze 25 1012 61 4000 2.1 30 02:19 29.12.2019
1783 Clouds 25 1011 61 6000 2.1 50 01:31 29.12.2019
1784 Clouds 25 1011 61 6000 2.6 50 00:51 29.12.2019
1785 Clouds 25 1011 61 6000 1.5 70 00:27 29.12.2019
1786 Clouds 25 1011 61 6000 2.6 50 23:56 28.12.2019
1787 Haze 25 1011 61 5000 2.6 40 23:37 28.12.2019
1788 Haze 25 1011 61 5000 2.6 40 23:18 28.12.2019
1789 Haze 26 1011 57 3000 1 60 22:38 28.12.2019
1790 Haze 26 1011 57 3000 1 60 22:38 28.12.2019
1791 Haze 26 1011 57 3000 1 60 22:19 28.12.2019
1792 Smoke 26 1011 57 3000 2.1 60 21:57 28.12.2019
1793 Haze 26 1011 61 3000 2.6 40 21:38 28.12.2019
1794 Haze 26 1011 61 3000 2.6 40 21:38 28.12.2019
1795 Haze 26 1011 61 3000 2.6 40 21:20 28.12.2019
1796 Haze 26 1011 65 3000 2.6 30 20:55 28.12.2019
1797 Haze 26 1011 65 3000 1.5 80 20:36 28.12.2019
1798 Haze 26 1011 65 3000 1.5 80 20:18 28.12.2019
1799 Haze 26 1012 69 3000 2.6 70 19:55 28.12.2019
1800 Haze 27 1012 65 3000 2.6 40 19:36 28.12.2019
1801 Haze 27 1012 65 3000 2.6 40 19:18 28.12.2019
1802 Smoke 27 1012 65 3000 2.1 130 18:55 28.12.2019
1803 Smoke 28 1012 58 3000 1.5 150 18:37 28.12.2019
1804 Smoke 28 1012 58 3000 1.5 150 18:18 28.12.2019
1805 Smoke 27 1012 65 3000 1.39 37 17:42 28.12.2019
1806 Smoke 27 1012 65 3000 1.5 60 17:21 28.12.2019
1807 Smoke 27 1011 65 3000 2.1 30 16:55 28.12.2019
1808 Smoke 27 1011 61 3000 2.1 10 16:37 28.12.2019
1809 Smoke 27 1011 61 3000 2.1 10 16:19 28.12.2019
1810 Smoke 28 1011 58 3000 2.6 340 15:43 28.12.2019
1811 Smoke 28 1010 54 3000 2.1 330 15:22 28.12.2019
1812 Smoke 27 1010 54 3000 4.1 340 14:55 28.12.2019
1813 Smoke 27 1010 61 3000 2.6 350 14:37 28.12.2019
1814 Smoke 29 1010 61 3000 2.6 350 14:18 28.12.2019
1815 Smoke 29 1009 61 3000 2.6 320 13:42 28.12.2019
1816 Smoke 30 1009 62 3500 4.1 300 13:21 28.12.2019
1817 Smoke 30 1009 55 3500 2.6 320 12:58 28.12.2019
1818 Smoke 30 1009 55 3500 2.6 320 12:40 28.12.2019
1819 Smoke 31 1009 45 3500 3.6 300 12:21 28.12.2019
1820 Smoke 31 1009 45 3500 3.6 310 11:40 28.12.2019
1821 Smoke 31 1009 43 3000 4.6 300 11:22 28.12.2019
1822 Smoke 32 1009 43 3000 2.1 310 10:59 28.12.2019
1823 Smoke 31 1009 45 3000 2.38 269 10:41 28.12.2019
1824 Smoke 31 1009 45 3000 2.38 269 10:20 28.12.2019
1825 Smoke 31 1010 48 2500 2.1 10 09:55 28.12.2019
1826 Smoke 31 1011 48 2500 3.6 30 09:36 28.12.2019
1827 Smoke 31 1011 48 2500 3.6 30 09:18 28.12.2019
1828 Smoke 31 1011 51 2500 2.1 90 08:43 28.12.2019
1829 Smoke 30 1012 51 2500 3.6 70 08:24 28.12.2019
1830 Smoke 30 1013 51 2500 3.6 100 07:48 28.12.2019
1831 Smoke 29 1013 48 2500 3.1 80 07:23 28.12.2019
1832 Haze 27 1014 57 2200 3.1 70 05:52 28.12.2019
1833 Haze 24 1012 64 2200 5.1 70 03:49 28.12.2019
1834 Haze 24 1011 64 2200 4.1 70 02:52 28.12.2019
1835 Haze 24 1011 64 2500 3.1 70 02:31 28.12.2019
1836 Haze 24 1011 64 2500 4.1 80 01:56 28.12.2019
1837 Haze 24 1011 64 2500 4.1 80 01:56 28.12.2019
1838 Haze 24 1010 64 2500 3.1 70 01:24 28.12.2019
1839 Haze 24 1010 60 2500 3.6 70 00:50 28.12.2019
1840 Haze 24 1010 60 2500 3.1 70 00:30 28.12.2019
1841 Haze 24 1010 60 3000 3.6 60 23:58 27.12.2019
1842 Haze 24 1010 60 3000 3.6 60 23:39 27.12.2019
1843 Haze 25 1010 61 3000 3.1 60 23:19 27.12.2019
1844 Haze 25 1010 61 3000 2.6 70 22:57 27.12.2019
1845 Haze 25 1011 61 3000 3.1 50 22:38 27.12.2019
1846 Haze 25 1011 61 3000 3.1 50 22:38 27.12.2019
1847 Haze 25 1011 61 3000 3.1 50 22:19 27.12.2019
1848 Smoke 26 1011 57 3000 2.1 60 21:43 27.12.2019
1849 Smoke 26 1011 57 3000 2.1 60 21:43 27.12.2019
1850 Haze 26 1011 57 3000 3.6 40 21:25 27.12.2019
1851 Haze 26 1011 57 3000 2.6 60 20:58 27.12.2019
1852 Haze 26 1011 57 3000 2.6 60 20:40 27.12.2019
1853 Haze 27 1011 54 3000 3.6 40 20:21 27.12.2019
1854 Haze 26 1011 61 3000 2.1 40 19:42 27.12.2019
1855 Haze 26 1011 65 3000 2.1 40 19:20 27.12.2019
1856 Haze 26 1011 65 3000 2.1 40 19:20 27.12.2019
1857 Haze 27 1012 61 3000 2.1 40 18:58 27.12.2019
1858 Haze 28 1012 65 3000 2.6 40 18:37 27.12.2019
1859 Haze 27 1012 65 3000 2.6 40 18:19 27.12.2019
1860 Haze 28 1012 61 3000 1.5 0 17:56 27.12.2019
1861 Haze 27 1011 65 3000 2.6 350 17:38 27.12.2019
1862 Haze 27 1011 65 3000 2.6 350 17:18 27.12.2019
1863 Haze 28 1011 65 3000 3.1 10 16:56 27.12.2019
1864 Haze 28 1011 65 3000 1.5 340 16:37 27.12.2019
1865 Haze 27 1011 65 3000 1.5 340 16:19 27.12.2019
1866 Haze 28 1010 58 3000 3.1 190 15:43 27.12.2019
1867 Haze 28 1010 58 3000 2.6 50 15:20 27.12.2019
1868 Smoke 27 1010 61 3000 2.1 330 14:57 27.12.2019
1869 Smoke 27 1010 65 3000 2.6 320 14:38 27.12.2019
1870 Smoke 28 1010 65 3000 2.6 320 14:20 27.12.2019
1871 Smoke 29 1009 62 3500 3.1 350 13:48 27.12.2019
1872 Smoke 29 1009 58 3500 3.6 320 13:25 27.12.2019
1873 Smoke 29 1009 58 3500 4.1 310 12:58 27.12.2019
1874 Smoke 29 1009 58 3500 4.1 310 12:39 27.12.2019
1875 Smoke 30 1009 54 3500 4.1 310 12:21 27.12.2019
1876 Smoke 31 1009 48 3500 4.6 270 11:44 27.12.2019
1877 Smoke 31 1009 48 3500 3.6 290 11:26 27.12.2019
1878 Smoke 31 1010 48 3500 4.6 280 10:56 27.12.2019
1879 Smoke 30 1010 51 3500 3.6 290 10:38 27.12.2019
1880 Smoke 29 1010 51 3500 3.6 290 10:20 27.12.2019
1881 Smoke 31 1011 40 4000 2.6 350 09:43 27.12.2019
1882 Smoke 31 1011 40 4000 2.6 350 09:21 27.12.2019
1883 Smoke 31 1011 45 3000 2.1 80 08:58 27.12.2019
1884 Smoke 30 1012 48 3000 2.6 50 08:36 27.12.2019
1885 Smoke 29 1013 48 2500 3.1 100 07:51 27.12.2019
1886 Smoke 28 1013 50 2500 3.1 120 07:32 27.12.2019
1887 Smoke 28 1013 54 2500 2.6 110 06:37 27.12.2019
1888 Smoke 26 1013 57 2000 3.1 80 05:37 27.12.2019
1889 Haze 22 1012 73 1700 2.1 110 03:44 27.12.2019
1890 Mist 21 1012 77 2200 1.98 44 02:21 27.12.2019
1891 Mist 21 1011 77 2200 1.98 44 01:38 27.12.2019
1892 Mist 21 1011 77 2200 1.98 44 01:19 27.12.2019
1893 Haze 22 1011 73 2500 1.98 44 00:43 27.12.2019
1894 Haze 22 1011 68 2500 1.98 44 00:24 27.12.2019
1895 Haze 22 1011 68 2500 1.98 44 00:24 27.12.2019
1896 Haze 22 1011 68 2500 1.5 70 23:42 26.12.2019
1897 Haze 23 1011 69 2500 2.1 40 23:22 26.12.2019
1898 Haze 23 1011 69 2500 2.6 20 22:57 26.12.2019
1899 Haze 24 1012 69 2500 2.6 30 22:37 26.12.2019
1900 Haze 24 1012 69 2500 2.6 30 22:18 26.12.2019
1901 Haze 24 1012 64 2500 1.5 20 21:39 26.12.2019
1902 Haze 24 1012 64 2500 2.1 10 21:21 26.12.2019
1903 Haze 24 1012 64 2500 2.1 10 21:21 26.12.2019
1904 Haze 25 1012 61 2500 2.03 46 20:47 26.12.2019
1905 Haze 25 1012 61 3000 2.06 48 20:24 26.12.2019
1906 Haze 25 1013 61 3000 2.51 25 19:59 26.12.2019
1907 Haze 25 1013 61 3000 2.51 25 19:40 26.12.2019
1908 Haze 25 1013 61 3000 1.5 50 19:22 26.12.2019
1909 Haze 25 1013 61 3000 2.1 40 18:58 26.12.2019
1910 Haze 25 1013 61 3000 2.1 40 18:40 26.12.2019
1911 Smoke 26 1013 57 3000 3.1 10 18:20 26.12.2019
1912 Smoke 26 1013 57 3500 2.1 340 17:57 26.12.2019
1913 Smoke 26 1013 57 3500 2.6 350 17:38 26.12.2019
1914 Smoke 26 1013 57 3500 2.6 350 17:38 26.12.2019
1915 Smoke 26 1013 57 3500 2.6 350 17:19 26.12.2019
1916 Smoke 26 1013 54 4000 2.1 350 16:45 26.12.2019
1917 Smoke 26 1013 54 4000 2.1 350 16:24 26.12.2019
1918 Smoke 27 1012 47 4000 3.6 340 15:56 26.12.2019
1919 Smoke 27 1012 47 4000 3.1 330 15:38 26.12.2019
1920 Smoke 27 1012 47 4000 3.1 330 15:18 26.12.2019
1921 Smoke 28 1012 39 5000 2.6 320 14:41 26.12.2019
1922 Smoke 28 1012 32 5000 3.1 330 14:22 26.12.2019
1923 Smoke 29 1011 34 5000 4.1 330 13:45 26.12.2019
1924 Smoke 28 1011 39 5000 3.6 320 13:23 26.12.2019
1925 Smoke 29 1011 39 5000 5.7 320 12:58 26.12.2019
1926 Smoke 29 1011 39 5000 5.7 320 12:40 26.12.2019
1927 Smoke 29 1011 39 4000 5.1 320 12:21 26.12.2019
1928 Smoke 29 1011 42 3500 6.7 330 11:58 26.12.2019
1929 Smoke 29 1011 42 3500 6.7 330 11:39 26.12.2019
1930 Smoke 29 1011 45 3000 5.1 320 11:20 26.12.2019
1931 Smoke 30 1011 48 3000 5.7 310 10:49 26.12.2019
1932 Smoke 30 1011 48 3000 5.7 310 10:20 26.12.2019
1933 Smoke 30 1011 48 3000 4.6 310 09:54 26.12.2019
1934 Smoke 29 1012 48 2500 3.6 120 09:32 26.12.2019
1935 Smoke 30 1012 45 2500 3.1 310 08:57 26.12.2019
1936 Smoke 30 1013 45 2500 2.6 350 08:38 26.12.2019
1937 Smoke 30 1013 45 2500 2.6 350 08:20 26.12.2019
1938 Smoke 30 1013 45 2500 2.6 350 08:20 26.12.2019
1939 Smoke 29 1014 51 2200 2.6 320 07:31 26.12.2019
1940 Smoke 27 1015 57 2200 2.6 330 06:56 26.12.2019
1941 Smoke 25 1014 69 2200 2.11 31 06:34 26.12.2019
1942 Haze 25 1014 69 1800 1 330 05:57 26.12.2019
1943 Haze 26 1014 69 1800 2.1 120 05:38 26.12.2019
1944 Haze 25 1014 69 1800 2.1 350 04:32 26.12.2019
1945 Haze 26 1013 65 1800 2.1 80 03:20 26.12.2019
1946 Haze 25 1012 69 1700 1.5 0 02:40 26.12.2019
1947 Haze 26 1012 69 2200 2.1 40 02:20 26.12.2019
1948 Haze 26 1011 69 2200 1.5 0 01:42 26.12.2019
1949 Haze 26 1011 69 2200 1.5 0 01:24 26.12.2019
1950 Haze 26 1011 69 2200 2.1 350 00:42 26.12.2019
1951 Haze 26 1011 69 2200 1.56 43 00:22 26.12.2019
1952 Haze 26 1011 69 2200 1.56 43 00:22 26.12.2019
1953 Haze 26 1011 74 2200 2.1 20 23:56 25.12.2019
1954 Drizzle 26 1011 69 2100 1.5 340 23:36 25.12.2019
1955 Drizzle 26 1011 69 2100 1.5 340 23:18 25.12.2019
1956 Haze 26 1011 74 2200 2.1 20 22:55 25.12.2019
1957 Haze 27 1012 69 2200 2.6 30 22:36 25.12.2019
1958 Haze 27 1012 69 2200 2.6 30 22:18 25.12.2019
1959 Haze 27 1012 69 1800 2.1 330 21:40 25.12.2019
1960 Haze 27 1012 65 1800 1.5 10 21:22 25.12.2019
1961 Haze 27 1012 69 2100 2.1 20 20:58 25.12.2019
1962 Haze 27 1012 69 2100 2.1 20 20:40 25.12.2019
1963 Haze 27 1013 69 1800 2.1 10 20:19 25.12.2019
1964 Haze 27 1013 74 1800 2.6 330 19:57 25.12.2019
1965 Haze 27 1013 74 1800 2.6 330 19:39 25.12.2019
1966 Drizzle 27 1013 69 1600 1.5 20 19:21 25.12.2019
1967 Drizzle 27 1014 74 1500 1.5 0 18:39 25.12.2019
1968 Drizzle 27 1014 74 1500 1.5 0 18:20 25.12.2019
1969 Drizzle 27 1014 74 1500 2.6 20 17:43 25.12.2019
1970 Drizzle 28 1014 74 1500 4.6 40 17:21 25.12.2019
1971 Drizzle 28 1014 74 1500 2.6 340 16:59 25.12.2019
1972 Rain 28 1014 69 1500 2.1 340 16:39 25.12.2019
1973 Rain 28 1014 69 1500 2.1 340 16:19 25.12.2019
1974 Rain 28 1014 69 1500 2.1 340 16:19 25.12.2019
1975 Drizzle 28 1013 74 1600 3.55 33 15:58 25.12.2019
1976 Drizzle 28 1013 74 1600 3.55 33 15:39 25.12.2019
1977 Drizzle 28 1013 74 1600 3.55 33 15:39 25.12.2019
1978 Rain 28 1013 74 1500 3.1 350 15:21 25.12.2019
1979 Drizzle 27 1012 74 1500 2.1 330 14:58 25.12.2019
1980 Drizzle 27 1012 74 1500 2.1 330 14:40 25.12.2019
1981 Drizzle 27 1012 74 1400 3.1 330 14:21 25.12.2019
1982 Drizzle 27 1012 74 1400 3.1 330 14:21 25.12.2019
1983 Drizzle 27 1012 74 1400 3.1 330 14:21 25.12.2019
1984 Drizzle 27 1012 74 1400 3.1 330 14:21 25.12.2019
1985 Drizzle 27 1012 74 1400 3.1 330 14:21 25.12.2019
1986 Haze 28 1012 74 1500 2.6 320 13:57 25.12.2019
1987 Haze 28 1011 70 1500 2.1 320 13:38 25.12.2019
1988 Haze 28 1011 70 1500 2.1 320 13:19 25.12.2019
1989 Rain 28 1011 70 1500 3.6 300 12:40 25.12.2019
1990 Haze 29 1011 66 1600 3.1 320 12:20 25.12.2019
1991 Haze 29 1011 66 1600 3.1 300 11:55 25.12.2019
1992 Haze 29 1011 66 1600 3.1 300 11:55 25.12.2019
1993 Haze 30 1011 66 1800 3.1 320 11:37 25.12.2019
1994 Haze 30 1011 66 1800 3.1 320 11:18 25.12.2019
1995 Haze 30 1011 66 1600 3.6 290 10:38 25.12.2019
1996 Haze 30 1011 66 1600 3.6 290 10:19 25.12.2019
1997 Haze 30 1011 66 1600 3.1 320 09:50 25.12.2019
1998 Haze 29 1012 70 1600 3.1 300 09:32 25.12.2019
1999 Haze 29 1012 66 1600 2.6 300 08:51 25.12.2019
2000 Haze 31 1012 55 2200 2.1 360 08:30 25.12.2019
2001 Haze 31 1013 62 2200 2.1 340 07:50 25.12.2019
2002 Haze 31 1013 62 2200 2.6 20 07:32 25.12.2019
2003 Haze 30 1014 62 1900 2.1 40 06:51 25.12.2019
2004 Haze 30 1014 62 1700 2.1 80 06:23 25.12.2019
2005 Haze 29 1014 62 1700 2.6 40 05:18 25.12.2019
2006 Haze 29 1013 69 1600 2.1 90 04:39 25.12.2019
2007 Haze 27 1013 69 1500 2.1 90 04:20 25.12.2019
2008 Haze 28 1013 69 1500 1.5 320 03:41 25.12.2019
2009 Haze 28 1012 69 1700 2.47 14 02:54 25.12.2019
2010 Haze 29 1011 69 2100 2.6 50 02:27 25.12.2019
2011 Haze 27 1011 74 2100 1.5 0 01:25 25.12.2019
2012 Haze 27 1011 69 2100 2.1 340 00:54 25.12.2019
2013 Haze 27 1011 69 2100 2.1 340 00:54 25.12.2019
2014 Haze 27 1011 65 2100 1.68 63 00:32 25.12.2019
2015 Haze 28 1011 61 2100 1.5 0 23:57 24.12.2019
2016 Haze 28 1011 61 2100 1.5 0 23:38 24.12.2019
2017 Haze 28 1011 61 2100 1.5 0 23:20 24.12.2019
2018 Haze 28 1012 61 2100 2.38 357 22:41 24.12.2019
2019 Haze 28 1012 61 2100 2.38 357 22:41 24.12.2019
2020 Haze 28 1012 61 2100 2.1 30 22:21 24.12.2019
2021 Haze 27 1012 69 2100 2.38 357 21:44 24.12.2019
2022 Haze 28 1012 65 2100 2.38 357 21:23 24.12.2019
2023 Haze 28 1012 65 2100 1.5 30 20:59 24.12.2019
2024 Haze 28 1012 65 2100 1.5 30 20:41 24.12.2019
2025 Haze 28 1013 65 2100 2.6 130 20:19 24.12.2019
2026 Haze 28 1013 65 2100 2.6 130 20:19 24.12.2019
2027 Haze 28 1013 65 2100 1.5 150 19:45 24.12.2019
2028 Haze 29 1013 62 2100 1.36 329 19:21 24.12.2019
2029 Haze 28 1013 65 2100 1.36 329 18:58 24.12.2019
2030 Haze 28 1013 65 2100 1.36 329 18:40 24.12.2019
2031 Haze 28 1013 69 2100 2.1 10 18:18 24.12.2019
2032 Haze 29 1013 62 2100 2.6 350 17:42 24.12.2019
2033 Haze 29 1013 62 2100 2.6 350 17:21 24.12.2019
2034 Haze 29 1013 62 2100 2.6 350 16:57 24.12.2019
2035 Haze 28 1013 65 1800 2.1 330 16:38 24.12.2019
2036 Haze 28 1013 65 1800 2.1 330 16:20 24.12.2019
2037 Haze 29 1012 66 2100 2.6 350 15:56 24.12.2019
2038 Haze 29 1012 66 2100 2.1 320 15:36 24.12.2019
2039 Haze 29 1012 66 2100 2.1 320 15:18 24.12.2019
2040 Haze 28 1012 66 2200 3.1 320 14:57 24.12.2019
2041 Haze 28 1012 66 2200 3.1 320 14:57 24.12.2019
2042 Haze 28 1012 66 2200 2.1 290 14:38 24.12.2019
2043 Haze 30 1012 66 2200 2.1 290 14:20 24.12.2019
2044 Haze 30 1011 66 2500 2.6 280 13:55 24.12.2019
2045 Smoke 30 1011 58 2500 2.6 260 13:37 24.12.2019
2046 Smoke 30 1011 58 2500 2.6 260 13:19 24.12.2019
2047 Smoke 30 1011 58 2500 3.6 250 12:55 24.12.2019
2048 Smoke 30 1011 55 2500 3.6 220 12:36 24.12.2019
2049 Smoke 30 1011 55 2500 3.6 220 12:18 24.12.2019
2050 Smoke 30 1011 55 2500 3.6 280 11:55 24.12.2019
2051 Smoke 30 1011 55 2500 3.6 280 11:55 24.12.2019
2052 Haze 30 1011 58 2500 2.6 230 11:37 24.12.2019
2053 Haze 30 1011 58 2500 2.6 230 11:37 24.12.2019
2054 Haze 30 1011 58 2500 2.6 230 11:18 24.12.2019
2055 Haze 30 1011 55 2500 3.6 260 10:56 24.12.2019
2056 Haze 30 1012 58 2500 3.1 260 10:37 24.12.2019
2057 Haze 30 1012 58 2500 3.1 260 10:19 24.12.2019
2058 Haze 30 1012 58 2200 4.6 260 09:55 24.12.2019
2059 Smoke 30 1012 58 1800 4.1 260 09:36 24.12.2019
2060 Smoke 30 1012 58 1800 4.1 260 09:18 24.12.2019
2061 Smoke 30 1013 55 2100 4.1 280 08:44 24.12.2019
2062 Smoke 30 1013 55 2100 3.1 290 08:20 24.12.2019
2063 Smoke 31 1014 55 1800 2.6 210 07:46 24.12.2019
2064 Smoke 30 1014 52 1800 1.5 0 07:26 24.12.2019
2065 Smoke 29 1015 58 1700 1.5 120 06:58 24.12.2019
2066 Smoke 29 1015 58 1700 2.6 130 06:38 24.12.2019
2067 Smoke 29 1015 58 1700 2.6 130 06:19 24.12.2019
2068 Smoke 26 1014 65 1700 2.6 90 05:21 24.12.2019
2069 Smoke 26 1014 69 1700 2.1 100 04:59 24.12.2019
2070 Haze 25 1013 74 1700 1 20 03:50 24.12.2019
2071 Mist 25 1013 74 1700 1.57 67 03:22 24.12.2019
2072 Haze 26 1011 74 2500 1.57 67 02:23 24.12.2019
2073 Haze 26 1011 74 2500 1.5 130 01:50 24.12.2019
2074 Haze 26 1011 74 2500 1.69 82 01:22 24.12.2019
2075 Haze 27 1010 69 2200 1.69 82 00:45 24.12.2019
2076 Haze 27 1010 69 2200 1.69 82 00:24 24.12.2019
2077 Haze 26 1010 78 2200 1.69 82 23:59 23.12.2019
2078 Haze 26 1010 78 2200 1.69 82 23:40 23.12.2019
2079 Haze 27 1010 74 2200 0.93 36 23:22 23.12.2019
2080 Haze 27 1010 74 2200 1.5 40 22:56 23.12.2019
2081 Haze 27 1011 74 2200 2.1 60 22:36 23.12.2019
2082 Haze 27 1011 74 2200 2.1 60 22:18 23.12.2019
2083 Haze 27 1011 78 2200 1.5 30 21:55 23.12.2019
2084 Haze 27 1011 78 2200 1.5 70 21:36 23.12.2019
2085 Haze 27 1011 78 2200 1.5 70 21:18 23.12.2019
2086 Haze 28 1011 74 2200 2.1 90 20:57 23.12.2019
2087 Haze 28 1011 74 2200 2.1 90 20:39 23.12.2019
2088 Haze 28 1011 74 2200 2.1 120 20:18 23.12.2019
2089 Haze 28 1011 74 2200 2.1 120 19:55 23.12.2019
2090 Haze 29 1012 70 2200 2.1 70 19:37 23.12.2019
2091 Haze 29 1012 70 2200 2.1 70 19:19 23.12.2019
2092 Haze 28 1012 74 2200 0.68 123 18:57 23.12.2019
2093 Haze 28 1012 78 2200 2.6 30 18:38 23.12.2019
2094 Haze 28 1012 78 2200 2.6 30 18:20 23.12.2019
2095 Haze 29 1012 74 2500 2.6 40 17:55 23.12.2019
2096 Haze 28 1011 78 2500 0.68 123 17:37 23.12.2019
2097 Haze 28 1011 78 2500 1.03 273 17:19 23.12.2019
2098 Haze 28 1011 78 2500 2.1 340 16:42 23.12.2019
2099 Haze 28 1011 78 2500 1.5 310 16:19 23.12.2019
2100 Haze 29 1011 70 2500 2.1 320 15:59 23.12.2019
2101 Haze 29 1011 70 2500 2.1 280 15:39 23.12.2019
2102 Haze 29 1011 70 2500 2.1 280 15:20 23.12.2019
2103 Haze 28 1010 74 2200 2.6 240 14:59 23.12.2019
2104 Haze 28 1010 74 2200 2.6 240 14:41 23.12.2019
2105 Haze 28 1010 66 3000 3.6 260 14:23 23.12.2019
2106 Haze 29 1009 70 3000 4.6 260 13:59 23.12.2019
2107 Haze 29 1009 70 3000 4.6 260 13:40 23.12.2019
2108 Haze 29 1009 70 3000 4.6 260 13:40 23.12.2019
2109 Haze 29 1009 66 3000 4.1 250 13:22 23.12.2019
2110 Haze 29 1009 66 3000 4.1 250 13:22 23.12.2019
2111 Haze 29 1009 66 3000 4.1 250 13:22 23.12.2019
2112 Smoke 30 1009 58 3000 4.6 240 12:58 23.12.2019
2113 Smoke 30 1009 58 3000 4.6 240 12:39 23.12.2019
2114 Smoke 30 1009 58 3000 3.6 250 12:20 23.12.2019
2115 Smoke 31 1009 52 3000 4.6 260 11:45 23.12.2019
2116 Smoke 31 1009 49 3000 4.1 240 11:26 23.12.2019
2117 Smoke 32 1009 43 3000 4.1 240 10:59 23.12.2019
2118 Smoke 32 1009 43 3000 4.1 240 10:41 23.12.2019
2119 Smoke 33 1010 43 3000 4.1 260 10:21 23.12.2019
2120 Smoke 32 1010 46 3000 2.6 150 09:59 23.12.2019
2121 Smoke 32 1010 46 3000 2.6 150 09:40 23.12.2019
2122 Smoke 33 1010 41 3000 4.1 160 09:21 23.12.2019
2123 Smoke 33 1011 38 2500 3.6 170 08:58 23.12.2019
2124 Smoke 33 1012 43 2500 3.6 170 08:40 23.12.2019
2125 Smoke 33 1012 43 2500 3.6 170 08:22 23.12.2019
2126 Smoke 32 1012 46 2500 2.6 150 07:48 23.12.2019
2127 Smoke 31 1013 45 2500 2.6 130 07:21 23.12.2019
2128 Smoke 31 1013 48 2200 3.6 120 06:57 23.12.2019
2129 Smoke 31 1013 58 2100 3.1 120 06:26 23.12.2019
2130 Smoke 30 1013 62 1900 3.1 100 05:56 23.12.2019
2131 Haze 28 1013 61 1800 2.6 100 05:29 23.12.2019
2132 Haze 27 1012 69 1800 1.5 120 04:34 23.12.2019
2133 Haze 25 1011 69 2000 1.5 120 03:26 23.12.2019
2134 Haze 26 1011 73 2200 1.5 130 02:42 23.12.2019
2135 Haze 25 1011 69 2500 1.84 96 02:19 23.12.2019
2136 Haze 25 1011 69 2500 1.84 96 01:43 23.12.2019
2137 Haze 26 1010 65 2500 1.5 130 01:25 23.12.2019
2138 Haze 26 1010 65 2500 1.5 130 00:44 23.12.2019
2139 Haze 26 1010 69 2500 1.89 96 00:23 23.12.2019
2140 Haze 26 1010 69 2500 1.89 96 23:40 22.12.2019
2141 Haze 27 1010 69 2500 2.1 170 23:22 22.12.2019
2142 Haze 27 1010 69 2500 0.83 80 22:58 22.12.2019
2143 Haze 27 1010 69 2500 0.83 80 22:40 22.12.2019
2144 Haze 27 1011 69 2500 1.5 20 22:22 22.12.2019
2145 Haze 28 1011 69 2500 1.5 50 21:58 22.12.2019
2146 Haze 28 1011 69 2500 1.5 50 21:40 22.12.2019
2147 Haze 28 1011 65 2500 0.83 80 21:21 22.12.2019
2148 Haze 28 1011 65 2500 0.83 80 21:21 22.12.2019
2149 Haze 28 1011 65 2500 1.5 310 20:58 22.12.2019
2150 Haze 28 1011 65 2500 1.5 310 20:39 22.12.2019
2151 Haze 28 1011 65 2500 1.34 353 20:19 22.12.2019
2152 Haze 28 1012 61 2500 1.32 350 19:57 22.12.2019
2153 Haze 29 1012 62 2500 1.5 40 19:39 22.12.2019
2154 Haze 29 1012 62 2500 1.5 40 19:19 22.12.2019
2155 Haze 29 1012 62 2500 1.5 50 18:42 22.12.2019
2156 Haze 28 1012 65 2500 2.1 360 18:24 22.12.2019
2157 Haze 29 1012 62 2500 2.6 340 17:56 22.12.2019
2158 Haze 29 1012 66 2500 1.5 320 17:38 22.12.2019
2159 Haze 29 1012 66 2500 1.5 320 17:19 22.12.2019
2160 Haze 29 1012 66 2500 2.1 290 16:57 22.12.2019
2161 Haze 29 1012 66 2500 2.1 290 16:39 22.12.2019
2162 Smoke 29 1012 66 2500 1.5 290 16:21 22.12.2019
2163 Smoke 29 1011 62 2500 1.5 320 15:56 22.12.2019
2164 Smoke 29 1011 62 2500 1.5 310 15:38 22.12.2019
2165 Smoke 29 1011 62 2500 1.5 310 15:20 22.12.2019
2166 Smoke 28 1010 62 2500 2.1 260 14:55 22.12.2019
2167 Smoke 28 1010 62 2500 2.1 260 14:55 22.12.2019
2168 Smoke 28 1010 66 2500 2.1 260 14:37 22.12.2019
2169 Smoke 30 1010 66 2500 2.1 260 14:18 22.12.2019
2170 Smoke 30 1010 66 2500 2.1 260 14:18 22.12.2019
2171 Smoke 30 1010 58 2500 2.6 280 13:55 22.12.2019
2172 Smoke 30 1009 58 2500 3.6 250 13:37 22.12.2019
2173 Smoke 30 1009 58 2500 3.6 250 13:18 22.12.2019
2174 Smoke 30 1009 52 3000 3.6 260 12:56 22.12.2019
2175 Smoke 31 1009 40 3000 2.6 120 12:37 22.12.2019
2176 Smoke 31 1009 40 3000 2.6 120 12:18 22.12.2019
2177 Smoke 32 1009 40 3000 2.1 120 11:56 22.12.2019
2178 Smoke 32 1009 40 3000 1.5 160 11:37 22.12.2019
2179 Smoke 33 1009 40 3000 1.5 160 11:18 22.12.2019
2180 Smoke 33 1009 40 3000 2.6 100 10:54 22.12.2019
2181 Smoke 33 1009 40 3000 2.1 130 10:36 22.12.2019
2182 Smoke 32 1009 40 3000 2.1 130 10:18 22.12.2019
2183 Smoke 32 1010 40 3000 3.6 90 09:56 22.12.2019
2184 Smoke 32 1010 40 3000 3.6 100 09:37 22.12.2019
2185 Smoke 32 1010 40 3000 3.6 100 09:19 22.12.2019
2186 Smoke 32 1011 45 3000 3.1 120 08:39 22.12.2019
2187 Smoke 31 1012 43 3000 4.1 100 08:21 22.12.2019
2188 Smoke 31 1013 48 3000 3.6 100 07:40 22.12.2019
2189 Smoke 30 1013 45 2500 3.1 110 07:21 22.12.2019
2190 Smoke 30 1013 48 2500 4.1 80 06:42 22.12.2019
2191 Smoke 29 1013 51 2500 3.6 90 06:21 22.12.2019
2192 Smoke 28 1013 51 2500 3.6 80 05:29 22.12.2019
2193 Smoke 27 1013 54 2500 2.6 70 04:45 22.12.2019
2194 Smoke 26 1013 54 2500 4.6 70 04:22 22.12.2019
2195 Smoke 26 1011 57 2500 1.5 90 02:43 22.12.2019
2196 Smoke 26 1011 57 2500 1.5 90 02:43 22.12.2019
2197 Smoke 26 1011 57 2500 1.5 90 02:43 22.12.2019
2198 Smoke 26 1011 57 2500 3.6 80 01:57 22.12.2019
2199 Haze 26 1011 61 2500 3.6 80 01:31 22.12.2019
2200 Haze 26 1010 61 2500 3.6 70 00:48 22.12.2019
2201 Haze 26 1010 61 2500 3.6 70 00:29 22.12.2019
2202 Haze 25 1010 69 2500 2.6 90 23:59 21.12.2019
2203 Haze 25 1010 69 2500 2.6 90 23:40 21.12.2019
2204 Haze 26 1010 69 2500 2.1 60 23:20 21.12.2019
2205 Smoke 26 1010 69 3000 1.5 120 22:47 21.12.2019
2206 Smoke 26 1011 69 3000 2.1 60 22:20 21.12.2019
2207 Smoke 26 1011 74 3000 1.5 10 21:58 21.12.2019
2208 Smoke 26 1011 74 3000 1.5 10 21:40 21.12.2019
2209 Smoke 26 1011 74 3000 2.1 20 21:21 21.12.2019
2210 Smoke 27 1011 69 3000 2.6 70 20:59 21.12.2019
2211 Smoke 27 1012 69 3000 2.1 360 20:41 21.12.2019
2212 Smoke 27 1012 69 3000 2.1 360 20:22 21.12.2019
2213 Smoke 27 1012 65 3000 2.6 10 19:59 21.12.2019
2214 Smoke 27 1012 65 3000 2.6 10 19:59 21.12.2019
2215 Smoke 27 1012 65 3000 2.6 10 19:41 21.12.2019
2216 Smoke 27 1012 65 3000 1.5 60 19:20 21.12.2019
2217 Smoke 27 1012 65 3000 2.1 110 18:59 21.12.2019
2218 Smoke 27 1012 65 3000 2.1 110 18:40 21.12.2019
2219 Smoke 28 1012 61 3000 1.5 340 18:22 21.12.2019
2220 Smoke 28 1012 61 3000 2.1 30 17:55 21.12.2019
2221 Smoke 28 1012 61 3000 2.1 20 17:37 21.12.2019
2222 Smoke 28 1012 61 3000 2.1 20 17:18 21.12.2019
2223 Smoke 29 1012 54 2500 3.1 30 16:54 21.12.2019
2224 Smoke 29 1012 54 2500 3.1 350 16:36 21.12.2019
2225 Smoke 29 1012 54 2500 3.1 350 16:36 21.12.2019
2226 Smoke 29 1012 54 2500 3.1 350 16:18 21.12.2019
2227 Haze 29 1011 54 2500 3.6 340 15:54 21.12.2019
2228 Haze 29 1011 58 2500 4.1 330 15:36 21.12.2019
2229 Haze 29 1011 58 2500 4.1 330 15:18 21.12.2019
2230 Haze 28 1010 65 2500 2.1 330 14:40 21.12.2019
2231 Haze 30 1010 62 3000 2.6 310 14:22 21.12.2019
2232 Haze 30 1010 62 3000 2.6 310 14:22 21.12.2019
2233 Smoke 30 1010 66 3000 2.1 300 13:57 21.12.2019
2234 Smoke 30 1010 66 3000 2.1 300 13:39 21.12.2019
2235 Smoke 30 1009 58 3500 3.1 300 13:19 21.12.2019
2236 Smoke 31 1009 55 3500 4.6 270 12:56 21.12.2019
2237 Smoke 32 1009 48 3000 4.1 290 12:38 21.12.2019
2238 Smoke 32 1009 48 3000 4.1 290 12:38 21.12.2019
2239 Smoke 32 1009 48 3000 4.1 290 12:19 21.12.2019
2240 Smoke 32 1009 45 3000 2.1 340 11:45 21.12.2019
2241 Smoke 32 1009 45 3000 1.5 350 11:26 21.12.2019
2242 Smoke 31 1009 42 3000 2.6 50 10:57 21.12.2019
2243 Smoke 31 1010 42 2500 1.5 40 10:39 21.12.2019
2244 Smoke 31 1010 42 2500 1.5 40 10:21 21.12.2019
2245 Smoke 32 1010 45 2500 2.6 80 09:57 21.12.2019
2246 Smoke 31 1011 42 2500 2.1 60 09:39 21.12.2019
2247 Smoke 31 1011 42 2500 2.1 60 09:19 21.12.2019
2248 Smoke 31 1012 45 2500 3.1 60 08:46 21.12.2019
2249 Smoke 31 1012 45 2500 3.1 60 08:26 21.12.2019
2250 Smoke 31 1012 48 2500 2.1 80 07:47 21.12.2019
2251 Smoke 30 1013 48 2200 2.6 60 07:23 21.12.2019
2252 Smoke 30 1013 54 1800 2.1 50 06:47 21.12.2019
2253 Smoke 30 1013 54 1800 2.1 90 06:28 21.12.2019
2254 Smoke 29 1013 61 1800 2.1 60 05:58 21.12.2019
2255 Haze 26 1013 65 2200 3.6 70 04:59 21.12.2019
2256 Haze 25 1013 65 2200 1.5 50 04:33 21.12.2019
2257 Haze 25 1013 65 2200 4.1 90 03:56 21.12.2019
2258 Haze 25 1012 69 2500 1.5 80 02:23 21.12.2019
2259 Haze 26 1012 65 2500 1.5 90 01:42 21.12.2019
2260 Haze 26 1012 65 2500 2.02 51 01:23 21.12.2019
2261 Haze 26 1011 65 2500 3.6 10 00:39 21.12.2019
2262 Haze 26 1011 65 2500 3.6 10 00:20 21.12.2019
2263 Haze 26 1012 69 2500 1.5 50 23:38 20.12.2019
2264 Haze 26 1012 69 2500 1.5 50 23:20 20.12.2019
2265 Haze 26 1012 69 2500 2.1 20 22:57 20.12.2019
2266 Haze 27 1012 61 2500 1.5 150 22:36 20.12.2019
2267 Haze 27 1012 61 2500 1.5 150 22:18 20.12.2019
2268 Haze 27 1012 61 2500 2.1 140 21:41 20.12.2019
2269 Haze 27 1012 61 2500 2.1 140 21:21 20.12.2019
2270 Haze 27 1013 57 2500 2.1 140 20:57 20.12.2019
2271 Haze 27 1013 61 2500 2.1 70 20:38 20.12.2019
2272 Haze 27 1013 61 2500 2.1 70 20:19 20.12.2019
2273 Haze 27 1013 57 2500 2.1 80 19:42 20.12.2019
2274 Haze 27 1013 61 2500 1.51 49 19:21 20.12.2019
2275 Haze 28 1013 58 2500 1.5 70 18:58 20.12.2019
2276 Haze 28 1013 58 2500 1.5 70 18:39 20.12.2019
2277 Haze 27 1013 65 2500 2.1 20 18:21 20.12.2019
2278 Haze 28 1013 65 2500 2.1 40 17:56 20.12.2019
2279 Haze 28 1013 65 2500 2.1 40 17:56 20.12.2019
2280 Haze 28 1013 65 2500 2.1 40 17:38 20.12.2019
2281 Haze 28 1013 65 2500 2.1 40 17:20 20.12.2019
2282 Haze 28 1013 65 2500 3.1 340 16:56 20.12.2019
2283 Haze 28 1012 65 3000 3.1 350 16:37 20.12.2019
2284 Haze 28 1012 65 3000 3.1 350 16:19 20.12.2019
2285 Haze 28 1012 61 3000 2.1 320 15:54 20.12.2019
2286 Haze 29 1012 58 2500 2.6 360 15:36 20.12.2019
2287 Haze 29 1012 58 2500 2.6 360 15:36 20.12.2019
2288 Haze 29 1012 58 2500 2.6 360 15:18 20.12.2019
2289 Smoke 28 1011 58 2500 2.6 310 14:42 20.12.2019
2290 Smoke 31 1011 58 2500 2.6 310 14:23 20.12.2019
2291 Smoke 31 1011 54 3000 4.1 300 13:56 20.12.2019
2292 Smoke 31 1011 54 3500 3.1 310 13:37 20.12.2019
2293 Smoke 31 1011 54 3500 3.1 310 13:18 20.12.2019
2294 Smoke 31 1010 48 3500 4.6 280 12:55 20.12.2019
2295 Smoke 31 1010 48 3500 3.6 290 12:36 20.12.2019
2296 Smoke 31 1010 48 3500 3.6 290 12:18 20.12.2019
2297 Smoke 31 1010 48 3500 4.1 260 11:57 20.12.2019
2298 Smoke 31 1010 48 3000 4.1 280 11:38 20.12.2019
2299 Smoke 31 1010 48 3000 4.1 280 11:18 20.12.2019
2300 Smoke 31 1010 51 3000 3.1 290 10:55 20.12.2019
2301 Smoke 31 1010 51 2500 3.1 270 10:37 20.12.2019
2302 Smoke 31 1010 51 2500 3.1 270 10:18 20.12.2019
2303 Smoke 31 1011 48 2500 3.6 260 09:42 20.12.2019
2304 Smoke 31 1011 48 2500 3.6 260 09:21 20.12.2019
2305 Smoke 31 1012 43 2500 1.5 0 08:54 20.12.2019
2306 Smoke 32 1012 45 2500 2.6 180 08:36 20.12.2019
2307 Smoke 32 1012 45 2500 2.6 180 08:18 20.12.2019
2308 Smoke 31 1013 42 2500 4.1 140 07:41 20.12.2019
2309 Smoke 31 1013 42 2500 4.1 140 07:23 20.12.2019
2310 Smoke 31 1014 48 2500 2.6 120 06:55 20.12.2019
2311 Smoke 31 1014 48 2200 2.1 160 06:36 20.12.2019
2312 Smoke 31 1014 48 2200 2.1 160 06:18 20.12.2019
2313 Haze 30 1014 51 2200 2.1 110 05:45 20.12.2019
2314 Haze 25 1013 65 2100 2.1 110 04:46 20.12.2019
2315 Haze 24 1012 73 2100 1.5 120 03:33 20.12.2019
2316 Haze 24 1012 69 2100 2.6 120 02:45 20.12.2019
2317 Haze 24 1012 69 2100 2.6 120 02:45 20.12.2019
2318 Haze 25 1011 65 2500 2.6 70 01:55 20.12.2019
2319 Haze 25 1011 65 2500 2.27 54 01:35 20.12.2019
2320 Haze 25 1011 69 2500 1.5 30 00:53 20.12.2019
2321 Haze 24 1011 73 2500 2.6 30 00:34 20.12.2019
2322 Haze 24 1011 73 2500 2.52 50 23:57 19.12.2019
2323 Haze 25 1011 69 2500 1.5 0 23:38 19.12.2019
2324 Haze 25 1011 69 2500 1.5 0 23:38 19.12.2019
2325 Haze 25 1011 69 2500 1.5 0 23:19 19.12.2019
2326 Haze 25 1011 69 2500 1.5 0 23:19 19.12.2019
2327 Haze 26 1011 69 2200 1.5 30 22:38 19.12.2019
2328 Haze 26 1011 69 2200 1.5 30 22:20 19.12.2019
2329 Haze 26 1012 69 2500 2.65 44 21:56 19.12.2019
2330 Haze 26 1012 65 2500 2.65 44 21:38 19.12.2019
2331 Haze 26 1012 65 2500 2.65 44 21:19 19.12.2019
2332 Haze 26 1012 65 2500 2.65 44 20:56 19.12.2019
2333 Haze 26 1012 65 2500 2.65 44 20:37 19.12.2019
2334 Haze 26 1012 65 2500 1.85 41 20:19 19.12.2019
2335 Haze 27 1013 61 2500 1.5 170 19:58 19.12.2019
2336 Haze 27 1013 61 2500 1.85 41 19:39 19.12.2019
2337 Haze 27 1013 61 2500 1.85 41 19:19 19.12.2019
2338 Haze 27 1013 61 2500 1.85 41 19:19 19.12.2019
2339 Haze 27 1013 61 2500 1.85 41 18:57 19.12.2019
2340 Haze 27 1014 61 2500 2.1 330 18:38 19.12.2019
2341 Haze 27 1014 61 2500 2.1 330 18:19 19.12.2019
2342 Haze 27 1013 61 2500 3.1 340 17:55 19.12.2019
2343 Haze 28 1013 61 2500 1.5 60 17:37 19.12.2019
2344 Haze 28 1013 61 2500 1.5 60 17:37 19.12.2019
2345 Haze 28 1013 61 2500 1.5 60 17:18 19.12.2019
2346 Smoke 28 1013 61 2500 2.6 10 16:55 19.12.2019
2347 Smoke 29 1013 54 2500 3.1 20 16:36 19.12.2019
2348 Smoke 29 1013 54 2500 3.1 20 16:18 19.12.2019
2349 Clouds 28 1012 58 2500 3.1 330 15:55 19.12.2019
2350 Smoke 28 1012 58 2500 3.1 340 15:36 19.12.2019
2351 Smoke 28 1012 58 2500 3.1 340 15:18 19.12.2019
2352 Smoke 28 1011 69 2500 3.1 300 14:42 19.12.2019
2353 Smoke 30 1011 69 2500 3.1 300 14:20 19.12.2019
2354 Clouds 30 1011 62 2500 3.6 310 13:58 19.12.2019
2355 Clouds 30 1011 62 2500 3.6 310 13:58 19.12.2019
2356 Smoke 30 1011 51 3000 4.1 310 13:38 19.12.2019
2357 Smoke 30 1011 51 3000 4.1 310 13:19 19.12.2019
2358 Smoke 31 1011 62 5000 4.1 310 12:57 19.12.2019
2359 Smoke 31 1010 51 3000 5.1 290 12:39 19.12.2019
2360 Smoke 31 1010 51 3000 5.1 290 12:39 19.12.2019
2361 Smoke 31 1010 51 3000 5.1 290 12:19 19.12.2019
2362 Smoke 32 1010 55 3000 4.1 280 11:58 19.12.2019
2363 Smoke 32 1011 55 3500 5.1 290 11:40 19.12.2019
2364 Smoke 32 1011 55 3500 5.1 290 11:18 19.12.2019
2365 Smoke 32 1011 33 3500 1.5 320 10:56 19.12.2019
2366 Smoke 32 1011 35 3500 2.1 70 10:38 19.12.2019
2367 Smoke 32 1011 35 3500 2.1 70 10:19 19.12.2019
2368 Smoke 33 1012 33 3500 2.6 310 09:54 19.12.2019
2369 Smoke 32 1012 33 3500 3.1 60 09:36 19.12.2019
2370 Smoke 32 1012 33 3500 3.1 60 09:18 19.12.2019
2371 Smoke 32 1014 38 2500 2.1 90 08:41 19.12.2019
2372 Smoke 32 1014 38 2500 2.1 90 08:19 19.12.2019
2373 Smoke 31 1015 42 2500 3.1 50 07:58 19.12.2019
2374 Smoke 31 1015 42 2500 3.1 50 07:38 19.12.2019
2375 Smoke 31 1015 42 2500 3.1 50 07:20 19.12.2019
2376 Smoke 30 1016 42 2500 2.1 60 06:50 19.12.2019
2377 Smoke 30 1016 45 2500 2.6 60 06:30 19.12.2019
2378 Smoke 30 1016 48 2500 2.6 70 05:55 19.12.2019
2379 Smoke 29 1016 51 2500 3.6 80 05:36 19.12.2019
2380 Smoke 27 1016 54 2500 4.1 80 04:52 19.12.2019
2381 Haze 25 1014 61 2500 3.6 80 03:23 19.12.2019
2382 Haze 25 1014 61 3000 3.6 80 02:23 19.12.2019
2383 Haze 25 1013 61 3000 3.1 70 01:23 19.12.2019
2384 Haze 25 1012 65 3000 1.5 60 00:44 19.12.2019
2385 Haze 25 1012 65 3000 1.5 60 00:24 19.12.2019
2386 Haze 25 1012 65 3000 1.5 70 23:58 18.12.2019
2387 Haze 26 1012 61 3000 2.1 10 23:38 18.12.2019
2388 Haze 26 1012 61 3000 2.1 10 23:19 18.12.2019
2389 Haze 26 1012 65 3000 2.1 80 22:56 18.12.2019
2390 Haze 26 1012 65 3000 1.5 50 22:37 18.12.2019
2391 Haze 26 1012 65 3000 1.5 50 22:19 18.12.2019
2392 Haze 26 1013 65 2500 2.13 58 21:57 18.12.2019
2393 Haze 26 1013 65 2500 1.5 70 21:39 18.12.2019
2394 Haze 26 1013 65 2500 1.5 70 21:19 18.12.2019
2395 Haze 27 1013 65 2500 2.13 58 20:55 18.12.2019
2396 Haze 26 1014 69 2500 2.13 58 20:37 18.12.2019
2397 Haze 26 1014 69 2500 2.13 58 20:37 18.12.2019
2398 Haze 26 1014 69 2500 2.57 45 20:19 18.12.2019
2399 Haze 27 1014 65 2500 2.6 40 19:55 18.12.2019
2400 Haze 27 1014 65 2500 1.5 50 19:37 18.12.2019
2401 Haze 27 1014 65 2500 1.5 50 19:37 18.12.2019
2402 Haze 27 1014 65 2500 1.5 50 19:18 18.12.2019
2403 Haze 27 1014 69 2500 2.1 120 18:44 18.12.2019
2404 Haze 27 1014 69 2500 2.1 120 18:25 18.12.2019
2405 Haze 27 1015 69 2500 2.6 70 17:57 18.12.2019
2406 Haze 28 1015 65 2500 2.6 360 17:39 18.12.2019
2407 Haze 28 1015 65 2500 2.6 360 17:20 18.12.2019
2408 Haze 28 1015 65 2500 2.6 360 17:20 18.12.2019
2409 Haze 27 1014 69 2500 2.6 10 16:57 18.12.2019
2410 Haze 27 1014 69 2500 2.6 10 16:39 18.12.2019
2411 Haze 28 1014 65 2500 3.1 350 16:20 18.12.2019
2412 Haze 29 1014 58 2500 3.6 340 15:56 18.12.2019
2413 Haze 29 1014 58 2500 3.6 340 15:37 18.12.2019
2414 Haze 29 1014 58 2500 3.6 340 15:19 18.12.2019
2415 Haze 28 1013 65 2500 2.6 340 14:43 18.12.2019
2416 Haze 30 1013 62 2500 4.76 301 14:22 18.12.2019
2417 Smoke 31 1013 55 3000 1.5 360 13:58 18.12.2019
2418 Smoke 31 1012 48 3000 3.6 320 13:39 18.12.2019
2419 Smoke 31 1012 48 3000 3.6 320 13:21 18.12.2019
2420 Smoke 32 1012 45 3000 3.6 310 12:59 18.12.2019
2421 Smoke 31 1012 52 3000 4.6 310 12:40 18.12.2019
2422 Smoke 31 1012 52 3000 4.6 310 12:21 18.12.2019
2423 Smoke 32 1012 40 3000 4.1 290 11:56 18.12.2019
2424 Smoke 32 1012 33 3000 3.1 300 11:38 18.12.2019
2425 Smoke 32 1012 33 3000 3.1 300 11:20 18.12.2019
2426 Smoke 32 1012 33 3000 2.6 310 10:57 18.12.2019
2427 Smoke 32 1013 38 3000 2.6 330 10:39 18.12.2019
2428 Smoke 32 1013 38 3000 2.6 330 10:20 18.12.2019
2429 Smoke 32 1013 40 3000 3.1 360 09:57 18.12.2019
2430 Smoke 32 1014 40 3000 1.5 0 09:19 18.12.2019
2431 Smoke 32 1014 43 3000 2.1 20 08:42 18.12.2019
2432 Smoke 32 1015 43 2500 2.1 150 08:24 18.12.2019
2433 Smoke 31 1015 45 2500 2.1 110 07:57 18.12.2019
2434 Smoke 31 1016 48 2500 2.1 70 07:39 18.12.2019
2435 Smoke 31 1016 48 2500 2.1 70 07:19 18.12.2019
2436 Smoke 30 1017 48 2500 3.6 120 06:51 18.12.2019
2437 Smoke 30 1017 54 2500 4.1 80 06:23 18.12.2019
2438 Smoke 29 1017 54 2200 2.6 80 05:34 18.12.2019
2439 Haze 25 1016 65 2200 4.1 90 03:46 18.12.2019
2440 Haze 25 1015 61 2500 4.1 80 02:44 18.12.2019
2441 Haze 25 1015 61 2500 4.1 80 02:26 18.12.2019
2442 Haze 25 1014 65 3000 3.6 70 01:43 18.12.2019
2443 Haze 25 1014 65 3000 2.6 60 01:25 18.12.2019
2444 Haze 25 1013 65 3000 4.1 80 00:42 18.12.2019
2445 Haze 25 1013 65 3000 4.1 80 00:24 18.12.2019
2446 Haze 24 1013 69 3000 1.5 130 23:58 17.12.2019
2447 Haze 25 1013 65 3000 2.1 80 23:40 17.12.2019
2448 Haze 25 1013 65 3000 2.1 80 23:21 17.12.2019
2449 Haze 25 1013 69 3000 2.1 60 22:57 17.12.2019
2450 Haze 26 1013 65 3000 1.5 60 22:39 17.12.2019
2451 Haze 26 1013 65 3000 1.5 60 22:19 17.12.2019
2452 Haze 26 1013 65 3000 3.6 70 21:57 17.12.2019
2453 Haze 26 1013 65 3000 3.6 50 21:38 17.12.2019
2454 Haze 26 1013 65 3000 3.6 50 21:20 17.12.2019
2455 Haze 26 1014 65 3000 3.1 50 20:59 17.12.2019
2456 Haze 27 1014 57 3000 2.6 40 20:39 17.12.2019
2457 Haze 27 1014 57 3000 2.6 40 20:19 17.12.2019
2458 Haze 27 1014 61 3000 2.6 30 19:57 17.12.2019
2459 Haze 28 1014 58 2500 3.6 40 19:39 17.12.2019
2460 Haze 28 1014 58 2500 3.6 40 19:19 17.12.2019
2461 Haze 27 1014 61 2500 2.1 50 18:57 17.12.2019
2462 Haze 27 1014 61 2500 2.1 50 18:57 17.12.2019
2463 Haze 27 1014 61 2500 2.1 50 18:57 17.12.2019
2464 Haze 28 1014 61 2500 2.6 60 18:38 17.12.2019
2465 Haze 28 1014 61 2500 2.6 60 18:20 17.12.2019
2466 Haze 28 1014 69 2200 2.6 100 17:55 17.12.2019
2467 Haze 27 1014 74 2200 1.09 65 17:37 17.12.2019
2468 Haze 29 1014 74 2200 3.6 353 17:18 17.12.2019
2469 Haze 27 1013 74 2500 1.5 350 16:55 17.12.2019
2470 Haze 27 1013 74 2500 1.5 20 16:36 17.12.2019
2471 Haze 27 1013 74 2500 1.5 20 16:18 17.12.2019
2472 Haze 27 1013 69 2500 1.5 330 15:38 17.12.2019
2473 Haze 27 1013 69 2500 1.5 330 15:20 17.12.2019
2474 Haze 27 1013 69 2500 1.5 330 14:56 17.12.2019
2475 Haze 27 1012 69 2500 2.1 310 14:38 17.12.2019
2476 Haze 29 1012 69 2500 2.1 310 14:19 17.12.2019
2477 Haze 29 1012 69 3000 3.1 310 13:58 17.12.2019
2478 Haze 29 1012 69 3000 3.6 310 13:39 17.12.2019
2479 Haze 30 1012 69 3000 3.6 310 13:19 17.12.2019
2480 Haze 30 1011 62 3500 4.6 300 12:59 17.12.2019
2481 Haze 30 1011 62 3500 4.1 300 12:38 17.12.2019
2482 Haze 30 1011 62 3500 4.1 300 12:38 17.12.2019
2483 Haze 30 1011 62 3500 4.1 300 12:18 17.12.2019
2484 Smoke 31 1011 55 3500 5.1 280 11:57 17.12.2019
2485 Smoke 31 1011 48 3500 4.6 270 11:37 17.12.2019
2486 Smoke 31 1011 48 3500 4.6 270 11:18 17.12.2019
2487 Smoke 31 1011 43 3500 2.6 280 10:57 17.12.2019
2488 Smoke 32 1012 38 3500 2.1 160 10:38 17.12.2019
2489 Smoke 32 1012 38 3500 2.1 160 10:19 17.12.2019
2490 Smoke 32 1012 38 3500 2.1 160 10:19 17.12.2019
2491 Smoke 32 1012 38 3500 3.6 120 09:56 17.12.2019
2492 Smoke 32 1013 40 3500 1.5 110 09:38 17.12.2019
2493 Smoke 32 1013 40 3500 1.5 110 09:18 17.12.2019
2494 Smoke 31 1013 43 3000 3.6 120 08:54 17.12.2019
2495 Smoke 31 1014 43 3000 3.1 120 08:36 17.12.2019
2496 Smoke 31 1014 43 3000 3.1 120 08:18 17.12.2019
2497 Smoke 30 1015 51 2500 4.6 70 07:42 17.12.2019
2498 Smoke 30 1015 51 2500 4.6 70 07:22 17.12.2019
2499 Smoke 29 1016 54 2500 4.1 120 06:50 17.12.2019
2500 Smoke 29 1016 54 2500 4.1 120 06:32 17.12.2019
2501 Smoke 28 1016 57 2500 3.6 80 05:50 17.12.2019
2502 Smoke 28 1016 57 2500 3.6 80 05:50 17.12.2019
2503 Haze 27 1016 57 2500 5.1 90 05:31 17.12.2019
2504 Haze 26 1015 65 2200 5.7 80 04:00 17.12.2019
2505 Haze 25 1014 69 2200 4.1 80 02:26 17.12.2019
2506 Haze 25 1013 69 2200 4.1 70 01:34 17.12.2019
2507 Haze 25 1013 69 2200 3.6 70 00:48 17.12.2019
2508 Haze 25 1013 69 2200 4.1 80 00:22 17.12.2019
2509 Haze 25 1013 69 2200 3.6 80 23:58 16.12.2019
2510 Haze 25 1013 69 2200 2.6 50 23:40 16.12.2019
2511 Haze 25 1013 69 2200 2.6 50 23:18 16.12.2019
2512 Haze 25 1013 73 2200 2.1 40 22:55 16.12.2019
2513 Haze 25 1013 73 2200 2.6 40 22:36 16.12.2019
2514 Haze 25 1013 73 2200 2.6 40 22:18 16.12.2019
2515 Haze 25 1013 73 2200 2.1 30 21:54 16.12.2019
2516 Haze 25 1013 78 2200 2.87 40 21:36 16.12.2019
2517 Haze 25 1013 78 2200 2.87 40 21:18 16.12.2019
2518 Haze 25 1013 78 2200 1 60 20:56 16.12.2019
2519 Haze 25 1014 78 2200 2.1 110 20:37 16.12.2019
2520 Haze 25 1014 78 2200 2.1 110 20:37 16.12.2019
2521 Haze 25 1014 78 2200 2.1 110 20:18 16.12.2019
2522 Haze 26 1014 74 2200 2.1 350 19:55 16.12.2019
2523 Haze 26 1014 74 2200 1.5 340 19:36 16.12.2019
2524 Haze 26 1014 74 2200 1.5 340 19:18 16.12.2019
2525 Haze 27 1014 69 2200 1.5 10 18:54 16.12.2019
2526 Haze 26 1014 74 2200 1.5 30 18:36 16.12.2019
2527 Haze 26 1014 74 2200 1.5 30 18:18 16.12.2019
2528 Haze 26 1014 74 2200 2.1 40 17:55 16.12.2019
2529 Smoke 26 1014 74 2200 2.6 10 17:37 16.12.2019
2530 Smoke 26 1014 74 2200 2.6 10 17:18 16.12.2019
2531 Smoke 26 1014 74 2200 3.1 20 16:54 16.12.2019
2532 Smoke 27 1014 69 2500 3.6 340 16:36 16.12.2019
2533 Smoke 27 1014 69 2500 3.6 340 16:18 16.12.2019
2534 Smoke 27 1013 69 2500 4.1 340 15:54 16.12.2019
2535 Smoke 27 1013 69 2500 3.1 340 15:36 16.12.2019
2536 Smoke 27 1013 69 2500 3.1 340 15:18 16.12.2019
2537 Smoke 26 1012 69 2500 2.1 330 14:54 16.12.2019
2538 Smoke 26 1012 69 2500 2.1 330 14:36 16.12.2019
2539 Smoke 28 1012 69 2500 2.1 330 14:18 16.12.2019
2540 Smoke 29 1012 65 2500 4.6 320 13:38 16.12.2019
2541 Smoke 29 1012 65 2500 4.6 320 13:20 16.12.2019
2542 Haze 29 1012 69 3500 4.6 320 12:58 16.12.2019
2543 Haze 29 1012 69 3500 4.6 320 12:58 16.12.2019
2544 Haze 29 1011 65 3500 4.1 330 12:40 16.12.2019
2545 Haze 29 1011 65 3500 4.1 330 12:20 16.12.2019
2546 Haze 30 1011 62 4000 4.6 310 11:59 16.12.2019
2547 Haze 30 1011 58 4000 4.6 290 11:41 16.12.2019
2548 Haze 30 1011 58 4000 4.6 290 11:22 16.12.2019
2549 Smoke 30 1011 62 3000 4.1 310 10:59 16.12.2019
2550 Smoke 30 1011 55 3000 4.1 290 10:40 16.12.2019
2551 Smoke 30 1011 55 3000 4.1 290 10:21 16.12.2019
2552 Smoke 30 1012 62 3000 4.1 280 09:47 16.12.2019
2553 Smoke 30 1012 58 3000 3.6 280 09:29 16.12.2019
2554 Smoke 30 1013 55 3000 1.5 0 08:58 16.12.2019
2555 Smoke 30 1013 48 3000 1.5 0 08:38 16.12.2019
2556 Smoke 30 1013 48 3000 1.5 0 08:19 16.12.2019
2557 Smoke 30 1014 51 3000 1.5 90 07:51 16.12.2019
2558 Smoke 29 1014 48 2500 1.5 290 07:31 16.12.2019
2559 Smoke 29 1014 48 2500 1.5 290 07:31 16.12.2019
2560 Smoke 29 1015 54 2500 1.5 110 06:48 16.12.2019
2561 Smoke 28 1015 58 2500 2.1 70 06:27 16.12.2019
2562 Haze 27 1015 61 2200 1.5 70 05:58 16.12.2019
2563 Haze 27 1014 65 2200 3.1 80 05:39 16.12.2019
2564 Haze 27 1014 65 2200 3.1 80 05:21 16.12.2019
2565 Haze 24 1012 73 2200 2.28 62 02:59 16.12.2019
2566 Haze 24 1012 73 2500 2.53 35 01:45 16.12.2019
2567 Haze 24 1011 78 2100 2.32 41 00:56 16.12.2019
2568 Haze 24 1011 78 2100 2.32 41 00:37 16.12.2019
2569 Haze 24 1011 78 2100 2.32 41 00:18 16.12.2019
2570 Haze 24 1011 73 2100 2.32 41 23:41 15.12.2019
2571 Haze 24 1011 73 2100 1.95 54 23:22 15.12.2019
2572 Haze 24 1011 78 2100 1.95 54 22:57 15.12.2019
2573 Haze 24 1011 78 2100 1.95 54 22:57 15.12.2019
2574 Haze 24 1012 78 2200 1.95 54 22:38 15.12.2019
2575 Haze 24 1012 78 2200 1.95 54 22:19 15.12.2019
2576 Haze 25 1012 73 2100 2.1 20 21:57 15.12.2019
2577 Haze 24 1012 83 2100 1.95 54 21:38 15.12.2019
2578 Haze 24 1012 83 2100 1.95 54 21:20 15.12.2019
2579 Haze 25 1012 78 1800 1.95 54 20:58 15.12.2019
2580 Haze 25 1013 78 1800 1.95 54 20:39 15.12.2019
2581 Haze 25 1013 78 1800 1.95 54 20:39 15.12.2019
2582 Haze 25 1013 78 1800 2.66 40 20:20 15.12.2019
2583 Haze 25 1013 78 2100 3.3 34 19:58 15.12.2019
2584 Haze 25 1013 78 2100 3.3 34 19:39 15.12.2019
2585 Haze 25 1013 78 2100 3.3 34 19:19 15.12.2019
2586 Haze 26 1013 74 2100 2.6 360 18:57 15.12.2019
2587 Haze 26 1013 74 2100 2.6 360 18:57 15.12.2019
2588 Haze 26 1013 74 2500 2.1 350 18:39 15.12.2019
2589 Haze 26 1013 69 2500 2.1 360 18:19 15.12.2019
2590 Haze 26 1013 69 2500 2.1 360 17:56 15.12.2019
2591 Haze 27 1013 69 2500 1.5 350 17:37 15.12.2019
2592 Haze 27 1013 69 2200 2.1 50 17:19 15.12.2019
2593 Haze 27 1013 69 2200 2.1 50 16:57 15.12.2019
2594 Smoke 26 1013 69 2500 1.5 340 16:39 15.12.2019
2595 Smoke 26 1013 69 2500 1.5 340 16:20 15.12.2019
2596 Smoke 27 1013 65 2500 3.1 10 15:55 15.12.2019
2597 Smoke 27 1012 65 2500 2.1 330 15:37 15.12.2019
2598 Smoke 27 1012 65 2500 2.1 330 15:18 15.12.2019
2599 Smoke 26 1012 65 3000 2.1 320 14:55 15.12.2019
2600 Smoke 26 1011 65 3000 1.5 300 14:36 15.12.2019
2601 Smoke 28 1011 65 3000 1.5 300 14:18 15.12.2019
2602 Smoke 28 1011 65 3500 2.6 330 13:56 15.12.2019
2603 Smoke 29 1011 65 3500 3.1 330 13:37 15.12.2019
2604 Smoke 29 1011 65 3500 3.1 330 13:19 15.12.2019
2605 Smoke 29 1011 65 3500 3.1 330 13:19 15.12.2019
2606 Smoke 29 1011 65 3500 3.1 320 12:56 15.12.2019
2607 Smoke 30 1011 58 3500 3.6 320 12:38 15.12.2019
2608 Smoke 30 1011 58 3500 3.6 320 12:20 15.12.2019
2609 Smoke 30 1011 55 3500 4.1 280 11:39 15.12.2019
2610 Smoke 30 1011 55 3500 4.1 280 11:20 15.12.2019
2611 Smoke 31 1011 52 3500 4.1 280 10:59 15.12.2019
2612 Smoke 30 1011 52 3500 4.1 250 10:41 15.12.2019
2613 Smoke 31 1011 52 3500 4.1 250 10:20 15.12.2019
2614 Smoke 30 1012 55 3500 2.6 280 09:59 15.12.2019
2615 Smoke 30 1012 55 3500 4.6 250 09:39 15.12.2019
2616 Smoke 30 1012 55 3500 4.6 250 09:20 15.12.2019
2617 Smoke 30 1013 55 3000 5.7 250 08:57 15.12.2019
2618 Smoke 30 1013 51 3000 2.6 280 08:39 15.12.2019
2619 Smoke 30 1013 51 3000 2.6 280 08:20 15.12.2019
2620 Smoke 29 1014 45 3000 2.1 350 07:55 15.12.2019
2621 Smoke 29 1014 48 3000 3.1 40 07:34 15.12.2019
2622 Smoke 28 1015 51 3000 2.1 50 06:39 15.12.2019
2623 Smoke 27 1015 54 2500 2.1 70 06:19 15.12.2019
2624 Haze 25 1015 57 2500 1.5 30 05:25 15.12.2019
2625 Haze 25 1015 57 2500 1.5 30 05:25 15.12.2019
2626 Haze 25 1015 57 2500 1.5 80 04:47 15.12.2019
2627 Haze 22 1014 60 2500 2.1 90 03:22 15.12.2019
2628 Haze 23 1013 69 3000 2.1 140 02:33 15.12.2019
2629 Haze 22 1013 68 3000 1.5 80 01:46 15.12.2019
2630 Haze 23 1014 69 3000 1.5 350 01:28 15.12.2019
2631 Haze 23 1013 69 3000 2.6 340 00:54 15.12.2019
2632 Haze 23 1013 69 3000 4.6 50 00:35 15.12.2019
2633 Haze 23 1013 73 3000 1.5 20 23:58 14.12.2019
2634 Haze 23 1013 73 3000 1.5 20 23:58 14.12.2019
2635 Haze 23 1013 73 3000 1.5 30 23:39 14.12.2019
2636 Haze 24 1013 69 3000 2.6 10 23:19 14.12.2019
2637 Haze 24 1013 69 3000 2.6 10 22:57 14.12.2019
2638 Haze 24 1014 69 3000 2.58 46 22:39 14.12.2019
2639 Haze 24 1014 69 3000 2.58 46 22:20 14.12.2019
2640 Haze 24 1014 69 3000 2.58 46 21:55 14.12.2019
2641 Haze 24 1014 69 3000 2.58 46 21:37 14.12.2019
2642 Haze 24 1014 69 3000 2.58 46 21:18 14.12.2019
2643 Haze 24 1014 69 3000 2.58 46 20:55 14.12.2019
2644 Haze 24 1014 69 3000 2.58 46 20:55 14.12.2019
2645 Haze 24 1014 69 3000 2.6 20 20:37 14.12.2019
2646 Haze 24 1014 69 3000 2.6 20 20:37 14.12.2019
2647 Haze 24 1014 69 3000 2.6 20 20:19 14.12.2019
2648 Haze 24 1015 69 3000 2.6 360 19:40 14.12.2019
2649 Haze 24 1015 69 3000 2.6 360 19:21 14.12.2019
2650 Haze 24 1015 69 3000 2.6 20 18:59 14.12.2019
2651 Haze 25 1015 65 3000 3.6 20 18:40 14.12.2019
2652 Haze 25 1015 65 3000 3.6 20 18:22 14.12.2019
2653 Haze 25 1015 65 3000 3.6 350 17:59 14.12.2019
2654 Haze 25 1014 65 3000 4.1 340 17:41 14.12.2019
2655 Haze 25 1014 65 3000 4.1 340 17:22 14.12.2019
2656 Haze 26 1014 61 3000 3.1 340 16:42 14.12.2019
2657 Haze 26 1014 65 3000 4.1 90 16:20 14.12.2019
2658 Haze 26 1013 65 3000 3.1 350 15:57 14.12.2019
2659 Haze 27 1013 61 3000 3.1 330 15:38 14.12.2019
2660 Haze 27 1013 61 3000 3.1 330 15:20 14.12.2019
2661 Haze 26 1013 61 3000 2.6 320 14:57 14.12.2019
2662 Haze 26 1013 61 4000 2.6 310 14:38 14.12.2019
2663 Haze 28 1013 61 4000 2.6 310 14:19 14.12.2019
2664 Smoke 29 1012 58 4000 2.6 320 13:45 14.12.2019
2665 Smoke 29 1012 54 4000 2.6 320 13:20 14.12.2019
2666 Smoke 29 1013 54 4000 3.6 330 12:58 14.12.2019
2667 Smoke 29 1013 54 4000 5.1 320 12:40 14.12.2019
2668 Smoke 29 1013 54 4000 5.1 320 12:21 14.12.2019
2669 Smoke 30 1012 51 4000 4.1 330 11:58 14.12.2019
2670 Smoke 30 1012 51 4000 6.2 300 11:39 14.12.2019
2671 Smoke 30 1012 51 4000 6.2 300 11:19 14.12.2019
2672 Smoke 30 1013 51 4000 5.1 310 10:57 14.12.2019
2673 Smoke 29 1013 48 4000 5.1 290 10:39 14.12.2019
2674 Smoke 30 1013 48 4000 5.1 290 10:21 14.12.2019
2675 Smoke 30 1013 51 4000 4.6 300 09:57 14.12.2019
2676 Smoke 30 1014 51 3500 4.6 270 09:38 14.12.2019
2677 Smoke 30 1014 51 3500 4.6 270 09:18 14.12.2019
2678 Smoke 29 1015 51 3000 3.6 290 08:43 14.12.2019
2679 Smoke 29 1015 51 3000 3.6 290 08:19 14.12.2019
2680 Smoke 29 1016 48 2500 1.5 0 07:44 14.12.2019
2681 Smoke 29 1016 51 2500 2.6 340 07:23 14.12.2019
2682 Smoke 28 1017 54 2500 2.6 40 06:57 14.12.2019
2683 Smoke 28 1017 54 2500 3.6 70 06:37 14.12.2019
2684 Smoke 27 1017 57 3000 2.1 50 05:59 14.12.2019
2685 Haze 24 1016 73 3000 1.5 130 04:47 14.12.2019
2686 Haze 23 1015 64 3000 2.6 10 02:31 14.12.2019
2687 Haze 22 1015 73 3000 2.94 30 01:56 14.12.2019
2688 Haze 22 1015 73 3000 2.94 30 01:56 14.12.2019
2689 Haze 21 1014 77 3000 1.5 50 01:37 14.12.2019
2690 Haze 22 1014 73 3000 3.03 23 00:47 14.12.2019
2691 Haze 22 1014 73 3000 3.03 23 00:27 14.12.2019
2692 Haze 23 1014 64 3000 2.1 60 23:56 13.12.2019
2693 Haze 24 1014 64 3000 2.1 70 23:37 13.12.2019
2694 Haze 24 1014 64 3000 2.1 70 23:18 13.12.2019
2695 Haze 24 1014 64 3000 3.6 30 22:40 13.12.2019
2696 Haze 24 1014 64 3000 3.6 30 22:19 13.12.2019
2697 Haze 24 1014 69 3000 2.1 10 21:56 13.12.2019
2698 Haze 25 1014 65 3000 3.6 40 21:38 13.12.2019
2699 Haze 25 1014 65 3000 3.6 40 21:20 13.12.2019
2700 Haze 25 1014 65 3000 4.1 20 20:42 13.12.2019
2701 Haze 26 1014 61 3000 3.1 10 20:23 13.12.2019
2702 Haze 26 1014 61 3000 3.1 10 19:59 13.12.2019
2703 Haze 25 1015 65 3000 2.6 60 19:41 13.12.2019
2704 Haze 25 1015 65 3000 2.6 60 19:22 13.12.2019
2705 Haze 26 1015 65 3000 2.6 10 18:59 13.12.2019
2706 Haze 25 1015 73 3000 3.1 60 18:40 13.12.2019
2707 Haze 25 1015 73 3000 3.1 60 18:19 13.12.2019
2708 Haze 26 1014 69 3000 3.1 50 17:55 13.12.2019
2709 Haze 26 1014 69 3000 3.6 70 17:37 13.12.2019
2710 Haze 26 1014 69 3000 3.6 70 17:18 13.12.2019
2711 Haze 26 1014 74 3000 4.6 340 16:54 13.12.2019
2712 Smoke 26 1014 74 3000 4.6 330 16:36 13.12.2019
2713 Smoke 26 1014 74 3000 4.6 330 16:18 13.12.2019
2714 Smoke 27 1013 69 4000 3.6 330 15:38 13.12.2019
2715 Smoke 27 1013 69 4000 3.6 330 15:20 13.12.2019
2716 Smoke 27 1012 65 4000 3.6 350 14:41 13.12.2019
2717 Smoke 28 1012 65 4000 3.6 350 14:21 13.12.2019
2718 Smoke 28 1012 61 4000 3.6 340 13:58 13.12.2019
2719 Smoke 28 1012 61 4000 4.1 310 13:39 13.12.2019
2720 Smoke 28 1012 61 4000 4.1 310 13:21 13.12.2019
2721 Smoke 27 1012 61 4000 5.1 320 12:42 13.12.2019
2722 Smoke 27 1012 61 4000 5.1 320 12:20 13.12.2019
2723 Smoke 28 1012 58 4000 6.2 310 11:58 13.12.2019
2724 Smoke 28 1011 61 4000 4.6 320 11:40 13.12.2019
2725 Smoke 30 1011 61 4000 4.6 320 11:22 13.12.2019
2726 Smoke 30 1011 58 4000 4.6 290 10:55 13.12.2019
2727 Smoke 30 1012 51 4000 4.6 310 10:37 13.12.2019
2728 Smoke 30 1012 51 4000 4.6 310 10:19 13.12.2019
2729 Smoke 30 1012 54 4000 3.6 330 09:39 13.12.2019
2730 Smoke 30 1012 54 4000 3.6 330 09:20 13.12.2019
2731 Smoke 30 1013 51 3500 3.1 340 08:42 13.12.2019
2732 Smoke 30 1013 51 3500 3.1 340 08:24 13.12.2019
2733 Smoke 29 1014 54 3500 3.6 320 07:47 13.12.2019
2734 Smoke 29 1014 54 3000 2.6 40 07:24 13.12.2019
2735 Smoke 28 1014 57 2500 2.1 330 06:55 13.12.2019
2736 Smoke 28 1014 61 2500 3.1 350 06:29 13.12.2019
2737 Smoke 28 1014 57 2200 2.1 70 05:51 13.12.2019
2738 Smoke 28 1014 54 2100 2.6 80 05:30 13.12.2019
2739 Haze 26 1013 61 1800 3.6 70 04:46 13.12.2019
2740 Haze 24 1013 64 1800 2.6 110 03:48 13.12.2019
2741 Haze 24 1012 64 2500 2.35 46 02:34 13.12.2019
2742 Haze 24 1012 69 2500 2.6 60 01:49 13.12.2019
2743 Haze 24 1011 69 2500 2.1 70 01:19 13.12.2019
2744 Mist 24 1011 73 2500 3.1 50 00:45 13.12.2019
2745 Mist 24 1011 78 2500 2.1 60 00:22 13.12.2019
2746 Haze 25 1011 73 2500 2.6 30 23:41 12.12.2019
2747 Haze 25 1011 73 2500 2.6 30 23:22 12.12.2019
2748 Haze 25 1011 78 2500 1.5 50 22:56 12.12.2019
2749 Haze 26 1011 69 2500 2.1 70 22:38 12.12.2019
2750 Haze 26 1011 69 2500 2.1 70 22:19 12.12.2019
2751 Haze 26 1011 69 2500 2.1 80 21:55 12.12.2019
2752 Haze 26 1011 69 2500 1.5 50 21:37 12.12.2019
2753 Haze 26 1011 69 2500 1.5 50 21:19 12.12.2019
2754 Haze 26 1011 69 2500 1.5 40 20:57 12.12.2019
2755 Haze 27 1011 65 2500 3.1 20 20:38 12.12.2019
2756 Haze 27 1011 65 2500 3.1 20 20:20 12.12.2019
2757 Haze 26 1012 69 2500 2.6 20 19:55 12.12.2019
2758 Haze 27 1012 69 2500 2.1 30 19:37 12.12.2019
2759 Haze 27 1012 69 2500 2.1 30 19:18 12.12.2019
2760 Haze 27 1012 69 2500 2.1 300 18:55 12.12.2019
2761 Haze 27 1012 69 2500 1.5 0 18:36 12.12.2019
2762 Haze 27 1012 69 2500 1.5 0 18:18 12.12.2019
2763 Haze 27 1012 69 2500 1.5 310 17:55 12.12.2019
2764 Haze 27 1012 69 2500 1.5 310 17:55 12.12.2019
2765 Haze 27 1011 65 2500 2.1 350 17:37 12.12.2019
2766 Haze 27 1011 65 2500 2.1 350 17:18 12.12.2019
2767 Haze 27 1011 65 2500 2.1 300 16:42 12.12.2019
2768 Haze 28 1011 61 2500 3.1 320 16:21 12.12.2019
2769 Haze 28 1011 61 2500 3.1 320 15:59 12.12.2019
2770 Haze 27 1010 65 2500 2.1 300 15:41 12.12.2019
2771 Haze 27 1010 65 2500 2.1 300 15:19 12.12.2019
2772 Haze 27 1010 61 2500 2.6 300 14:57 12.12.2019
2773 Haze 27 1010 61 2500 3.1 300 14:36 12.12.2019
2774 Haze 27 1010 61 2500 3.1 300 14:18 12.12.2019
2775 Smoke 27 1009 61 2500 2.6 310 13:54 12.12.2019
2776 Smoke 28 1009 61 3000 3.6 310 13:36 12.12.2019
2777 Smoke 28 1009 61 3000 3.6 310 13:18 12.12.2019
2778 Smoke 28 1009 61 3000 3.6 310 13:18 12.12.2019
2779 Smoke 29 1009 54 3000 4.1 300 12:42 12.12.2019
2780 Smoke 29 1009 54 3000 4.1 300 12:23 12.12.2019
2781 Smoke 29 1009 54 3000 5.1 290 11:59 12.12.2019
2782 Smoke 29 1009 54 3000 4.1 280 11:40 12.12.2019
2783 Smoke 29 1009 54 3000 4.1 280 11:22 12.12.2019
2784 Smoke 29 1009 51 3000 5.1 280 10:59 12.12.2019
2785 Smoke 29 1009 51 2500 4.1 300 10:40 12.12.2019
2786 Smoke 29 1009 51 2500 4.1 300 10:22 12.12.2019
2787 Smoke 29 1010 51 2500 4.6 270 09:56 12.12.2019
2788 Smoke 30 1010 48 2500 4.6 270 09:38 12.12.2019
2789 Smoke 30 1010 48 2500 4.6 270 09:20 12.12.2019
2790 Smoke 29 1011 51 2500 4.1 290 08:48 12.12.2019
2791 Smoke 29 1011 51 2500 3.6 290 08:29 12.12.2019
2792 Smoke 29 1011 54 2500 3.1 300 07:56 12.12.2019
2793 Smoke 30 1012 51 2200 4.1 240 07:37 12.12.2019
2794 Smoke 29 1012 51 2200 4.1 240 07:19 12.12.2019
2795 Haze 28 1012 58 2100 0.86 225 06:41 12.12.2019
2796 Haze 28 1012 58 2100 0.86 225 06:22 12.12.2019
2797 Haze 27 1013 65 1700 2.1 30 05:32 12.12.2019
2798 Haze 28 1012 61 1700 1.25 44 04:47 12.12.2019
2799 Haze 25 1011 69 2500 2.1 20 02:43 12.12.2019
2800 Haze 24 1010 78 2500 0.77 49 02:24 12.12.2019
2801 Haze 24 1010 78 2500 0.77 49 01:59 12.12.2019
2802 Haze 24 1010 78 2500 0.77 49 01:36 12.12.2019
2803 Haze 24 1010 78 2500 0.88 59 00:50 12.12.2019
2804 Haze 24 1010 78 2500 0.88 59 00:22 12.12.2019
2805 Haze 25 1010 73 2500 0.88 59 23:58 11.12.2019
2806 Haze 26 1010 74 2500 0.88 59 23:39 11.12.2019
2807 Haze 26 1010 74 2500 0.86 85 23:19 11.12.2019
2808 Haze 26 1010 74 2500 0.86 85 22:56 11.12.2019
2809 Haze 27 1010 65 2500 0.86 85 22:38 11.12.2019
2810 Haze 27 1010 65 2500 0.86 85 22:19 11.12.2019
2811 Haze 26 1010 74 2500 0.86 85 21:55 11.12.2019
2812 Haze 27 1010 69 2500 0.86 85 21:36 11.12.2019
2813 Haze 27 1010 69 2500 0.86 85 21:18 11.12.2019
2814 Haze 27 1010 69 2500 0.86 85 21:18 11.12.2019
2815 Haze 27 1010 65 2500 1.5 150 20:55 11.12.2019
2816 Haze 28 1010 61 2500 2.1 140 20:36 11.12.2019
2817 Haze 28 1011 61 2500 2.6 70 20:18 11.12.2019
2818 Haze 28 1011 61 2500 1.82 57 19:42 11.12.2019
2819 Haze 28 1011 61 2500 1.82 57 19:23 11.12.2019
2820 Haze 28 1011 65 3000 2.1 70 18:59 11.12.2019
2821 Haze 28 1011 65 3000 1.5 340 18:40 11.12.2019
2822 Haze 28 1011 65 3000 1.5 340 18:20 11.12.2019
2823 Haze 28 1011 65 2500 1.5 320 17:57 11.12.2019
2824 Haze 29 1011 58 2500 2.1 30 17:38 11.12.2019
2825 Haze 29 1011 58 2500 2.1 30 17:18 11.12.2019
2826 Haze 29 1011 62 2500 2.1 20 16:56 11.12.2019
2827 Haze 29 1010 66 2100 2.6 320 16:37 11.12.2019
2828 Haze 29 1010 66 2100 2.6 320 16:37 11.12.2019
2829 Haze 29 1010 66 2100 2.6 320 16:19 11.12.2019
2830 Haze 29 1010 70 2100 2.1 320 15:57 11.12.2019
2831 Haze 29 1010 66 2200 2.1 300 15:37 11.12.2019
2832 Haze 29 1010 66 2200 2.1 300 15:19 11.12.2019
2833 Haze 28 1010 66 2200 2.1 310 14:55 11.12.2019
2834 Haze 28 1010 66 2200 2.1 310 14:55 11.12.2019
2835 Haze 28 1009 66 2500 2.6 310 14:37 11.12.2019
2836 Haze 28 1009 66 2500 2.6 310 14:18 11.12.2019
2837 Smoke 30 1009 58 2500 3.1 300 13:44 11.12.2019
2838 Smoke 30 1009 58 2500 3.1 300 13:24 11.12.2019
2839 Smoke 30 1009 58 2500 3.6 300 12:59 11.12.2019
2840 Smoke 31 1008 55 2500 4.6 280 12:40 11.12.2019
2841 Smoke 31 1008 55 2500 4.6 280 12:22 11.12.2019
2842 Smoke 30 1008 58 2200 4.1 290 11:58 11.12.2019
2843 Haze 30 1009 62 2200 4.6 290 11:39 11.12.2019
2844 Haze 30 1009 62 2200 4.6 290 11:39 11.12.2019
2845 Haze 30 1009 62 2200 4.6 290 11:19 11.12.2019
2846 Smoke 30 1009 58 2500 4.1 280 10:59 11.12.2019
2847 Smoke 30 1009 58 2500 4.6 270 10:40 11.12.2019
2848 Smoke 30 1009 58 2500 4.6 270 10:22 11.12.2019
2849 Smoke 30 1009 58 2500 5.1 260 09:58 11.12.2019
2850 Smoke 30 1010 58 2500 4.1 290 09:38 11.12.2019
2851 Smoke 30 1010 58 2500 4.1 290 09:19 11.12.2019
2852 Smoke 30 1011 55 2500 4.1 290 08:56 11.12.2019
2853 Smoke 30 1011 58 2200 4.1 290 08:37 11.12.2019
2854 Smoke 30 1011 58 2200 4.1 290 08:18 11.12.2019
2855 Smoke 30 1012 58 2200 2.1 320 07:44 11.12.2019
2856 Smoke 30 1012 58 2200 2.1 320 07:24 11.12.2019
2857 Smoke 30 1013 55 2200 2.6 290 06:46 11.12.2019
2858 Haze 29 1013 58 2200 1.5 290 06:25 11.12.2019
2859 Haze 29 1013 62 2100 1.5 20 05:56 11.12.2019
2860 Haze 28 1013 61 2100 0.92 297 05:36 11.12.2019
2861 Haze 28 1013 65 2100 1.41 72 04:53 11.12.2019
2862 Smoke 25 1012 78 2200 1.5 120 03:37 11.12.2019
2863 Smoke 25 1011 78 2200 1.5 120 02:39 11.12.2019
2864 Haze 25 1011 78 3000 1.43 87 01:22 11.12.2019
2865 Haze 26 1010 74 3000 1.43 87 00:45 11.12.2019
2866 Haze 26 1010 74 3000 1.43 87 00:19 11.12.2019
2867 Haze 26 1010 74 3000 1.5 100 23:46 10.12.2019
2868 Haze 26 1010 74 3000 1.5 100 23:27 10.12.2019
2869 Haze 27 1010 69 3000 2.1 80 22:57 10.12.2019
2870 Haze 27 1011 69 3000 1.5 90 22:39 10.12.2019
2871 Haze 27 1011 69 3000 1.5 90 22:21 10.12.2019
2872 Haze 27 1011 69 3000 2.6 100 21:54 10.12.2019
2873 Haze 27 1011 69 3000 2.1 90 21:36 10.12.2019
2874 Haze 27 1011 69 3000 2.1 90 21:18 10.12.2019
2875 Haze 27 1011 69 3000 2.1 80 20:56 10.12.2019
2876 Haze 28 1011 65 3000 2.1 90 20:37 10.12.2019
2877 Haze 28 1012 69 3000 1.5 120 20:18 10.12.2019
2878 Haze 28 1012 69 3000 1.5 120 19:44 10.12.2019
2879 Haze 27 1012 74 3000 1.61 42 19:26 10.12.2019
2880 Haze 28 1012 69 3000 2.1 10 18:59 10.12.2019
2881 Haze 28 1012 69 3000 2.1 50 18:39 10.12.2019
2882 Haze 28 1012 69 3000 2.1 50 18:20 10.12.2019
2883 Haze 29 1012 66 3000 2.6 350 17:57 10.12.2019
2884 Haze 29 1012 66 3000 2.6 30 17:39 10.12.2019
2885 Haze 29 1012 66 3000 2.6 30 17:19 10.12.2019
2886 Haze 29 1011 66 3000 2.1 330 16:43 10.12.2019
2887 Haze 29 1011 66 3000 2.1 330 16:20 10.12.2019
2888 Haze 29 1011 66 3000 2.1 330 16:20 10.12.2019
2889 Haze 29 1011 62 3000 2.1 310 15:58 10.12.2019
2890 Haze 29 1011 66 3000 2.1 330 15:37 10.12.2019
2891 Haze 29 1011 66 3000 2.1 330 15:18 10.12.2019
2892 Haze 29 1011 66 3000 2.1 330 15:18 10.12.2019
2893 Haze 29 1011 66 3000 2.1 330 15:18 10.12.2019
2894 Haze 29 1010 66 3000 2.1 310 14:55 10.12.2019
2895 Haze 29 1010 62 3000 2.6 320 14:37 10.12.2019
2896 Haze 29 1010 62 3000 2.6 320 14:19 10.12.2019
2897 Smoke 29 1010 62 3000 3.6 300 13:56 10.12.2019
2898 Smoke 30 1009 51 3000 4.1 290 13:37 10.12.2019
2899 Smoke 30 1009 51 3000 4.1 290 13:18 10.12.2019
2900 Smoke 30 1009 55 3000 3.6 310 12:40 10.12.2019
2901 Smoke 30 1009 55 3000 3.6 310 12:22 10.12.2019
2902 Smoke 31 1010 48 3000 4.1 310 11:44 10.12.2019
2903 Smoke 31 1010 52 3000 4.1 260 11:25 10.12.2019
2904 Smoke 31 1010 52 3000 5.1 290 10:57 10.12.2019
2905 Smoke 31 1010 55 3000 4.6 270 10:39 10.12.2019
2906 Smoke 31 1011 49 3000 5.1 290 10:21 10.12.2019
2907 Smoke 31 1011 49 3000 5.1 290 09:56 10.12.2019
2908 Smoke 31 1011 49 3000 5.1 290 09:56 10.12.2019
2909 Smoke 31 1011 52 3000 4.1 290 09:38 10.12.2019
2910 Smoke 31 1011 52 3000 4.1 290 09:38 10.12.2019
2911 Smoke 31 1011 52 3000 4.1 290 09:38 10.12.2019
2912 Smoke 31 1011 52 3000 4.1 290 09:20 10.12.2019
2913 Smoke 32 1011 46 4000 1.5 280 08:57 10.12.2019
2914 Smoke 32 1012 43 3000 4.1 190 08:38 10.12.2019
2915 Smoke 32 1012 43 3000 4.1 190 08:19 10.12.2019
2916 Smoke 32 1013 46 3000 3.1 140 07:44 10.12.2019
2917 Smoke 32 1013 48 3000 3.1 130 07:26 10.12.2019
2918 Smoke 31 1014 48 3000 3.1 120 06:49 10.12.2019
2919 Haze 30 1014 55 2500 3.1 150 06:24 10.12.2019
2920 Haze 30 1014 58 2500 2.6 130 05:55 10.12.2019
2921 Haze 28 1014 65 2200 1.5 110 04:58 10.12.2019
2922 Haze 26 1013 69 2200 2.08 48 03:47 10.12.2019
2923 Haze 26 1012 69 2200 2.08 48 02:48 10.12.2019
2924 Haze 25 1012 73 2500 2.6 80 01:51 10.12.2019
2925 Haze 26 1012 69 2500 1.5 120 01:26 10.12.2019
2926 Haze 26 1012 69 2500 3.1 90 00:49 10.12.2019
2927 Haze 26 1012 69 3000 2.1 70 00:24 10.12.2019
2928 Haze 27 1012 74 5000 2.1 80 23:43 09.12.2019
2929 Haze 27 1012 74 5000 2.1 80 23:24 09.12.2019
2930 Clouds 26 1012 74 6000 2.1 80 22:59 09.12.2019
2931 Clouds 27 1012 69 6000 1.5 60 22:40 09.12.2019
2932 Clouds 27 1012 69 6000 1.5 60 22:21 09.12.2019
2933 Clouds 28 1012 61 6000 1.5 30 21:58 09.12.2019
2934 Clouds 27 1012 65 6000 1.3 51 21:39 09.12.2019
2935 Clouds 27 1012 65 6000 1.3 51 21:19 09.12.2019
2936 Clouds 28 1013 61 6000 2.6 240 20:57 09.12.2019
2937 Clouds 28 1013 65 6000 1.5 0 20:39 09.12.2019
2938 Clouds 28 1013 65 6000 1.5 0 20:20 09.12.2019
2939 Clouds 28 1013 65 6000 1.5 10 19:57 09.12.2019
2940 Clouds 28 1013 61 6000 2.6 40 19:39 09.12.2019
2941 Clouds 28 1013 61 6000 2.6 40 19:20 09.12.2019
2942 Clouds 28 1014 65 6000 1.5 40 18:59 09.12.2019
2943 Smoke 29 1014 66 5000 3.1 40 18:40 09.12.2019
2944 Smoke 29 1014 66 5000 3.1 40 18:20 09.12.2019
2945 Smoke 28 1014 69 4000 3.1 30 17:59 09.12.2019
2946 Smoke 29 1014 70 3500 3.6 330 17:40 09.12.2019
2947 Smoke 29 1014 70 3500 3.6 330 17:21 09.12.2019
2948 Haze 29 1014 70 3000 3.1 330 16:56 09.12.2019
2949 Haze 29 1014 66 3000 2.6 330 16:38 09.12.2019
2950 Haze 29 1014 66 3000 2.6 330 16:20 09.12.2019
2951 Haze 29 1013 70 3000 4.1 310 16:20 09.12.2019
2952 Haze 29 1013 70 3000 4.1 310 15:56 09.12.2019
2953 Haze 29 1013 70 3000 4.1 310 15:56 09.12.2019
2954 Haze 29 1013 66 3000 2.6 310 15:37 09.12.2019
2955 Haze 29 1013 66 3000 2.6 310 15:19 09.12.2019
2956 Haze 29 1012 62 3000 3.1 310 14:58 09.12.2019
2957 Smoke 29 1012 62 3000 3.1 280 14:39 09.12.2019
2958 Smoke 29 1012 62 3000 3.1 280 14:18 09.12.2019
2959 Smoke 30 1012 58 3000 3.6 280 13:55 09.12.2019
2960 Smoke 30 1011 55 3000 3.6 290 13:36 09.12.2019
2961 Smoke 32 1011 55 3000 3.6 290 13:18 09.12.2019
2962 Smoke 32 1011 55 3000 4.1 280 12:54 09.12.2019
2963 Smoke 32 1011 52 3000 4.1 290 12:36 09.12.2019
2964 Smoke 32 1011 52 3000 4.1 290 12:18 09.12.2019
2965 Smoke 32 1011 55 3000 4.1 270 11:40 09.12.2019
2966 Smoke 32 1011 55 3000 4.1 270 11:21 09.12.2019
2967 Smoke 32 1011 52 2500 4.1 260 10:57 09.12.2019
2968 Smoke 32 1011 52 2500 3.6 260 10:38 09.12.2019
2969 Smoke 32 1011 52 2500 3.6 260 10:19 09.12.2019
2970 Smoke 32 1012 49 2500 2.6 290 09:44 09.12.2019
2971 Smoke 32 1012 49 2500 2.6 290 09:25 09.12.2019
2972 Smoke 32 1013 46 2500 2.1 110 08:57 09.12.2019
2973 Smoke 32 1013 45 2500 1.5 130 08:39 09.12.2019
2974 Smoke 32 1013 45 2500 1.5 130 08:20 09.12.2019
2975 Smoke 32 1014 45 2500 3.1 130 07:49 09.12.2019
2976 Smoke 31 1014 45 2500 3.1 100 07:30 09.12.2019
2977 Smoke 31 1015 48 2500 2.1 50 06:55 09.12.2019
2978 Smoke 30 1015 48 2500 2.1 90 06:30 09.12.2019
2979 Smoke 29 1015 51 2500 2.1 70 05:42 09.12.2019
2980 Smoke 29 1015 51 2500 2.1 70 05:20 09.12.2019
2981 Haze 28 1014 61 2200 1.5 40 04:27 09.12.2019
2982 Haze 28 1014 61 2200 1.5 40 04:27 09.12.2019
2983 Haze 27 1012 69 3000 2.89 61 02:28 09.12.2019
2984 Haze 24 1012 69 3000 1.94 70 01:46 09.12.2019
2985 Haze 25 1012 65 3000 2.1 50 00:58 09.12.2019
2986 Haze 26 1012 61 3000 3.6 70 00:33 09.12.2019
2987 Haze 26 1012 61 3000 2.1 60 23:55 08.12.2019
2988 Haze 26 1012 61 3000 3.6 40 23:37 08.12.2019
2989 Haze 26 1012 61 3000 3.6 40 23:19 08.12.2019
2990 Haze 27 1012 57 3000 2.1 70 22:56 08.12.2019
2991 Haze 27 1012 57 2500 2.1 60 22:38 08.12.2019
2992 Haze 27 1012 57 2500 2.1 60 22:18 08.12.2019
2993 Haze 27 1013 57 2500 2.6 30 21:56 08.12.2019
2994 Haze 27 1013 65 2500 1.65 73 21:37 08.12.2019
2995 Haze 27 1013 65 2500 1.65 73 21:19 08.12.2019
2996 Haze 28 1013 58 2500 1.5 150 20:56 08.12.2019
2997 Haze 27 1013 65 2500 2.1 130 20:37 08.12.2019
2998 Haze 27 1013 65 2500 2.1 130 20:19 08.12.2019
2999 Haze 27 1013 65 2500 2.1 130 20:19 08.12.2019
3000 Haze 27 1014 69 2500 1.5 50 19:55 08.12.2019
3001 Haze 27 1014 65 3000 1.17 48 19:37 08.12.2019
3002 Haze 27 1014 65 3000 1.17 48 19:19 08.12.2019
3003 Haze 28 1014 61 3000 1.17 48 18:54 08.12.2019
3004 Haze 28 1014 61 3000 1.17 48 18:36 08.12.2019
3005 Haze 28 1014 61 3000 1.17 48 18:36 08.12.2019
3006 Haze 28 1014 61 3000 1.17 48 18:18 08.12.2019
3007 Haze 28 1014 65 3000 2.6 30 17:55 08.12.2019
3008 Haze 28 1014 65 3000 2.1 30 17:37 08.12.2019
3009 Haze 28 1014 65 3000 2.1 30 17:19 08.12.2019
3010 Haze 28 1014 65 2500 1.5 330 16:55 08.12.2019
3011 Haze 29 1013 62 2500 2.1 330 16:37 08.12.2019
3012 Haze 29 1013 62 2500 2.1 330 16:18 08.12.2019
3013 Haze 28 1013 65 2500 2.6 320 15:38 08.12.2019
3014 Haze 28 1013 65 2500 2.6 320 15:19 08.12.2019
3015 Haze 28 1013 65 2500 2.6 320 15:19 08.12.2019
3016 Haze 28 1012 61 2500 2.6 310 14:58 08.12.2019
3017 Smoke 28 1012 62 2500 1.5 310 14:39 08.12.2019
3018 Smoke 28 1012 62 2500 1.5 310 14:39 08.12.2019
3019 Smoke 30 1012 62 2500 1.5 310 14:20 08.12.2019
3020 Smoke 30 1012 58 2500 3.1 320 13:54 08.12.2019
3021 Smoke 31 1011 48 2500 3.1 300 13:36 08.12.2019
3022 Smoke 31 1011 48 2500 3.1 300 13:18 08.12.2019
3023 Smoke 32 1011 43 3000 3.1 280 12:41 08.12.2019
3024 Smoke 32 1011 43 3000 3.1 280 12:23 08.12.2019
3025 Smoke 32 1011 43 2500 3.6 280 11:59 08.12.2019
3026 Smoke 32 1011 45 2500 3.6 260 11:38 08.12.2019
3027 Smoke 32 1011 45 2500 3.6 260 11:19 08.12.2019
3028 Smoke 32 1011 45 2500 4.1 280 10:58 08.12.2019
3029 Smoke 31 1011 51 2500 4.6 290 10:38 08.12.2019
3030 Smoke 30 1011 51 2500 4.6 290 10:19 08.12.2019
3031 Smoke 33 1012 46 2800 3.6 290 09:56 08.12.2019
3032 Smoke 33 1012 40 2500 2.1 230 09:37 08.12.2019
3033 Smoke 33 1012 40 2500 2.1 230 09:37 08.12.2019
3034 Smoke 33 1012 40 2500 2.1 230 09:19 08.12.2019
3035 Smoke 33 1012 40 2500 2.1 230 09:19 08.12.2019
3036 Smoke 32 1013 40 2500 2.1 160 08:57 08.12.2019
3037 Smoke 32 1013 40 2500 2.1 160 08:57 08.12.2019
3038 Smoke 32 1013 43 2500 3.1 120 08:36 08.12.2019
3039 Smoke 32 1013 43 2500 3.1 120 08:18 08.12.2019
3040 Smoke 31 1014 45 2500 3.6 110 07:42 08.12.2019
3041 Smoke 31 1014 45 2500 3.6 110 07:19 08.12.2019
3042 Smoke 30 1015 48 2500 2.6 90 06:47 08.12.2019
3043 Smoke 30 1015 48 2500 3.1 110 06:22 08.12.2019
3044 Smoke 29 1015 48 2500 3.6 110 05:35 08.12.2019
3045 Smoke 27 1015 51 2500 3.1 90 04:59 08.12.2019
3046 Smoke 25 1014 57 3000 3.6 90 03:47 08.12.2019
3047 Smoke 25 1014 60 3000 1.5 130 03:20 08.12.2019
3048 Smoke 25 1013 53 3500 1.5 120 02:34 08.12.2019
3049 Smoke 25 1013 53 3500 2.1 100 01:48 08.12.2019
3050 Smoke 25 1013 53 3500 2.6 100 00:59 08.12.2019
3051 Smoke 25 1012 57 3500 2.1 130 00:39 08.12.2019
3052 Smoke 25 1012 57 3500 2.1 130 00:39 08.12.2019
3053 Smoke 25 1012 57 3500 2.1 130 00:19 08.12.2019
3054 Smoke 25 1012 57 3500 2.1 130 00:19 08.12.2019
3055 Smoke 27 1012 51 3500 2.6 30 23:40 07.12.2019
3056 Smoke 27 1012 51 3500 2.6 30 23:20 07.12.2019
3057 Smoke 26 1012 54 3500 1.5 70 22:56 07.12.2019
3058 Smoke 27 1012 54 3500 1.5 20 22:38 07.12.2019
3059 Smoke 27 1012 54 3500 1.5 20 22:20 07.12.2019
3060 Smoke 27 1013 54 3500 2.6 40 21:56 07.12.2019
3061 Smoke 27 1013 54 3500 1.5 20 21:38 07.12.2019
3062 Smoke 27 1013 54 3500 1.5 20 21:19 07.12.2019
3063 Smoke 28 1013 48 3500 3.6 70 20:55 07.12.2019
3064 Smoke 28 1013 51 3500 3.1 70 20:36 07.12.2019
3065 Smoke 28 1013 51 3500 3.1 70 20:18 07.12.2019
3066 Smoke 27 1013 57 3500 2.1 70 19:55 07.12.2019
3067 Smoke 27 1014 57 3500 2.6 50 19:36 07.12.2019
3068 Smoke 27 1014 57 3500 2.6 50 19:18 07.12.2019
3069 Smoke 27 1014 61 4000 2.6 90 18:44 07.12.2019
3070 Smoke 27 1014 61 4000 2.6 90 18:19 07.12.2019
3071 Smoke 28 1014 58 4000 2.6 90 17:57 07.12.2019
3072 Smoke 28 1014 58 5000 3.1 140 17:39 07.12.2019
3073 Smoke 28 1014 58 5000 3.1 140 17:20 07.12.2019
3074 Clear 28 1013 61 6000 2.6 30 16:56 07.12.2019
3075 Clear 28 1013 61 6000 2.6 30 16:56 07.12.2019
3076 Clear 28 1013 58 6000 3.1 350 16:37 07.12.2019
3077 Smoke 29 1013 54 5000 3.1 340 16:19 07.12.2019
3078 Smoke 28 1013 61 4000 2.6 0 15:42 07.12.2019
3079 Smoke 28 1013 61 4000 2.6 0 15:23 07.12.2019
3080 Smoke 28 1013 61 4000 2.6 0 15:23 07.12.2019
3081 Smoke 28 1013 58 4000 4.1 330 14:58 07.12.2019
3082 Smoke 28 1012 58 4000 4.1 340 14:40 07.12.2019
3083 Smoke 31 1012 51 4000 3.6 340 14:18 07.12.2019
3084 Smoke 30 1011 54 4000 3.6 320 13:41 07.12.2019
3085 Smoke 30 1011 54 4000 3.6 320 13:41 07.12.2019
3086 Smoke 30 1011 54 4000 3.6 320 13:21 07.12.2019
3087 Smoke 31 1011 51 4000 5.7 300 12:59 07.12.2019
3088 Smoke 32 1011 48 4000 2.6 300 12:40 07.12.2019
3089 Smoke 32 1011 48 4000 2.6 300 12:22 07.12.2019
3090 Smoke 32 1011 43 4000 4.6 300 11:57 07.12.2019
3091 Smoke 32 1011 43 4000 4.6 300 11:39 07.12.2019
3092 Smoke 32 1011 43 4000 4.6 300 11:20 07.12.2019
3093 Smoke 33 1011 31 4000 3.1 50 10:38 07.12.2019
3094 Smoke 33 1011 31 4000 3.1 50 10:19 07.12.2019
3095 Smoke 33 1012 31 3500 3.6 60 09:42 07.12.2019
3096 Smoke 33 1012 31 3500 3.6 60 09:22 07.12.2019
3097 Smoke 32 1012 33 3500 3.1 70 08:59 07.12.2019
3098 Smoke 32 1013 35 3500 3.6 70 08:39 07.12.2019
3099 Smoke 32 1013 35 3500 3.6 70 08:21 07.12.2019
3100 Smoke 32 1013 35 3500 3.6 90 07:45 07.12.2019
3101 Smoke 31 1014 37 3500 3.6 120 07:25 07.12.2019
3102 Smoke 31 1014 37 3000 3.6 90 06:48 07.12.2019
3103 Smoke 31 1015 37 3000 3.6 90 06:25 07.12.2019
3104 Smoke 28 1015 42 3000 3.6 100 05:25 07.12.2019
3105 Smoke 26 1014 54 3000 2.6 100 03:56 07.12.2019
3106 Smoke 25 1013 57 3000 1.5 120 03:18 07.12.2019
3107 Smoke 26 1013 54 3000 1 150 02:21 07.12.2019
3108 Smoke 25 1012 53 3000 3.6 80 01:34 07.12.2019
3109 Smoke 25 1012 57 3000 1.5 70 00:52 07.12.2019
3110 Smoke 26 1012 54 3000 1.5 50 00:19 07.12.2019
3111 Smoke 26 1012 54 3000 1.5 70 23:56 06.12.2019
3112 Smoke 26 1012 54 3000 1.5 70 23:36 06.12.2019
3113 Smoke 26 1012 54 3000 1.5 70 23:18 06.12.2019
3114 Smoke 27 1012 51 3000 2.1 70 22:38 06.12.2019
3115 Smoke 27 1012 51 3000 2.1 70 22:19 06.12.2019
3116 Smoke 27 1012 51 3000 2.6 100 21:57 06.12.2019
3117 Smoke 27 1013 51 3000 2.1 90 21:38 06.12.2019
3118 Smoke 27 1013 51 3000 2.1 90 21:19 06.12.2019
3119 Smoke 28 1013 51 3000 1.5 190 20:42 06.12.2019
3120 Smoke 28 1013 51 3000 1.5 190 20:42 06.12.2019
3121 Smoke 28 1013 51 3000 1.5 190 20:24 06.12.2019
3122 Smoke 28 1013 48 3000 1.76 81 19:59 06.12.2019
3123 Smoke 28 1013 51 3000 2.1 210 19:40 06.12.2019
3124 Smoke 28 1013 51 3000 2.1 210 19:21 06.12.2019
3125 Smoke 28 1013 51 3000 1.5 120 18:56 06.12.2019
3126 Smoke 30 1013 45 3000 2.1 40 18:38 06.12.2019
3127 Smoke 30 1013 45 3000 2.1 40 18:19 06.12.2019
3128 Smoke 30 1013 45 3000 3.6 50 17:55 06.12.2019
3129 Smoke 30 1013 45 3000 3.1 360 17:37 06.12.2019
3130 Smoke 31 1013 45 3000 3.1 360 17:19 06.12.2019
3131 Smoke 30 1013 48 3000 3.6 340 16:42 06.12.2019
3132 Smoke 30 1013 48 3000 3.6 340 16:24 06.12.2019
3133 Smoke 30 1013 51 3000 3.6 20 15:59 06.12.2019
3134 Smoke 30 1013 58 3500 3.1 340 15:40 06.12.2019
3135 Smoke 30 1013 58 3500 3.1 340 15:18 06.12.2019
3136 Smoke 30 1012 55 3500 2.6 20 14:56 06.12.2019
3137 Smoke 29 1012 58 0 3.1 360 14:37 06.12.2019
3138 Smoke 29 1012 62 3500 3.6 340 14:18 06.12.2019
3139 Smoke 30 1012 55 3500 4.1 330 13:42 06.12.2019
3140 Smoke 30 1012 55 3500 4.1 330 13:24 06.12.2019
3141 Smoke 32 1011 36 3500 2.6 60 12:42 06.12.2019
3142 Smoke 32 1011 36 3500 2.6 60 12:22 06.12.2019
3143 Smoke 32 1011 38 3500 1.5 0 11:57 06.12.2019
3144 Smoke 33 1011 36 3500 3.6 360 11:39 06.12.2019
3145 Smoke 33 1011 36 3500 3.6 360 11:19 06.12.2019
3146 Smoke 33 1012 38 3500 3.1 110 10:43 06.12.2019
3147 Smoke 33 1012 38 3500 3.1 110 10:21 06.12.2019
3148 Smoke 33 1012 38 3500 1.5 60 09:58 06.12.2019
3149 Smoke 33 1013 38 3500 3.1 30 09:37 06.12.2019
3150 Smoke 33 1013 38 3500 3.1 30 09:19 06.12.2019
3151 Smoke 33 1013 38 3500 3.1 90 08:45 06.12.2019
3152 Smoke 32 1014 38 3000 3.1 80 08:26 06.12.2019
3153 Smoke 31 1015 43 2500 4.6 100 07:44 06.12.2019
3154 Smoke 31 1015 43 2500 4.6 100 07:25 06.12.2019
3155 Smoke 31 1016 40 2500 4.1 90 06:59 06.12.2019
3156 Smoke 31 1016 45 2500 3.1 80 06:28 06.12.2019
3157 Smoke 30 1016 48 2500 3.1 80 05:53 06.12.2019
3158 Smoke 28 1016 51 2500 3.6 70 05:21 06.12.2019
3159 Haze 27 1014 61 3000 2.6 80 02:19 06.12.2019
3160 Haze 27 1014 65 3000 2.1 60 01:29 06.12.2019
3161 Haze 27 1013 69 3000 2.6 30 00:40 06.12.2019
3162 Haze 27 1013 69 3000 2.6 30 00:20 06.12.2019
3163 Haze 28 1013 65 3000 2.6 30 23:45 05.12.2019
3164 Haze 28 1013 65 3000 2.6 40 23:19 05.12.2019
3165 Haze 28 1013 65 3000 3.1 40 22:57 05.12.2019
3166 Haze 28 1013 69 3000 3.1 50 22:37 05.12.2019
3167 Haze 28 1013 69 3000 3.1 50 22:18 05.12.2019
3168 Haze 28 1014 69 3000 3.1 60 21:44 05.12.2019
3169 Haze 28 1014 69 3000 2.1 50 21:25 05.12.2019
3170 Haze 29 1014 66 3000 2.1 40 20:59 05.12.2019
3171 Haze 29 1014 66 3000 2.1 40 20:40 05.12.2019
3172 Haze 29 1014 66 3000 2.1 40 20:40 05.12.2019
3173 Haze 29 1014 66 3000 2.1 50 20:21 05.12.2019
3174 Haze 29 1014 66 3000 2.1 40 19:58 05.12.2019
3175 Haze 29 1014 66 3000 2.1 40 19:40 05.12.2019
3176 Haze 29 1015 66 3000 1.5 90 19:20 05.12.2019
3177 Haze 28 1015 69 3000 1.5 80 18:57 05.12.2019
3178 Haze 29 1015 58 3000 1.5 60 18:37 05.12.2019
3179 Haze 29 1015 58 3000 1.5 60 18:19 05.12.2019
3180 Haze 29 1015 58 3000 2.6 40 17:39 05.12.2019
3181 Haze 28 1015 65 3000 2.1 20 17:20 05.12.2019
3182 Haze 29 1015 62 3000 2.1 50 16:57 05.12.2019
3183 Haze 29 1014 62 3000 2.1 30 16:39 05.12.2019
3184 Haze 29 1014 62 3000 2.1 30 16:21 05.12.2019
3185 Haze 29 1014 62 3000 2.1 30 16:21 05.12.2019
3186 Smoke 29 1014 62 3000 2.6 30 15:56 05.12.2019
3187 Smoke 30 1014 58 3000 3.1 30 15:38 05.12.2019
3188 Smoke 30 1014 58 3000 3.1 30 15:19 05.12.2019
3189 Smoke 30 1014 55 3000 3.1 20 14:55 05.12.2019
3190 Smoke 30 1013 55 3000 1.5 30 14:37 05.12.2019
3191 Smoke 30 1013 55 3000 1.5 30 14:37 05.12.2019
3192 Smoke 31 1013 52 3000 3.1 30 14:18 05.12.2019
3193 Smoke 31 1013 52 3000 3.1 30 13:56 05.12.2019
3194 Smoke 31 1012 52 3000 3.1 50 13:38 05.12.2019
3195 Smoke 31 1012 52 3000 3.1 50 13:19 05.12.2019
3196 Smoke 31 1012 52 3000 3.1 50 13:19 05.12.2019
3197 Smoke 31 1012 52 3000 3.6 40 12:55 05.12.2019
3198 Smoke 32 1012 49 3000 3.1 30 12:37 05.12.2019
3199 Smoke 32 1012 49 3000 3.1 30 12:19 05.12.2019
3200 Smoke 32 1012 46 3000 3.6 70 11:39 05.12.2019
3201 Smoke 32 1012 46 3000 3.6 70 11:20 05.12.2019
3202 Smoke 32 1012 46 3000 4.1 110 10:57 05.12.2019
3203 Haze 32 1012 52 3000 2.1 70 10:39 05.12.2019
3204 Haze 32 1012 52 3000 2.1 70 10:18 05.12.2019
3205 Drizzle 32 1013 55 2500 3.1 350 09:54 05.12.2019
3206 Haze 32 1013 55 3000 2.6 20 09:36 05.12.2019
3207 Haze 32 1013 55 3000 2.6 20 09:18 05.12.2019
3208 Haze 31 1015 58 2500 2.1 30 08:39 05.12.2019
3209 Haze 30 1015 58 2500 2.1 30 08:20 05.12.2019
3210 Haze 30 1015 58 2500 2.1 60 07:57 05.12.2019
3211 Haze 30 1016 62 2500 4.1 40 07:36 05.12.2019
3212 Haze 31 1016 70 2500 4.6 60 07:18 05.12.2019
3213 Haze 31 1016 70 2500 4.6 60 06:42 05.12.2019
3214 Haze 30 1016 70 2500 2.6 40 06:21 05.12.2019
3215 Haze 29 1016 78 2500 3.1 30 05:48 05.12.2019
3216 Haze 28 1016 78 2500 2.6 60 05:23 05.12.2019
3217 Mist 27 1015 88 2500 3.1 30 04:25 05.12.2019
3218 Rain 27 1014 88 2500 2.1 310 02:54 05.12.2019
3219 Mist 28 1014 83 3000 1.5 290 02:25 05.12.2019
3220 Mist 28 1014 83 3000 3.1 240 01:59 05.12.2019
3221 Mist 28 1014 83 3000 3.1 240 01:40 05.12.2019
3222 Mist 28 1013 78 3000 3.1 230 01:20 05.12.2019
3223 Haze 28 1013 83 3000 4.1 250 00:37 05.12.2019
3224 Haze 28 1013 83 3000 4.1 250 00:18 05.12.2019
3225 Haze 28 1013 83 3000 3.1 240 23:42 04.12.2019
3226 Haze 28 1013 83 3000 3.1 240 23:22 04.12.2019
3227 Haze 29 1013 74 3000 3.6 250 22:57 04.12.2019
3228 Haze 29 1013 79 3000 3.1 260 22:36 04.12.2019
3229 Haze 29 1013 79 3000 3.1 260 22:18 04.12.2019
3230 Haze 29 1014 79 3000 2.6 270 21:55 04.12.2019
3231 Haze 29 1014 83 3000 2.6 270 21:37 04.12.2019
3232 Haze 29 1014 83 3000 2.6 270 21:18 04.12.2019
3233 Haze 29 1014 83 3000 1.5 290 20:56 04.12.2019
3234 Haze 29 1014 79 3000 2.6 240 20:38 04.12.2019
3235 Haze 29 1014 79 3000 2.6 240 20:19 04.12.2019
3236 Haze 29 1015 83 3000 2.6 290 19:40 04.12.2019
3237 Haze 29 1015 79 3000 2.6 240 19:22 04.12.2019
3238 Haze 29 1015 79 3000 2.1 260 18:59 04.12.2019
3239 Haze 29 1015 79 3000 2.6 210 18:40 04.12.2019
3240 Haze 29 1015 79 3000 2.6 210 18:22 04.12.2019
3241 Haze 29 1014 79 3000 2.6 280 17:57 04.12.2019
3242 Haze 29 1014 79 3000 3.1 260 17:38 04.12.2019
3243 Haze 29 1014 79 3000 3.1 260 17:18 04.12.2019
3244 Haze 29 1014 74 3000 3.1 290 16:41 04.12.2019
3245 Haze 29 1014 74 3000 3.1 290 16:20 04.12.2019
3246 Haze 29 1014 74 3000 3.1 270 15:59 04.12.2019
3247 Haze 29 1013 74 3000 3.6 280 15:41 04.12.2019
3248 Haze 29 1013 74 3000 3.6 280 15:21 04.12.2019
3249 Haze 29 1013 70 3000 3.1 290 14:59 04.12.2019
3250 Haze 29 1013 70 3000 3.1 290 14:41 04.12.2019
3251 Haze 29 1012 66 3000 3.1 310 14:21 04.12.2019
3252 Haze 30 1012 66 3000 4.1 310 13:56 04.12.2019
3253 Haze 30 1012 62 3500 4.1 300 13:36 04.12.2019
3254 Haze 30 1012 62 3500 4.1 300 13:18 04.12.2019
3255 Smoke 31 1011 58 3500 3.6 290 12:41 04.12.2019
3256 Smoke 31 1011 58 3500 3.6 300 12:23 04.12.2019
3257 Smoke 31 1010 55 4000 3.1 300 11:44 04.12.2019
3258 Smoke 31 1010 55 4000 3.1 300 11:44 04.12.2019
3259 Smoke 32 1010 41 4000 3.1 180 11:26 04.12.2019
3260 Smoke 34 1010 41 4000 5.1 150 10:58 04.12.2019
3261 Smoke 34 1010 41 4000 5.1 150 10:40 04.12.2019
3262 Smoke 34 1010 41 4000 4.6 140 10:22 04.12.2019
3263 Smoke 34 1010 38 4000 4.6 140 09:44 04.12.2019
3264 Smoke 33 1011 38 3500 5.7 130 09:24 04.12.2019
3265 Smoke 33 1012 41 3000 4.6 130 08:56 04.12.2019
3266 Smoke 32 1012 43 3000 3.6 100 08:38 04.12.2019
3267 Smoke 32 1012 43 3000 3.6 100 08:19 04.12.2019
3268 Smoke 31 1013 45 3000 3.1 120 07:42 04.12.2019
3269 Smoke 31 1013 45 3000 3.1 120 07:22 04.12.2019
3270 Smoke 30 1014 51 3000 3.1 120 06:33 04.12.2019
3271 Smoke 30 1014 48 3000 4.1 120 05:48 04.12.2019
3272 Smoke 28 1014 58 3000 2.1 110 04:43 04.12.2019
3273 Smoke 28 1013 58 3000 3.1 90 03:54 04.12.2019
3274 Smoke 28 1013 58 3000 3.1 90 03:54 04.12.2019
3275 Smoke 27 1012 61 3000 2.6 90 02:21 04.12.2019
3276 Haze 28 1011 58 3000 4.6 70 00:50 04.12.2019
3277 Haze 28 1011 58 3000 3.1 80 00:23 04.12.2019
3278 Haze 27 1010 65 3000 1.5 40 23:56 03.12.2019
3279 Haze 28 1010 61 3000 2.1 30 23:38 03.12.2019
3280 Haze 28 1010 61 3000 2.1 30 23:18 03.12.2019
3281 Haze 28 1011 61 3000 3.1 80 22:40 03.12.2019
3282 Haze 28 1011 69 3000 1.5 130 22:19 03.12.2019
3283 Haze 29 1011 66 3000 2.6 90 21:58 03.12.2019
3284 Haze 28 1012 74 3000 2.1 30 21:37 03.12.2019
3285 Haze 28 1012 74 3000 2.1 30 21:19 03.12.2019
3286 Haze 28 1012 69 3000 2.1 30 20:57 03.12.2019
3287 Haze 29 1013 70 3000 3.1 60 20:38 03.12.2019
3288 Haze 29 1013 70 3000 3.1 60 20:18 03.12.2019
3289 Haze 29 1013 70 3000 2.1 340 19:54 03.12.2019
3290 Haze 29 1013 70 3500 2.6 350 19:36 03.12.2019
3291 Haze 29 1013 70 3500 2.6 350 19:18 03.12.2019
3292 Haze 29 1013 70 3500 3.1 340 18:55 03.12.2019
3293 Haze 30 1013 66 3500 3.6 40 18:37 03.12.2019
3294 Haze 30 1013 66 3500 3.6 40 18:19 03.12.2019
3295 Haze 30 1013 66 3500 3.6 40 18:19 03.12.2019
3296 Haze 30 1013 62 3500 2.1 340 17:40 03.12.2019
3297 Haze 30 1013 66 4000 1.5 330 17:19 03.12.2019
3298 Haze 29 1013 66 4000 2.6 300 16:59 03.12.2019
3299 Haze 29 1013 66 4000 2.6 300 16:59 03.12.2019
3300 Haze 29 1013 66 4000 2.6 300 16:40 03.12.2019
3301 Haze 30 1013 62 4000 2.1 300 16:21 03.12.2019
3302 Haze 30 1012 62 4000 1.5 310 15:59 03.12.2019
3303 Haze 30 1012 62 4000 1.5 310 15:39 03.12.2019
3304 Haze 30 1012 62 4000 1.5 310 15:39 03.12.2019
3305 Haze 30 1012 62 4000 1.5 290 15:19 03.12.2019
3306 Haze 29 1011 62 4000 2.6 300 14:54 03.12.2019
3307 Haze 29 1011 62 4000 2.6 310 14:36 03.12.2019
3308 Haze 29 1011 62 4000 2.6 310 14:18 03.12.2019
3309 Haze 30 1010 58 5000 3.1 290 13:38 03.12.2019
3310 Haze 30 1010 58 5000 3.1 290 13:20 03.12.2019
3311 Smoke 31 1010 55 5000 4.6 270 12:58 03.12.2019
3312 Smoke 31 1009 52 5000 3.6 310 12:37 03.12.2019
3313 Smoke 31 1009 52 5000 3.6 310 12:18 03.12.2019
3314 Smoke 33 1009 41 5000 3.6 110 11:57 03.12.2019
3315 Smoke 33 1009 41 5000 4.6 160 11:37 03.12.2019
3316 Smoke 33 1009 41 5000 4.6 160 11:19 03.12.2019
3317 Smoke 33 1010 41 5000 4.1 140 10:56 03.12.2019
3318 Smoke 33 1010 41 5000 4.6 130 10:38 03.12.2019
3319 Smoke 33 1010 41 5000 4.6 130 10:18 03.12.2019
3320 Smoke 32 1010 43 5000 4.1 130 09:42 03.12.2019
3321 Smoke 33 1011 41 5000 4.1 110 09:23 03.12.2019
3322 Smoke 32 1011 43 5000 3.1 130 08:56 03.12.2019
3323 Smoke 32 1011 43 5000 3.1 130 08:56 03.12.2019
3324 Smoke 32 1012 43 5000 3.6 140 08:38 03.12.2019
3325 Smoke 32 1012 43 5000 3.6 140 08:19 03.12.2019
3326 Smoke 32 1013 46 5000 4.6 140 07:51 03.12.2019
3327 Smoke 32 1013 48 4000 3.6 120 07:25 03.12.2019
3328 Smoke 32 1013 48 4000 3.6 120 07:25 03.12.2019
3329 Smoke 31 1014 48 4000 4.1 100 06:38 03.12.2019
3330 Smoke 31 1014 48 4000 4.1 100 06:19 03.12.2019
3331 Haze 29 1013 54 4000 2.6 110 04:56 03.12.2019
3332 Haze 29 1013 65 3000 3.1 110 03:42 03.12.2019
3333 Haze 26 1012 74 2500 2.6 110 03:21 03.12.2019
3334 Haze 26 1012 74 2200 3.1 110 02:51 03.12.2019
3335 Haze 29 1011 74 2200 3.6 100 02:32 03.12.2019
3336 Haze 26 1011 74 2200 2.1 110 01:57 03.12.2019
3337 Haze 26 1011 69 2200 2.6 110 01:38 03.12.2019
3338 Haze 26 1011 69 2200 2.6 110 01:18 03.12.2019
3339 Haze 26 1010 74 2200 2.6 110 00:40 03.12.2019
3340 Haze 27 1010 69 2200 2.6 120 00:21 03.12.2019
3341 Haze 27 1010 69 2200 2.6 100 23:44 02.12.2019
3342 Haze 27 1010 74 2200 2.6 100 23:21 02.12.2019
3343 Haze 28 1010 69 2200 2.1 90 22:56 02.12.2019
3344 Haze 28 1010 69 2200 2.1 90 22:56 02.12.2019
3345 Haze 28 1010 65 2200 2.6 90 22:37 02.12.2019
3346 Haze 28 1010 65 2200 2.6 90 22:19 02.12.2019
3347 Haze 28 1011 69 2100 2.1 110 21:39 02.12.2019
3348 Haze 29 1011 66 2100 3.1 140 21:20 02.12.2019
3349 Haze 28 1011 74 2100 1.5 50 20:57 02.12.2019
3350 Haze 28 1011 74 2100 1.5 60 20:39 02.12.2019
3351 Haze 28 1011 74 2100 1.5 60 20:20 02.12.2019
3352 Haze 28 1012 78 2100 2.1 90 19:57 02.12.2019
3353 Haze 28 1012 78 2100 2.6 90 19:39 02.12.2019
3354 Haze 28 1012 78 2100 2.6 90 19:20 02.12.2019
3355 Haze 29 1012 74 2100 2.1 100 18:48 02.12.2019
3356 Haze 29 1012 74 2100 2.1 100 18:48 02.12.2019
3357 Haze 29 1012 74 2100 2.6 60 18:24 02.12.2019
3358 Haze 30 1012 70 2100 2.56 58 17:59 02.12.2019
3359 Haze 30 1012 70 2100 2.56 58 17:41 02.12.2019
3360 Smoke 29 1012 74 2500 2.1 220 17:21 02.12.2019
3361 Smoke 29 1012 74 2500 2.1 220 17:21 02.12.2019
3362 Smoke 29 1012 74 2500 1.05 174 16:57 02.12.2019
3363 -273 0 0 0 0 0 16:39 02.12.2019
3364 Haze 29 1012 79 3000 2.6 250 16:39 02.12.2019
3365 Haze 29 1012 79 3000 2.6 250 16:18 02.12.2019
3366 Haze 29 1011 79 3000 3.1 280 15:56 02.12.2019
3367 Haze 30 1011 70 3000 3.1 300 15:38 02.12.2019
3368 Haze 30 1011 70 3000 3.1 300 15:20 02.12.2019
3369 Haze 29 1011 70 3000 3.1 300 14:55 02.12.2019
3370 Haze 29 1011 70 3000 3.1 300 14:55 02.12.2019
3371 Haze 29 1010 70 3000 2.6 310 14:37 02.12.2019
3372 Haze 31 1010 70 3000 2.6 310 14:18 02.12.2019
3373 Haze 31 1010 70 3500 3.1 300 13:54 02.12.2019
3374 Smoke 31 1010 66 4000 5.1 300 13:36 02.12.2019
3375 Smoke 31 1010 66 4000 5.1 300 13:18 02.12.2019
3376 Smoke 30 1009 70 4000 5.1 280 12:41 02.12.2019
3377 Smoke 31 1009 58 4000 3.6 280 12:20 02.12.2019
3378 Smoke 32 1009 55 4000 3.6 290 11:56 02.12.2019
3379 Smoke 32 1009 52 4000 4.6 270 11:37 02.12.2019
3380 Smoke 33 1009 52 4000 4.6 270 11:19 02.12.2019
3381 Smoke 33 1009 52 4000 4.6 270 11:19 02.12.2019
3382 Smoke 33 1009 52 3500 5.1 270 10:56 02.12.2019
3383 Smoke 33 1009 49 3500 4.1 270 10:38 02.12.2019
3384 Smoke 33 1009 49 3500 4.1 270 10:19 02.12.2019
3385 Smoke 33 1010 41 3500 3.6 120 09:41 02.12.2019
3386 Smoke 34 1010 41 3500 3.6 110 09:19 02.12.2019
3387 Smoke 34 1011 43 3500 4.6 110 08:58 02.12.2019
3388 Smoke 34 1011 43 3500 4.6 110 08:58 02.12.2019
3389 Smoke 33 1012 46 3500 4.1 80 08:40 02.12.2019
3390 Smoke 34 1012 46 3500 4.1 80 08:21 02.12.2019
3391 Smoke 33 1012 46 3000 3.1 80 07:44 02.12.2019
3392 Smoke 32 1013 46 3000 4.1 80 07:23 02.12.2019
3393 Smoke 32 1013 48 3000 3.6 110 06:57 02.12.2019
3394 Smoke 32 1013 48 2500 4.1 110 06:39 02.12.2019
3395 Haze 30 1013 54 2500 2.6 60 05:36 02.12.2019
3396 Haze 28 1013 61 1800 4.6 70 04:40 02.12.2019
3397 Haze 27 1012 74 2200 2.05 78 02:55 02.12.2019
3398 Haze 29 1011 69 2500 1 0 02:36 02.12.2019
3399 Haze 27 1011 69 2500 3.1 40 01:28 02.12.2019
3400 Haze 27 1011 69 2500 3.6 40 00:59 02.12.2019
3401 Haze 27 1010 69 2500 2.1 30 00:28 02.12.2019
3402 Haze 27 1010 74 2500 1.5 30 23:56 01.12.2019
3403 Haze 27 1010 74 2500 2.6 40 23:38 01.12.2019
3404 Haze 27 1010 74 2500 2.6 40 23:19 01.12.2019
3405 Haze 27 1011 74 2500 2.1 50 22:56 01.12.2019
3406 Haze 28 1011 69 2500 2.1 60 22:37 01.12.2019
3407 Haze 28 1011 69 2500 2.1 60 22:18 01.12.2019
3408 Haze 28 1011 65 2500 2.1 40 21:56 01.12.2019
3409 Haze 28 1011 69 2500 2.1 20 21:38 01.12.2019
3410 Haze 28 1011 69 2500 2.1 20 21:18 01.12.2019
3411 Haze 28 1011 69 2500 2.6 50 20:56 01.12.2019
3412 Haze 28 1012 65 2500 2.6 50 20:37 01.12.2019
3413 Haze 28 1012 65 2500 2.6 50 20:19 01.12.2019
3414 Haze 28 1012 65 2500 2.6 50 20:19 01.12.2019
3415 Haze 28 1012 65 2200 3.6 80 19:55 01.12.2019
3416 Haze 29 1012 70 2200 2.68 35 19:36 01.12.2019
3417 Haze 29 1012 70 2200 2.68 35 19:36 01.12.2019
3418 Haze 29 1012 70 2200 2.68 35 19:18 01.12.2019
3419 Haze 29 1012 70 2200 2.68 35 19:18 01.12.2019
3420 Haze 29 1012 70 2200 2.1 340 18:55 01.12.2019
3421 Haze 29 1012 70 2200 2.1 340 18:55 01.12.2019
3422 Haze 29 1012 70 2200 1.5 20 18:36 01.12.2019
3423 Haze 29 1012 70 2200 1.5 20 18:18 01.12.2019
3424 Haze 29 1012 70 2200 2.1 40 17:55 01.12.2019
3425 Haze 29 1012 74 2200 2.6 40 17:37 01.12.2019
3426 Haze 29 1012 74 2200 2.6 40 17:19 01.12.2019
3427 Haze 29 1012 74 2100 2.6 30 16:43 01.12.2019
3428 Haze 30 1012 66 2100 3.6 40 16:23 01.12.2019
3429 Haze 30 1011 66 2200 3.1 360 15:53 01.12.2019
3430 Haze 30 1011 62 2200 3.1 340 15:33 01.12.2019
3431 Haze 29 1011 66 2500 3.1 340 14:58 01.12.2019
3432 Haze 29 1011 66 2500 3.1 340 14:58 01.12.2019
3433 Haze 29 1011 66 2500 3.1 340 14:58 01.12.2019
3434 Haze 29 1010 62 2500 2.1 320 14:37 01.12.2019
3435 Haze 31 1010 62 2500 2.1 320 14:19 01.12.2019
3436 Haze 31 1010 58 2500 2.1 330 13:40 01.12.2019
3437 Haze 32 1010 58 2500 3.1 330 13:21 01.12.2019
3438 Haze 32 1010 62 2500 3.1 310 12:47 01.12.2019
3439 Smoke 32 1009 55 3000 2.1 310 12:19 01.12.2019
3440 Smoke 33 1010 59 3000 3.6 280 11:44 01.12.2019
3441 Smoke 33 1010 59 3000 3.6 280 11:24 01.12.2019
3442 Smoke 33 1010 52 3000 4.1 270 10:55 01.12.2019
3443 Smoke 33 1010 52 3000 4.1 270 10:55 01.12.2019
3444 Smoke 33 1010 49 3000 4.1 270 10:37 01.12.2019
3445 Smoke 33 1010 49 3000 4.1 270 10:18 01.12.2019
3446 Smoke 33 1010 52 3500 4.6 280 09:41 01.12.2019
3447 Smoke 33 1011 43 3500 2.6 200 09:21 01.12.2019
3448 Smoke 34 1011 44 3000 1.5 40 08:49 01.12.2019
3449 Smoke 33 1012 46 3000 1.5 130 08:22 01.12.2019
3450 Smoke 32 1013 52 2800 2.1 130 07:52 01.12.2019
3451 Smoke 32 1013 52 2500 2.1 90 07:32 01.12.2019
3452 Smoke 32 1013 52 2500 2.1 90 07:32 01.12.2019
3453 Smoke 32 1013 52 2500 3.1 130 06:58 01.12.2019
3454 Smoke 31 1014 58 2200 2.6 70 06:36 01.12.2019
3455 Haze 30 1014 62 1800 2.6 140 05:50 01.12.2019
3456 Haze 29 1014 70 1500 1.5 160 04:53 01.12.2019
3457 Haze 28 1013 74 1700 2.1 90 04:21 01.12.2019
3458 Smoke 29 1012 78 2200 3.1 110 02:38 01.12.2019
3459 Smoke 27 1012 78 2200 3.1 110 02:20 01.12.2019
3460 Smoke 27 1011 78 2200 1.5 60 01:52 01.12.2019
3461 Smoke 27 1011 74 2200 2.1 90 01:26 01.12.2019
3462 Smoke 27 1011 74 2200 1.5 30 00:44 01.12.2019
3463 Smoke 27 1011 74 2200 1.5 140 00:24 01.12.2019
3464 Smoke 27 1011 74 2200 2.1 30 23:44 30.11.2019
3465 Haze 28 1011 69 3000 2.6 20 23:24 30.11.2019
3466 Haze 28 1011 69 3000 1.5 10 22:58 30.11.2019
3467 Haze 28 1011 69 3000 1.5 10 22:39 30.11.2019
3468 Haze 29 1011 66 3000 1.48 42 22:20 30.11.2019
3469 Haze 28 1011 69 3000 1.48 42 21:47 30.11.2019
3470 Haze 29 1011 66 3000 2.1 150 21:28 30.11.2019
3471 Haze 29 1012 66 3000 1.48 42 20:58 30.11.2019
3472 Haze 29 1012 66 3000 2.1 70 20:39 30.11.2019
3473 Haze 29 1012 66 3000 2.1 70 20:19 30.11.2019
3474 Haze 29 1012 62 3000 1.58 48 19:56 30.11.2019
3475 Haze 29 1012 62 2500 1.58 48 19:38 30.11.2019
3476 Haze 29 1012 62 2500 1.58 48 19:20 30.11.2019
3477 Haze 29 1012 62 2500 1.5 130 18:58 30.11.2019
3478 Haze 29 1012 62 2500 2.6 150 18:38 30.11.2019
3479 Haze 29 1012 62 2500 2.6 150 18:19 30.11.2019
3480 Haze 30 1012 58 2500 2.6 80 17:58 30.11.2019
3481 Haze 29 1012 66 2500 3.6 40 17:39 30.11.2019
3482 Haze 29 1012 66 2500 3.6 40 17:20 30.11.2019
3483 Haze 30 1012 62 2500 2.1 350 16:56 30.11.2019
3484 Haze 30 1012 62 2500 1.5 340 16:38 30.11.2019
3485 Haze 30 1012 62 2500 1.5 340 16:20 30.11.2019
3486 Haze 30 1011 62 2500 2.6 340 15:42 30.11.2019
3487 Haze 30 1011 66 2500 2.6 310 15:19 30.11.2019
3488 Haze 29 1010 62 2500 2.6 320 14:57 30.11.2019
3489 Smoke 29 1010 62 2500 3.6 330 14:38 30.11.2019
3490 Smoke 29 1010 62 2500 3.6 330 14:38 30.11.2019
3491 Smoke 31 1010 62 2500 3.6 330 14:19 30.11.2019
3492 Smoke 31 1010 58 2500 2.1 310 13:58 30.11.2019
3493 Smoke 31 1010 58 2500 3.1 320 13:38 30.11.2019
3494 Smoke 31 1010 58 2500 3.1 320 13:19 30.11.2019
3495 Smoke 32 1009 58 2500 3.1 320 12:47 30.11.2019
3496 Smoke 32 1009 58 2500 3.1 320 12:28 30.11.2019
3497 Smoke 32 1009 58 2500 3.6 300 11:57 30.11.2019
3498 Smoke 32 1009 58 2500 3.6 300 11:57 30.11.2019
3499 Smoke 32 1009 55 2500 4.1 300 11:38 30.11.2019
3500 Smoke 32 1009 55 2500 4.1 300 11:18 30.11.2019
3501 Smoke 32 1010 58 2800 3.6 290 10:44 30.11.2019
3502 Smoke 32 1010 58 2800 3.6 290 10:21 30.11.2019
3503 Smoke 33 1010 52 3500 3.6 280 09:50 30.11.2019
3504 Smoke 33 1010 46 3500 3.1 130 09:30 30.11.2019
3505 Smoke 34 1011 43 3500 3.1 140 08:57 30.11.2019
3506 Smoke 33 1011 49 3000 3.1 120 08:38 30.11.2019
3507 Smoke 33 1011 49 3000 3.1 120 08:18 30.11.2019
3508 Smoke 33 1011 49 3000 3.1 120 08:18 30.11.2019
3509 Smoke 33 1012 46 3000 3.1 120 07:42 30.11.2019
3510 Smoke 33 1012 46 3000 3.1 120 07:23 30.11.2019
3511 Smoke 32 1013 52 3000 3.1 120 06:46 30.11.2019
3512 Smoke 32 1013 52 5000 3.1 120 06:27 30.11.2019
3513 Haze 30 1013 58 2500 2.6 80 05:23 30.11.2019
3514 Haze 27 1012 65 2200 3.1 60 03:38 30.11.2019
3515 Haze 26 1011 69 2500 3.1 70 02:26 30.11.2019
3516 Haze 27 1011 69 2500 2.1 40 01:51 30.11.2019
3517 Haze 27 1011 69 2500 2.1 20 01:24 30.11.2019
3518 Haze 26 1011 74 2500 1.99 69 00:45 30.11.2019
3519 Haze 27 1010 69 2500 1.5 10 00:27 30.11.2019
3520 Haze 27 1010 69 2500 1.5 10 23:44 29.11.2019
3521 Haze 27 1011 69 2500 1.5 20 23:25 29.11.2019
3522 Haze 27 1011 69 2500 1.5 20 23:25 29.11.2019
3523 Haze 28 1011 65 2500 2.1 10 22:49 29.11.2019
3524 Haze 28 1011 61 2500 1.5 60 22:27 29.11.2019
3525 Haze 28 1011 61 2500 2.1 20 21:59 29.11.2019
3526 Haze 28 1011 61 2500 2.1 20 21:41 29.11.2019
3527 Haze 28 1011 61 2500 2.1 30 21:22 29.11.2019
3528 Smoke 28 1011 65 2500 3.1 50 20:56 29.11.2019
3529 Smoke 28 1012 61 2500 2.6 20 20:37 29.11.2019
3530 Smoke 28 1012 61 2500 2.6 20 20:18 29.11.2019
3531 Smoke 30 1012 58 2500 2.1 30 19:55 29.11.2019
3532 Smoke 29 1012 58 2500 2.6 50 19:36 29.11.2019
3533 Smoke 29 1012 58 2500 2.6 50 19:18 29.11.2019
3534 Smoke 29 1012 58 2500 3.1 20 18:42 29.11.2019
3535 Smoke 29 1012 58 2500 2.6 360 18:24 29.11.2019
3536 Smoke 30 1012 58 2200 3.1 80 17:57 29.11.2019
3537 Smoke 30 1012 58 2200 3.1 40 17:39 29.11.2019
3538 Smoke 30 1012 58 2200 3.1 40 17:20 29.11.2019
3539 -273 0 0 0 0 0 16:43 29.11.2019
3540 Smoke 30 1012 62 2500 2.6 330 16:21 29.11.2019
3541 Smoke 30 1011 62 2500 4.1 350 15:56 29.11.2019
3542 Smoke 30 1011 62 2500 3.6 20 15:37 29.11.2019
3543 Smoke 30 1011 62 2500 3.6 20 15:19 29.11.2019
3544 Smoke 30 1010 55 2500 3.6 200 14:40 29.11.2019
3545 Smoke 32 1010 55 2500 3.6 200 14:21 29.11.2019
3546 Smoke 32 1010 58 3500 3.1 320 13:57 29.11.2019
3547 Smoke 32 1010 52 3500 4.6 320 13:37 29.11.2019
3548 Smoke 32 1010 52 3500 4.6 320 13:19 29.11.2019
3549 Smoke 33 1010 52 3500 3.6 320 12:42 29.11.2019
3550 Smoke 32 1010 52 3500 4.6 320 12:24 29.11.2019
3551 Smoke 34 1009 44 3500 4.6 300 11:56 29.11.2019
3552 Smoke 33 1010 38 3500 1.5 0 11:38 29.11.2019
3553 Smoke 33 1010 38 3500 1.5 0 11:19 29.11.2019
3554 Smoke 33 1010 38 3500 1.5 0 10:57 29.11.2019
3555 Smoke 33 1010 36 3500 1.5 70 10:38 29.11.2019
3556 Smoke 33 1010 36 3500 1.5 70 10:20 29.11.2019
3557 Smoke 33 1011 38 3500 1.5 80 09:57 29.11.2019
3558 Smoke 33 1011 41 3500 1.5 100 09:38 29.11.2019
3559 Smoke 34 1011 41 3500 1.5 100 09:20 29.11.2019
3560 Smoke 33 1011 43 3000 1.5 70 08:55 29.11.2019
3561 Smoke 33 1012 41 3000 1.5 20 08:36 29.11.2019
3562 Smoke 33 1013 43 2500 2.6 50 08:18 29.11.2019
3563 Smoke 32 1013 43 2500 2.6 50 07:41 29.11.2019
3564 Smoke 32 1013 43 2500 3.6 50 07:23 29.11.2019
3565 Smoke 32 1014 48 2500 2.6 30 06:46 29.11.2019
3566 Smoke 28 1014 94 2500 2.1 30 06:28 29.11.2019
3567 Smoke 29 1014 54 2500 2.6 80 05:32 29.11.2019
3568 Haze 29 1014 61 2500 3.1 50 04:56 29.11.2019
3569 Haze 27 1013 69 2100 2.1 70 03:37 29.11.2019
3570 Haze 27 1013 69 2100 2.1 70 03:18 29.11.2019
3571 Mist 25 1012 78 1600 2.71 55 02:22 29.11.2019
3572 Mist 25 1011 78 1800 2.48 62 01:27 29.11.2019
3573 Haze 26 1011 74 2100 2.48 62 00:51 29.11.2019
3574 Haze 26 1011 74 2500 2.48 62 00:23 29.11.2019
3575 Haze 27 1011 65 2500 2.48 62 23:59 28.11.2019
3576 Haze 27 1011 69 2500 1.5 40 23:39 28.11.2019
3577 Haze 27 1011 69 2500 1.5 40 23:21 28.11.2019
3578 Haze 28 1011 69 2500 2.1 30 22:56 28.11.2019
3579 Haze 28 1011 65 2500 2.1 20 22:37 28.11.2019
3580 Haze 28 1011 65 2500 2.1 20 22:18 28.11.2019
3581 Haze 28 1011 65 2500 2.57 47 21:54 28.11.2019
3582 Haze 28 1011 65 2500 1.5 140 21:36 28.11.2019
3583 Haze 28 1011 65 2500 1.5 140 21:18 28.11.2019
3584 Haze 29 1012 62 2500 2.6 150 20:41 28.11.2019
3585 Haze 29 1012 62 2500 2.6 150 20:22 28.11.2019
3586 Haze 29 1012 58 2500 3.1 190 19:57 28.11.2019
3587 Haze 29 1012 58 2500 2.14 63 19:38 28.11.2019
3588 Haze 29 1012 58 2500 2.14 63 19:19 28.11.2019
3589 Haze 29 1012 58 2500 2.14 63 18:58 28.11.2019
3590 Haze 29 1012 58 2500 2.1 30 18:39 28.11.2019
3591 Haze 29 1012 58 2500 2.1 30 18:18 28.11.2019
3592 Haze 29 1012 62 2500 2.1 20 17:58 28.11.2019
3593 Haze 29 1012 62 2500 2.1 20 17:58 28.11.2019
3594 Haze 29 1012 62 2500 2.1 20 17:58 28.11.2019
3595 Haze 30 1012 58 2500 1.5 340 17:40 28.11.2019
3596 Haze 30 1012 58 2500 1.5 340 17:20 28.11.2019
3597 Haze 30 1012 58 2500 1.5 340 17:20 28.11.2019
3598 Haze 30 1012 58 2500 1.5 360 16:41 28.11.2019
3599 Haze 30 1012 58 3000 2.6 340 16:19 28.11.2019
3600 Haze 30 1011 58 3000 2.6 320 15:59 28.11.2019
3601 Haze 30 1011 58 3000 2.1 310 15:40 28.11.2019
3602 Haze 30 1011 58 3000 2.1 310 15:20 28.11.2019
3603 Haze 30 1011 58 3000 2.1 310 15:20 28.11.2019
3604 Haze 29 1011 62 3500 1.5 0 14:58 28.11.2019
3605 Haze 29 1011 62 3500 1.5 0 14:39 28.11.2019
3606 Haze 31 1010 62 3500 2.6 320 14:20 28.11.2019
3607 Smoke 31 1010 51 3500 3.1 300 13:44 28.11.2019
3608 Smoke 32 1010 48 3500 3.6 280 13:24 28.11.2019
3609 Smoke 32 1010 45 3500 3.6 280 12:59 28.11.2019
3610 -273 0 0 0 0 0 12:40 28.11.2019
3611 Smoke 33 1010 40 3500 3.6 300 12:22 28.11.2019
3612 Smoke 33 1010 46 3500 4.1 290 11:56 28.11.2019
3613 Smoke 33 1010 46 3500 4.1 280 11:38 28.11.2019
3614 Smoke 33 1010 46 3500 4.1 280 11:19 28.11.2019
3615 Smoke 33 1010 46 3500 4.6 290 10:42 28.11.2019
3616 Smoke 33 1010 46 3500 4.6 290 10:42 28.11.2019
3617 Smoke 33 1010 43 3500 3.1 280 10:22 28.11.2019
3618 Smoke 33 1011 43 3500 4.1 270 09:58 28.11.2019
3619 Smoke 33 1011 43 3500 4.1 270 09:40 28.11.2019
3620 Smoke 33 1011 43 3500 2.6 200 09:20 28.11.2019
3621 Smoke 33 1012 36 3500 1.5 90 08:44 28.11.2019
3622 Smoke 33 1012 38 3500 3.1 140 08:23 28.11.2019
3623 Smoke 32 1013 40 3500 3.1 140 07:58 28.11.2019
3624 Smoke 32 1013 40 3500 3.1 140 07:58 28.11.2019
3625 Smoke 32 1013 40 3500 3.1 140 07:40 28.11.2019
3626 Smoke 32 1013 35 3000 2.1 130 07:22 28.11.2019
3627 Smoke 31 1013 45 2500 1.5 170 06:43 28.11.2019
3628 Haze 30 1014 48 2500 1.5 40 05:58 28.11.2019
3629 Haze 30 1013 51 2500 1.5 50 05:40 28.11.2019
3630 Haze 28 1013 58 2500 2.1 90 04:51 28.11.2019
3631 Haze 25 1011 69 2100 3.1 50 02:33 28.11.2019
3632 Haze 26 1010 69 2100 2.74 48 01:28 28.11.2019
3633 Haze 27 1010 65 2200 3.1 30 00:42 28.11.2019
3634 Haze 27 1010 65 2200 3.1 30 00:20 28.11.2019
3635 Haze 27 1010 65 2500 2.1 30 23:39 27.11.2019
3636 Haze 27 1010 65 2500 2.1 30 23:21 27.11.2019
3637 Haze 27 1010 65 2500 2.38 55 22:58 27.11.2019
3638 Haze 27 1011 65 2500 1.5 100 22:38 27.11.2019
3639 Haze 27 1011 65 2500 1.5 100 22:19 27.11.2019
3640 Haze 28 1011 61 2500 2.1 60 21:56 27.11.2019
3641 Haze 28 1011 61 2500 2.1 60 21:56 27.11.2019
3642 Haze 27 1011 65 2500 2.38 55 21:37 27.11.2019
3643 Haze 27 1011 65 2500 2.38 55 21:19 27.11.2019
3644 Haze 27 1011 65 2500 1.5 90 20:57 27.11.2019
3645 Haze 27 1011 65 2500 1.5 90 20:57 27.11.2019
3646 Haze 28 1011 58 2500 2.6 130 20:38 27.11.2019
3647 Haze 28 1011 58 2500 2.6 130 20:19 27.11.2019
3648 Haze 28 1012 58 2500 2.1 120 19:56 27.11.2019
3649 Haze 28 1012 65 2500 1.5 70 19:38 27.11.2019
3650 Haze 28 1012 65 2500 1.5 70 19:19 27.11.2019
3651 Haze 28 1012 65 2500 3.1 10 18:57 27.11.2019
3652 Haze 28 1012 65 2500 2.6 50 18:36 27.11.2019
3653 Haze 28 1012 65 2500 2.6 50 18:18 27.11.2019
3654 Haze 29 1012 62 2500 2.1 20 17:55 27.11.2019
3655 Haze 29 1012 62 3000 2.6 350 17:37 27.11.2019
3656 Haze 29 1012 62 3000 2.6 350 17:18 27.11.2019
3657 Haze 29 1011 62 3000 3.6 40 16:55 27.11.2019
3658 Haze 29 1011 62 3000 3.6 40 16:55 27.11.2019
3659 Smoke 29 1011 62 4000 2.1 350 16:36 27.11.2019
3660 Smoke 29 1011 62 4000 2.1 350 16:18 27.11.2019
3661 Smoke 30 1011 55 4000 2.6 330 15:56 27.11.2019
3662 Smoke 29 1010 58 4000 1.5 310 15:37 27.11.2019
3663 Smoke 29 1010 58 4000 1.5 310 15:19 27.11.2019
3664 Smoke 29 1010 51 4000 3.1 310 14:55 27.11.2019
3665 Smoke 31 1010 55 4000 3.1 300 14:37 27.11.2019
3666 Smoke 31 1010 55 4000 3.1 300 14:19 27.11.2019
3667 -273 0 0 0 0 0 13:55 27.11.2019
3668 Smoke 31 1010 51 4000 3.6 280 13:36 27.11.2019
3669 Smoke 31 1010 51 4000 3.6 280 13:18 27.11.2019
3670 Smoke 31 1009 43 4000 4.1 290 12:41 27.11.2019
3671 Smoke 31 1009 43 4000 4.1 290 12:41 27.11.2019
3672 Smoke 32 1009 43 4000 4.6 270 12:21 27.11.2019
3673 Smoke 32 1009 43 4000 4.6 250 11:55 27.11.2019
3674 Smoke 32 1009 43 4000 4.6 250 11:36 27.11.2019
3675 Smoke 32 1010 40 3500 5.1 270 11:18 27.11.2019
3676 Smoke 33 1010 36 3000 2.6 100 10:43 27.11.2019
3677 Smoke 33 1010 36 3000 2.6 100 10:24 27.11.2019
3678 Smoke 34 1010 38 2500 2.1 120 09:57 27.11.2019
3679 Smoke 33 1010 36 2500 3.6 100 09:38 27.11.2019
3680 Smoke 33 1010 36 2500 3.6 100 09:18 27.11.2019
3681 Smoke 33 1011 38 2500 3.6 110 08:42 27.11.2019
3682 Smoke 32 1011 38 2500 3.6 110 08:23 27.11.2019
3683 Smoke 32 1013 40 2500 4.1 120 07:48 27.11.2019
3684 Smoke 32 1013 40 2500 4.1 120 07:29 27.11.2019
3685 Smoke 31 1013 40 2500 5.1 120 06:55 27.11.2019
3686 Smoke 31 1013 45 2200 4.1 130 06:36 27.11.2019
3687 Smoke 30 1013 54 2100 3.6 110 05:49 27.11.2019
3688 Smoke 29 1013 54 2100 3.6 110 05:22 27.11.2019
3689 Haze 27 1012 58 1900 2.1 110 04:49 27.11.2019
3690 Haze 27 1012 58 1900 2.1 110 04:31 27.11.2019
3691 Haze 26 1012 61 1900 2.1 100 03:43 27.11.2019
3692 Haze 25 1012 65 1800 3.1 90 03:20 27.11.2019
3693 Haze 26 1011 65 2100 2.6 100 02:32 27.11.2019
3694 Haze 26 1010 69 2500 2.23 70 00:55 27.11.2019
3695 Haze 27 1010 65 2500 2.23 70 00:37 27.11.2019
3696 Haze 26 1010 69 2500 2.23 70 00:19 27.11.2019
3697 Haze 26 1010 69 2500 2.23 70 23:41 26.11.2019
3698 Haze 26 1010 69 2500 2.23 70 23:23 26.11.2019
3699 Haze 27 1010 65 2500 2.6 90 22:40 26.11.2019
3700 Haze 27 1010 65 2500 2.6 90 22:20 26.11.2019
3701 Haze 27 1010 69 2500 2.6 80 21:59 26.11.2019
3702 Haze 27 1010 69 2500 2.1 100 21:39 26.11.2019
3703 Haze 27 1010 69 2500 2.1 100 21:21 26.11.2019
3704 Haze 28 1010 65 2500 3.1 130 20:57 26.11.2019
3705 Haze 28 1010 65 2500 3.1 140 20:37 26.11.2019
3706 Haze 28 1010 65 2500 3.1 140 20:37 26.11.2019
3707 Haze 28 1010 65 2500 3.1 140 20:19 26.11.2019
3708 Haze 28 1010 65 2500 3.1 140 20:19 26.11.2019
3709 Haze 28 1011 65 2200 1.78 54 19:56 26.11.2019
3710 Haze 29 1011 58 2200 3.1 130 19:38 26.11.2019
3711 Haze 29 1011 58 2200 3.1 130 19:19 26.11.2019
3712 Haze 29 1011 62 2200 2.1 10 18:58 26.11.2019
3713 Haze 29 1011 66 2200 3.6 70 18:39 26.11.2019
3714 Haze 29 1011 62 2200 2.1 40 18:21 26.11.2019
3715 Haze 29 1011 62 2200 2.1 40 17:58 26.11.2019
3716 Haze 30 1010 58 2200 2.1 30 17:40 26.11.2019
3717 Haze 30 1010 58 2200 2.1 30 17:21 26.11.2019
3718 Haze 29 1010 66 2200 1.5 360 16:57 26.11.2019
3719 Haze 30 1010 58 2200 3.1 340 16:37 26.11.2019
3720 Haze 30 1010 58 2200 3.1 340 16:19 26.11.2019
3721 Haze 30 1010 58 2200 3.1 340 16:19 26.11.2019
3722 Haze 30 1010 66 2200 2.1 330 15:59 26.11.2019
3723 -273 0 0 0 0 0 15:59 26.11.2019
3724 Haze 30 1010 62 2200 2.6 300 15:38 26.11.2019
3725 Haze 30 1010 62 2200 2.6 300 15:20 26.11.2019
3726 Haze 29 1009 66 2500 2.1 290 14:51 26.11.2019
3727 Smoke 29 1009 62 2500 3.6 270 14:26 26.11.2019
3728 Smoke 30 1008 58 2500 3.6 290 13:57 26.11.2019
3729 Smoke 30 1008 62 3000 2.6 310 13:38 26.11.2019
3730 Smoke 30 1008 62 3000 2.6 310 13:19 26.11.2019
3731 Smoke 30 1008 62 3000 2.6 310 13:19 26.11.2019
3732 -273 0 0 0 0 0 12:39 26.11.2019
3733 Smoke 32 1008 49 3000 3.6 290 12:21 26.11.2019
3734 Smoke 32 1008 49 3000 3.6 290 11:58 26.11.2019
3735 Smoke 32 1008 43 3000 3.6 300 11:39 26.11.2019
3736 Smoke 33 1008 38 3000 4.1 280 11:20 26.11.2019
3737 Smoke 33 1008 38 3000 4.1 280 10:58 26.11.2019
3738 Smoke 33 1009 34 3000 2.1 280 10:40 26.11.2019
3739 Smoke 33 1009 34 3000 2.1 280 10:21 26.11.2019
3740 Smoke 33 1009 33 3000 2.1 170 09:57 26.11.2019
3741 Smoke 33 1009 33 3000 2.6 90 09:38 26.11.2019
3742 Smoke 33 1009 33 3000 2.6 90 09:19 26.11.2019
3743 Smoke 33 1010 38 2500 3.1 130 08:44 26.11.2019
3744 Smoke 33 1011 36 2500 3.1 110 08:24 26.11.2019
3745 Smoke 32 1011 43 2500 3.6 120 07:46 26.11.2019
3746 Smoke 31 1012 43 2500 3.6 120 07:27 26.11.2019
3747 Smoke 31 1012 45 2500 3.6 90 06:55 26.11.2019
3748 Smoke 30 1013 48 2500 3.1 130 06:35 26.11.2019
3749 Smoke 30 1013 48 2500 3.1 130 06:35 26.11.2019
3750 Smoke 29 1013 51 2500 4.1 110 05:53 26.11.2019
3751 Haze 27 1012 57 2200 2.6 80 04:46 26.11.2019
3752 Haze 24 1011 78 2200 2.66 69 02:52 26.11.2019
3753 Haze 25 1011 73 2500 2 53 01:33 26.11.2019
3754 Haze 25 1010 73 2500 1.5 120 00:53 26.11.2019
3755 Haze 26 1010 69 2500 2 53 00:30 26.11.2019
3756 Haze 26 1010 69 2500 2.6 90 23:41 25.11.2019
3757 Haze 26 1010 69 2500 2.6 90 23:21 25.11.2019
3758 Haze 27 1011 65 2500 1.95 68 22:59 25.11.2019
3759 Haze 27 1011 65 2500 1.95 68 22:39 25.11.2019
3760 Haze 27 1011 65 2500 1.95 68 22:19 25.11.2019
3761 Haze 27 1011 65 2500 1.95 68 21:59 25.11.2019
3762 Haze 27 1011 65 2500 1.95 68 21:40 25.11.2019
3763 Haze 27 1011 65 2500 1.95 68 21:21 25.11.2019
3764 Haze 27 1011 69 2500 1.95 68 20:57 25.11.2019
3765 Haze 28 1011 61 2500 1.95 68 20:39 25.11.2019
3766 Haze 28 1011 61 2500 1.28 53 20:20 25.11.2019
3767 Haze 27 1012 65 2500 1.5 130 19:56 25.11.2019
3768 Haze 28 1012 61 2500 1.5 80 19:38 25.11.2019
3769 Haze 28 1012 61 2500 1.5 80 19:19 25.11.2019
3770 Haze 28 1012 61 2500 1.5 50 18:57 25.11.2019
3771 Smoke 28 1012 58 2500 2.1 90 18:39 25.11.2019
3772 Smoke 28 1012 58 2500 2.1 90 18:39 25.11.2019
3773 Haze 29 1012 62 2500 1.5 30 18:21 25.11.2019
3774 Haze 29 1012 62 2500 1.5 30 17:57 25.11.2019
3775 Haze 29 1012 62 2500 1.5 330 17:39 25.11.2019
3776 Haze 29 1012 66 2500 1.5 310 17:20 25.11.2019
3777 Haze 29 1012 66 2500 1.5 310 16:57 25.11.2019
3778 Haze 29 1011 66 2500 1.5 330 16:39 25.11.2019
3779 Haze 29 1011 66 2500 1.5 330 16:20 25.11.2019
3780 Haze 29 1011 66 2500 2.6 340 15:55 25.11.2019
3781 Haze 30 1011 62 2500 2.1 340 15:36 25.11.2019
3782 Haze 30 1011 62 2500 2.1 340 15:18 25.11.2019
3783 Smoke 29 1010 62 2500 2.6 320 14:42 25.11.2019
3784 Smoke 29 1010 58 2500 2.6 290 14:23 25.11.2019
3785 Smoke 30 1010 58 2500 2.1 310 13:55 25.11.2019
3786 Smoke 30 1009 55 3000 3.6 280 13:36 25.11.2019
3787 Smoke 30 1009 55 3000 3.6 280 13:18 25.11.2019
3788 Smoke 30 1009 55 3000 3.6 280 13:18 25.11.2019
3789 Smoke 30 1009 51 3000 4.1 290 12:54 25.11.2019
3790 Smoke 31 1009 52 3000 4.1 290 12:36 25.11.2019
3791 Smoke 31 1009 52 3000 4.1 310 12:18 25.11.2019
3792 Smoke 31 1009 52 2500 4.1 300 11:40 25.11.2019
3793 Smoke 31 1009 52 2500 4.1 300 11:40 25.11.2019
3794 Smoke 31 1009 52 2500 4.1 300 11:21 25.11.2019
3795 Smoke 31 1009 48 2500 4.6 280 10:57 25.11.2019
3796 Smoke 31 1009 52 2500 4.1 260 10:38 25.11.2019
3797 Smoke 31 1009 52 2500 4.1 260 10:18 25.11.2019
3798 Smoke 32 1010 36 2500 1.5 20 09:42 25.11.2019
3799 Smoke 32 1010 36 2500 1.5 20 09:23 25.11.2019
3800 Smoke 32 1012 40 2500 1.5 110 08:42 25.11.2019
3801 Smoke 32 1012 40 2500 1.5 110 08:24 25.11.2019
3802 Smoke 32 1012 40 2500 1.5 0 07:56 25.11.2019
3803 Smoke 31 1013 40 2500 1 0 07:37 25.11.2019
3804 Smoke 31 1013 40 2500 1 0 07:18 25.11.2019
3805 Smoke 31 1014 42 2500 2.1 100 06:24 25.11.2019
3806 Smoke 30 1014 45 2500 3.6 80 05:57 25.11.2019
3807 Smoke 29 1014 51 2500 2.6 100 05:32 25.11.2019
3808 Smoke 28 1013 58 2200 2.6 100 04:48 25.11.2019
3809 Haze 25 1011 78 2000 1.5 110 02:36 25.11.2019
3810 Haze 25 1011 78 2200 2.13 67 01:43 25.11.2019
3811 Haze 25 1011 78 2200 1.5 130 01:24 25.11.2019
3812 Haze 26 1011 78 2500 2.19 66 00:45 25.11.2019
3813 Haze 26 1011 74 2500 2.19 66 00:20 25.11.2019
3814 Haze 27 1010 74 2500 2.19 66 23:45 24.11.2019
3815 Haze 27 1010 74 2500 1.91 78 23:21 24.11.2019
3816 Haze 27 1011 74 2500 1.5 110 22:58 24.11.2019
3817 Haze 27 1011 74 2500 1.91 78 22:39 24.11.2019
3818 Haze 27 1011 74 2500 1.91 78 22:19 24.11.2019
3819 Haze 28 1011 69 3000 1.5 30 21:57 24.11.2019
3820 Haze 27 1012 69 3000 1.91 78 21:38 24.11.2019
3821 Haze 27 1012 69 3000 1.91 78 21:20 24.11.2019
3822 Haze 28 1012 65 3000 1.91 78 20:57 24.11.2019
3823 Haze 28 1012 65 3000 2.6 60 20:37 24.11.2019
3824 Haze 28 1012 65 3000 2.6 60 20:18 24.11.2019
3825 Haze 28 1012 65 3000 1.5 20 19:56 24.11.2019
3826 Haze 29 1013 62 3000 1.5 320 19:38 24.11.2019
3827 Haze 29 1013 62 3000 1.5 320 19:19 24.11.2019
3828 Haze 28 1013 65 3000 2.1 30 18:57 24.11.2019
3829 Haze 28 1013 69 3000 1.5 30 18:37 24.11.2019
3830 Haze 29 1013 66 3000 3.1 20 18:19 24.11.2019
3831 Haze 29 1013 66 3000 3.1 20 17:55 24.11.2019
3832 Haze 29 1013 70 3000 3.1 340 17:37 24.11.2019
3833 Haze 29 1013 70 2500 2.6 330 17:19 24.11.2019
3834 Haze 29 1013 70 2500 2.6 330 17:19 24.11.2019
3835 Haze 29 1013 70 2500 2.6 330 16:57 24.11.2019
3836 Haze 29 1013 70 2500 3.6 10 16:38 24.11.2019
3837 Haze 29 1013 70 2500 3.6 10 16:19 24.11.2019
3838 Haze 29 1012 70 2200 2.6 320 15:43 24.11.2019
3839 Haze 29 1012 70 2200 2.6 320 15:25 24.11.2019
3840 Haze 29 1012 66 2200 2.1 300 14:58 24.11.2019
3841 Haze 29 1012 66 2200 2.1 300 14:58 24.11.2019
3842 Smoke 29 1011 58 2200 3.1 300 14:38 24.11.2019
3843 Smoke 31 1011 58 2200 3.1 300 14:18 24.11.2019
3844 Smoke 31 1011 62 2200 4.1 280 13:54 24.11.2019
3845 Smoke 31 1010 55 2500 4.6 280 13:36 24.11.2019
3846 Smoke 31 1010 55 2500 4.6 280 13:18 24.11.2019
3847 Smoke 32 1010 55 2500 3.6 280 12:41 24.11.2019
3848 Smoke 32 1009 49 2500 4.6 270 12:19 24.11.2019
3849 Smoke 32 1009 49 2500 4.6 270 11:57 24.11.2019
3850 Smoke 32 1010 46 3000 4.6 270 11:37 24.11.2019
3851 Smoke 32 1010 46 3000 4.6 270 11:37 24.11.2019
3852 Smoke 32 1010 46 3000 4.6 260 11:18 24.11.2019
3853 Smoke 32 1010 46 3000 4.6 260 10:47 24.11.2019
3854 Smoke 33 1010 32 3000 1.5 50 10:29 24.11.2019
3855 Smoke 34 1011 34 3000 1.5 150 09:58 24.11.2019
3856 Smoke 34 1011 38 3000 2.1 160 09:38 24.11.2019
3857 Smoke 34 1011 38 3000 2.1 160 09:19 24.11.2019
3858 Smoke 33 1012 38 3000 3.1 160 08:45 24.11.2019
3859 Smoke 33 1013 40 2500 4.1 90 08:23 24.11.2019
3860 Smoke 33 1013 40 2500 4.1 90 08:23 24.11.2019
3861 Smoke 32 1013 43 2500 2.6 90 07:58 24.11.2019
3862 Smoke 32 1014 45 2500 3.1 130 07:38 24.11.2019
3863 Smoke 32 1014 45 2500 3.1 130 07:20 24.11.2019
3864 Smoke 31 1014 51 2500 3.6 110 06:21 24.11.2019
3865 Haze 28 1014 61 2500 2.6 130 04:49 24.11.2019
3866 Haze 26 1013 69 2200 2.6 110 03:41 24.11.2019
3867 Haze 26 1012 69 2200 2.1 100 02:32 24.11.2019
3868 Haze 26 1011 74 2200 1.5 150 01:41 24.11.2019
3869 Haze 26 1011 74 2200 1.5 150 01:22 24.11.2019
3870 Haze 26 1011 74 2200 3.6 100 00:48 24.11.2019
3871 Haze 26 1011 74 2200 2.6 110 00:24 24.11.2019
3872 Haze 26 1011 74 2200 1.5 0 23:56 23.11.2019
3873 Haze 27 1011 69 2500 3.1 20 23:37 23.11.2019
3874 Haze 27 1011 69 2500 3.1 20 23:19 23.11.2019
3875 Haze 27 1011 69 2500 1 0 22:54 23.11.2019
3876 Haze 27 1011 69 2500 1.61 88 22:36 23.11.2019
3877 Haze 27 1011 69 2500 1.61 88 22:18 23.11.2019
3878 Haze 28 1011 69 2500 2.6 140 21:42 23.11.2019
3879 Haze 28 1011 69 2500 2.6 140 21:42 23.11.2019
3880 Haze 28 1011 65 2500 3.1 130 21:23 23.11.2019
3881 Haze 28 1012 69 2500 1.5 80 20:59 23.11.2019
3882 Haze 28 1012 69 2500 2.1 130 20:37 23.11.2019
3883 Haze 28 1012 69 2500 2.1 130 20:18 23.11.2019
3884 Haze 28 1012 69 2500 2.6 350 19:56 23.11.2019
3885 Haze 28 1013 69 2500 2.1 30 19:37 23.11.2019
3886 Haze 28 1013 69 2500 2.1 30 19:37 23.11.2019
3887 Haze 28 1013 69 2500 2.1 30 19:37 23.11.2019
3888 Haze 28 1013 69 2500 2.1 30 19:18 23.11.2019
3889 Haze 28 1013 69 2500 2.1 30 19:18 23.11.2019
3890 Haze 28 1013 69 2500 2.1 30 19:18 23.11.2019
3891 Haze 29 1013 62 2500 2.6 340 18:41 23.11.2019
3892 Haze 29 1013 66 2500 2.6 10 18:21 23.11.2019
3893 Haze 29 1013 66 2500 2.6 10 18:21 23.11.2019
3894 Haze 29 1013 66 2500 2.6 10 17:59 23.11.2019
3895 Haze 29 1013 66 2500 2.6 20 17:40 23.11.2019
3896 Haze 29 1013 66 2500 2.6 20 17:21 23.11.2019
3897 Haze 29 1013 66 2500 3.1 30 16:56 23.11.2019
3898 Haze 30 1013 62 2500 3.1 20 16:38 23.11.2019
3899 Haze 30 1013 62 2500 3.1 20 16:20 23.11.2019
3900 Haze 29 1013 66 3000 3.6 340 15:57 23.11.2019
3901 Haze 30 1013 62 3000 3.1 360 15:38 23.11.2019
3902 Haze 30 1013 62 3000 3.1 360 15:18 23.11.2019
3903 Haze 30 1012 62 3000 4.1 330 14:55 23.11.2019
3904 Smoke 30 1012 62 3000 3.6 340 14:37 23.11.2019
3905 Smoke 32 1012 62 3000 3.6 340 14:18 23.11.2019
3906 Smoke 33 1011 58 3000 3.1 310 13:42 23.11.2019
3907 Smoke 32 1011 58 3000 3.1 310 13:19 23.11.2019
3908 Smoke 32 1011 58 3000 3.6 290 12:55 23.11.2019
3909 Smoke 32 1011 55 3000 4.1 260 12:37 23.11.2019
3910 Smoke 32 1011 55 3000 3.6 300 12:19 23.11.2019
3911 Smoke 33 1011 55 3000 3.6 310 11:42 23.11.2019
3912 Smoke 33 1011 52 3000 5.1 280 11:19 23.11.2019
3913 Smoke 33 1011 52 3000 5.1 280 10:45 23.11.2019
3914 Smoke 33 1011 52 3000 5.1 270 10:21 23.11.2019
3915 Smoke 33 1012 55 3000 2.1 350 09:42 23.11.2019
3916 Smoke 33 1012 55 3000 2.1 350 09:20 23.11.2019
3917 Smoke 33 1013 41 3000 3.1 130 08:43 23.11.2019
3918 Smoke 33 1013 41 3000 3.1 130 08:20 23.11.2019
3919 Smoke 32 1013 46 3000 4.1 90 07:54 23.11.2019
3920 Smoke 32 1014 43 3000 3.1 40 07:35 23.11.2019
3921 Smoke 31 1015 45 2500 3.1 120 06:46 23.11.2019
3922 Smoke 31 1015 48 2500 3.1 120 06:21 23.11.2019
3923 Haze 30 1015 58 2500 2.6 120 05:50 23.11.2019
3924 Haze 30 1015 58 2500 2.6 120 05:29 23.11.2019
3925 Haze 29 1015 61 2500 3.6 110 04:49 23.11.2019
3926 Haze 28 1014 65 2200 2.6 110 04:27 23.11.2019
3927 Haze 27 1013 69 2200 2.6 90 02:48 23.11.2019
3928 Haze 26 1013 74 2500 2.6 70 01:51 23.11.2019
3929 Haze 27 1013 69 3000 1 0 01:32 23.11.2019
3930 Haze 27 1012 74 3000 1.5 0 00:40 23.11.2019
3931 Haze 27 1012 74 3000 1.5 90 00:18 23.11.2019
3932 Haze 27 1013 74 3000 2.6 100 23:42 22.11.2019
3933 Haze 27 1013 74 3000 2.6 100 23:20 22.11.2019
3934 Smoke 27 1013 74 3000 1.5 100 22:57 22.11.2019
3935 Smoke 28 1013 69 3000 1.5 160 22:38 22.11.2019
3936 Smoke 28 1013 69 3000 1.5 160 22:20 22.11.2019
3937 Smoke 28 1013 69 3000 2.1 120 21:58 22.11.2019
3938 Smoke 28 1013 69 3000 2.01 52 21:39 22.11.2019
3939 Smoke 28 1013 69 3000 2.01 52 21:19 22.11.2019
3940 Smoke 29 1014 62 3000 1.5 140 20:43 22.11.2019
3941 Smoke 29 1014 62 3000 1.5 140 20:43 22.11.2019
3942 Smoke 29 1014 62 3000 2.1 210 20:22 22.11.2019
3943 Smoke 29 1014 62 3000 1.5 150 19:57 22.11.2019
3944 Smoke 29 1014 62 3000 1.5 0 19:37 22.11.2019
3945 Smoke 29 1014 62 3000 1.5 0 19:19 22.11.2019
3946 Smoke 29 1014 66 2500 2.6 50 18:40 22.11.2019
3947 Smoke 29 1014 66 2500 2.6 50 18:21 22.11.2019
3948 Haze 29 1014 66 2500 2.6 50 17:58 22.11.2019
3949 Haze 29 1014 66 2500 2.6 310 17:40 22.11.2019
3950 Haze 29 1014 66 2500 2.6 310 17:21 22.11.2019
3951 Haze 29 1014 70 2500 2.6 340 16:42 22.11.2019
3952 Haze 30 1014 66 2500 2.6 20 16:24 22.11.2019
3953 Haze 29 1013 70 2500 2.6 310 15:45 22.11.2019
3954 Haze 30 1013 62 2500 3.1 340 15:24 22.11.2019
3955 Haze 30 1013 62 2500 3.1 340 15:24 22.11.2019
3956 Haze 29 1013 62 2500 3.1 300 14:56 22.11.2019
3957 Haze 29 1013 62 2500 3.1 300 14:56 22.11.2019
3958 Haze 29 1012 62 2500 2.6 310 14:38 22.11.2019
3959 Haze 31 1012 62 2500 2.6 310 14:19 22.11.2019
3960 Smoke 31 1012 55 2500 3.1 290 13:58 22.11.2019
3961 Smoke 32 1012 52 2500 3.6 280 13:37 22.11.2019
3962 Smoke 32 1012 52 2500 3.6 280 13:18 22.11.2019
3963 Smoke 31 1012 52 3000 3.6 300 12:55 22.11.2019
3964 Smoke 31 1012 52 3000 4.1 270 12:36 22.11.2019
3965 Smoke 31 1012 52 3000 4.1 270 12:18 22.11.2019
3966 Smoke 32 1012 46 3000 3.6 270 11:55 22.11.2019
3967 Smoke 32 1012 49 3000 4.1 270 11:36 22.11.2019
3968 Smoke 33 1012 49 3000 4.1 270 11:18 22.11.2019
3969 Smoke 33 1012 49 3000 4.1 270 11:18 22.11.2019
3970 Smoke 33 1012 49 3000 5.1 290 10:40 22.11.2019
3971 Smoke 33 1012 43 3000 4.1 280 10:22 22.11.2019
3972 Smoke 33 1012 43 3000 4.1 280 10:22 22.11.2019
3973 Smoke 33 1012 41 3000 4.1 300 09:57 22.11.2019
3974 Smoke 34 1013 41 3000 1.5 90 09:39 22.11.2019
3975 Smoke 34 1013 41 3000 1.5 90 09:21 22.11.2019
3976 Smoke 34 1013 41 3000 1.5 90 09:21 22.11.2019
3977 Smoke 33 1013 41 3000 1.5 150 08:47 22.11.2019
3978 Smoke 33 1014 41 3000 3.6 110 08:27 22.11.2019
3979 Smoke 33 1014 43 3000 3.6 120 07:56 22.11.2019
3980 Smoke 32 1015 45 3000 4.1 120 07:37 22.11.2019
3981 Smoke 32 1015 45 3000 4.1 120 07:18 22.11.2019
3982 Smoke 31 1015 51 3000 3.6 130 06:41 22.11.2019
3983 Smoke 31 1015 48 3000 4.1 130 05:56 22.11.2019
3984 Smoke 29 1015 54 2500 3.1 120 04:52 22.11.2019
3985 Haze 26 1013 69 2200 2.47 71 02:56 22.11.2019
3986 Haze 26 1013 69 2500 2.6 130 02:33 22.11.2019
3987 Haze 26 1013 74 2200 2.6 120 01:46 22.11.2019
3988 Haze 27 1012 69 2500 2.6 120 01:20 22.11.2019
3989 Haze 27 1012 69 2500 3.1 90 00:54 22.11.2019
3990 Haze 28 1012 65 2500 1.5 70 00:25 22.11.2019
3991 Haze 27 1012 69 2500 1.5 130 23:56 21.11.2019
3992 Haze 27 1012 69 2500 2.1 90 23:38 21.11.2019
3993 Haze 27 1012 69 2500 2.1 90 23:20 21.11.2019
3994 Haze 27 1012 69 2500 2.18 64 22:41 21.11.2019
3995 Haze 28 1012 65 2500 2.1 60 22:22 21.11.2019
3996 Haze 28 1012 65 2500 2.6 50 21:58 21.11.2019
3997 Haze 28 1012 65 2500 2.1 50 21:39 21.11.2019
3998 Haze 28 1012 65 2500 2.1 50 21:20 21.11.2019
3999 Haze 28 1012 65 2500 2.6 70 20:59 21.11.2019
4000 Haze 28 1012 65 2500 2.18 64 20:39 21.11.2019
4001 Haze 28 1012 65 2500 2.18 64 20:39 21.11.2019
4002 Haze 28 1012 65 2500 1.78 43 20:19 21.11.2019
4003 Haze 29 1013 62 3000 2.6 190 19:59 21.11.2019
4004 Haze 29 1013 62 3000 2.6 190 19:59 21.11.2019
4005 Haze 29 1013 62 3000 2.6 190 19:41 21.11.2019
4006 Haze 29 1013 62 3000 2.6 130 19:23 21.11.2019
4007 Haze 29 1013 62 3000 2.6 80 18:58 21.11.2019
4008 Haze 30 1013 58 3000 1.78 43 18:40 21.11.2019
4009 Haze 30 1013 58 3000 1.78 43 18:20 21.11.2019
4010 Haze 30 1013 62 3000 3.1 60 17:58 21.11.2019
4011 Haze 30 1013 62 3000 1.5 30 17:39 21.11.2019
4012 Haze 30 1013 62 3000 1.5 30 17:39 21.11.2019
4013 Haze 30 1013 62 3000 1.5 30 17:19 21.11.2019
4014 Haze 30 1013 62 3000 2.6 350 16:55 21.11.2019
4015 Haze 30 1013 66 3000 2.6 30 16:37 21.11.2019
4016 Haze 30 1013 66 3000 2.6 30 16:18 21.11.2019
4017 Smoke 30 1012 58 2500 2.6 330 15:42 21.11.2019
4018 Smoke 30 1012 58 2500 2.6 330 15:20 21.11.2019
4019 Smoke 30 1012 55 2500 2.1 320 14:57 21.11.2019
4020 Smoke 30 1011 58 2500 3.1 320 14:37 21.11.2019
4021 Smoke 31 1011 58 2500 3.1 320 14:19 21.11.2019
4022 Smoke 32 1011 55 2500 3.1 300 13:40 21.11.2019
4023 Smoke 32 1011 55 3000 3.1 300 13:21 21.11.2019
4024 Smoke 32 1011 52 3500 3.1 300 12:59 21.11.2019
4025 Smoke 32 1010 49 3500 3.6 280 12:39 21.11.2019
4026 Smoke 32 1010 49 3500 3.6 280 12:21 21.11.2019
4027 Smoke 32 1010 49 3500 4.1 300 11:54 21.11.2019
4028 Smoke 33 1010 49 3500 4.6 260 11:36 21.11.2019
4029 Smoke 33 1010 49 3500 4.6 260 11:18 21.11.2019
4030 Smoke 34 1010 44 3000 3.6 310 10:42 21.11.2019
4031 Smoke 34 1010 41 3000 2.6 120 10:23 21.11.2019
4032 Smoke 34 1010 41 3000 2.6 120 10:23 21.11.2019
4033 Smoke 34 1011 43 3000 2.6 140 09:57 21.11.2019
4034 Smoke 34 1011 41 2500 3.1 140 09:39 21.11.2019
4035 Smoke 34 1011 41 2500 3.1 140 09:20 21.11.2019
4036 Smoke 33 1012 43 2500 2.6 100 08:43 21.11.2019
4037 Smoke 33 1012 43 2500 3.1 130 08:22 21.11.2019
4038 Smoke 33 1013 46 2500 3.6 130 07:44 21.11.2019
4039 Smoke 32 1013 46 2200 4.1 130 07:19 21.11.2019
4040 Smoke 32 1014 48 2200 2.6 100 06:58 21.11.2019
4041 Smoke 31 1014 51 2200 3.6 110 06:34 21.11.2019
4042 Smoke 31 1014 51 2200 2.6 110 05:42 21.11.2019
4043 Haze 27 1012 65 1900 3.1 60 03:35 21.11.2019
4044 Haze 28 1011 69 2500 2.6 70 02:42 21.11.2019
4045 Haze 26 1011 69 2500 2.6 70 02:23 21.11.2019
4046 Haze 26 1011 69 2500 2.47 70 01:47 21.11.2019
4047 Haze 26 1010 74 2500 1.5 90 01:20 21.11.2019
4048 Haze 26 1010 74 2500 1.5 0 00:38 21.11.2019
4049 Haze 26 1010 74 2500 1.5 0 00:19 21.11.2019
4050 Haze 26 1010 78 2200 1.5 90 23:42 20.11.2019
4051 Haze 26 1010 78 2200 1.5 90 23:21 20.11.2019
4052 Haze 26 1010 78 2200 3.1 100 22:58 20.11.2019
4053 Haze 27 1010 69 2200 2.1 80 22:38 20.11.2019
4054 Haze 27 1010 69 2200 2.1 80 22:19 20.11.2019
4055 Haze 27 1011 69 2200 2.1 70 21:58 20.11.2019
4056 Haze 27 1011 74 2100 2.28 72 21:39 20.11.2019
4057 Haze 27 1011 74 2100 2.28 72 21:20 20.11.2019
4058 Haze 28 1011 69 2100 1.5 90 20:57 20.11.2019
4059 Haze 28 1011 74 2100 2.28 72 20:38 20.11.2019
4060 Haze 28 1011 74 2100 1.29 46 20:20 20.11.2019
4061 Haze 28 1012 74 2100 2.1 150 19:56 20.11.2019
4062 Haze 28 1012 74 2100 2.1 170 19:37 20.11.2019
4063 Haze 28 1012 74 2100 2.1 170 19:18 20.11.2019
4064 Haze 28 1012 74 2500 1.5 50 18:58 20.11.2019
4065 Haze 28 1012 74 2500 2.6 20 18:39 20.11.2019
4066 Haze 28 1012 74 2500 2.6 20 18:20 20.11.2019
4067 Haze 28 1012 69 2500 2.1 340 17:56 20.11.2019
4068 Haze 29 1012 66 2500 2.1 340 17:38 20.11.2019
4069 Haze 29 1012 66 2500 2.1 340 17:20 20.11.2019
4070 Haze 29 1012 70 2500 2.6 350 16:55 20.11.2019
4071 Haze 29 1011 66 2500 1.5 330 16:36 20.11.2019
4072 Haze 29 1011 66 2500 1.5 330 16:18 20.11.2019
4073 Haze 29 1011 70 2500 1.5 310 15:41 20.11.2019
4074 Haze 29 1011 70 2500 1.5 310 15:21 20.11.2019
4075 Haze 29 1010 66 2500 2.1 340 14:59 20.11.2019
4076 Haze 29 1010 66 2500 2.1 340 14:40 20.11.2019
4077 Haze 30 1010 62 2500 2.6 310 14:21 20.11.2019
4078 Haze 31 1010 62 2500 3.1 300 13:57 20.11.2019
4079 Smoke 31 1009 58 2500 3.1 320 13:39 20.11.2019
4080 Smoke 31 1009 58 2500 3.1 320 13:20 20.11.2019
4081 Smoke 31 1009 58 2500 3.1 310 12:55 20.11.2019
4082 Smoke 32 1009 55 2200 4.1 300 12:36 20.11.2019
4083 Smoke 32 1009 55 2200 4.1 300 12:18 20.11.2019
4084 Smoke 33 1009 49 2200 3.6 310 11:40 20.11.2019
4085 Smoke 33 1009 49 2200 3.6 310 11:21 20.11.2019
4086 Smoke 33 1009 46 2200 4.1 290 10:55 20.11.2019
4087 Smoke 32 1009 52 2200 4.6 290 10:37 20.11.2019
4088 Smoke 32 1009 52 2200 4.6 290 10:37 20.11.2019
4089 Smoke 32 1009 52 2200 4.6 290 10:19 20.11.2019
4090 Smoke 33 1009 52 2200 4.6 290 09:43 20.11.2019
4091 Smoke 33 1010 46 3000 2.6 240 09:21 20.11.2019
4092 Smoke 33 1010 38 3000 1.5 90 08:56 20.11.2019
4093 Smoke 33 1011 38 3000 1 100 08:38 20.11.2019
4094 Smoke 33 1011 38 3000 1 100 08:20 20.11.2019
4095 Smoke 32 1011 43 3000 3.1 70 07:45 20.11.2019
4096 Smoke 32 1012 49 2800 3.1 140 07:25 20.11.2019
4097 Smoke 31 1012 45 2500 3.1 100 06:49 20.11.2019
4098 Haze 30 1013 51 2200 2.6 110 06:22 20.11.2019
4099 Haze 29 1013 61 2200 1.5 90 05:39 20.11.2019
4100 Haze 27 1012 69 2100 2.1 140 03:42 20.11.2019
4101 Haze 26 1011 69 3000 1.5 120 02:21 20.11.2019
4102 Smoke 26 1010 74 3000 2.02 72 01:33 20.11.2019
4103 Smoke 26 1010 74 3000 1.94 66 00:41 20.11.2019
4104 Smoke 26 1010 69 3000 1.94 66 23:55 19.11.2019
4105 Smoke 27 1010 65 3000 1.94 66 23:27 19.11.2019
4106 Smoke 27 1010 65 3000 2.07 80 22:59 19.11.2019
4107 Smoke 27 1010 65 3000 2.07 80 22:41 19.11.2019
4108 Smoke 27 1010 65 3000 2.07 80 22:19 19.11.2019
4109 Smoke 27 1010 65 3000 2.07 80 22:19 19.11.2019
4110 Smoke 27 1010 65 3000 2.07 80 22:19 19.11.2019
4111 Smoke 27 1010 65 3000 2.1 40 21:57 19.11.2019
4112 Smoke 27 1010 65 3000 2.1 30 21:38 19.11.2019
4113 Smoke 27 1010 65 3000 2.1 30 21:19 19.11.2019
4114 Smoke 27 1010 65 3000 2.1 30 21:19 19.11.2019
4115 Smoke 27 1010 65 3000 2.1 30 21:19 19.11.2019
4116 Smoke 27 1010 69 3000 2.07 80 20:56 19.11.2019
4117 Smoke 28 1010 65 3000 2.07 80 20:38 19.11.2019
4118 Smoke 28 1010 65 3000 1.44 79 20:20 19.11.2019
4119 Smoke 28 1011 65 3000 1.53 80 19:56 19.11.2019
4120 Smoke 28 1011 65 3000 1.5 130 19:38 19.11.2019
4121 Smoke 28 1011 65 3000 1.5 130 19:19 19.11.2019
4122 Smoke 28 1011 65 3000 2.1 130 18:55 19.11.2019
4123 Smoke 29 1012 62 3000 2.1 100 18:36 19.11.2019
4124 Smoke 29 1012 62 3000 2.1 100 18:18 19.11.2019
4125 Smoke 29 1012 58 3000 1.5 130 17:55 19.11.2019
4126 Smoke 29 1011 62 3000 2.6 90 17:37 19.11.2019
4127 Smoke 29 1011 62 3000 2.6 90 17:18 19.11.2019
4128 Smoke 29 1011 66 3000 1.5 100 16:42 19.11.2019
4129 Haze 29 1011 66 3000 2.6 40 16:23 19.11.2019
4130 Haze 29 1011 66 3000 1.5 350 15:57 19.11.2019
4131 Haze 30 1011 62 3000 2.6 340 15:39 19.11.2019
4132 Haze 30 1011 62 3000 2.6 340 15:20 19.11.2019
4133 Smoke 29 1011 58 3000 3.1 330 14:55 19.11.2019
4134 Smoke 29 1010 58 3500 2.6 330 14:37 19.11.2019
4135 Smoke 29 1010 58 3500 2.6 330 14:37 19.11.2019
4136 Smoke 31 1010 58 3500 2.6 330 14:19 19.11.2019
4137 Smoke 31 1010 55 3500 3.1 310 13:40 19.11.2019
4138 Smoke 31 1010 55 3000 2.6 310 13:19 19.11.2019
4139 Smoke 32 1010 55 3000 4.1 290 12:41 19.11.2019
4140 Smoke 32 1010 52 3000 4.1 280 12:23 19.11.2019
4141 Smoke 33 1010 46 3000 3.1 310 11:58 19.11.2019
4142 Smoke 33 1010 43 3000 4.1 270 11:38 19.11.2019
4143 Smoke 33 1010 43 3000 4.1 270 11:19 19.11.2019
4144 Smoke 33 1010 46 3000 3.6 270 10:48 19.11.2019
4145 Smoke 33 1010 43 3000 4.1 280 10:23 19.11.2019
4146 Smoke 33 1010 36 3000 4.1 270 09:58 19.11.2019
4147 Smoke 33 1011 36 3000 1.5 0 09:40 19.11.2019
4148 Smoke 33 1011 36 3000 1.5 0 09:19 19.11.2019
4149 Smoke 33 1011 36 3000 1.5 0 09:19 19.11.2019
4150 Smoke 34 1011 36 3000 2.6 110 08:41 19.11.2019
4151 Smoke 33 1012 38 3000 2.1 100 08:23 19.11.2019
4152 Smoke 32 1013 38 2500 2.6 90 07:58 19.11.2019
4153 Smoke 32 1013 35 2500 3.1 110 07:39 19.11.2019
4154 Smoke 32 1013 35 2500 3.1 110 07:20 19.11.2019
4155 Smoke 32 1014 43 2500 2.6 50 06:52 19.11.2019
4156 Smoke 30 1014 42 2500 2.6 80 06:33 19.11.2019
4157 Smoke 30 1014 45 2500 3.6 70 05:40 19.11.2019
4158 Smoke 27 1013 54 2200 2.6 60 04:24 19.11.2019
4159 Smoke 26 1013 57 2200 1.5 60 03:34 19.11.2019
4160 Smoke 26 1012 57 2500 2.1 90 02:57 19.11.2019
4161 Smoke 27 1012 54 2500 3.1 60 02:32 19.11.2019
4162 Haze 26 1012 61 2500 1.5 70 01:43 19.11.2019
4163 Haze 26 1011 65 2500 1.5 150 00:22 19.11.2019
4164 Haze 26 1011 65 2500 2.49 60 23:59 18.11.2019
4165 Haze 26 1011 65 2500 1.5 80 23:37 18.11.2019
4166 Haze 26 1011 65 2500 1.5 80 23:18 18.11.2019
4167 Haze 27 1011 65 2500 3.6 80 22:45 18.11.2019
4168 Haze 27 1011 65 2500 3.6 80 22:24 18.11.2019
4169 Haze 27 1011 69 2500 2.1 90 21:57 18.11.2019
4170 Haze 27 1011 69 2500 3.1 140 21:38 18.11.2019
4171 Haze 27 1011 69 2500 3.1 140 21:20 18.11.2019
4172 Haze 27 1011 69 2500 3.1 140 21:20 18.11.2019
4173 Haze 28 1011 65 2500 2.1 140 20:57 18.11.2019
4174 Haze 29 1012 62 2500 1.5 70 20:38 18.11.2019
4175 Haze 29 1012 62 2500 1.5 70 20:38 18.11.2019
4176 Haze 29 1012 62 2500 1.5 70 20:18 18.11.2019
4177 Haze 28 1012 65 2500 1.5 140 19:56 18.11.2019
4178 Haze 28 1012 69 2500 2.1 150 19:37 18.11.2019
4179 Haze 28 1012 69 2500 2.1 150 19:19 18.11.2019
4180 Haze 28 1012 65 2500 1.5 120 18:55 18.11.2019
4181 Haze 29 1012 62 2500 2.1 100 18:37 18.11.2019
4182 Haze 29 1012 62 2500 2.1 100 18:19 18.11.2019
4183 Haze 29 1012 62 2500 3.1 30 17:39 18.11.2019
4184 Haze 29 1012 62 2500 3.1 30 17:39 18.11.2019
4185 Haze 29 1012 62 2500 3.1 30 17:20 18.11.2019
4186 Haze 29 1012 66 2500 2.6 40 16:58 18.11.2019
4187 Smoke 30 1012 62 2500 3.1 10 16:40 18.11.2019
4188 Smoke 30 1012 62 2500 3.1 10 16:22 18.11.2019
4189 Smoke 30 1012 62 2500 3.1 10 15:56 18.11.2019
4190 Smoke 30 1012 62 2500 3.1 10 15:56 18.11.2019
4191 Smoke 29 1012 66 2500 3.1 340 15:37 18.11.2019
4192 Smoke 29 1012 66 2500 3.1 340 15:19 18.11.2019
4193 Smoke 29 1011 62 2500 2.6 340 14:43 18.11.2019
4194 Smoke 31 1011 58 2500 3.1 320 14:24 18.11.2019
4195 Smoke 31 1011 58 3000 3.1 330 13:56 18.11.2019
4196 Smoke 31 1011 55 3000 4.1 330 13:37 18.11.2019
4197 Smoke 31 1011 55 3000 4.1 330 13:37 18.11.2019
4198 Smoke 31 1011 55 3000 4.1 330 13:37 18.11.2019
4199 Smoke 31 1011 55 3000 4.1 330 13:19 18.11.2019
4200 Smoke 32 1010 52 4000 5.1 300 12:39 18.11.2019
4201 Smoke 32 1010 52 4000 5.1 300 12:19 18.11.2019
4202 Smoke 32 1010 52 4000 5.1 290 11:46 18.11.2019
4203 Smoke 33 1010 49 4000 5.1 290 11:27 18.11.2019
4204 Smoke 33 1010 49 4000 5.1 290 10:59 18.11.2019
4205 Smoke 33 1010 49 4000 5.1 290 10:40 18.11.2019
4206 Smoke 33 1011 49 4000 4.1 290 10:22 18.11.2019
4207 Smoke 33 1011 38 3500 2.1 300 09:56 18.11.2019
4208 Smoke 33 1011 38 3500 2.1 300 09:56 18.11.2019
4209 Smoke 33 1011 28 3000 2.6 20 09:38 18.11.2019
4210 Smoke 33 1011 28 3000 2.6 20 09:38 18.11.2019
4211 Smoke 33 1011 28 3000 2.6 20 09:18 18.11.2019
4212 Smoke 33 1012 33 3000 2.1 350 08:45 18.11.2019
4213 Smoke 32 1012 36 3000 1.5 100 08:22 18.11.2019
4214 Smoke 33 1013 36 3000 2.1 30 07:49 18.11.2019
4215 Smoke 33 1014 33 3000 2.6 70 07:30 18.11.2019
4216 Smoke 32 1014 38 2500 3.1 80 06:57 18.11.2019
4217 Smoke 32 1014 38 2500 3.6 100 06:39 18.11.2019
4218 Smoke 32 1014 38 2500 3.6 100 06:20 18.11.2019
4219 Smoke 30 1015 45 2500 4.1 120 05:25 18.11.2019
4220 Smoke 27 1013 51 2200 3.6 80 03:28 18.11.2019
4221 Smoke 28 1012 48 3000 2.6 90 01:33 18.11.2019
4222 Smoke 28 1012 51 3000 2.6 50 00:40 18.11.2019
4223 Smoke 29 1012 48 3000 3.1 40 23:57 17.11.2019
4224 Smoke 29 1012 51 3000 1.5 60 23:39 17.11.2019
4225 Smoke 31 1012 51 3000 1.5 60 23:19 17.11.2019
4226 Smoke 31 1012 51 3000 2.1 70 22:54 17.11.2019
4227 Smoke 30 1012 54 3000 2.6 30 22:36 17.11.2019
4228 Smoke 31 1012 54 3000 2.6 30 22:18 17.11.2019
4229 Smoke 29 1012 54 3000 2.6 40 21:42 17.11.2019
4230 Smoke 29 1012 58 3000 2.1 40 21:20 17.11.2019
4231 Haze 29 1013 58 3000 2.6 60 20:58 17.11.2019
4232 Haze 30 1013 58 3000 3.1 40 20:39 17.11.2019
4233 Haze 31 1013 58 3000 3.1 40 20:20 17.11.2019
4234 Haze 31 1013 58 3000 2.1 90 19:57 17.11.2019
4235 Haze 30 1013 62 3000 1.5 140 19:39 17.11.2019
4236 Haze 30 1013 62 3000 1.5 140 19:20 17.11.2019
4237 Haze 30 1013 66 3000 1.5 90 18:56 17.11.2019
4238 Haze 30 1013 66 3000 1.5 90 18:56 17.11.2019
4239 Haze 30 1013 66 3000 2.1 190 18:38 17.11.2019
4240 Haze 30 1013 66 3000 2.1 190 18:19 17.11.2019
4241 Haze 30 1013 66 3000 2.1 190 18:19 17.11.2019
4242 Haze 30 1013 66 3000 1.5 10 17:58 17.11.2019
4243 Haze 30 1013 66 3000 4.1 10 17:40 17.11.2019
4244 Haze 32 1013 66 3000 4.1 10 17:20 17.11.2019
4245 Haze 32 1013 70 3000 3.6 350 16:59 17.11.2019
4246 Haze 30 1013 70 3000 3.6 350 16:41 17.11.2019
4247 Haze 30 1013 70 3000 3.6 340 16:21 17.11.2019
4248 Haze 30 1012 70 3000 3.6 350 15:56 17.11.2019
4249 Haze 31 1012 62 3000 2.6 340 15:38 17.11.2019
4250 Haze 31 1012 62 3000 2.6 340 15:18 17.11.2019
4251 Smoke 30 1012 66 3000 4.6 340 14:57 17.11.2019
4252 Smoke 30 1011 66 3000 3.6 340 14:38 17.11.2019
4253 Smoke 32 1011 66 3000 3.6 340 14:20 17.11.2019
4254 Smoke 32 1011 66 3000 3.6 340 14:20 17.11.2019
4255 Smoke 33 1011 55 3000 2.6 320 13:57 17.11.2019
4256 Smoke 33 1011 49 3000 3.1 350 13:39 17.11.2019
4257 Smoke 33 1011 49 3000 3.1 350 13:19 17.11.2019
4258 Smoke 33 1011 46 3000 3.6 340 12:44 17.11.2019
4259 Smoke 34 1011 41 3000 3.6 360 12:23 17.11.2019
4260 Smoke 34 1011 44 3000 3.1 40 11:57 17.11.2019
4261 Smoke 34 1011 44 3000 3.1 30 11:39 17.11.2019
4262 Smoke 34 1011 44 3000 3.1 30 11:20 17.11.2019
4263 Smoke 34 1011 46 3000 1.5 0 10:44 17.11.2019
4264 Smoke 34 1011 46 3000 1.5 0 10:23 17.11.2019
4265 Smoke 34 1012 52 3000 2.6 340 09:58 17.11.2019
4266 Smoke 34 1012 52 3000 2.6 340 09:58 17.11.2019
4267 Smoke 34 1012 44 3000 4.1 290 09:39 17.11.2019
4268 Smoke 34 1012 44 3000 4.1 290 09:21 17.11.2019
4269 Smoke 34 1013 46 2500 2.1 90 08:41 17.11.2019
4270 Smoke 34 1012 44 3000 2.1 110 08:41 17.11.2019
4271 Smoke 34 1013 46 2500 2.1 90 08:22 17.11.2019
4272 Smoke 34 1013 44 2500 1.5 160 07:56 17.11.2019
4273 Smoke 33 1014 46 2500 3.1 120 07:37 17.11.2019
4274 Smoke 33 1014 46 2500 3.1 120 07:19 17.11.2019
4275 Smoke 33 1014 49 2500 2.6 140 06:44 17.11.2019
4276 Smoke 32 1015 49 2500 3.1 110 06:25 17.11.2019
4277 Smoke 30 1014 58 2500 3.1 80 04:38 17.11.2019
4278 Smoke 30 1014 58 2500 3.1 80 04:38 17.11.2019
4279 Smoke 29 1014 61 2500 3.1 100 03:51 17.11.2019
4280 Smoke 29 1013 65 2500 2.1 120 03:32 17.11.2019
4281 Haze 30 1012 61 3000 1.5 100 02:31 17.11.2019
4282 Haze 28 1012 65 3000 2.6 50 01:43 17.11.2019
4283 Haze 28 1011 69 3000 2.6 30 00:55 17.11.2019
4284 Haze 28 1011 69 4000 2.6 30 00:23 17.11.2019
4285 Haze 28 1011 69 4000 3.1 40 23:52 16.11.2019
4286 Haze 28 1011 74 4000 2.1 30 23:20 16.11.2019
4287 Haze 28 1011 74 4000 3.1 40 22:59 16.11.2019
4288 Haze 28 1011 74 4000 3.1 40 22:41 16.11.2019
4289 Smoke 29 1011 70 5000 3.1 40 22:20 16.11.2019
4290 Smoke 29 1012 70 5000 3.1 40 21:56 16.11.2019
4291 Smoke 29 1012 70 5000 2.1 40 21:38 16.11.2019
4292 Smoke 29 1012 70 5000 2.1 40 21:19 16.11.2019
4293 Smoke 30 1012 66 5000 3.1 40 20:55 16.11.2019
4294 Smoke 29 1012 70 5000 1.5 0 20:37 16.11.2019
4295 Smoke 29 1012 70 5000 1.5 0 20:18 16.11.2019
4296 Smoke 30 1012 66 4000 1.5 0 19:40 16.11.2019
4297 Smoke 30 1012 66 4000 1.5 0 19:22 16.11.2019
4298 Smoke 30 1013 66 4000 2.1 90 18:47 16.11.2019
4299 Smoke 30 1013 66 3000 1.5 130 18:29 16.11.2019
4300 Smoke 30 1013 70 2500 2.6 130 17:58 16.11.2019
4301 Haze 30 1013 70 2500 3.1 30 17:39 16.11.2019
4302 Haze 30 1013 70 2500 3.1 30 17:20 16.11.2019
4303 Haze 30 1013 70 2500 3.1 20 16:56 16.11.2019
4304 Haze 31 1012 62 3000 1.5 0 16:37 16.11.2019
4305 Haze 31 1012 62 3000 1.5 0 16:18 16.11.2019
4306 Haze 31 1012 62 2500 3.6 340 15:41 16.11.2019
4307 Haze 31 1012 62 2500 3.6 340 15:21 16.11.2019
4308 Haze 30 1011 66 2500 2.6 20 14:58 16.11.2019
4309 Haze 30 1011 66 2500 1.5 320 14:39 16.11.2019
4310 Haze 31 1011 66 2500 1.5 320 14:21 16.11.2019
4311 Haze 31 1011 62 3000 3.1 320 13:56 16.11.2019
4312 Haze 32 1010 58 3500 3.6 340 13:38 16.11.2019
4313 Haze 32 1010 58 3500 3.6 340 13:18 16.11.2019
4314 Smoke 31 1011 62 3500 3.6 320 12:55 16.11.2019
4315 Smoke 31 1010 58 3500 3.6 320 12:36 16.11.2019
4316 Smoke 31 1010 58 3500 3.6 320 12:18 16.11.2019
4317 Smoke 32 1010 52 3500 4.1 310 11:42 16.11.2019
4318 Smoke 33 1010 55 3500 3.6 310 11:23 16.11.2019
4319 Smoke 33 1010 55 3500 3.6 290 10:56 16.11.2019
4320 Smoke 33 1011 55 4000 4.6 300 10:37 16.11.2019
4321 Smoke 33 1011 55 4000 4.6 300 10:18 16.11.2019
4322 Smoke 34 1011 44 3500 2.1 160 09:40 16.11.2019
4323 Smoke 33 1011 43 3000 1.5 100 09:20 16.11.2019
4324 Smoke 34 1011 43 3000 2.1 200 08:56 16.11.2019
4325 Smoke 33 1012 46 3000 2.6 120 08:36 16.11.2019
4326 Smoke 33 1012 46 3000 2.6 120 08:18 16.11.2019
4327 Smoke 33 1012 49 2500 3.6 140 07:41 16.11.2019
4328 Smoke 32 1013 49 2500 3.6 100 07:19 16.11.2019
4329 Smoke 32 1013 49 2500 3.1 110 06:43 16.11.2019
4330 Smoke 32 1013 52 2500 4.1 110 06:23 16.11.2019
4331 Haze 30 1013 62 1800 3.1 90 04:49 16.11.2019
4332 Haze 27 1012 78 2200 1.5 60 03:26 16.11.2019
4333 Haze 27 1012 78 2200 1.5 60 03:26 16.11.2019
4334 Haze 27 1011 78 2200 2.1 50 02:55 16.11.2019
4335 Haze 27 1011 78 2200 1.5 0 01:43 16.11.2019
4336 Haze 27 1011 78 2200 2.1 60 00:59 16.11.2019
4337 Haze 28 1010 74 2200 1.5 50 00:37 16.11.2019
4338 Haze 28 1010 74 2200 1.5 50 00:18 16.11.2019
4339 Haze 27 1010 78 3000 2.6 90 23:39 15.11.2019
4340 Haze 27 1010 78 3000 2.6 90 23:20 15.11.2019
4341 Haze 27 1010 78 3000 2.6 90 23:20 15.11.2019
4342 Haze 29 1011 70 3000 2.1 70 22:43 15.11.2019
4343 Haze 29 1011 70 3000 2.1 70 22:20 15.11.2019
4344 Haze 28 1011 74 2500 1.5 40 22:00 15.11.2019
4345 Haze 28 1011 74 2500 1.5 40 21:41 15.11.2019
4346 Haze 28 1011 74 2500 2.1 10 21:20 15.11.2019
4347 Haze 28 1011 74 2500 3.1 20 20:58 15.11.2019
4348 Haze 29 1012 70 2500 2.6 350 20:40 15.11.2019
4349 Haze 29 1012 70 2500 2.6 350 20:39 15.11.2019
4350 Haze 29 1012 70 2500 2.6 350 20:21 15.11.2019
4351 Haze 29 1012 70 2500 2.6 330 19:58 15.11.2019
4352 Haze 29 1012 70 2500 2.6 330 19:40 15.11.2019
4353 Haze 30 1012 66 2500 3.1 20 19:20 15.11.2019
4354 Haze 29 1012 70 2500 1.5 340 18:58 15.11.2019
4355 Haze 29 1013 70 2500 1.5 20 18:40 15.11.2019
4356 Haze 29 1013 70 2500 1.5 20 18:21 15.11.2019
4357 Haze 29 1012 70 3000 1.5 10 17:43 15.11.2019
4358 Haze 29 1012 70 3000 1.5 320 17:25 15.11.2019
4359 Haze 29 1012 70 3000 1.5 320 17:25 15.11.2019
4360 Haze 29 1012 70 3000 1.5 20 16:57 15.11.2019
4361 Haze 30 1012 62 3000 2.1 320 16:38 15.11.2019
4362 Haze 30 1012 62 3000 2.1 320 16:19 15.11.2019
4363 Haze 30 1011 66 3000 2.1 320 15:39 15.11.2019
4364 Haze 30 1011 66 3000 2.1 320 15:20 15.11.2019
4365 Haze 30 1011 62 3000 3.1 280 14:57 15.11.2019
4366 Smoke 30 1010 58 3000 2.6 280 14:38 15.11.2019
4367 Smoke 31 1010 58 3000 2.6 280 14:20 15.11.2019
4368 Smoke 31 1010 55 3000 2.6 270 13:58 15.11.2019
4369 Smoke 31 1010 55 3000 2.6 270 13:40 15.11.2019
4370 Smoke 32 1010 55 3000 3.1 300 13:21 15.11.2019
4371 Smoke 32 1010 58 3000 3.1 290 12:59 15.11.2019
4372 Smoke 31 1010 58 2500 3.6 310 12:40 15.11.2019
4373 Smoke 31 1010 58 2500 3.6 310 12:21 15.11.2019
4374 Smoke 31 1010 55 2500 4.1 260 11:59 15.11.2019
4375 Smoke 32 1010 49 2500 3.6 280 11:39 15.11.2019
4376 Smoke 32 1010 49 2500 3.6 280 11:21 15.11.2019
4377 Smoke 32 1010 49 3000 3.6 290 10:57 15.11.2019
4378 Smoke 32 1010 49 3000 3.1 280 10:39 15.11.2019
4379 Smoke 32 1010 49 3000 3.1 280 10:19 15.11.2019
4380 Smoke 33 1011 46 3000 3.1 220 09:41 15.11.2019
4381 Smoke 32 1011 46 3000 3.1 220 09:20 15.11.2019
4382 Smoke 33 1012 46 3000 2.6 210 08:45 15.11.2019
4383 Smoke 32 1012 49 2500 3.6 140 08:25 15.11.2019
4384 Smoke 32 1013 49 2500 2.6 120 07:54 15.11.2019
4385 Smoke 32 1013 52 2500 3.6 140 07:36 15.11.2019
4386 Smoke 32 1013 52 2500 4.1 110 07:18 15.11.2019
4387 Smoke 31 1014 55 2200 3.6 120 06:34 15.11.2019
4388 Haze 31 1014 55 2100 2.6 120 05:50 15.11.2019
4389 Haze 29 1014 54 2100 3.6 100 05:28 15.11.2019
4390 Haze 26 1013 61 2000 2.6 110 04:42 15.11.2019
4391 Haze 27 1012 65 2100 2.1 50 03:37 15.11.2019
4392 Haze 26 1012 69 2100 1.5 100 02:27 15.11.2019
4393 Haze 26 1011 69 2500 0.5 110 01:48 15.11.2019
4394 Haze 26 1011 69 2500 2.31 55 01:24 15.11.2019
4395 Smoke 26 1011 69 2500 2.6 130 00:37 15.11.2019
4396 Smoke 26 1011 74 2500 2.1 100 23:59 14.11.2019
4397 Smoke 26 1011 74 2500 2.31 55 23:40 14.11.2019
4398 Smoke 27 1011 69 2500 1.8 55 23:21 14.11.2019
4399 Smoke 27 1011 65 2500 1.8 55 22:41 14.11.2019
4400 Smoke 27 1011 65 2500 1.8 55 22:22 14.11.2019
4401 Smoke 27 1011 69 2500 1.5 100 21:57 14.11.2019
4402 Smoke 27 1012 74 2500 2.1 30 21:39 14.11.2019
4403 Smoke 27 1012 74 2500 2.1 30 21:39 14.11.2019
4404 Smoke 27 1012 74 2500 2.1 30 21:21 14.11.2019
4405 Smoke 27 1012 74 2500 2.1 30 20:54 14.11.2019
4406 Smoke 27 1012 74 2500 2.6 10 20:36 14.11.2019
4407 Smoke 27 1012 74 2500 2.6 10 20:18 14.11.2019
4408 Smoke 28 1012 65 2500 2.6 10 19:54 14.11.2019
4409 Smoke 27 1013 69 2500 2.1 100 19:36 14.11.2019
4410 Smoke 28 1013 65 2500 1.5 10 19:18 14.11.2019
4411 Smoke 29 1013 58 3000 3.1 10 18:41 14.11.2019
4412 Smoke 29 1013 58 3000 3.1 10 18:22 14.11.2019
4413 Smoke 29 1012 58 3000 2.6 350 17:57 14.11.2019
4414 Smoke 29 1012 58 3000 2.6 350 17:37 14.11.2019
4415 Smoke 29 1012 58 3000 3.1 350 17:19 14.11.2019
4416 Smoke 29 1012 58 3000 3.1 350 16:58 14.11.2019
4417 Smoke 29 1012 58 3000 3.6 340 16:37 14.11.2019
4418 Smoke 29 1012 58 3000 3.6 340 16:19 14.11.2019
4419 Smoke 29 1012 58 3000 3.6 270 15:57 14.11.2019
4420 Smoke 30 1011 51 3000 2.6 340 15:38 14.11.2019
4421 Smoke 30 1011 51 3000 2.6 340 15:20 14.11.2019
4422 Smoke 30 1011 45 3000 2.6 30 14:46 14.11.2019
4423 Smoke 31 1011 40 3500 3.1 340 14:23 14.11.2019
4424 Smoke 31 1011 51 3500 1.5 300 13:58 14.11.2019
4425 Smoke 32 1010 48 3500 3.6 270 13:39 14.11.2019
4426 Smoke 32 1010 48 3500 3.6 270 13:20 14.11.2019
4427 Smoke 32 1010 48 3500 4.1 260 12:56 14.11.2019
4428 Smoke 32 1010 43 3500 4.1 270 12:37 14.11.2019
4429 Smoke 32 1010 43 3500 4.1 270 12:19 14.11.2019
4430 Smoke 32 1010 43 3500 4.1 270 11:54 14.11.2019
4431 Smoke 32 1010 40 3500 4.1 260 11:36 14.11.2019
4432 Smoke 33 1010 40 3500 4.1 260 11:18 14.11.2019
4433 Smoke 33 1010 40 3500 4.1 260 11:18 14.11.2019
4434 Smoke 33 1010 33 5000 3.1 260 10:41 14.11.2019
4435 Smoke 33 1011 31 3500 2.6 50 10:41 14.11.2019
4436 Smoke 33 1011 31 3500 2.6 50 10:21 14.11.2019
4437 Smoke 33 1011 31 3500 3.1 140 09:59 14.11.2019
4438 Smoke 33 1012 31 3500 2.6 120 09:41 14.11.2019
4439 Smoke 32 1012 31 3500 2.6 120 09:22 14.11.2019
4440 Smoke 32 1012 33 3500 3.6 90 08:49 14.11.2019
4441 Smoke 32 1012 33 3500 3.6 90 08:26 14.11.2019
4442 Smoke 32 1013 33 3500 5.7 110 07:59 14.11.2019
4443 Smoke 31 1013 38 3500 6.2 120 07:38 14.11.2019
4444 Smoke 31 1013 38 3500 6.2 120 07:20 14.11.2019
4445 Smoke 31 1014 40 3500 4.6 110 06:45 14.11.2019
4446 Smoke 30 1014 42 3000 4.1 110 06:19 14.11.2019
4447 Haze 28 1014 54 2500 4.6 110 04:49 14.11.2019
4448 Haze 26 1013 65 2500 2.1 130 04:27 14.11.2019
4449 Haze 26 1013 61 2500 2.6 140 02:49 14.11.2019
4450 Haze 25 1013 69 2500 2.6 130 02:28 14.11.2019
4451 Haze 25 1012 73 2500 1.5 130 01:34 14.11.2019
4452 Haze 26 1012 65 2500 1.5 70 00:55 14.11.2019
4453 Haze 26 1012 69 2500 2.1 130 00:34 14.11.2019
4454 Haze 27 1012 61 2500 2.6 110 23:58 13.11.2019
4455 Haze 27 1012 65 2500 3.1 90 23:37 13.11.2019
4456 Haze 27 1012 65 2500 3.1 90 23:18 13.11.2019
4457 Haze 27 1012 65 2500 3.1 80 22:41 13.11.2019
4458 Haze 28 1012 61 2500 3.1 80 22:22 13.11.2019
4459 Haze 28 1012 61 2500 2.1 100 21:57 13.11.2019
4460 Haze 28 1012 69 2500 2.1 100 21:39 13.11.2019
4461 Haze 28 1012 69 2500 2.1 100 21:20 13.11.2019
4462 Haze 29 1012 66 2500 3.1 100 20:57 13.11.2019
4463 Haze 29 1012 66 2500 2.6 70 20:38 13.11.2019
4464 Haze 29 1012 66 2500 2.6 70 20:19 13.11.2019
4465 Haze 29 1012 70 2500 1.5 50 19:58 13.11.2019
4466 Haze 29 1013 70 2500 1.5 360 19:40 13.11.2019
4467 Haze 29 1013 70 2500 1.5 360 19:18 13.11.2019
4468 Haze 29 1013 70 2500 2.6 40 18:55 13.11.2019
4469 Haze 30 1013 70 2500 3.1 50 18:36 13.11.2019
4470 Haze 30 1013 70 2500 3.1 50 18:18 13.11.2019
4471 Haze 30 1013 66 2500 3.1 40 17:56 13.11.2019
4472 Haze 30 1013 66 2500 2.6 30 17:36 13.11.2019
4473 Haze 30 1013 66 2500 2.6 30 17:18 13.11.2019
4474 Smoke 30 1013 66 2500 2.6 340 16:56 13.11.2019
4475 Smoke 30 1013 66 2500 2.1 330 16:37 13.11.2019
4476 Smoke 30 1013 66 2500 2.1 330 16:18 13.11.2019
4477 Smoke 30 1012 66 2500 3.1 330 15:55 13.11.2019
4478 Smoke 30 1012 62 2500 3.6 310 15:36 13.11.2019
4479 Smoke 33 1012 62 2500 3.6 310 15:18 13.11.2019
4480 Smoke 32 1011 58 2500 2.6 300 14:41 13.11.2019
4481 Smoke 32 1011 58 2500 2.6 300 14:20 13.11.2019
4482 Smoke 32 1011 58 2500 2.6 300 14:20 13.11.2019
4483 Smoke 32 1010 52 3000 3.1 280 13:38 13.11.2019
4484 Smoke 32 1010 52 3000 3.1 280 13:20 13.11.2019
4485 Smoke 33 1010 52 3000 3.1 310 12:58 13.11.2019
4486 Smoke 32 1010 52 3000 4.6 300 12:40 13.11.2019
4487 Smoke 33 1010 52 3000 4.6 300 12:21 13.11.2019
4488 Smoke 33 1010 55 3500 3.6 300 11:55 13.11.2019
4489 Smoke 33 1010 43 3500 2.1 310 11:37 13.11.2019
4490 Smoke 33 1010 43 3500 2.1 310 11:18 13.11.2019
4491 Smoke 34 1010 38 3500 2.6 10 10:55 13.11.2019
4492 Smoke 34 1010 38 3500 3.6 190 10:37 13.11.2019
4493 Smoke 34 1010 38 3500 3.6 190 10:19 13.11.2019
4494 Smoke 34 1010 38 3500 3.6 190 10:19 13.11.2019
4495 Smoke 34 1011 41 3500 4.1 160 09:42 13.11.2019
4496 Smoke 34 1011 41 3500 2.1 110 09:21 13.11.2019
4497 Smoke 34 1012 46 3500 4.1 130 08:42 13.11.2019
4498 Smoke 33 1012 46 3500 4.1 130 08:23 13.11.2019
4499 Smoke 33 1013 49 3000 4.1 120 07:59 13.11.2019
4500 Smoke 32 1013 45 2500 4.1 120 07:39 13.11.2019
4501 -273 0 0 0 0 0 07:18 13.11.2019
4502 Smoke 32 1014 46 2500 4.6 100 06:42 13.11.2019
4503 Smoke 32 1014 48 2500 4.1 110 06:19 13.11.2019
4504 Smoke 31 1014 55 2500 4.1 100 05:47 13.11.2019
4505 Smoke 30 1014 58 2500 4.1 100 05:19 13.11.2019
4506 Haze 28 1013 65 2100 2.1 100 03:56 13.11.2019
4507 Haze 28 1013 65 2100 2.1 100 03:56 13.11.2019
4508 Haze 27 1012 78 2200 1.5 60 01:51 13.11.2019
4509 Haze 27 1011 78 2200 2.1 50 01:27 13.11.2019
4510 Haze 27 1011 78 2200 2.1 50 01:27 13.11.2019
4511 Haze 27 1011 83 2500 2.6 60 00:43 13.11.2019
4512 Haze 27 1011 78 2500 2.09 79 23:56 12.11.2019
4513 Haze 27 1011 83 2500 1.5 80 23:37 12.11.2019
4514 Haze 27 1011 83 2500 1.5 80 23:18 12.11.2019
4515 Haze 28 1011 74 2500 1.41 87 22:42 12.11.2019
4516 Haze 28 1011 74 2500 1.41 87 22:19 12.11.2019
4517 Haze 28 1011 78 2500 1.5 50 21:56 12.11.2019
4518 Haze 28 1012 78 2500 1.5 150 21:38 12.11.2019
4519 Haze 28 1012 78 2500 1.5 150 21:38 12.11.2019
4520 Haze 28 1012 78 2500 1.5 150 21:19 12.11.2019
4521 Haze 29 1012 70 2500 1.41 87 20:55 12.11.2019
4522 Haze 28 1012 78 2500 2.1 40 20:36 12.11.2019
4523 Haze 28 1012 78 2500 2.1 40 20:18 12.11.2019
4524 Haze 28 1012 74 2500 2.6 40 19:55 12.11.2019
4525 Haze 28 1012 74 2500 2.6 40 19:55 12.11.2019
4526 Haze 29 1012 74 2500 2.1 10 19:37 12.11.2019
4527 Haze 29 1012 74 2500 2.1 10 19:18 12.11.2019
4528 Haze 29 1012 74 2500 2.6 30 18:55 12.11.2019
4529 Haze 29 1012 74 2500 2.6 340 18:37 12.11.2019
4530 Haze 29 1012 74 2500 2.6 340 18:19 12.11.2019
4531 Haze 29 1012 74 2500 2.6 330 17:55 12.11.2019
4532 Haze 30 1012 70 2500 2.1 340 17:36 12.11.2019
4533 Haze 30 1012 70 2500 2.1 340 17:18 12.11.2019
4534 Haze 30 1012 70 2500 2.1 340 17:18 12.11.2019
4535 Haze 30 1012 70 2500 2.1 360 16:43 12.11.2019
4536 Haze 30 1012 70 2500 2.1 20 16:25 12.11.2019
4537 Haze 30 1011 70 2500 2.6 350 15:57 12.11.2019
4538 Haze 30 1011 70 2500 2.6 350 15:57 12.11.2019
4539 Haze 30 1011 70 2500 2.1 320 15:37 12.11.2019
4540 Haze 30 1011 70 2500 2.1 320 15:18 12.11.2019
4541 Haze 30 1010 70 2500 3.1 320 14:42 12.11.2019
4542 Smoke 31 1010 62 2500 2.6 230 14:21 12.11.2019
4543 Smoke 32 1010 58 2500 2.6 310 13:59 12.11.2019
4544 Smoke 31 1010 58 2500 3.6 290 13:40 12.11.2019
4545 Smoke 31 1010 58 2500 3.6 290 13:20 12.11.2019
4546 Smoke 30 1010 62 2500 3.6 310 12:59 12.11.2019
4547 Smoke 31 1009 58 2500 3.6 300 12:39 12.11.2019
4548 Smoke 31 1009 58 2500 3.6 300 12:18 12.11.2019
4549 Smoke 31 1009 58 2500 5.1 270 11:54 12.11.2019
4550 Smoke 31 1009 58 2500 4.6 290 11:36 12.11.2019
4551 Smoke 32 1009 58 2500 4.6 290 11:18 12.11.2019
4552 Smoke 33 1009 55 2500 4.6 290 10:55 12.11.2019
4553 Smoke 32 1010 58 2500 4.1 270 10:36 12.11.2019
4554 Smoke 32 1010 58 2500 4.1 270 10:36 12.11.2019
4555 Smoke 32 1010 58 2500 4.1 270 10:18 12.11.2019
4556 Smoke 33 1010 41 3000 1.5 270 09:39 12.11.2019
4557 Smoke 33 1010 41 3000 1.5 270 09:19 12.11.2019
4558 Smoke 33 1011 41 3000 2.6 110 08:49 12.11.2019
4559 Smoke 33 1012 46 3000 4.1 110 08:29 12.11.2019
4560 Smoke 32 1012 49 3000 2.6 110 07:43 12.11.2019
4561 Smoke 32 1012 49 3000 2.6 110 07:24 12.11.2019
4562 Smoke 32 1012 49 3000 2.6 70 06:53 12.11.2019
4563 Smoke 32 1013 52 3000 2.6 140 06:26 12.11.2019
4564 Smoke 31 1013 58 2500 2.6 100 05:56 12.11.2019
4565 Haze 29 1012 66 2200 2.6 110 04:59 12.11.2019
4566 Haze 29 1012 69 2200 2.43 60 04:35 12.11.2019
4567 Mist 27 1011 74 2200 1.5 60 02:41 12.11.2019
4568 Haze 26 1010 78 2200 2.6 90 01:27 12.11.2019
4569 Haze 27 1010 74 2200 2.03 69 00:57 12.11.2019
4570 Haze 27 1010 74 2200 2.03 69 00:57 12.11.2019
4571 Haze 27 1009 74 2200 2.1 80 00:39 12.11.2019
4572 Haze 26 1010 83 2200 1.5 120 23:56 11.11.2019
4573 Haze 27 1009 78 2200 1.5 110 23:38 11.11.2019
4574 Haze 27 1009 78 2200 1.5 110 23:18 11.11.2019
4575 Haze 28 1010 74 2200 2.1 90 22:39 11.11.2019
4576 Haze 28 1010 74 2200 2.1 90 22:20 11.11.2019
4577 Haze 28 1010 78 2200 2.1 80 21:58 11.11.2019
4578 Haze 28 1010 78 2200 1.5 90 21:39 11.11.2019
4579 Haze 28 1010 78 2200 1.5 90 21:21 11.11.2019
4580 Haze 28 1010 78 2200 1.5 80 20:56 11.11.2019
4581 Haze 28 1010 78 2200 1.5 80 20:56 11.11.2019
4582 Haze 28 1011 78 2200 2.1 110 20:38 11.11.2019
4583 Haze 28 1011 78 2200 2.1 110 20:19 11.11.2019
4584 Haze 29 1011 74 2200 2.1 60 19:55 11.11.2019
4585 Haze 28 1011 78 2200 2.1 60 19:37 11.11.2019
4586 Haze 28 1011 78 2200 2.1 60 19:18 11.11.2019
4587 Haze 30 1011 66 2200 2.6 20 18:41 11.11.2019
4588 Haze 29 1011 70 2200 2.6 20 18:21 11.11.2019
4589 Haze 29 1011 74 2200 1.15 65 17:46 11.11.2019
4590 Haze 29 1011 74 2200 2.1 10 17:46 11.11.2019
4591 Haze 29 1011 74 2200 1.15 65 17:28 11.11.2019
4592 Haze 30 1011 70 2500 2.6 300 16:58 11.11.2019
4593 Haze 30 1011 70 2500 2.6 300 16:38 11.11.2019
4594 Haze 30 1011 74 3000 2.6 210 16:20 11.11.2019
4595 Haze 30 1010 70 3000 2.6 330 15:41 11.11.2019
4596 Haze 30 1010 70 3000 2.1 310 15:20 11.11.2019
4597 Haze 30 1010 70 3000 2.6 320 14:56 11.11.2019
4598 Haze 30 1010 70 3000 2.6 320 14:56 11.11.2019
4599 Haze 30 1010 70 3000 2.6 320 14:38 11.11.2019
4600 Haze 31 1009 70 3000 3.1 330 14:20 11.11.2019
4601 Haze 31 1009 70 3500 2.6 310 13:56 11.11.2019
4602 Haze 31 1009 70 3500 2.6 310 13:37 11.11.2019
4603 Smoke 32 1009 62 3500 3.6 280 13:18 11.11.2019
4604 Smoke 32 1009 62 3500 4.1 300 12:55 11.11.2019
4605 Smoke 31 1009 62 3500 4.6 300 12:37 11.11.2019
4606 Smoke 31 1009 62 3500 4.6 300 12:19 11.11.2019
4607 Smoke 32 1009 62 3500 4.6 280 11:41 11.11.2019
4608 Smoke 33 1009 62 3500 4.6 280 11:21 11.11.2019
4609 Smoke 33 1009 62 3500 4.1 290 10:44 11.11.2019
4610 Smoke 33 1009 62 3000 5.1 270 10:20 11.11.2019
4611 Smoke 33 1010 62 3000 4.1 290 09:59 11.11.2019
4612 Smoke 33 1010 62 3000 4.1 290 09:41 11.11.2019
4613 Smoke 33 1010 62 3000 4.1 290 09:20 11.11.2019
4614 Smoke 33 1010 55 3000 4.6 300 08:43 11.11.2019
4615 Smoke 33 1011 46 3000 3.1 170 08:23 11.11.2019
4616 Smoke 33 1011 43 3000 3.1 110 07:57 11.11.2019
4617 Smoke 32 1012 49 3000 3.6 130 07:39 11.11.2019
4618 Smoke 32 1012 49 3000 3.6 130 07:19 11.11.2019
4619 Smoke 32 1012 52 3000 2.1 120 06:56 11.11.2019
4620 Haze 32 1012 55 3000 2.6 130 06:38 11.11.2019
4621 Haze 31 1012 55 3000 2.6 130 06:19 11.11.2019
4622 Haze 31 1012 58 2700 2.1 120 05:48 11.11.2019
4623 Mist 25 1011 88 1700 2.6 110 03:34 11.11.2019
4624 Mist 27 1010 94 1700 1.5 110 02:39 11.11.2019
4625 Mist 26 1010 88 2500 1.66 53 01:59 11.11.2019
4626 Mist 26 1010 88 2500 1.5 120 01:36 11.11.2019
4627 Mist 26 1009 83 2500 1.55 58 00:55 11.11.2019
4628 Mist 27 1009 83 2500 1.55 58 00:33 11.11.2019
4629 Mist 26 1009 88 2500 2.6 80 23:58 10.11.2019
4630 Haze 26 1009 88 2500 3.1 110 23:38 10.11.2019
4631 Haze 26 1009 88 2500 3.1 110 23:19 10.11.2019
4632 Haze 27 1009 83 2500 2.6 80 22:56 10.11.2019
4633 Haze 27 1010 83 2500 2.1 80 22:37 10.11.2019
4634 Haze 27 1010 83 2500 2.1 80 22:19 10.11.2019
4635 Haze 27 1010 83 2200 2.6 70 21:55 10.11.2019
4636 Haze 27 1010 83 2200 2.6 70 21:36 10.11.2019
4637 Haze 27 1010 88 2200 2.1 90 21:18 10.11.2019
4638 Haze 27 1010 88 2200 2.6 100 20:41 10.11.2019
4639 Haze 28 1011 83 2500 2.6 140 20:22 10.11.2019
4640 Mist 27 1011 88 2200 1.5 90 19:56 10.11.2019
4641 Mist 27 1011 88 2200 1.5 90 19:56 10.11.2019
4642 Mist 27 1011 88 2200 1.5 90 19:37 10.11.2019
4643 Mist 28 1011 88 2500 2.1 30 19:18 10.11.2019
4644 Mist 28 1012 88 2500 1.5 40 18:58 10.11.2019
4645 Mist 28 1012 88 2500 1.5 40 18:58 10.11.2019
4646 Mist 28 1012 88 2500 1.5 40 18:58 10.11.2019
4647 Mist 28 1012 88 2500 1.5 40 18:39 10.11.2019
4648 Mist 28 1012 88 2500 2.1 330 18:19 10.11.2019
4649 Mist 28 1012 88 2500 2.1 330 18:19 10.11.2019
4650 Mist 28 1012 88 2500 2.1 340 17:56 10.11.2019
4651 Mist 29 1011 83 2500 1.5 310 17:38 10.11.2019
4652 Mist 29 1011 83 2500 1.5 310 17:19 10.11.2019
4653 Mist 28 1011 88 2500 2.1 340 16:58 10.11.2019
4654 Mist 28 1011 88 2500 2.1 340 16:38 10.11.2019
4655 Haze 29 1011 83 3000 2.6 300 16:20 10.11.2019
4656 Haze 29 1011 83 3000 2.6 310 15:55 10.11.2019
4657 Haze 29 1010 83 3000 2.1 320 15:36 10.11.2019
4658 Haze 29 1010 83 3000 2.1 320 15:18 10.11.2019
4659 Haze 30 1010 83 3000 1.5 0 14:41 10.11.2019
4660 Haze 31 1010 83 3000 3.1 300 14:23 10.11.2019
4661 Haze 32 1009 79 3000 4.1 320 13:58 10.11.2019
4662 Haze 32 1009 79 3000 4.1 320 13:40 10.11.2019
4663 Haze 32 1009 74 4000 2.1 260 13:20 10.11.2019
4664 Haze 32 1009 70 4000 4.6 300 12:44 10.11.2019
4665 Haze 33 1009 70 4000 3.6 290 12:21 10.11.2019
4666 Haze 33 1009 66 4000 4.6 290 11:57 10.11.2019
4667 Haze 33 1009 70 4000 4.6 260 11:39 10.11.2019
4668 Haze 33 1009 70 4000 4.6 260 11:21 10.11.2019
4669 Haze 33 1009 66 4000 3.6 280 11:00 10.11.2019
4670 Haze 33 1009 66 4000 3.6 280 10:41 10.11.2019
4671 Smoke 33 1009 66 4000 5.7 260 10:20 10.11.2019
4672 Smoke 33 1010 46 4000 2.6 320 09:44 10.11.2019
4673 Smoke 33 1010 66 3000 2.6 330 09:26 10.11.2019
4674 Smoke 32 1010 52 3000 2.1 340 08:59 10.11.2019
4675 Smoke 32 1010 52 3000 2.1 340 08:37 10.11.2019
4676 Haze 32 1011 55 3000 2.1 30 08:18 10.11.2019
4677 Haze 31 1012 70 4000 5.1 300 07:42 10.11.2019
4678 Haze 31 1012 62 2500 4.1 60 07:24 10.11.2019
4679 Haze 29 1013 78 1800 3.1 30 06:33 10.11.2019
4680 Haze 29 1013 79 1800 2.6 100 05:40 10.11.2019
4681 Mist 26 1012 88 1600 2.6 50 03:22 10.11.2019
4682 Mist 26 1011 88 2500 2.1 30 01:53 10.11.2019
4683 Mist 26 1011 88 2500 1.5 80 01:19 10.11.2019
4684 Mist 26 1011 88 2500 1.5 80 01:19 10.11.2019
4685 Mist 26 1010 88 2500 1.5 80 00:41 10.11.2019
4686 Mist 26 1010 88 2500 1.62 79 23:58 09.11.2019
4687 Mist 26 1010 94 2500 1.5 80 23:37 09.11.2019
4688 Mist 26 1010 94 2500 1.5 80 23:18 09.11.2019
4689 Mist 26 1010 94 2500 1.5 100 22:41 09.11.2019
4690 Mist 26 1011 94 3000 2.6 110 22:21 09.11.2019
4691 Mist 27 1011 88 3000 2.1 90 21:56 09.11.2019
4692 Mist 27 1011 88 3000 2.1 90 21:56 09.11.2019
4693 Mist 27 1011 88 3000 2.1 90 21:37 09.11.2019
4694 Haze 27 1011 88 3000 2.6 130 21:19 09.11.2019
4695 Haze 27 1011 83 3000 1 0 20:43 09.11.2019
4696 Haze 28 1012 78 3000 1.5 210 20:22 09.11.2019
4697 Haze 28 1012 78 3000 1.5 210 19:58 09.11.2019
4698 Haze 28 1012 78 3000 2.6 220 19:40 09.11.2019
4699 Haze 28 1012 78 3000 2.6 220 19:21 09.11.2019
4700 Haze 28 1012 78 3000 1.5 220 18:56 09.11.2019
4701 Haze 28 1012 78 3000 1.5 220 18:38 09.11.2019
4702 Haze 28 1012 78 3000 2.6 220 18:18 09.11.2019
4703 Haze 28 1012 78 3000 2.6 230 17:41 09.11.2019
4704 Haze 28 1012 78 3000 2.6 230 17:22 09.11.2019
4705 Haze 28 1012 78 4000 2.6 230 16:56 09.11.2019
4706 Haze 28 1011 78 4000 2.1 230 16:37 09.11.2019
4707 Haze 28 1011 78 4000 2.1 230 16:37 09.11.2019
4708 Haze 28 1011 78 4000 2.1 230 16:18 09.11.2019
4709 Haze 28 1011 78 4000 2.6 220 15:41 09.11.2019
4710 Haze 28 1010 78 4000 2.1 230 15:23 09.11.2019
4711 Haze 29 1010 78 4000 2.1 250 14:46 09.11.2019
4712 Haze 30 1010 78 4000 2.6 270 14:23 09.11.2019
4713 Haze 30 1009 74 5000 3.1 270 13:58 09.11.2019
4714 Haze 31 1009 74 5000 3.1 270 13:40 09.11.2019
4715 Haze 30 1009 70 5000 3.1 250 13:21 09.11.2019
4716 Haze 30 1009 74 5000 3.1 280 12:58 09.11.2019
4717 Haze 30 1009 74 5000 3.1 280 12:40 09.11.2019
4718 Haze 30 1009 70 5000 4.1 280 12:21 09.11.2019
4719 Haze 30 1009 70 5000 4.1 280 11:48 09.11.2019
4720 Haze 31 1009 70 5000 3.6 260 11:22 09.11.2019
4721 Haze 31 1009 66 4000 3.6 250 10:58 09.11.2019
4722 Haze 31 1009 66 4000 4.1 270 10:39 09.11.2019
4723 Haze 31 1009 66 4000 4.1 270 10:19 09.11.2019
4724 Haze 31 1010 66 4000 4.6 250 09:45 09.11.2019
4725 Haze 31 1010 74 4000 4.6 230 09:26 09.11.2019
4726 Haze 30 1010 74 3500 3.6 250 08:57 09.11.2019
4727 Haze 30 1011 70 3000 3.6 200 08:38 09.11.2019
4728 Haze 30 1011 70 3000 3.6 200 08:19 09.11.2019
4729 Haze 30 1011 70 3000 3.6 200 08:19 09.11.2019
4730 Haze 30 1011 70 3000 3.1 210 07:43 09.11.2019
4731 Haze 30 1012 74 3000 3.1 190 07:22 09.11.2019
4732 Haze 30 1012 70 3000 2.6 170 06:48 09.11.2019
4733 Haze 30 1012 74 3000 3.1 160 06:30 09.11.2019
4734 Haze 30 1012 74 3000 3.6 180 05:42 09.11.2019
4735 Mist 27 1012 83 2500 2.1 110 04:56 09.11.2019
4736 Mist 28 1011 88 2500 2.6 120 03:35 09.11.2019
4737 Mist 27 1011 88 2500 3.6 100 02:41 09.11.2019
4738 Mist 25 1010 94 2500 2.6 110 01:55 09.11.2019
4739 Mist 26 1010 88 2500 2.6 110 00:49 09.11.2019
4740 Mist 26 1010 88 2500 2.6 110 00:31 09.11.2019
4741 Mist 26 1009 88 2500 2.6 100 23:57 08.11.2019
4742 Mist 26 1009 88 2500 1.5 100 23:38 08.11.2019
4743 Mist 26 1009 88 2500 1.5 100 23:19 08.11.2019
4744 Mist 26 1009 88 2500 1.5 130 22:42 08.11.2019
4745 Mist 26 1010 88 2500 2.6 120 22:21 08.11.2019
4746 Thunderstorm 26 1010 88 3000 1.5 40 21:56 08.11.2019
4747 Thunderstorm 26 1010 88 3000 2.23 142 21:38 08.11.2019
4748 Thunderstorm 26 1010 88 3000 2.23 142 21:18 08.11.2019
4749 Haze 26 1010 88 3000 3.6 120 20:41 08.11.2019
4750 Haze 27 1011 83 3000 3.1 110 20:21 08.11.2019
4751 Haze 27 1011 83 3500 1.5 150 19:58 08.11.2019
4752 Haze 27 1011 83 3500 1.5 150 19:58 08.11.2019
4753 Haze 27 1011 83 3500 3.25 148 19:38 08.11.2019
4754 Haze 27 1011 83 3500 3.25 148 19:38 08.11.2019
4755 Haze 27 1011 83 3500 3.25 148 19:18 08.11.2019
4756 Haze 27 1011 83 3500 3.25 148 19:18 08.11.2019
4757 Haze 27 1011 83 3500 2.1 170 18:55 08.11.2019
4758 Haze 28 1012 78 3500 2.1 190 18:37 08.11.2019
4759 Haze 28 1012 78 3500 2.1 190 18:19 08.11.2019
4760 Haze 27 1011 83 3500 2.6 220 17:55 08.11.2019
4761 Haze 28 1011 78 3500 2.6 230 17:37 08.11.2019
4762 Haze 28 1011 78 3500 2.6 230 17:18 08.11.2019
4763 Haze 27 1011 83 3500 2.6 210 16:57 08.11.2019
4764 Haze 28 1011 78 3500 2.6 230 16:39 08.11.2019
4765 Haze 28 1011 78 3500 2.6 230 16:19 08.11.2019
4766 Haze 28 1011 78 3500 2.6 250 15:56 08.11.2019
4767 Haze 28 1011 78 3500 2.6 240 15:38 08.11.2019
4768 Haze 28 1011 78 3500 2.6 240 15:20 08.11.2019
4769 Haze 28 1010 74 4000 3.6 240 14:55 08.11.2019
4770 Haze 28 1010 74 4000 3.6 270 14:36 08.11.2019
4771 Haze 28 1010 78 4000 3.1 280 14:18 08.11.2019
4772 Haze 29 1009 74 4000 4.1 280 13:43 08.11.2019
4773 Haze 29 1009 74 4000 4.1 280 13:23 08.11.2019
4774 Haze 29 1009 70 4000 3.1 280 12:59 08.11.2019
4775 Haze 29 1009 70 4000 3.1 280 12:41 08.11.2019
4776 Haze 29 1009 70 4000 4.1 270 12:23 08.11.2019
4777 Haze 29 1009 78 4000 3.6 240 11:55 08.11.2019
4778 Haze 29 1008 78 4000 3.6 190 11:37 08.11.2019
4779 Haze 30 1008 78 4000 3.6 190 11:19 08.11.2019
4780 Haze 31 1008 79 4000 5.1 260 10:43 08.11.2019
4781 Haze 31 1008 74 4000 6.2 250 10:22 08.11.2019
4782 Haze 30 1009 74 4000 5.7 240 09:59 08.11.2019
4783 Haze 30 1009 74 4000 5.7 240 09:41 08.11.2019
4784 Haze 31 1009 74 3000 6.2 230 09:20 08.11.2019
4785 Haze 30 1009 74 3000 6.2 240 08:47 08.11.2019
4786 Haze 30 1010 74 3000 5.1 240 08:29 08.11.2019
4787 Haze 29 1010 83 2500 4.6 240 07:57 08.11.2019
4788 Rain 29 1011 78 2500 4.6 230 07:39 08.11.2019
4789 Rain 29 1011 78 2500 4.6 230 07:20 08.11.2019
4790 Haze 28 1011 78 2500 4.1 250 06:40 08.11.2019
4791 Haze 28 1011 78 2500 4.1 250 06:20 08.11.2019
4792 Haze 28 1011 83 2500 4.1 240 05:53 08.11.2019
4793 Rain 27 1011 88 2200 5.7 250 05:19 08.11.2019
4794 Thunderstorm 26 1010 88 1200 6.2 260 03:44 08.11.2019
4795 Thunderstorm 26 1009 94 2500 4.1 190 03:21 08.11.2019
4796 Thunderstorm 26 1009 94 1800 4.6 190 02:42 08.11.2019
4797 Thunderstorm 26 1008 94 2200 2.6 230 01:47 08.11.2019
4798 Thunderstorm 26 1008 88 2500 4.6 250 01:22 08.11.2019
4799 Thunderstorm 28 1008 74 3500 3.1 180 00:24 08.11.2019
4800 Thunderstorm 28 1008 74 3500 3.1 180 00:24 08.11.2019
4801 Haze 28 1007 78 3500 2.6 160 23:58 07.11.2019
4802 Haze 27 1007 78 3500 4.1 200 23:40 07.11.2019
4803 Haze 27 1007 78 3500 4.1 200 23:21 07.11.2019
4804 Haze 28 1007 78 3500 4.1 190 22:42 07.11.2019
4805 Haze 28 1008 74 3500 4.6 210 22:21 07.11.2019
4806 Haze 28 1008 78 3500 3.6 200 21:56 07.11.2019
4807 Haze 28 1008 78 3500 3.6 200 21:37 07.11.2019
4808 Haze 28 1008 78 3500 3.6 200 21:19 07.11.2019
4809 Haze 28 1008 78 3500 3.6 210 20:56 07.11.2019
4810 Haze 28 1009 78 3500 3.6 200 20:38 07.11.2019
4811 Haze 28 1009 78 3500 3.6 200 20:20 07.11.2019
4812 Haze 28 1009 78 3500 3.6 230 19:54 07.11.2019
4813 Haze 28 1009 78 3500 4.6 230 19:36 07.11.2019
4814 Haze 28 1009 78 3500 4.6 230 19:18 07.11.2019
4815 Haze 28 1009 78 3500 3.1 200 18:55 07.11.2019
4816 Haze 28 1009 78 3500 3.6 190 18:36 07.11.2019
4817 Haze 28 1009 78 3500 3.6 190 18:18 07.11.2019
4818 Haze 28 1009 78 3500 4.6 220 17:40 07.11.2019
4819 Haze 28 1009 78 3500 4.6 220 17:40 07.11.2019
4820 Haze 28 1009 78 3500 4.6 190 17:21 07.11.2019
4821 Haze 28 1009 78 3500 4.6 190 16:58 07.11.2019
4822 Haze 28 1009 74 3500 4.1 210 16:40 07.11.2019
4823 Haze 28 1009 74 3500 4.1 210 16:20 07.11.2019
4824 Haze 28 1009 78 3000 4.6 210 15:57 07.11.2019
4825 Haze 29 1008 74 3000 4.1 210 15:38 07.11.2019
4826 Haze 29 1008 74 3000 4.1 210 15:19 07.11.2019
4827 Haze 29 1008 74 3500 6.7 190 14:45 07.11.2019
4828 Haze 29 1008 74 3500 6.7 190 14:27 07.11.2019
4829 Haze 29 1007 74 4000 5.1 180 13:57 07.11.2019
4830 Haze 30 1007 70 5000 6.2 170 13:38 07.11.2019
4831 Clouds 30 1007 70 6000 5.1 170 13:20 07.11.2019
4832 Clouds 30 1007 70 6000 5.1 170 12:58 07.11.2019
4833 Clouds 30 1007 70 6000 4.1 190 12:40 07.11.2019
4834 Clouds 30 1007 70 6000 4.1 190 12:21 07.11.2019
4835 Clouds 30 1007 70 6000 4.1 190 12:21 07.11.2019
4836 Clouds 31 1007 62 6000 4.1 190 11:58 07.11.2019
4837 Clouds 32 1007 58 6000 4.1 220 11:39 07.11.2019
4838 Clouds 32 1007 55 6000 6.2 230 11:20 07.11.2019
4839 Clouds 32 1007 55 6000 6.2 170 10:40 07.11.2019
4840 Smoke 31 1008 58 4500 5.1 210 10:19 07.11.2019
4841 Haze 32 1008 58 4000 6.2 190 09:43 07.11.2019
4842 Haze 32 1008 58 4000 6.2 190 09:23 07.11.2019
4843 Haze 32 1008 58 4000 6.2 190 09:23 07.11.2019
4844 Haze 32 1008 58 4000 6.2 190 09:23 07.11.2019
4845 Haze 32 1008 58 4000 5.1 180 08:57 07.11.2019
4846 Haze 32 1009 62 3000 3.6 180 08:38 07.11.2019
4847 Haze 32 1009 62 3000 3.6 180 08:20 07.11.2019
4848 Haze 32 1009 66 3000 5.1 170 07:46 07.11.2019
4849 -273 0 0 0 0 0 07:45 07.11.2019
4850 Haze 32 1009 66 3000 3.6 160 07:23 07.11.2019
4851 Haze 32 1009 66 3000 3.6 160 07:22 07.11.2019
4852 Haze 31 1010 62 2500 6.2 190 06:58 07.11.2019
4853 Haze 31 1010 70 2500 4.6 160 06:40 07.11.2019
4854 Haze 30 1010 70 2500 5.1 170 06:21 07.11.2019
4855 Haze 30 1010 70 2500 5.1 170 06:21 07.11.2019
4856 Haze 30 1010 74 2500 2.1 170 05:47 07.11.2019
4857 Haze 30 1010 74 2500 2.1 170 05:29 07.11.2019
4858 Mist 29 1010 83 2000 4.6 160 04:49 07.11.2019
4859 Mist 28 1009 83 2500 2.6 170 03:32 07.11.2019
4860 Haze 27 1008 88 4000 2.6 110 01:18 07.11.2019
4861 Haze 27 1008 88 4000 3.1 140 00:23 07.11.2019
4862 -273 0 0 0 0 0 00:23 07.11.2019
4863 Haze 27 1008 88 4000 2.1 150 23:48 06.11.2019
4864 Haze 28 1008 83 5000 1.5 160 23:23 06.11.2019
4865 Haze 28 1008 83 5000 1.5 160 23:23 06.11.2019
4866 Haze 27 1008 88 5000 2.1 180 22:58 06.11.2019
4867 Clouds 28 1008 78 6000 2.8 173 22:39 06.11.2019
4868 Clouds 28 1008 78 6000 2.8 173 22:19 06.11.2019
4869 Clouds 27 1008 88 6000 1 220 21:57 06.11.2019
4870 Clouds 28 1008 78 6000 1 110 21:38 06.11.2019
4871 Clouds 28 1008 78 6000 2.1 130 21:19 06.11.2019
4872 Clouds 28 1008 78 6000 2.1 130 20:55 06.11.2019
4873 Clouds 28 1008 78 6000 1.5 180 20:36 06.11.2019
4874 Clouds 28 1008 78 6000 1.5 180 20:18 06.11.2019
4875 Clouds 28 1009 78 6000 2.6 210 19:40 06.11.2019
4876 Clouds 28 1009 78 6000 2.6 210 19:22 06.11.2019
4877 Smoke 28 1009 78 5000 2.1 230 18:59 06.11.2019
4878 Smoke 28 1009 78 5000 2.1 230 18:59 06.11.2019
4879 Smoke 28 1009 83 4000 2.1 210 18:39 06.11.2019
4880 Smoke 28 1009 83 4000 2.1 210 18:20 06.11.2019
4881 Smoke 28 1009 78 3500 3.1 210 17:59 06.11.2019
4882 Haze 29 1010 74 3000 4.1 240 17:41 06.11.2019
4883 Haze 29 1010 74 3000 4.1 240 17:22 06.11.2019
4884 Haze 29 1010 79 3000 2.6 270 16:57 06.11.2019
4885 Haze 29 1009 79 3000 2.1 270 16:38 06.11.2019
4886 Haze 29 1009 79 3000 2.1 270 16:19 06.11.2019
4887 Haze 29 1009 74 3000 4.1 270 15:57 06.11.2019
4888 Haze 29 1009 74 3000 3.6 290 15:37 06.11.2019
4889 Haze 29 1009 74 3000 3.6 290 15:19 06.11.2019
4890 Haze 30 1009 74 3000 3.6 290 14:57 06.11.2019
4891 Haze 30 1008 74 3500 4.1 310 14:38 06.11.2019
4892 Haze 31 1008 74 3500 4.1 310 14:20 06.11.2019
4893 Haze 31 1008 70 3500 3.6 300 13:57 06.11.2019
4894 Haze 31 1007 66 3500 4.6 290 13:37 06.11.2019
4895 Haze 31 1007 74 3000 4.6 300 13:18 06.11.2019
4896 Haze 30 1007 74 3000 4.6 300 12:54 06.11.2019
4897 Haze 31 1007 66 3000 5.7 260 12:36 06.11.2019
4898 Haze 31 1007 66 3000 5.7 260 12:18 06.11.2019
4899 Haze 31 1007 70 3000 4.6 300 11:54 06.11.2019
4900 Haze 31 1007 66 3000 5.1 290 11:36 06.11.2019
4901 Haze 32 1007 66 3000 5.1 290 11:18 06.11.2019
4902 Haze 33 1007 62 3000 5.7 280 10:42 06.11.2019
4903 Haze 33 1007 62 3000 5.7 280 10:23 06.11.2019
4904 Haze 33 1008 62 3000 5.7 300 09:58 06.11.2019
4905 Smoke 33 1008 58 3500 4.1 300 09:38 06.11.2019
4906 Smoke 33 1008 58 3500 4.1 300 09:20 06.11.2019
4907 Smoke 33 1009 55 3500 3.1 290 08:55 06.11.2019
4908 Smoke 32 1009 58 3500 5.1 290 08:36 06.11.2019
4909 Smoke 32 1010 55 3500 3.6 290 08:18 06.11.2019
4910 Smoke 32 1010 55 3500 3.6 290 07:41 06.11.2019
4911 Smoke 32 1010 58 3000 4.1 270 07:22 06.11.2019
4912 Smoke 31 1011 62 3000 3.6 290 06:47 06.11.2019
4913 Haze 31 1011 62 2500 5.1 290 06:28 06.11.2019
4914 Haze 31 1011 66 2200 1.5 220 05:32 06.11.2019
4915 Mist 27 1010 83 1800 2.6 130 02:54 06.11.2019
4916 Haze 27 1009 83 3000 1.5 40 01:41 06.11.2019
4917 Haze 27 1009 78 3500 1.5 340 00:46 06.11.2019
4918 Haze 27 1009 78 3500 1.5 340 00:46 06.11.2019
4919 Haze 27 1009 83 4000 1.58 107 23:59 05.11.2019
4920 Haze 28 1009 83 4000 2.1 120 23:40 05.11.2019
4921 Haze 28 1009 83 4000 2.1 120 23:21 05.11.2019
4922 Mist 28 1009 83 4000 1.85 96 22:55 05.11.2019
4923 Haze 28 1009 78 4000 1.85 96 22:37 05.11.2019
4924 Haze 28 1009 78 4000 1.85 96 22:18 05.11.2019
4925 Haze 28 1010 78 4000 1.85 96 21:42 05.11.2019
4926 Haze 28 1010 78 4000 1.85 96 21:21 05.11.2019
4927 Haze 29 1010 74 4000 1.5 130 20:59 05.11.2019
4928 Haze 29 1011 74 4000 1.85 96 20:39 05.11.2019
4929 Haze 29 1011 74 4000 1.28 24 20:21 05.11.2019
4930 Haze 29 1011 74 4000 2.1 180 19:58 05.11.2019
4931 Haze 29 1011 74 4000 2.1 180 19:58 05.11.2019
4932 Haze 29 1011 74 4000 1.28 24 19:38 05.11.2019
4933 Haze 29 1011 74 4000 1.28 24 19:20 05.11.2019
4934 Haze 29 1012 74 4000 1 330 18:58 05.11.2019
4935 Haze 29 1011 74 4000 1.5 50 18:39 05.11.2019
4936 Haze 29 1011 74 4000 1.5 50 18:20 05.11.2019
4937 Haze 29 1011 70 4000 3.6 340 17:58 05.11.2019
4938 Haze 30 1011 66 3500 3.6 320 17:39 05.11.2019
4939 Haze 30 1011 66 3500 3.6 320 17:19 05.11.2019
4940 Haze 30 1011 70 3000 2.6 320 16:55 05.11.2019
4941 Haze 30 1011 70 3000 2.1 340 16:37 05.11.2019
4942 Haze 30 1011 70 3000 2.1 340 16:18 05.11.2019
4943 Haze 30 1010 70 3000 3.1 330 15:38 05.11.2019
4944 Haze 30 1010 70 3000 3.1 330 15:19 05.11.2019
4945 Haze 31 1010 70 3000 4.1 340 14:58 05.11.2019
4946 Haze 31 1010 70 3000 4.1 330 14:39 05.11.2019
4947 Haze 32 1010 70 3000 4.1 330 14:21 05.11.2019
4948 Haze 32 1010 70 3000 4.1 330 14:21 05.11.2019
4949 Haze 32 1009 66 3000 3.1 320 13:55 05.11.2019
4950 Haze 32 1009 70 4000 3.1 310 13:37 05.11.2019
4951 Haze 32 1009 70 4000 3.1 310 13:18 05.11.2019
4952 Smoke 33 1009 66 4000 6.2 300 12:39 05.11.2019
4953 Smoke 33 1009 66 4000 6.2 300 12:20 05.11.2019
4954 Smoke 33 1009 59 3500 4.6 310 11:56 05.11.2019
4955 Smoke 33 1008 59 3500 5.1 310 11:37 05.11.2019
4956 Smoke 34 1009 59 3500 4.6 310 11:19 05.11.2019
4957 Smoke 34 1009 59 3500 4.6 310 10:44 05.11.2019
4958 Smoke 34 1009 59 3500 4.6 300 10:25 05.11.2019
4959 Haze 34 1009 52 3000 4.1 310 09:59 05.11.2019
4960 Haze 33 1010 58 3000 5.1 270 09:40 05.11.2019
4961 Haze 33 1010 58 3000 5.1 270 09:19 05.11.2019
4962 Haze 33 1011 62 3000 3.1 310 08:55 05.11.2019
4963 Haze 33 1011 62 3000 5.7 200 08:37 05.11.2019
4964 Haze 33 1011 62 3000 5.7 200 08:18 05.11.2019
4965 Haze 32 1012 55 3000 2.1 320 07:44 05.11.2019
4966 Haze 32 1012 55 3000 2.1 320 07:25 05.11.2019
4967 Haze 32 1013 70 3000 2.1 70 06:51 05.11.2019
4968 Haze 32 1014 66 3000 1.22 68 06:26 05.11.2019
4969 Haze 31 1014 74 2500 2.1 360 05:39 05.11.2019
4970 Haze 31 1014 74 2500 2.1 360 05:19 05.11.2019
4971 Mist 29 1013 83 2200 2.6 20 04:20 05.11.2019
4972 Haze 29 1013 83 1800 2.6 20 03:24 05.11.2019
4973 Haze 30 1012 83 3000 2.1 340 02:42 05.11.2019
4974 Haze 30 1012 83 3000 2.1 340 02:42 05.11.2019
4975 Haze 27 1012 88 3000 2.1 40 01:52 05.11.2019
4976 Haze 28 1012 83 3000 1.5 50 00:46 05.11.2019
4977 Haze 28 1012 78 3000 1.5 140 00:25 05.11.2019
4978 Haze 28 1012 78 3000 1.75 56 23:42 04.11.2019
4979 Haze 28 1012 83 3000 2.08 61 23:19 04.11.2019
4980 Haze 28 1012 83 3000 2.6 40 22:57 04.11.2019
4981 Haze 28 1012 78 3500 2.08 61 22:39 04.11.2019
4982 Haze 28 1012 78 3500 2.08 61 22:20 04.11.2019
4983 Haze 28 1012 83 3500 2.1 40 21:55 04.11.2019
4984 Haze 28 1012 78 3500 1.5 340 21:37 04.11.2019
4985 Haze 28 1012 78 3500 1.5 340 21:18 04.11.2019
4986 Haze 28 1013 83 3500 2.6 340 20:55 04.11.2019
4987 Haze 28 1013 83 3500 2.08 61 20:37 04.11.2019
4988 Haze 28 1013 83 3500 1.76 43 20:18 04.11.2019
4989 Haze 28 1013 83 3500 2.1 30 19:43 04.11.2019
4990 Haze 28 1013 83 3500 2.6 10 19:25 04.11.2019
4991 Haze 29 1014 79 3500 3.1 350 18:59 04.11.2019
4992 Haze 29 1014 79 3500 3.1 350 18:41 04.11.2019
4993 Haze 29 1014 83 3500 1.5 360 18:23 04.11.2019
4994 Haze 29 1014 83 3500 2.1 330 17:59 04.11.2019
4995 Haze 29 1014 83 3500 2.6 10 17:37 04.11.2019
4996 Haze 29 1014 83 3500 2.6 10 17:19 04.11.2019
4997 Haze 29 1014 83 3500 2.6 360 16:55 04.11.2019
4998 Haze 29 1014 83 3500 3.1 340 16:36 04.11.2019
4999 Haze 29 1014 83 3500 3.1 340 16:18 04.11.2019
5000 Haze 29 1013 83 3500 4.1 350 15:41 04.11.2019
5001 Haze 29 1013 83 3500 4.1 320 15:21 04.11.2019
5002 Haze 30 1013 83 3500 5.1 310 14:58 04.11.2019
5003 Haze 30 1013 83 3500 5.1 310 14:40 04.11.2019
5004 Haze 31 1013 79 4000 3.1 320 14:20 04.11.2019
5005 Haze 31 1013 79 4000 3.1 320 14:20 04.11.2019
5006 Haze 31 1012 79 4000 3.1 320 13:58 04.11.2019
5007 Haze 31 1012 79 4000 3.1 320 13:58 04.11.2019
5008 Haze 31 1012 79 4000 3.1 320 13:40 04.11.2019
5009 Haze 31 1012 79 4000 5.7 320 13:21 04.11.2019
5010 Haze 32 1012 74 4000 4.1 320 12:56 04.11.2019
5011 Haze 31 1012 74 4000 6.2 320 12:38 04.11.2019
5012 Haze 31 1012 74 4000 6.2 320 12:18 04.11.2019
5013 Haze 31 1012 74 4000 6.7 300 11:43 04.11.2019
5014 Haze 33 1012 70 4000 6.7 300 11:23 04.11.2019
5015 Haze 33 1012 70 4000 6.2 300 10:59 04.11.2019
5016 Haze 33 1012 70 4000 6.2 300 10:41 04.11.2019
5017 Haze 33 1012 66 5000 8.2 320 10:23 04.11.2019
5018 Haze 33 1012 66 4000 4.1 310 09:45 04.11.2019
5019 Haze 32 1013 66 4000 5.1 300 09:27 04.11.2019
5020 Haze 32 1013 70 4000 4.6 300 08:58 04.11.2019
5021 Haze 32 1014 66 3500 3.6 330 08:38 04.11.2019
5022 Haze 32 1014 66 3500 3.6 330 08:19 04.11.2019
5023 Haze 32 1014 66 3500 3.6 330 08:19 04.11.2019
5024 Haze 32 1014 66 3500 3.6 50 07:43 04.11.2019
5025 Haze 32 1015 66 3500 0.33 296 07:23 04.11.2019
5026 Haze 32 1015 70 3500 2.1 50 06:57 04.11.2019
5027 Haze 31 1016 70 3000 2.6 330 06:33 04.11.2019
5028 Haze 30 1016 74 3000 2.1 350 05:48 04.11.2019
5029 Haze 29 1016 74 3000 2.6 340 04:43 04.11.2019
5030 Haze 29 1015 74 2500 1.73 63 04:21 04.11.2019
5031 Haze 29 1015 74 2500 1.73 63 04:21 04.11.2019
5032 Mist 29 1014 83 2000 1.73 63 02:32 04.11.2019
5033 Mist 27 1014 83 2500 1.5 50 01:22 04.11.2019
5034 Mist 27 1013 83 2500 1 0 00:41 04.11.2019
5035 Mist 27 1013 83 2500 2.38 41 00:20 04.11.2019
5036 Mist 27 1013 83 2500 2.38 41 23:43 03.11.2019
5037 Mist 27 1013 78 3000 1.5 30 23:21 03.11.2019
5038 Mist 27 1013 83 3000 1.5 20 22:59 03.11.2019
5039 Mist 27 1013 83 3000 1.5 20 22:41 03.11.2019
5040 Mist 27 1013 83 3000 1.5 40 22:20 03.11.2019
5041 Mist 27 1013 83 3000 1.5 40 21:58 03.11.2019
5042 Mist 27 1013 83 3000 1.5 40 21:39 03.11.2019
5043 Mist 27 1013 83 3000 1.5 40 21:20 03.11.2019
5044 Mist 28 1014 78 3000 1.5 100 20:55 03.11.2019
5045 Mist 28 1014 78 3000 1.5 60 20:36 03.11.2019
5046 Mist 28 1014 78 3000 1.5 60 20:18 03.11.2019
5047 Mist 28 1014 78 3000 2.1 100 19:55 03.11.2019
5048 Mist 28 1014 78 3000 2.1 130 19:37 03.11.2019
5049 Mist 28 1014 78 3000 2.1 130 19:19 03.11.2019
5050 Haze 28 1014 78 3000 1 100 18:39 03.11.2019
5051 Haze 28 1014 78 3000 1 100 18:19 03.11.2019
5052 Haze 28 1015 78 3000 1.5 340 17:58 03.11.2019
5053 Haze 29 1015 74 3000 2.1 340 17:40 03.11.2019
5054 Haze 29 1015 74 3000 2.1 340 17:40 03.11.2019
5055 Haze 29 1015 74 3000 2.1 340 17:19 03.11.2019
5056 Mist 29 1015 74 3000 2.1 330 16:55 03.11.2019
5057 Haze 29 1015 74 3000 1.5 320 16:37 03.11.2019
5058 Haze 29 1015 74 3000 1.5 320 16:19 03.11.2019
5059 Haze 28 1014 78 3000 3.6 240 15:56 03.11.2019
5060 Haze 28 1014 78 3500 2.6 270 15:38 03.11.2019
5061 Haze 28 1014 78 3500 2.6 270 15:20 03.11.2019
5062 Haze 30 1013 74 4000 3.6 250 14:40 03.11.2019
5063 Haze 30 1013 74 4000 3.6 250 14:19 03.11.2019
5064 Haze 31 1012 74 5000 3.6 250 13:56 03.11.2019
5065 Haze 31 1012 70 5000 4.1 250 13:37 03.11.2019
5066 Haze 31 1012 70 5000 4.1 250 13:18 03.11.2019
5067 Haze 31 1012 70 5000 4.1 250 13:18 03.11.2019
5068 Clouds 31 1012 58 6000 4.6 260 12:38 03.11.2019
5069 Clouds 32 1012 58 6000 4.6 260 12:19 03.11.2019
5070 Haze 32 1011 58 6000 4.6 260 11:57 03.11.2019
5071 Clouds 32 1011 58 6000 5.7 250 11:39 03.11.2019
5072 Clouds 32 1011 58 6000 5.7 250 11:20 03.11.2019
5073 Clouds 32 1011 58 6000 5.1 240 10:42 03.11.2019
5074 Clouds 32 1011 62 6000 5.7 240 10:22 03.11.2019
5075 Clouds 32 1012 66 6000 4.6 260 09:59 03.11.2019
5076 Clouds 32 1012 66 6000 4.6 260 09:41 03.11.2019
5077 Smoke 33 1012 62 5000 4.6 250 09:23 03.11.2019
5078 Haze 32 1012 62 5000 3.6 280 08:55 03.11.2019
5079 Smoke 32 1013 66 5000 3.1 240 08:36 03.11.2019
5080 Smoke 32 1013 66 5000 3.1 240 08:18 03.11.2019
5081 Smoke 32 1013 62 5000 3.1 230 07:43 03.11.2019
5082 Smoke 32 1014 55 4500 1.5 140 07:18 03.11.2019
5083 Haze 32 1014 62 4000 1.38 183 06:39 03.11.2019
5084 Haze 31 1015 66 4000 3.1 100 05:41 03.11.2019
5085 Haze 31 1015 66 4000 2.6 110 05:19 03.11.2019
5086 Haze 30 1015 66 4000 3.1 110 04:48 03.11.2019
5087 Haze 29 1014 78 3000 3.1 110 03:50 03.11.2019
5088 Haze 28 1013 78 3000 1.5 90 02:47 03.11.2019
5089 Haze 27 1013 78 3000 0.88 85 02:21 03.11.2019
5090 Haze 27 1012 78 3000 0.88 85 01:49 03.11.2019
5091 Haze 27 1012 78 3000 2.1 80 01:24 03.11.2019
5092 Haze 27 1012 78 3000 1.5 80 00:57 03.11.2019
5093 Haze 27 1012 78 3500 1.5 150 00:37 03.11.2019
5094 Haze 27 1012 78 3500 1.5 150 00:18 03.11.2019
5095 Haze 27 1012 83 3500 2.1 150 23:39 02.11.2019
5096 Haze 27 1012 83 3500 2.1 150 23:20 02.11.2019
5097 Haze 27 1012 83 3500 2.1 80 22:56 02.11.2019
5098 Haze 28 1012 74 3500 2.6 130 22:38 02.11.2019
5099 Haze 28 1012 74 3500 2.6 130 22:38 02.11.2019
5100 Haze 28 1012 74 3500 2.6 130 22:19 02.11.2019
5101 Haze 28 1012 74 3500 2.1 100 21:57 02.11.2019
5102 Haze 27 1012 83 3500 2.1 110 21:38 02.11.2019
5103 Haze 27 1012 83 3500 2.1 110 21:19 02.11.2019
5104 Haze 27 1012 83 3500 2.1 110 21:19 02.11.2019
5105 Haze 27 1012 83 3500 2.1 110 21:19 02.11.2019
5106 Haze 28 1012 78 3500 2.1 100 20:59 02.11.2019
5107 Haze 28 1012 78 3500 2.1 100 20:41 02.11.2019
5108 Haze 28 1012 74 3500 2.1 120 20:21 02.11.2019
5109 Haze 28 1013 74 3500 2.1 130 19:58 02.11.2019
5110 Haze 28 1013 74 3500 3.1 130 19:36 02.11.2019
5111 Haze 28 1013 74 3500 3.1 130 19:18 02.11.2019
5112 Haze 28 1013 74 3500 2.6 130 18:54 02.11.2019
5113 Haze 28 1013 74 3500 3.1 120 18:36 02.11.2019
5114 Haze 28 1013 74 3500 3.1 120 18:18 02.11.2019
5115 Haze 28 1013 78 3500 3.1 120 17:43 02.11.2019
5116 Haze 28 1013 83 3500 2.6 140 17:25 02.11.2019
5117 Haze 29 1013 79 3500 2.1 170 16:59 02.11.2019
5118 Haze 29 1012 79 4000 2.1 180 16:39 02.11.2019
5119 Haze 29 1012 79 4000 2.1 180 16:20 02.11.2019
5120 Haze 29 1012 74 4000 2.6 170 15:43 02.11.2019
5121 Haze 29 1012 70 4000 3.1 170 15:21 02.11.2019
5122 Haze 30 1011 70 5000 4.1 180 14:57 02.11.2019
5123 Haze 30 1011 70 5000 4.1 190 14:39 02.11.2019
5124 Haze 30 1011 70 5000 4.1 190 14:21 02.11.2019
5125 Haze 30 1010 70 5000 5.1 190 13:40 02.11.2019
5126 Clouds 31 1010 66 6000 4.1 210 13:20 02.11.2019
5127 Clouds 31 1010 66 6000 3.6 230 12:59 02.11.2019
5128 Clouds 31 1010 66 6000 5.7 220 12:40 02.11.2019
5129 Clouds 31 1010 66 6000 5.7 220 12:21 02.11.2019
5130 Clouds 32 1009 58 6000 6.2 230 11:55 02.11.2019
5131 Clouds 32 1009 58 6000 6.7 230 11:37 02.11.2019
5132 Clouds 32 1009 58 6000 6.7 230 11:37 02.11.2019
5133 Clouds 32 1009 58 6000 6.7 230 11:19 02.11.2019
5134 Clouds 33 1010 59 6000 4.1 230 10:43 02.11.2019
5135 Clouds 33 1010 59 6000 4.1 230 10:24 02.11.2019
5136 Clouds 33 1010 55 6000 2.6 220 09:43 02.11.2019
5137 Clouds 33 1010 52 6000 3.6 190 09:22 02.11.2019
5138 Clouds 33 1011 52 6000 4.1 200 08:57 02.11.2019
5139 Clouds 33 1011 52 6000 3.1 180 08:38 02.11.2019
5140 Clouds 33 1011 52 6000 3.1 180 08:18 02.11.2019
5141 Clouds 32 1012 55 6000 2.6 120 07:45 02.11.2019
5142 Clouds 32 1012 55 6000 2.6 120 07:26 02.11.2019
5143 Clouds 32 1012 55 6000 2.6 120 07:26 02.11.2019
5144 Smoke 32 1012 52 5000 3.6 120 06:52 02.11.2019
5145 Smoke 31 1013 62 5000 2.6 100 06:25 02.11.2019
5146 Haze 31 1013 62 5000 4.6 100 05:54 02.11.2019
5147 Haze 30 1012 62 4000 2.6 110 04:46 02.11.2019
5148 Haze 29 1012 69 3000 3.1 120 04:19 02.11.2019
5149 Mist 27 1011 74 2100 2.6 80 03:33 02.11.2019
5150 Mist 26 1010 78 2500 2.6 100 02:32 02.11.2019
5151 Mist 26 1010 83 2500 2.6 80 01:41 02.11.2019
5152 Mist 26 1009 83 2500 3.1 110 01:19 02.11.2019
5153 Haze 26 1009 83 2500 3.1 90 00:42 02.11.2019
5154 Haze 26 1009 83 2500 3.1 90 00:23 02.11.2019
5155 Haze 26 1009 83 2500 2.6 90 23:42 01.11.2019
5156 Haze 26 1009 83 2500 2.6 100 23:20 01.11.2019
5157 Haze 26 1009 83 2500 2.6 110 22:43 01.11.2019
5158 Haze 26 1009 88 2500 3.6 100 22:22 01.11.2019
5159 Haze 26 1009 88 2500 3.6 100 22:22 01.11.2019
5160 Haze 26 1009 88 2500 2.1 80 21:56 01.11.2019
5161 Thunderstorm 25 1009 94 2500 1.5 80 21:38 01.11.2019
5162 Thunderstorm 25 1009 94 2500 1.5 80 21:19 01.11.2019
5163 Thunderstorm 25 1010 94 2500 2.6 120 20:42 01.11.2019
5164 Thunderstorm 25 1010 94 2200 2.1 180 20:24 01.11.2019
5165 Thunderstorm 25 1010 94 1500 2.1 160 20:00 01.11.2019
5166 Thunderstorm 25 1010 94 500 6.2 160 19:41 01.11.2019
5167 Thunderstorm 25 1010 94 500 6.2 160 19:22 01.11.2019
5168 Thunderstorm 25 1010 94 500 6.2 160 19:22 01.11.2019
5169 Thunderstorm 26 1010 94 2500 4.6 240 18:57 01.11.2019
5170 Thunderstorm 27 1010 88 2500 2.6 200 18:38 01.11.2019
5171 Thunderstorm 27 1010 88 2500 2.6 200 18:18 01.11.2019
5172 Rain 27 1010 88 2500 2.6 170 17:41 01.11.2019
5173 Rain 29 1010 88 2500 2.6 170 17:23 01.11.2019
5174 Thunderstorm 29 1010 100 2500 2.6 190 16:58 01.11.2019
5175 Thunderstorm 29 1010 100 2500 2.1 230 16:36 01.11.2019
5176 Thunderstorm 29 1010 100 2500 2.1 230 16:18 01.11.2019
5177 Thunderstorm 25 1009 100 2500 4.1 230 15:40 01.11.2019
5178 Thunderstorm 25 1009 100 2500 4.1 230 15:22 01.11.2019
5179 Thunderstorm 26 1008 100 2200 5.7 200 14:57 01.11.2019
5180 Thunderstorm 27 1008 88 3000 2.6 200 14:39 01.11.2019
5181 Thunderstorm 29 1008 88 3000 2.6 200 14:21 01.11.2019
5182 Thunderstorm 29 1008 83 3000 3.1 270 13:55 01.11.2019
5183 Thunderstorm 30 1007 83 3000 3.6 230 13:36 01.11.2019
5184 Thunderstorm 30 1007 83 3000 3.6 230 13:18 01.11.2019
5185 Thunderstorm 30 1007 83 3000 3.6 230 13:18 01.11.2019
5186 Thunderstorm 30 1007 78 3000 4.1 270 12:43 01.11.2019
5187 Rain 32 1006 66 3000 6.2 250 12:24 01.11.2019
5188 Clouds 33 1006 52 6000 2.6 120 11:43 01.11.2019
5189 Clouds 33 1006 52 6000 2.6 120 11:43 01.11.2019
5190 Clouds 34 1006 49 6000 3.1 120 11:25 01.11.2019
5191 Clouds 34 1006 49 6000 3.6 120 10:58 01.11.2019
5192 Clouds 34 1006 52 6000 3.1 150 10:39 01.11.2019
5193 Clouds 34 1006 52 6000 3.1 150 10:20 01.11.2019
5194 Clouds 34 1007 49 6000 3.6 160 09:45 01.11.2019
5195 Clouds 34 1007 55 6000 3.1 130 09:26 01.11.2019
5196 Clouds 34 1007 52 6000 3.1 120 08:58 01.11.2019
5197 Clouds 34 1007 52 6000 3.1 120 08:40 01.11.2019
5198 Clouds 34 1008 55 6000 2.1 130 08:20 01.11.2019
5199 Clouds 34 1008 52 6000 2.1 150 07:52 01.11.2019
5200 Clouds 34 1009 52 6000 1.5 110 07:25 01.11.2019
5201 Smoke 34 1009 52 5000 3.6 130 06:56 01.11.2019
5202 Smoke 33 1009 52 4000 3.6 70 06:37 01.11.2019
5203 Smoke 33 1009 52 4000 2.6 300 06:18 01.11.2019
5204 Smoke 32 1009 58 4000 3.1 130 05:41 01.11.2019
5205 Smoke 30 1008 66 3000 2.6 120 03:33 01.11.2019
5206 Smoke 28 1007 69 3000 3.64 74 01:51 01.11.2019
5207 Smoke 28 1007 69 3000 3.25 67 01:26 01.11.2019
5208 Smoke 29 1006 66 5000 3.25 67 00:21 01.11.2019
5209 Smoke 29 1006 66 5000 1.5 150 23:56 31.10.2019
5210 Smoke 29 1006 66 5000 1.5 120 23:38 31.10.2019
5211 Smoke 29 1006 66 5000 1.5 120 23:19 31.10.2019
5212 Clouds 29 1007 66 6000 1.5 140 22:42 31.10.2019
5213 Clouds 30 1007 62 6000 2.1 130 22:24 31.10.2019
5214 Clouds 30 1007 58 6000 2.1 130 21:57 31.10.2019
5215 Clouds 30 1008 62 6000 2.6 50 21:39 31.10.2019
5216 Clouds 30 1008 62 6000 2.6 50 21:18 31.10.2019
5217 Clouds 30 1008 58 6000 3.6 110 20:41 31.10.2019
5218 Clouds 30 1009 58 6000 2.6 120 20:23 31.10.2019
5219 Clouds 30 1009 58 6000 4.1 80 19:59 31.10.2019
5220 Clouds 30 1009 62 6000 2.6 60 19:38 31.10.2019
5221 Clouds 30 1009 62 6000 2.6 60 19:20 31.10.2019
5222 Smoke 30 1009 62 5000 3.6 50 18:44 31.10.2019
5223 Smoke 31 1009 58 5000 4.6 80 18:26 31.10.2019
5224 Smoke 31 1009 58 5000 4.6 60 17:59 31.10.2019
5225 Smoke 31 1009 58 5000 3.1 50 17:41 31.10.2019
5226 Smoke 31 1009 58 5000 3.1 50 17:20 31.10.2019
5227 Smoke 32 1009 55 5000 2.6 40 16:55 31.10.2019
5228 Smoke 32 1009 55 5000 3.1 60 16:37 31.10.2019
5229 Smoke 32 1009 55 5000 3.1 60 16:18 31.10.2019
5230 Smoke 32 1008 55 5000 2.6 10 15:40 31.10.2019
5231 Smoke 32 1008 55 5000 2.6 50 15:22 31.10.2019
5232 Smoke 32 1008 55 5000 2.6 50 15:22 31.10.2019
5233 Smoke 32 1008 55 5000 3.6 80 14:59 31.10.2019
5234 Smoke 32 1008 55 5000 3.6 80 14:41 31.10.2019
5235 Smoke 33 1007 55 5000 2.6 50 14:22 31.10.2019
5236 Clouds 33 1007 52 6000 3.1 20 13:59 31.10.2019
5237 Clouds 33 1007 49 6000 3.1 60 13:39 31.10.2019
5238 Clouds 33 1007 49 6000 3.1 60 13:19 31.10.2019
5239 Clouds 33 1007 49 6000 3.6 100 12:57 31.10.2019
5240 Clouds 33 1007 49 6000 3.6 100 12:38 31.10.2019
5241 Clouds 33 1007 49 6000 3.6 100 12:18 31.10.2019
5242 Clouds 33 1007 49 6000 2.1 100 11:45 31.10.2019
5243 Clouds 34 1007 46 6000 4.6 70 11:21 31.10.2019
5244 Clouds 34 1007 49 6000 5.1 120 10:58 31.10.2019
5245 Clouds 34 1007 49 6000 3.6 70 10:39 31.10.2019
5246 Clouds 34 1007 49 6000 3.6 70 10:21 31.10.2019
5247 Clouds 33 1008 52 6000 3.6 100 09:54 31.10.2019
5248 Smoke 33 1008 49 5000 3.6 110 09:36 31.10.2019
5249 Smoke 33 1008 49 5000 3.6 110 09:18 31.10.2019
5250 Smoke 32 1009 55 4000 3.1 90 08:43 31.10.2019
5251 Smoke 33 1009 52 4000 3.6 140 08:24 31.10.2019
5252 Smoke 32 1010 49 4000 3.6 110 07:48 31.10.2019
5253 Smoke 32 1010 55 4000 3.1 60 07:26 31.10.2019
5254 Smoke 32 1011 55 3000 3.1 140 06:53 31.10.2019
5255 Smoke 32 1011 55 3000 3.1 140 06:32 31.10.2019
5256 Smoke 31 1011 55 2500 3.6 80 05:20 31.10.2019
5257 Haze 29 1009 69 2500 3.1 50 02:50 31.10.2019
5258 Haze 29 1009 69 2500 3.6 50 02:27 31.10.2019
5259 Haze 28 1008 65 2500 2.6 50 01:21 31.10.2019
5260 Haze 28 1008 61 2500 2.6 70 00:26 31.10.2019
5261 Haze 28 1009 61 2500 1.5 110 23:49 30.10.2019
5262 Haze 28 1009 61 2500 3.6 70 23:25 30.10.2019
5263 Haze 28 1009 65 2500 2.6 120 22:42 30.10.2019
5264 Haze 28 1009 69 2500 2.6 110 22:20 30.10.2019
5265 Haze 28 1009 69 2500 2.1 110 21:55 30.10.2019
5266 Haze 28 1009 69 2500 1.5 110 21:37 30.10.2019
5267 Haze 28 1009 69 2500 1.5 110 21:18 30.10.2019
5268 Haze 29 1010 66 2500 2.1 130 20:58 30.10.2019
5269 Haze 29 1010 66 2500 3.1 50 20:39 30.10.2019
5270 Haze 29 1010 66 2500 3.1 50 20:21 30.10.2019
5271 Haze 29 1010 66 2500 2.6 70 19:54 30.10.2019
5272 Haze 29 1010 70 2500 1.5 130 19:36 30.10.2019
5273 Haze 29 1010 70 2500 1.5 130 19:18 30.10.2019
5274 Haze 30 1010 66 3000 2.6 110 18:39 30.10.2019
5275 Haze 30 1010 66 3000 2.6 110 18:19 30.10.2019
5276 Haze 30 1010 66 3000 2.6 110 18:19 30.10.2019
5277 Haze 31 1010 58 3000 2.6 70 17:57 30.10.2019
5278 Haze 31 1010 58 3000 2.1 70 17:38 30.10.2019
5279 Haze 31 1010 58 3000 2.1 70 17:18 30.10.2019
5280 Smoke 31 1010 58 3000 3.6 60 16:55 30.10.2019
5281 Smoke 31 1010 58 3000 3.6 60 16:55 30.10.2019
5282 Smoke 31 1010 55 3000 2.6 50 16:37 30.10.2019
5283 Smoke 31 1010 55 3000 2.6 50 16:18 30.10.2019
5284 Smoke 31 1009 55 3000 3.1 40 15:54 30.10.2019
5285 Smoke 32 1008 59 3000 2.6 350 15:36 30.10.2019
5286 Smoke 32 1008 59 3000 2.6 350 15:18 30.10.2019
5287 Smoke 32 1008 52 3000 2.1 60 14:41 30.10.2019
5288 Smoke 32 1008 49 3500 3.1 40 14:22 30.10.2019
5289 Smoke 33 1008 52 4000 3.1 50 13:58 30.10.2019
5290 Haze 32 1007 66 4000 1.5 0 13:40 30.10.2019
5291 Haze 32 1007 66 4000 1.5 0 13:20 30.10.2019
5292 Smoke 34 1007 52 4000 2.1 250 12:56 30.10.2019
5293 Smoke 34 1007 56 4000 1.5 240 12:37 30.10.2019
5294 Smoke 34 1007 56 4000 1.5 240 12:19 30.10.2019
5295 Smoke 34 1007 56 4000 1.5 240 11:41 30.10.2019
5296 Smoke 34 1007 56 4000 2.1 240 11:22 30.10.2019
5297 Smoke 34 1007 63 4000 4.6 290 10:45 30.10.2019
5298 Smoke 34 1007 63 4000 4.6 290 10:45 30.10.2019
5299 Smoke 35 1007 50 4000 1.5 150 10:26 30.10.2019
5300 Smoke 34 1008 49 4000 2.6 110 09:58 30.10.2019
5301 Smoke 34 1008 49 4000 2.6 110 09:58 30.10.2019
5302 Smoke 34 1008 49 4000 2.6 110 09:58 30.10.2019
5303 Smoke 34 1009 56 4000 2.1 240 09:39 30.10.2019
5304 Smoke 35 1009 56 4000 2.1 240 09:19 30.10.2019
5305 Smoke 34 1009 52 4000 3.1 120 08:41 30.10.2019
5306 Smoke 34 1010 52 4000 3.1 150 08:41 30.10.2019
5307 Smoke 34 1010 52 4000 3.1 150 08:22 30.10.2019
5308 Smoke 34 1011 52 4000 3.1 110 07:56 30.10.2019
5309 Smoke 34 1011 55 3000 3.1 110 07:37 30.10.2019
5310 Smoke 34 1011 55 3000 3.1 110 07:37 30.10.2019
5311 Smoke 33 1011 55 3000 2.6 100 06:46 30.10.2019
5312 Smoke 33 1012 55 3000 2.1 110 06:27 30.10.2019
5313 Haze 32 1012 59 2500 3.1 100 05:54 30.10.2019
5314 Haze 32 1012 62 2500 2.6 100 05:35 30.10.2019
5315 Haze 30 1011 66 2500 2.6 80 03:50 30.10.2019
5316 Smoke 29 1011 69 2500 3.1 60 03:21 30.10.2019
5317 Smoke 29 1010 69 2500 2.6 80 02:48 30.10.2019
5318 Smoke 28 1010 69 2500 2.1 80 01:42 30.10.2019
5319 Smoke 28 1010 69 2500 2.1 60 00:37 30.10.2019
5320 Smoke 28 1010 69 2500 2.1 60 00:18 30.10.2019
5321 Smoke 28 1010 74 2500 3.1 80 23:39 29.10.2019
5322 Smoke 28 1010 74 2500 3.1 80 23:18 29.10.2019
5323 Smoke 28 1010 78 2500 1.45 64 22:41 29.10.2019
5324 Smoke 28 1010 83 2500 2.1 40 22:19 29.10.2019
5325 Smoke 29 1010 79 2500 2.1 20 21:55 29.10.2019
5326 Smoke 28 1010 78 2500 2.1 40 21:36 29.10.2019
5327 Smoke 28 1010 78 2500 2.1 40 21:18 29.10.2019
5328 Smoke 29 1011 79 2500 2.1 70 20:42 29.10.2019
5329 Smoke 29 1011 79 2500 2.1 70 20:23 29.10.2019
5330 Smoke 29 1011 79 2500 2.1 50 19:59 29.10.2019
5331 Smoke 29 1011 79 2500 1.5 0 19:40 29.10.2019
5332 Smoke 29 1011 79 2500 1.5 0 19:21 29.10.2019
5333 Smoke 29 1012 79 2500 1.5 10 18:58 29.10.2019
5334 Smoke 30 1011 74 2500 1.5 310 18:40 29.10.2019
5335 Smoke 30 1011 74 2500 1.5 310 18:20 29.10.2019
5336 Smoke 30 1011 74 2500 2.6 20 17:57 29.10.2019
5337 Smoke 30 1011 74 2500 2.6 330 17:38 29.10.2019
5338 Smoke 30 1011 74 2500 2.6 330 17:20 29.10.2019
5339 Haze 30 1011 74 3000 1.5 340 16:57 29.10.2019
5340 Haze 31 1011 70 3000 3.6 30 16:38 29.10.2019
5341 Haze 31 1011 70 3000 3.6 30 16:18 29.10.2019
5342 Haze 31 1011 66 3000 2.1 350 15:42 29.10.2019
5343 Haze 31 1010 66 3000 2.1 300 15:21 29.10.2019
5344 Haze 31 1010 70 3000 2.6 300 14:58 29.10.2019
5345 Haze 31 1009 66 3000 3.1 300 14:39 29.10.2019
5346 Haze 32 1009 66 3000 3.1 300 14:21 29.10.2019
5347 Haze 32 1009 66 4000 3.1 290 13:57 29.10.2019
5348 Haze 32 1008 66 4000 4.1 280 13:38 29.10.2019
5349 Haze 32 1008 66 4000 4.1 280 13:20 29.10.2019
5350 Haze 32 1008 66 4000 4.6 270 12:43 29.10.2019
5351 Haze 32 1008 62 4000 4.6 260 12:25 29.10.2019
5352 Haze 32 1009 62 4000 4.6 270 11:55 29.10.2019
5353 Haze 33 1009 62 4000 5.1 270 11:37 29.10.2019
5354 Haze 33 1009 62 4000 5.1 270 11:18 29.10.2019
5355 Haze 33 1009 62 4000 4.6 270 10:56 29.10.2019
5356 Haze 33 1010 70 3500 4.6 260 10:38 29.10.2019
5357 Haze 33 1010 70 3500 4.6 260 10:19 29.10.2019
5358 Smoke 33 1010 62 3500 4.1 280 09:41 29.10.2019
5359 Smoke 33 1010 62 3500 4.1 280 09:23 29.10.2019
5360 Smoke 33 1011 62 3500 3.6 290 08:57 29.10.2019
5361 Smoke 34 1011 55 4000 2.6 90 08:38 29.10.2019
5362 Smoke 33 1011 55 4000 2.6 90 08:20 29.10.2019
5363 Smoke 33 1011 52 4000 3.1 130 07:47 29.10.2019
5364 Smoke 33 1012 52 3000 3.6 130 07:20 29.10.2019
5365 Smoke 33 1012 55 3000 2.1 120 06:53 29.10.2019
5366 Haze 32 1013 59 3000 2.1 160 06:29 29.10.2019
5367 Haze 31 1013 62 3000 2.6 90 05:54 29.10.2019
5368 Haze 31 1013 66 3000 3.1 100 05:36 29.10.2019
5369 Haze 28 1012 74 2500 3.6 60 04:39 29.10.2019
5370 Haze 29 1011 83 2100 3.1 30 02:39 29.10.2019
5371 Haze 27 1010 83 2200 2.6 80 01:56 29.10.2019
5372 Haze 27 1010 83 2200 2.1 83 01:35 29.10.2019
5373 Haze 27 1010 83 2500 2.1 80 00:52 29.10.2019
5374 Haze 27 1010 83 2500 2.1 60 00:24 29.10.2019
5375 Haze 28 1010 78 2500 1.5 70 23:38 28.10.2019
5376 Haze 28 1010 78 2500 1.5 70 23:20 28.10.2019
5377 Haze 28 1010 78 2500 1.5 70 23:20 28.10.2019
5378 Haze 28 1010 78 2500 1.5 70 23:20 28.10.2019
5379 Haze 28 1010 69 2500 2.6 130 22:40 28.10.2019
5380 Haze 28 1010 69 2500 2.6 130 22:20 28.10.2019
5381 Haze 28 1011 69 2500 1.5 70 21:59 28.10.2019
5382 Haze 28 1011 69 2500 1.5 70 21:41 28.10.2019
5383 Haze 29 1011 66 3000 1.5 110 21:22 28.10.2019
5384 Haze 28 1011 74 3000 1.5 60 20:59 28.10.2019
5385 Haze 28 1011 74 3000 1.5 60 20:40 28.10.2019
5386 Haze 29 1012 66 3000 1.5 40 20:21 28.10.2019
5387 Haze 29 1012 66 3000 1.5 40 20:21 28.10.2019
5388 Haze 29 1012 66 3000 2.6 330 19:54 28.10.2019
5389 Haze 29 1012 66 3000 2.6 70 19:36 28.10.2019
5390 Haze 29 1012 66 3000 2.6 70 19:36 28.10.2019
5391 Haze 29 1012 66 3000 2.6 70 19:18 28.10.2019
5392 Haze 29 1012 66 3000 2.1 40 18:57 28.10.2019
5393 Haze 29 1012 66 3000 1.5 330 18:38 28.10.2019
5394 Haze 29 1012 66 3000 1.5 330 18:20 28.10.2019
5395 Haze 29 1012 66 3000 2.1 220 17:55 28.10.2019
5396 Haze 29 1012 66 3000 2.1 240 17:36 28.10.2019
5397 Haze 29 1012 66 3000 2.1 240 17:18 28.10.2019
5398 Haze 29 1012 66 3000 2.1 240 17:18 28.10.2019
5399 Haze 29 1012 66 3000 2.6 240 16:54 28.10.2019
5400 Smoke 29 1011 66 4000 1.5 190 16:36 28.10.2019
5401 Smoke 29 1011 66 4000 1.5 190 16:18 28.10.2019
5402 Smoke 29 1011 62 4000 2.1 230 15:55 28.10.2019
5403 Smoke 29 1010 66 4000 2.1 240 15:37 28.10.2019
5404 Smoke 29 1010 66 4000 2.1 240 15:18 28.10.2019
5405 Smoke 30 1010 62 4000 2.1 250 14:54 28.10.2019
5406 Smoke 30 1009 62 4000 4.1 250 14:36 28.10.2019
5407 Smoke 30 1009 62 4000 4.1 250 14:18 28.10.2019
5408 Smoke 31 1009 58 4000 4.1 250 13:41 28.10.2019
5409 Smoke 31 1009 58 4000 4.1 250 13:18 28.10.2019
5410 Smoke 31 1009 55 4000 4.1 270 12:58 28.10.2019
5411 Smoke 31 1008 58 4000 4.6 250 12:40 28.10.2019
5412 Smoke 32 1008 58 4000 4.6 250 12:19 28.10.2019
5413 Smoke 32 1009 55 4000 4.6 270 11:38 28.10.2019
5414 Smoke 32 1009 55 4000 4.6 270 11:38 28.10.2019
5415 Smoke 32 1009 55 4000 4.6 270 11:19 28.10.2019
5416 Smoke 33 1009 52 5000 4.6 280 10:42 28.10.2019
5417 Smoke 33 1009 52 4000 6.2 260 10:24 28.10.2019
5418 Smoke 33 1009 46 3000 4.1 270 09:58 28.10.2019
5419 Smoke 33 1009 43 3000 2.1 220 09:39 28.10.2019
5420 Smoke 33 1009 43 3000 2.1 220 09:20 28.10.2019
5421 Smoke 33 1010 43 3000 5.1 220 08:57 28.10.2019
5422 Smoke 33 1010 46 3000 3.6 200 08:39 28.10.2019
5423 Smoke 33 1010 46 3000 3.6 200 08:19 28.10.2019
5424 Smoke 32 1011 52 3000 2.1 310 07:57 28.10.2019
5425 Smoke 32 1011 55 3000 1.5 230 07:38 28.10.2019
5426 Smoke 32 1011 55 3000 1.5 230 07:20 28.10.2019
5427 Haze 32 1012 62 3000 2.1 130 06:40 28.10.2019
5428 Haze 31 1012 66 3000 2.6 100 05:57 28.10.2019
5429 Mist 29 1011 70 1800 1.5 110 04:25 28.10.2019
5430 Mist 28 1011 78 1600 2.1 40 03:40 28.10.2019
5431 Mist 27 1010 83 2100 2.1 100 02:45 28.10.2019
5432 Haze 27 1009 83 2500 1.5 190 01:19 28.10.2019
5433 Haze 27 1009 83 2500 1.5 90 00:42 28.10.2019
5434 Haze 27 1009 83 2500 2.1 110 00:20 28.10.2019
5435 Haze 27 1009 83 3000 1.5 110 23:42 27.10.2019
5436 Haze 28 1009 78 3000 2.1 90 23:19 27.10.2019
5437 Haze 28 1009 78 3000 2.88 148 22:43 27.10.2019
5438 Haze 28 1009 78 3000 2.88 148 22:23 27.10.2019
5439 Haze 28 1009 78 3000 2.1 110 21:58 27.10.2019
5440 Haze 28 1010 78 3000 2.1 100 21:39 27.10.2019
5441 Haze 28 1010 78 3000 2.1 100 21:21 27.10.2019
5442 Haze 28 1010 78 3000 2.1 130 20:58 27.10.2019
5443 Haze 28 1010 78 3000 2.1 130 20:58 27.10.2019
5444 Haze 28 1010 74 3000 3.16 162 20:40 27.10.2019
5445 Haze 28 1010 74 3000 2.92 165 20:22 27.10.2019
5446 Haze 29 1010 70 3000 3.1 150 19:56 27.10.2019
5447 Haze 29 1011 74 3000 2.6 140 19:36 27.10.2019
5448 Haze 29 1011 74 3000 2.6 140 19:18 27.10.2019
5449 Haze 28 1011 78 2500 3.6 120 18:55 27.10.2019
5450 Haze 29 1011 74 2500 3.1 170 18:37 27.10.2019
5451 Haze 29 1011 74 2500 3.1 170 18:19 27.10.2019
5452 Haze 28 1011 78 2500 3.1 190 17:40 27.10.2019
5453 Haze 28 1011 78 2500 3.1 190 17:21 27.10.2019
5454 Haze 29 1011 74 2500 3.1 180 16:58 27.10.2019
5455 Haze 29 1010 74 3000 3.1 180 16:40 27.10.2019
5456 Haze 29 1010 74 3000 3.1 180 16:22 27.10.2019
5457 Haze 29 1010 79 3000 3.1 190 15:56 27.10.2019
5458 Haze 29 1010 79 3000 3.1 190 15:56 27.10.2019
5459 Haze 29 1009 79 3000 3.6 190 15:38 27.10.2019
5460 Haze 29 1009 79 3000 3.6 190 15:20 27.10.2019
5461 Haze 30 1009 74 4000 4.1 200 14:43 27.10.2019
5462 Haze 30 1008 74 4000 3.1 190 14:23 27.10.2019
5463 Haze 30 1008 66 5000 3.1 170 13:58 27.10.2019
5464 Haze 31 1008 62 5000 3.1 180 13:39 27.10.2019
5465 Haze 31 1008 62 5000 3.1 180 13:21 27.10.2019
5466 Haze 31 1007 62 4000 2.6 170 12:59 27.10.2019
5467 Haze 31 1007 62 4000 2.6 170 12:40 27.10.2019
5468 Haze 32 1007 62 4000 4.6 160 12:40 27.10.2019
5469 Haze 32 1007 62 4000 4.6 160 12:22 27.10.2019
5470 Smoke 32 1007 58 4000 3.6 200 11:41 27.10.2019
5471 Smoke 32 1007 58 4000 3.6 200 11:23 27.10.2019
5472 Haze 32 1007 58 4000 3.6 220 10:55 27.10.2019
5473 Haze 32 1008 62 5000 5.7 240 10:36 27.10.2019
5474 Haze 32 1008 62 5000 5.7 240 10:18 27.10.2019
5475 Smoke 32 1008 58 5000 4.6 220 09:42 27.10.2019
5476 Smoke 33 1008 52 5000 3.1 190 09:19 27.10.2019
5477 Smoke 33 1008 52 5000 3.1 190 09:19 27.10.2019
5478 Smoke 33 1009 52 4000 4.1 170 08:56 27.10.2019
5479 Smoke 33 1009 52 4000 4.1 140 08:37 27.10.2019
5480 Smoke 33 1009 52 4000 4.1 140 08:18 27.10.2019
5481 Smoke 33 1009 52 4000 3.1 150 07:45 27.10.2019
5482 Smoke 32 1010 55 4000 3.6 130 07:26 27.10.2019
5483 Smoke 32 1010 55 4000 3.1 150 06:52 27.10.2019
5484 Smoke 31 1010 58 4000 3.1 100 06:29 27.10.2019
5485 Smoke 31 1010 58 3000 4.1 90 05:54 27.10.2019
5486 Smoke 30 1010 62 3000 2.6 110 05:34 27.10.2019
5487 Haze 27 1009 83 2200 1.22 103 03:35 27.10.2019
5488 Haze 25 1007 88 2200 2.6 110 02:28 27.10.2019
5489 Haze 25 1007 94 2200 3.6 90 01:25 27.10.2019
5490 Haze 25 1007 94 2200 3.1 80 00:52 27.10.2019
5491 Haze 26 1007 94 2200 3.1 80 00:33 27.10.2019
5492 Haze 26 1007 94 2200 2.6 80 23:58 26.10.2019
5493 Haze 26 1007 94 2500 2.6 70 23:40 26.10.2019
5494 Haze 26 1007 94 2500 2.6 70 23:21 26.10.2019
5495 Haze 26 1007 94 2200 2.6 80 22:57 26.10.2019
5496 Haze 26 1008 94 2200 1.62 88 22:38 26.10.2019
5497 Haze 26 1008 94 2200 1.62 88 22:19 26.10.2019
5498 Haze 27 1008 88 2200 1.62 88 21:55 26.10.2019
5499 Haze 27 1009 88 2500 2.6 170 21:36 26.10.2019
5500 Haze 27 1009 88 2500 2.6 170 21:18 26.10.2019
5501 Haze 27 1009 83 2500 2.6 120 20:42 26.10.2019
5502 Haze 26 1009 88 2500 1.5 130 20:19 26.10.2019
5503 Haze 26 1008 88 2500 2.6 120 19:43 26.10.2019
5504 Haze 26 1008 88 2500 2.6 120 19:21 26.10.2019
5505 Haze 26 1008 88 2500 1.37 83 18:58 26.10.2019
5506 Haze 27 1008 83 2500 1.5 60 18:40 26.10.2019
5507 Haze 27 1008 83 2500 1.5 60 18:20 26.10.2019
5508 Haze 27 1008 83 2500 1.13 110 17:59 26.10.2019
5509 Smoke 27 1008 83 2500 1.13 110 17:39 26.10.2019
5510 Smoke 27 1008 83 2500 1.13 110 17:20 26.10.2019
5511 Smoke 26 1007 83 2500 1.13 110 16:47 26.10.2019
5512 Smoke 27 1007 83 2500 1.13 110 16:25 26.10.2019
5513 Smoke 27 1007 83 2500 1.13 110 15:59 26.10.2019
5514 Haze 27 1007 83 2500 1 190 15:40 26.10.2019
5515 Haze 28 1007 83 2500 1 190 15:18 26.10.2019
5516 Haze 29 1006 83 2500 1 170 14:40 26.10.2019
5517 Haze 29 1006 83 2500 1.5 150 14:20 26.10.2019
5518 Rain 28 1006 74 3000 1.5 200 13:59 26.10.2019
5519 Rain 26 1007 83 0 1.16 76 13:39 26.10.2019
5520 Rain 26 1007 83 0 1.16 76 13:20 26.10.2019
5521 Smoke 29 1005 74 4000 3.1 80 12:45 26.10.2019
5522 Drizzle 29 1006 74 3500 2.6 90 12:22 26.10.2019
5523 Drizzle 29 1006 74 3500 2.6 90 11:48 26.10.2019
5524 Drizzle 29 1006 74 3500 2.6 90 11:27 26.10.2019
5525 Drizzle 27 1006 83 3500 1.5 120 10:47 26.10.2019
5526 Drizzle 27 1007 83 3000 2.1 150 10:27 26.10.2019
5527 Rain 28 1007 83 3000 2.1 150 09:57 26.10.2019
5528 Drizzle 29 1007 66 4000 3.1 140 09:39 26.10.2019
5529 Drizzle 29 1007 66 4000 3.1 140 09:20 26.10.2019
5530 Haze 30 1007 62 4000 3.1 150 08:42 26.10.2019
5531 Haze 30 1007 62 4000 3.6 130 08:24 26.10.2019
5532 Haze 30 1007 66 4000 5.1 110 07:44 26.10.2019
5533 Haze 30 1007 66 4000 5.1 110 07:24 26.10.2019
5534 Haze 30 1007 66 4000 5.1 100 06:41 26.10.2019
5535 Haze 29 1007 66 4000 5.7 110 06:18 26.10.2019
5536 Haze 28 1006 69 4000 4.1 100 05:19 26.10.2019
5537 Haze 28 1006 65 4000 5.1 100 04:23 26.10.2019
5538 Haze 28 1004 65 3000 5.1 80 02:45 26.10.2019
5539 Haze 28 1003 65 3000 5.1 80 01:51 26.10.2019
5540 Haze 28 1003 65 3000 6.7 80 01:20 26.10.2019
5541 Haze 29 1002 62 3000 5.7 90 00:23 26.10.2019
5542 Haze 29 1003 66 3000 4.6 80 23:41 25.10.2019
5543 Haze 29 1003 66 3000 4.6 80 23:20 25.10.2019
5544 Haze 28 1003 69 3000 4.1 100 22:40 25.10.2019
5545 Haze 28 1003 69 3000 3.1 110 22:22 25.10.2019
5546 Haze 29 1003 66 3000 6.2 90 21:57 25.10.2019
5547 Haze 29 1003 66 3000 6.2 90 21:39 25.10.2019
5548 Haze 29 1003 66 3000 6.2 90 21:19 25.10.2019
5549 Haze 28 1003 69 3000 5.7 80 20:55 25.10.2019
5550 Haze 29 1003 66 3000 5.1 80 20:37 25.10.2019
5551 Haze 29 1003 66 3000 5.1 80 20:18 25.10.2019
5552 Haze 29 1004 66 3000 7.2 90 19:41 25.10.2019
5553 Haze 29 1004 66 3000 7.2 90 19:23 25.10.2019
5554 Haze 29 1004 70 3000 5.7 70 18:44 25.10.2019
5555 Haze 29 1004 70 3000 5.7 70 18:22 25.10.2019
5556 Haze 29 1004 70 3000 5.7 70 17:41 25.10.2019
5557 Haze 29 1003 70 3000 4.1 80 17:21 25.10.2019
5558 Haze 29 1003 70 3000 3.6 70 16:54 25.10.2019
5559 Haze 29 1003 66 3000 4.1 70 16:36 25.10.2019
5560 Haze 29 1003 66 3000 4.1 70 16:18 25.10.2019
5561 Haze 30 1002 66 3000 5.1 60 15:40 25.10.2019
5562 Haze 30 1002 66 3000 5.7 70 15:22 25.10.2019
5563 Haze 30 1002 70 4000 3.6 50 14:58 25.10.2019
5564 Haze 30 1002 70 4000 3.6 50 14:58 25.10.2019
5565 Haze 30 1002 62 4000 4.6 50 14:39 25.10.2019
5566 Haze 30 1002 62 4000 4.6 50 14:20 25.10.2019
5567 Haze 30 1002 62 4000 4.1 50 13:42 25.10.2019
5568 Haze 30 1002 66 4000 4.6 50 13:24 25.10.2019
5569 Haze 30 1002 66 4000 4.6 40 12:56 25.10.2019
5570 Haze 30 1002 66 4000 4.1 50 12:38 25.10.2019
5571 Haze 31 1002 66 4000 4.1 50 12:19 25.10.2019
5572 Haze 31 1002 66 4000 4.6 70 11:41 25.10.2019
5573 Drizzle 30 1003 66 4000 4.1 90 11:22 25.10.2019
5574 Drizzle 30 1003 70 4500 3.6 60 10:57 25.10.2019
5575 Haze 31 1003 66 5000 5.1 50 10:39 25.10.2019
5576 Haze 31 1003 66 5000 5.1 50 10:19 25.10.2019
5577 Haze 31 1004 66 5000 4.6 80 09:54 25.10.2019
5578 Haze 30 1004 70 5000 4.6 80 09:36 25.10.2019
5579 Haze 30 1004 70 5000 4.6 80 09:18 25.10.2019
5580 Haze 30 1005 70 5000 3.6 80 08:42 25.10.2019
5581 Haze 30 1005 70 4000 2.6 30 08:23 25.10.2019
5582 Haze 29 1006 74 4000 2.1 80 07:49 25.10.2019
5583 Haze 29 1006 74 4000 2.1 80 07:49 25.10.2019
5584 Haze 29 1006 74 4000 2.1 80 07:49 25.10.2019
5585 Haze 28 1006 78 4000 2.6 80 07:30 25.10.2019
5586 Drizzle 28 1006 74 4000 3.6 90 06:38 25.10.2019
5587 Haze 27 1006 74 4000 5.1 60 05:50 25.10.2019
5588 Haze 27 1006 78 4000 4.1 70 05:32 25.10.2019
5589 Haze 27 1005 78 3000 4.1 70 04:38 25.10.2019
5590 Haze 25 1004 88 3000 3.1 70 02:44 25.10.2019
5591 Haze 25 1004 88 3000 3.6 60 01:53 25.10.2019
5592 Haze 25 1004 94 3000 3.6 50 00:39 25.10.2019
5593 Haze 26 1005 88 3000 4.1 70 23:57 24.10.2019
5594 Rain 26 1005 88 2500 3.6 60 23:37 24.10.2019
5595 Rain 26 1005 88 2500 3.6 60 23:37 24.10.2019
5596 Rain 26 1005 88 2500 3.6 60 23:19 24.10.2019
5597 Rain 25 1005 94 2500 3.6 70 22:54 24.10.2019
5598 Rain 26 1006 88 2500 2.6 50 22:36 24.10.2019
5599 Rain 26 1006 88 2500 4.1 80 22:18 24.10.2019
5600 Rain 26 1006 88 2500 4.1 80 21:54 24.10.2019
5601 -273 0 0 0 0 0 21:54 24.10.2019
5602 Rain 26 1006 88 2500 4.1 80 21:54 24.10.2019
5603 Rain 26 1007 88 2500 3.6 90 21:36 24.10.2019
5604 Rain 26 1007 88 2500 3.6 90 21:18 24.10.2019
5605 Rain 26 1007 88 2500 3.1 90 20:54 24.10.2019
5606 Rain 26 1007 88 2500 3.1 60 20:36 24.10.2019
5607 Rain 26 1007 88 2500 3.1 60 20:18 24.10.2019
5608 Rain 26 1007 88 2500 1.5 60 19:41 24.10.2019
5609 Rain 26 1007 88 2500 1.5 60 19:22 24.10.2019
5610 Rain 26 1007 88 2500 2.6 70 18:58 24.10.2019
5611 Rain 26 1007 88 2500 2.6 60 18:38 24.10.2019
5612 Rain 26 1007 88 2500 2.6 60 18:20 24.10.2019
5613 Rain 26 1007 88 2500 2.6 50 17:56 24.10.2019
5614 Thunderstorm 27 1007 83 2500 1.5 120 17:37 24.10.2019
5615 Thunderstorm 27 1007 83 2500 1.5 120 17:18 24.10.2019
5616 Thunderstorm 27 1006 83 2500 2.6 70 16:42 24.10.2019
5617 Thunderstorm 27 1006 88 2500 2.6 90 16:23 24.10.2019
5618 Thunderstorm 27 1006 88 2500 2.6 90 16:23 24.10.2019
5619 Thunderstorm 29 1005 83 2500 3.1 30 15:59 24.10.2019
5620 Thunderstorm 29 1005 83 2500 3.1 30 15:40 24.10.2019
5621 Thunderstorm 29 1004 78 2500 3.1 300 15:22 24.10.2019
5622 Thunderstorm 29 1004 78 3000 2.6 290 14:59 24.10.2019
5623 Thunderstorm 29 1004 78 3000 2.6 290 14:41 24.10.2019
5624 Thunderstorm 30 1004 79 3000 1.5 280 14:22 24.10.2019
5625 Rain 30 1003 74 3000 3.6 250 13:42 24.10.2019
5626 Rain 30 1003 74 3000 3.6 250 13:21 24.10.2019
5627 Haze 31 1003 70 3000 3.6 260 12:59 24.10.2019
5628 Haze 31 1004 66 3500 3.1 210 12:40 24.10.2019
5629 Haze 31 1004 66 3500 3.1 210 12:20 24.10.2019
5630 Haze 31 1004 62 4000 1.5 110 11:57 24.10.2019
5631 Haze 31 1004 62 4000 2.1 150 11:39 24.10.2019
5632 Haze 31 1004 62 4000 2.1 150 11:20 24.10.2019
5633 Haze 32 1004 62 4000 2.1 140 10:59 24.10.2019
5634 Haze 32 1004 62 4000 2.1 140 10:41 24.10.2019
5635 Haze 32 1004 62 4000 2.1 140 10:41 24.10.2019
5636 Haze 31 1005 66 4000 3.1 100 10:22 24.10.2019
5637 Haze 31 1005 70 4000 3.1 120 09:39 24.10.2019
5638 Haze 31 1005 70 4000 3.1 120 09:19 24.10.2019
5639 Haze 31 1006 66 4000 4.1 100 08:56 24.10.2019
5640 Haze 31 1007 66 4000 2.6 120 08:37 24.10.2019
5641 Haze 31 1007 66 4000 2.6 120 08:18 24.10.2019
5642 Haze 30 1007 74 3500 2.6 100 07:46 24.10.2019
5643 Haze 30 1007 74 3500 2.6 80 07:23 24.10.2019
5644 Haze 29 1007 78 3000 3.6 90 06:47 24.10.2019
5645 Haze 28 1007 78 3000 3.1 50 06:24 24.10.2019
5646 Haze 27 1007 83 3000 3.1 60 05:50 24.10.2019
5647 Haze 27 1007 83 3000 2.1 60 05:29 24.10.2019
5648 Mist 26 1005 88 2100 2.6 60 03:38 24.10.2019
5649 Mist 26 1005 88 2100 2.6 60 03:18 24.10.2019
5650 Mist 26 1005 88 2500 2.71 57 02:26 24.10.2019
5651 Mist 26 1004 88 2500 2.71 57 01:54 24.10.2019
5652 Mist 26 1004 94 2500 2.1 140 01:29 24.10.2019
5653 Mist 26 1004 94 2500 1.5 40 00:44 24.10.2019
5654 Mist 26 1004 94 2500 1.5 40 00:44 24.10.2019
5655 Mist 26 1004 94 2500 1.5 180 00:23 24.10.2019
5656 Mist 26 1005 94 2500 1.5 200 23:43 23.10.2019
5657 Mist 26 1005 94 2500 1.5 200 23:43 23.10.2019
5658 Mist 26 1005 94 2500 2.1 50 23:23 23.10.2019
5659 Mist 26 1005 94 2500 2.1 50 23:23 23.10.2019
5660 Haze 26 1005 88 2500 1.5 50 22:57 23.10.2019
5661 Haze 27 1006 88 2500 2.1 50 22:38 23.10.2019
5662 Haze 27 1006 88 2500 2.1 50 22:19 23.10.2019
5663 Haze 26 1006 88 2500 2.6 80 21:58 23.10.2019
5664 Haze 26 1007 88 2500 2.1 130 21:39 23.10.2019
5665 Haze 26 1007 88 2500 2.1 130 21:20 23.10.2019
5666 Haze 26 1007 88 2200 1.92 57 20:58 23.10.2019
5667 Rain 25 1007 94 2100 1.5 160 20:39 23.10.2019
5668 Rain 25 1007 94 2100 1.5 160 20:20 23.10.2019
5669 Rain 26 1007 83 2500 1.5 200 19:58 23.10.2019
5670 Haze 27 1007 83 3000 4.6 120 19:39 23.10.2019
5671 Haze 27 1007 83 3000 4.6 120 19:18 23.10.2019
5672 Haze 28 1007 78 3000 2.6 80 18:55 23.10.2019
5673 Haze 28 1007 78 3000 2.6 100 18:36 23.10.2019
5674 Haze 28 1007 78 3000 2.6 100 18:18 23.10.2019
5675 Haze 28 1007 78 3500 2.72 53 17:44 23.10.2019
5676 Haze 28 1007 78 3500 2.1 50 17:20 23.10.2019
5677 Haze 28 1007 78 3500 2.1 50 17:20 23.10.2019
5678 Haze 28 1006 78 3500 2.1 230 16:58 23.10.2019
5679 Haze 28 1006 78 4000 1 0 16:39 23.10.2019
5680 Haze 28 1006 78 4000 1 0 16:20 23.10.2019
5681 Haze 28 1005 78 4000 1.5 250 15:42 23.10.2019
5682 Haze 28 1005 78 4000 1.5 250 15:23 23.10.2019
5683 Haze 28 1005 74 5000 1.98 103 14:58 23.10.2019
5684 Haze 28 1004 74 5000 3.97 208 14:39 23.10.2019
5685 Haze 28 1004 74 5000 3.97 208 14:20 23.10.2019
5686 Haze 29 1004 74 5000 3.97 208 13:59 23.10.2019
5687 Haze 29 1004 74 5000 2.6 190 13:40 23.10.2019
5688 Haze 29 1004 74 5000 2.6 190 13:22 23.10.2019
5689 Haze 29 1004 74 5000 2.1 200 12:56 23.10.2019
5690 Haze 29 1004 70 5000 2.1 200 12:37 23.10.2019
5691 Haze 29 1004 70 5000 2.1 200 12:18 23.10.2019
5692 Haze 29 1005 74 5000 1 0 11:57 23.10.2019
5693 Drizzle 28 1005 78 5000 2.6 190 11:38 23.10.2019
5694 Drizzle 28 1005 78 5000 2.6 190 11:20 23.10.2019
5695 -273 0 0 0 0 0 10:45 23.10.2019
5696 Drizzle 28 1006 83 5000 3.1 190 10:26 23.10.2019
5697 Haze 28 1007 74 5000 3.6 190 09:56 23.10.2019
5698 Haze 28 1007 78 4000 3.1 170 09:37 23.10.2019
5699 Haze 28 1007 78 4000 3.1 170 09:19 23.10.2019
5700 Drizzle 27 1008 83 3000 2.6 150 08:42 23.10.2019
5701 Drizzle 27 1008 83 3000 2.6 150 08:24 23.10.2019
5702 Drizzle 29 1009 83 3000 2.1 130 07:46 23.10.2019
5703 Drizzle 29 1009 83 3500 1.5 110 07:23 23.10.2019
5704 Drizzle 28 1009 83 3500 1.5 180 06:47 23.10.2019
5705 Haze 27 1009 83 4000 2.29 36 06:22 23.10.2019
5706 Haze 27 1009 88 4000 2.29 36 05:47 23.10.2019
5707 Haze 26 1008 88 3000 2.1 120 04:59 23.10.2019
5708 Drizzle 25 1007 94 2500 2.29 36 03:35 23.10.2019
5709 Haze 25 1006 94 2500 1.58 104 02:41 23.10.2019
5710 Rain 25 1006 94 2500 1 120 01:34 23.10.2019
5711 Rain 25 1006 94 2200 2.1 100 00:56 23.10.2019
5712 Drizzle 25 1007 100 2200 2.1 130 00:29 23.10.2019
5713 Rain 26 1007 94 2200 2.6 120 23:41 22.10.2019
5714 Rain 26 1007 94 2200 3.1 160 23:19 22.10.2019
5715 Drizzle 26 1007 94 2500 2.6 130 22:57 22.10.2019
5716 Haze 26 1008 94 2500 2.1 100 22:39 22.10.2019
5717 Haze 26 1008 94 2500 2.1 100 22:21 22.10.2019
5718 Haze 26 1008 94 2500 2.6 110 21:56 22.10.2019
5719 Haze 26 1008 94 2500 3.6 130 21:37 22.10.2019
5720 Haze 26 1008 94 2500 3.6 130 21:18 22.10.2019
5721 Drizzle 26 1008 94 2500 2.1 100 20:57 22.10.2019
5722 Rain 26 1008 88 2500 2.1 130 20:39 22.10.2019
5723 Rain 26 1008 88 2500 2.1 130 20:20 22.10.2019
5724 Drizzle 26 1009 88 2500 2.6 100 19:55 22.10.2019
5725 Rain 27 1009 88 2500 2.1 130 19:37 22.10.2019
5726 Rain 27 1009 88 2500 2.1 130 19:19 22.10.2019
5727 Drizzle 27 1009 88 2500 3.6 60 18:41 22.10.2019
5728 Drizzle 27 1009 88 2500 3.6 60 18:22 22.10.2019
5729 Drizzle 28 1009 78 2500 2.1 130 17:59 22.10.2019
5730 Haze 28 1008 78 3000 2.6 60 17:39 22.10.2019
5731 Haze 28 1008 78 3000 2.6 60 17:39 22.10.2019
5732 Haze 28 1008 78 3000 2.6 60 17:20 22.10.2019
5733 Haze 29 1008 74 3000 2.6 360 16:57 22.10.2019
5734 Haze 29 1008 74 3000 2.6 360 16:57 22.10.2019
5735 Haze 29 1008 74 3000 2.6 10 16:38 22.10.2019
5736 Haze 29 1008 74 3000 2.6 10 16:19 22.10.2019
5737 Haze 29 1008 74 3000 2.6 10 16:19 22.10.2019
5738 Haze 29 1007 74 4000 2.6 320 15:58 22.10.2019
5739 Haze 29 1007 78 4000 1.5 320 15:39 22.10.2019
5740 Haze 29 1007 78 4000 1.5 320 15:18 22.10.2019
5741 Haze 29 1007 74 4000 2.1 320 14:43 22.10.2019
5742 Haze 29 1007 78 4000 4.1 270 14:20 22.10.2019
5743 Haze 30 1006 74 4000 4.1 250 13:43 22.10.2019
5744 Haze 30 1006 70 4000 3.1 230 13:22 22.10.2019
5745 Haze 30 1006 70 4000 3.1 230 13:22 22.10.2019
5746 Haze 31 1005 70 4000 4.6 240 12:59 22.10.2019
5747 Haze 31 1005 66 3500 4.1 240 12:40 22.10.2019
5748 Haze 31 1005 66 3500 4.1 240 12:21 22.10.2019
5749 Haze 31 1006 70 3500 4.6 280 11:56 22.10.2019
5750 Haze 31 1006 74 3000 4.6 270 11:38 22.10.2019
5751 Haze 31 1006 74 3000 4.6 270 11:20 22.10.2019
5752 Haze 31 1007 70 3000 5.1 290 10:56 22.10.2019
5753 Haze 31 1007 70 3500 2.1 270 10:37 22.10.2019
5754 Haze 31 1007 70 3500 2.1 270 10:18 22.10.2019
5755 Haze 31 1007 70 3500 4.1 300 09:54 22.10.2019
5756 Haze 31 1008 70 4000 3.6 300 09:36 22.10.2019
5757 Haze 31 1008 62 5000 2.6 110 09:18 22.10.2019
5758 Haze 31 1008 62 5000 2.6 110 08:42 22.10.2019
5759 Haze 30 1009 70 4000 2.6 130 08:20 22.10.2019
5760 Haze 30 1009 70 4000 2.6 130 07:45 22.10.2019
5761 Haze 30 1009 74 3000 1.5 130 07:26 22.10.2019
5762 Haze 30 1010 74 3000 1.5 120 06:48 22.10.2019
5763 Haze 29 1010 83 3000 2.6 90 06:30 22.10.2019
5764 Haze 27 1010 88 2500 2.6 120 05:56 22.10.2019
5765 Haze 27 1010 88 2500 2.6 110 05:20 22.10.2019
5766 Drizzle 25 1008 94 2500 1.5 100 02:47 22.10.2019
5767 Haze 25 1008 94 2500 1.5 100 02:28 22.10.2019
5768 Haze 25 1008 94 2500 2.1 110 01:27 22.10.2019
5769 Haze 25 1008 94 2500 2.6 100 00:57 22.10.2019
5770 Haze 25 1008 94 2500 2.1 90 00:39 22.10.2019
5771 Haze 25 1008 94 2500 2.1 90 00:20 22.10.2019
5772 Drizzle 25 1009 100 2500 1.5 110 23:54 21.10.2019
5773 Haze 25 1008 94 2500 3.1 110 23:36 21.10.2019
5774 Haze 25 1008 94 2500 3.1 110 23:36 21.10.2019
5775 Haze 25 1008 94 2500 3.1 110 23:18 21.10.2019
5776 Thunderstorm 25 1009 94 2500 2.1 100 22:54 21.10.2019
5777 Thunderstorm 25 1009 94 2500 2.1 100 22:54 21.10.2019
5778 Thunderstorm 25 1009 94 2500 3.38 90 22:36 21.10.2019
5779 Thunderstorm 25 1009 94 2500 3.38 90 22:18 21.10.2019
5780 Thunderstorm 25 1009 94 2100 1.5 180 21:41 21.10.2019
5781 Thunderstorm 25 1010 94 2100 3.6 240 21:23 21.10.2019
5782 Thunderstorm 25 1010 94 2200 3.6 230 20:59 21.10.2019
5783 Thunderstorm 25 1010 94 2200 3.6 230 20:41 21.10.2019
5784 Thunderstorm 25 1010 94 2100 4.1 220 20:21 21.10.2019
5785 Thunderstorm 28 1009 74 2000 3.6 120 19:59 21.10.2019
5786 Thunderstorm 29 1009 74 2500 4.1 80 19:40 21.10.2019
5787 Thunderstorm 29 1009 74 2500 4.1 80 19:22 21.10.2019
5788 Haze 29 1009 79 3000 3.6 70 18:56 21.10.2019
5789 Haze 30 1009 74 3000 2.1 330 18:37 21.10.2019
5790 Haze 30 1009 74 3000 2.1 330 18:19 21.10.2019
5791 Haze 29 1009 79 3000 2.6 350 17:56 21.10.2019
5792 Haze 30 1009 74 3000 3.1 350 17:38 21.10.2019
5793 Haze 30 1009 74 3000 3.1 350 17:18 21.10.2019
5794 Haze 29 1008 79 3000 3.1 350 16:56 21.10.2019
5795 Haze 30 1008 70 3000 2.6 340 16:38 21.10.2019
5796 Haze 30 1008 70 3000 2.6 340 16:19 21.10.2019
5797 Haze 30 1007 70 3500 3.1 310 15:45 21.10.2019
5798 Haze 31 1007 70 3500 3.1 310 15:25 21.10.2019
5799 Haze 31 1007 74 4000 4.1 290 14:58 21.10.2019
5800 Haze 32 1007 66 4500 1.92 35 14:39 21.10.2019
5801 Haze 32 1007 66 4500 1.92 35 14:20 21.10.2019
5802 Smoke 32 1007 70 5000 4.1 260 13:56 21.10.2019
5803 Smoke 32 1007 59 5000 3.1 20 13:38 21.10.2019
5804 Smoke 32 1007 59 5000 3.1 20 13:19 21.10.2019
5805 Smoke 32 1007 59 5000 2.6 30 12:41 21.10.2019
5806 Smoke 32 1007 59 5000 2.6 350 12:22 21.10.2019
5807 Smoke 32 1007 59 5000 2.6 340 11:57 21.10.2019
5808 Smoke 32 1008 55 5000 2.6 20 11:38 21.10.2019
5809 Smoke 32 1008 55 5000 2.6 20 11:20 21.10.2019
5810 Smoke 32 1008 55 5000 2.6 80 10:56 21.10.2019
5811 Smoke 32 1008 55 5000 2.6 80 10:56 21.10.2019
5812 Smoke 32 1008 58 5000 3.1 50 10:38 21.10.2019
5813 Smoke 32 1008 58 5000 3.1 50 10:19 21.10.2019
5814 Haze 32 1009 58 5000 4.1 30 09:44 21.10.2019
5815 Haze 31 1009 58 5000 4.6 40 09:26 21.10.2019
5816 Haze 31 1010 62 5000 3.6 50 08:57 21.10.2019
5817 Haze 30 1010 70 5000 3.1 70 08:37 21.10.2019
5818 Haze 29 1010 70 5000 3.1 70 08:19 21.10.2019
5819 Haze 29 1011 69 5000 5.7 70 07:39 21.10.2019
5820 Haze 29 1011 69 5000 5.7 70 07:21 21.10.2019
5821 Haze 28 1011 74 4000 4.6 60 06:56 21.10.2019
5822 Haze 28 1011 69 4000 4.1 80 06:36 21.10.2019
5823 Haze 28 1011 69 4000 4.1 80 06:36 21.10.2019
5824 Haze 27 1011 74 4000 4.1 60 05:56 21.10.2019
5825 Haze 27 1011 74 4000 4.1 60 05:56 21.10.2019
5826 Haze 26 1011 83 4000 3.6 80 04:45 21.10.2019
5827 Haze 25 1010 88 3000 3.1 50 03:37 21.10.2019
5828 Haze 25 1010 88 3000 1.5 40 02:25 21.10.2019
5829 Haze 25 1010 94 3000 1.5 70 01:59 21.10.2019
5830 Haze 25 1010 94 3000 1.5 40 01:23 21.10.2019
5831 Haze 25 1010 88 3000 2.1 60 00:48 21.10.2019
5832 Haze 25 1010 94 3000 1.5 70 00:26 21.10.2019
5833 Haze 25 1010 88 3000 2.1 110 23:42 20.10.2019
5834 Haze 25 1011 88 3000 2.1 110 23:22 20.10.2019
5835 Haze 25 1011 88 3000 2.1 110 23:22 20.10.2019
5836 Haze 25 1011 88 3000 2.6 110 22:57 20.10.2019
5837 Haze 25 1011 88 3000 1.5 130 22:38 20.10.2019
5838 Haze 25 1011 88 3000 1.5 130 22:18 20.10.2019
5839 Haze 25 1012 88 3000 2.6 110 21:57 20.10.2019
5840 Haze 25 1012 88 3000 2.6 130 21:39 20.10.2019
5841 Haze 25 1012 88 3000 2.6 130 21:21 20.10.2019
5842 Haze 25 1012 88 3000 3.6 100 20:42 20.10.2019
5843 Haze 26 1012 83 3000 4.1 70 20:20 20.10.2019
5844 Haze 25 1012 88 2500 4.1 80 19:57 20.10.2019
5845 Drizzle 25 1012 88 2500 4.1 100 19:39 20.10.2019
5846 Drizzle 25 1012 88 2500 4.1 100 19:39 20.10.2019
5847 Drizzle 25 1012 88 2500 4.1 100 19:20 20.10.2019
5848 Drizzle 25 1012 88 2500 4.1 100 19:20 20.10.2019
5849 Rain 25 1013 88 2500 3.6 100 18:56 20.10.2019
5850 Rain 25 1012 88 2500 3.1 110 18:38 20.10.2019
5851 Rain 25 1012 88 2500 3.1 110 18:20 20.10.2019
5852 Drizzle 25 1012 88 2500 3.1 120 17:54 20.10.2019
5853 Drizzle 25 1012 88 2500 3.1 80 17:36 20.10.2019
5854 Drizzle 25 1012 88 2500 3.1 80 17:18 20.10.2019
5855 Rain 25 1012 83 2500 2.6 70 16:41 20.10.2019
5856 Drizzle 25 1011 88 2500 3.1 100 16:23 20.10.2019
5857 Drizzle 26 1011 83 2500 5.82 104 15:58 20.10.2019
5858 Rain 26 1011 83 2500 2.1 60 15:38 20.10.2019
5859 Rain 26 1011 83 2500 2.1 60 15:20 20.10.2019
5860 Rain 26 1011 83 2500 2.1 60 15:20 20.10.2019
5861 Rain 26 1010 83 3000 2.1 40 14:57 20.10.2019
5862 Drizzle 27 1010 78 3500 3.1 50 14:37 20.10.2019
5863 Drizzle 27 1010 78 3500 3.1 50 14:19 20.10.2019
5864 Drizzle 27 1010 78 3500 3.1 60 13:55 20.10.2019
5865 Haze 27 1009 69 3500 4.6 80 13:36 20.10.2019
5866 Haze 27 1009 69 3500 4.6 80 13:18 20.10.2019
5867 Drizzle 27 1009 74 4000 5.7 80 12:56 20.10.2019
5868 Haze 28 1009 74 4000 6.2 90 12:37 20.10.2019
5869 Haze 28 1009 74 4000 6.2 90 12:19 20.10.2019
5870 Haze 29 1010 74 4000 6.2 70 11:54 20.10.2019
5871 Haze 28 1010 78 4000 5.7 90 11:36 20.10.2019
5872 Haze 28 1010 78 4000 5.7 90 11:18 20.10.2019
5873 Drizzle 28 1011 83 3500 5.7 80 10:40 20.10.2019
5874 Haze 28 1011 83 4000 4.1 90 10:22 20.10.2019
5875 Haze 29 1012 78 4000 3.6 100 09:57 20.10.2019
5876 Haze 29 1012 78 4000 4.6 90 09:39 20.10.2019
5877 Haze 28 1012 78 4000 4.6 90 09:20 20.10.2019
5878 Haze 28 1012 78 4000 4.1 90 08:45 20.10.2019
5879 Haze 27 1013 78 4000 4.6 100 08:22 20.10.2019
5880 Haze 28 1013 78 3500 4.1 70 07:50 20.10.2019
5881 Drizzle 27 1013 83 3000 3.6 50 07:30 20.10.2019
5882 Drizzle 27 1013 83 3000 3.6 50 07:30 20.10.2019
5883 Haze 27 1013 88 3000 4.6 70 06:34 20.10.2019
5884 Rain 26 1013 88 3000 3.6 60 05:58 20.10.2019
5885 Drizzle 26 1012 88 2500 2.6 20 04:25 20.10.2019
5886 Rain 26 1012 88 2500 2.1 20 03:41 20.10.2019
5887 Rain 25 1012 88 2500 2.1 50 03:20 20.10.2019
5888 Rain 25 1011 88 2500 2.1 60 02:36 20.10.2019
5889 Rain 25 1011 88 2500 10.76 73.586 01:58 20.10.2019
5890 Rain 25 1011 88 2500 9.26 80.706 01:23 20.10.2019
5891 Rain 25 1011 88 2500 9.26 80.706 00:55 20.10.2019
5892 Rain 25 1010 88 2500 2.1 70 00:22 20.10.2019
5893 Rain 25 1010 88 2500 2.1 70 00:22 20.10.2019
5894 Haze 25 1011 88 2500 2.6 110 23:59 19.10.2019
5895 Haze 25 1011 88 2500 2.6 110 23:41 19.10.2019
5896 Rain 25 1011 88 2500 1.5 130 23:22 19.10.2019
5897 Rain 25 1011 88 2500 1.5 100 22:56 19.10.2019
5898 Rain 25 1011 88 2500 2.1 150 22:37 19.10.2019
5899 Rain 25 1011 88 2500 2.1 150 22:18 19.10.2019
5900 Rain 25 1011 88 2500 1.5 130 21:45 19.10.2019
5901 Rain 25 1012 88 2500 1.5 140 21:22 19.10.2019
5902 Rain 25 1012 88 2500 1.5 120 20:45 19.10.2019
5903 Rain 25 1012 88 2500 2.1 110 20:22 19.10.2019
5904 Rain 25 1012 88 2500 3.1 110 19:57 19.10.2019
5905 Rain 25 1012 88 2500 2.6 110 19:39 19.10.2019
5906 Rain 25 1012 88 2500 2.6 110 19:20 19.10.2019
5907 Rain 25 1013 88 2500 3.1 100 18:41 19.10.2019
5908 Drizzle 25 1013 94 2500 2.6 90 18:23 19.10.2019
5909 Drizzle 25 1013 94 2200 2.6 110 17:55 19.10.2019
5910 Rain 25 1013 94 1900 2.1 90 17:36 19.10.2019
5911 Rain 25 1012 94 2500 2.6 100 17:18 19.10.2019
5912 Rain 25 1011 94 2500 2.6 120 16:39 19.10.2019
5913 Rain 25 1011 94 2500 2.6 120 16:20 19.10.2019
5914 Drizzle 25 1011 94 2500 2.6 120 15:44 19.10.2019
5915 Drizzle 25 1011 94 2500 2.6 120 15:44 19.10.2019
5916 Drizzle 26 1011 83 2500 2.6 110 15:26 19.10.2019
5917 Drizzle 26 1011 83 3000 2.6 110 14:56 19.10.2019
5918 Drizzle 26 1010 88 3000 2.6 80 14:38 19.10.2019
5919 Drizzle 26 1010 88 3000 2.6 80 14:19 19.10.2019
5920 Drizzle 27 1010 83 3000 3.1 70 13:55 19.10.2019
5921 Drizzle 27 1010 83 3000 4.6 80 13:36 19.10.2019
5922 Drizzle 27 1010 83 3000 4.6 80 13:18 19.10.2019
5923 Haze 27 1010 83 3000 3.6 60 12:39 19.10.2019
5924 Haze 28 1010 83 3000 3.6 60 12:21 19.10.2019
5925 Haze 28 1010 88 3000 2.6 60 11:57 19.10.2019
5926 Rain 28 1010 88 2500 4.1 80 11:39 19.10.2019
5927 Rain 28 1010 88 2500 4.1 80 11:21 19.10.2019
5928 Drizzle 28 1011 83 2500 3.6 70 10:41 19.10.2019
5929 Drizzle 28 1011 83 2500 3.6 70 10:23 19.10.2019
5930 Drizzle 27 1012 88 2500 4.1 60 09:59 19.10.2019
5931 Drizzle 27 1012 88 2500 4.1 60 09:59 19.10.2019
5932 Rain 27 1012 88 2500 4.1 70 09:40 19.10.2019
5933 Rain 27 1012 88 2500 4.1 70 09:22 19.10.2019
5934 Rain 27 1013 83 2100 4.1 110 08:56 19.10.2019
5935 Rain 28 1013 83 2500 3.6 100 08:37 19.10.2019
5936 Haze 28 1013 78 3500 5.1 90 08:19 19.10.2019
5937 Haze 29 1013 78 3000 4.6 100 07:41 19.10.2019
5938 Haze 29 1013 78 3000 4.6 100 07:23 19.10.2019
5939 Drizzle 27 1013 83 2500 2.6 100 06:36 19.10.2019
5940 Drizzle 27 1013 88 2500 3.6 100 05:51 19.10.2019
5941 Rain 27 1012 78 2500 3.1 70 04:54 19.10.2019
5942 Rain 27 1011 83 2200 1.5 60 03:18 19.10.2019
5943 Haze 27 1010 83 3000 2.1 20 02:21 19.10.2019
5944 Haze 27 1010 83 3000 3.1 30 01:49 19.10.2019
5945 Haze 27 1010 78 3000 2.1 150 00:52 19.10.2019
5946 Haze 27 1010 78 3000 1 0 00:29 19.10.2019
5947 Haze 27 1010 74 3000 2.1 140 23:59 18.10.2019
5948 Haze 27 1010 74 3000 2.1 130 23:38 18.10.2019
5949 Haze 27 1010 74 3000 2.1 130 23:20 18.10.2019
5950 Haze 27 1010 74 3000 2.1 130 22:55 18.10.2019
5951 Haze 27 1010 74 3000 4.7 119.612 22:36 18.10.2019
5952 Haze 27 1010 74 3000 4.7 119.612 22:18 18.10.2019
5953 Drizzle 27 1010 74 3000 4.7 119.612 21:55 18.10.2019
5954 Haze 27 1010 74 3000 3.1 70 21:36 18.10.2019
5955 Haze 29 1011 74 3000 2.6 50 21:18 18.10.2019
5956 Haze 29 1011 74 3000 2.6 50 21:18 18.10.2019
5957 Haze 29 1011 69 3000 2.8 196.134 20:43 18.10.2019
5958 Haze 29 1011 69 3000 2.8 196.134 20:23 18.10.2019
5959 Haze 29 1011 69 3000 2.1 110 19:58 18.10.2019
5960 Haze 29 1011 69 3000 2.8 196.134 19:40 18.10.2019
5961 Haze 27 1011 69 3000 2.8 196.134 19:22 18.10.2019
5962 Haze 27 1011 69 2500 2.6 50 18:59 18.10.2019
5963 Haze 27 1011 69 2500 2.6 50 18:59 18.10.2019
5964 Haze 27 1011 69 2200 2.6 50 18:41 18.10.2019
5965 Haze 29 1011 69 2200 2.6 50 18:22 18.10.2019
5966 Drizzle 29 1011 69 2200 3.1 40 17:56 18.10.2019
5967 Drizzle 30 1011 65 2500 4.1 40 17:37 18.10.2019
5968 Drizzle 30 1011 65 2500 4.1 40 17:19 18.10.2019
5969 Drizzle 28 1010 65 2500 3.1 110 16:40 18.10.2019
5970 Haze 28 1010 65 3000 3.6 60 16:21 18.10.2019
5971 Haze 29 1009 65 3000 2.6 50 15:58 18.10.2019
5972 Haze 29 1009 69 3000 2.6 110 15:38 18.10.2019
5973 Haze 29 1009 69 3000 2.6 110 15:20 18.10.2019
5974 Haze 29 1009 69 3000 2.6 110 15:20 18.10.2019
5975 Haze 30 1009 69 3000 3.1 100 14:57 18.10.2019
5976 Haze 29 1009 69 2500 3.6 70 14:38 18.10.2019
5977 Haze 29 1009 69 2500 3.6 70 14:19 18.10.2019
5978 Haze 30 1009 70 2500 3.6 80 13:56 18.10.2019
5979 Haze 31 1008 62 2500 2.6 70 13:37 18.10.2019
5980 Haze 31 1008 62 2500 2.6 70 13:18 18.10.2019
5981 Haze 31 1008 66 2500 1.5 0 12:55 18.10.2019
5982 Haze 32 1009 66 3000 3.49 118.689 12:37 18.10.2019
5983 Haze 31 1009 66 3000 4.22 127.852 12:18 18.10.2019
5984 Haze 30 1009 66 3000 4.22 127.852 11:41 18.10.2019
5985 Haze 30 1009 74 3000 4.22 127.852 11:20 18.10.2019
5986 Haze 30 1010 70 2500 4.22 127.852 10:58 18.10.2019
5987 Haze 31 1010 70 2500 4.22 127.852 10:40 18.10.2019
5988 Rain 32 1010 66 2200 2.6 120 10:22 18.10.2019
5989 Haze 32 1010 58 3000 3.6 110 09:57 18.10.2019
5990 Smoke 32 1011 58 3000 2.1 120 09:39 18.10.2019
5991 Smoke 32 1011 58 3000 2.1 120 09:19 18.10.2019
5992 Smoke 32 1011 55 3000 2.1 110 08:45 18.10.2019
5993 Smoke 32 1011 55 3000 3.1 120 08:25 18.10.2019
5994 Smoke 32 1011 55 3000 3.1 120 08:25 18.10.2019
5995 Smoke 32 1012 55 3000 3.1 100 07:57 18.10.2019
5996 Smoke 32 1012 55 3000 2.6 110 07:38 18.10.2019
5997 Smoke 31 1012 52 3000 2.6 120 06:56 18.10.2019
5998 Smoke 31 1012 55 2500 3.1 100 06:36 18.10.2019
5999 Smoke 30 1012 55 2500 3.1 100 06:18 18.10.2019
6000 Smoke 30 1012 58 2500 2.1 130 05:52 18.10.2019
6001 Haze 30 1011 58 2500 2.6 70 05:19 18.10.2019
6002 Haze 30 1010 61 2500 2.1 40 03:41 18.10.2019
6003 Haze 28 1009 65 3000 2.6 50 02:56 18.10.2019
6004 Haze 28 1009 65 3000 2.6 50 02:56 18.10.2019
6005 Haze 27 1009 74 3000 3.78 79.19 02:32 18.10.2019
6006 Haze 28 1009 74 3000 1.5 120 01:42 18.10.2019
6007 Haze 28 1009 69 3000 2.1 60 01:23 18.10.2019
6008 Haze 28 1009 69 3000 2.6 100 00:43 18.10.2019
6009 Haze 28 1009 69 3000 2.6 70 00:20 18.10.2019
6010 Haze 28 1009 74 3000 2.1 110 23:40 17.10.2019
6011 Haze 28 1009 74 3000 2.1 110 23:21 17.10.2019
6012 Haze 28 1009 74 3000 2.1 120 22:58 17.10.2019
6013 Haze 28 1009 74 3000 2.1 120 22:58 17.10.2019
6014 Haze 29 1009 70 3000 3.1 100 22:39 17.10.2019
6015 Haze 29 1009 70 3000 3.1 100 22:19 17.10.2019
6016 Haze 29 1009 70 3000 1.5 110 21:58 17.10.2019
6017 Haze 29 1010 70 3000 1.5 150 21:39 17.10.2019
6018 Haze 29 1010 70 3000 1.5 150 21:20 17.10.2019
6019 Haze 29 1010 70 3000 1.5 120 20:58 17.10.2019
6020 Haze 29 1010 70 3000 1.5 120 20:58 17.10.2019
6021 Haze 30 1010 66 3000 1.5 110 20:39 17.10.2019
6022 Haze 30 1010 66 3000 1.5 110 20:19 17.10.2019
6023 Haze 30 1010 66 3000 1.5 110 20:19 17.10.2019
6024 Haze 31 1010 58 3000 1.5 110 19:59 17.10.2019
6025 Haze 31 1010 62 3000 2.6 40 19:39 17.10.2019
6026 Haze 31 1010 62 3000 2.6 40 19:19 17.10.2019
6027 Haze 31 1010 62 3000 3.6 40 18:58 17.10.2019
6028 Smoke 31 1010 58 3000 1.5 200 18:38 17.10.2019
6029 Smoke 31 1010 58 3000 1.5 200 18:19 17.10.2019
6030 Haze 31 1010 62 3000 2.6 350 17:42 17.10.2019
6031 Haze 31 1010 66 3000 3.1 350 17:23 17.10.2019
6032 Haze 31 1010 66 3000 4.1 340 16:57 17.10.2019
6033 Haze 31 1009 66 3000 3.6 330 16:38 17.10.2019
6034 Haze 31 1009 66 3000 3.6 330 16:18 17.10.2019
6035 Haze 32 1009 66 3000 4.1 340 15:55 17.10.2019
6036 Smoke 32 1008 59 3500 4.1 330 15:37 17.10.2019
6037 Smoke 33 1008 62 3500 3.1 320 15:19 17.10.2019
6038 Smoke 32 1008 62 3500 3.1 320 14:43 17.10.2019
6039 Smoke 33 1008 62 3500 3.1 320 14:24 17.10.2019
6040 Smoke 33 1008 62 3500 3.1 320 14:24 17.10.2019
6041 Smoke 33 1008 62 3500 3.1 320 14:24 17.10.2019
6042 Smoke 33 1008 55 3500 3.6 300 13:57 17.10.2019
6043 Smoke 33 1008 59 3500 3.6 270 13:39 17.10.2019
6044 Smoke 33 1008 59 3500 3.6 270 13:19 17.10.2019
6045 Smoke 33 1008 52 3500 5.1 270 12:43 17.10.2019
6046 Smoke 34 1008 49 3500 4.6 290 12:21 17.10.2019
6047 Smoke 34 1009 49 3500 5.1 280 11:59 17.10.2019
6048 Smoke 35 1009 46 4000 5.1 270 11:41 17.10.2019
6049 Smoke 35 1009 46 4000 5.1 270 11:41 17.10.2019
6050 Smoke 35 1009 46 4000 5.1 270 11:20 17.10.2019
6051 Smoke 34 1009 46 4000 4.1 290 10:57 17.10.2019
6052 Smoke 35 1009 46 4000 3.1 330 10:39 17.10.2019
6053 Smoke 35 1009 46 4000 3.1 330 10:19 17.10.2019
6054 Smoke 35 1010 41 3000 2.6 110 09:55 17.10.2019
6055 Smoke 35 1010 41 3000 3.1 140 09:36 17.10.2019
6056 Smoke 35 1010 41 3000 3.1 140 09:18 17.10.2019
6057 Smoke 35 1010 41 3000 3.1 140 09:18 17.10.2019
6058 Smoke 35 1011 44 3000 3.6 120 08:46 17.10.2019
6059 Smoke 34 1011 46 3000 2.1 130 08:26 17.10.2019
6060 Smoke 34 1012 44 3000 1.5 100 07:56 17.10.2019
6061 Smoke 34 1012 43 3000 1.5 130 07:38 17.10.2019
6062 Smoke 34 1012 43 3000 1.5 130 07:19 17.10.2019
6063 Smoke 32 1012 46 3000 3.1 80 06:40 17.10.2019
6064 Smoke 32 1012 46 3000 3.1 80 06:21 17.10.2019
6065 Smoke 31 1012 48 3000 4.1 90 05:58 17.10.2019
6066 Smoke 30 1012 54 3000 3.6 80 05:32 17.10.2019
6067 Smoke 31 1011 54 3000 2.6 100 04:57 17.10.2019
6068 Smoke 30 1011 58 3000 2.1 140 03:55 17.10.2019
6069 Smoke 28 1010 54 3000 1 130 02:53 17.10.2019
6070 Smoke 29 1010 51 3000 0.5 120 01:55 17.10.2019
6071 Smoke 30 1010 48 3000 3.1 50 00:41 17.10.2019
6072 Smoke 30 1010 48 3000 3.1 50 00:20 17.10.2019
6073 Smoke 30 1010 48 3000 3.1 50 00:20 17.10.2019
6074 Smoke 30 1010 48 3000 3.1 40 23:42 16.10.2019
6075 Smoke 30 1010 48 3000 2.1 50 23:21 16.10.2019
6076 Smoke 30 1010 51 3000 2.6 30 22:57 16.10.2019
6077 Smoke 30 1010 51 3000 1.5 50 22:38 16.10.2019
6078 Smoke 30 1010 51 3000 1.5 50 22:19 16.10.2019
6079 Smoke 30 1010 51 3000 1.5 50 22:19 16.10.2019
6080 Smoke 30 1011 55 3000 2.6 40 21:58 16.10.2019
6081 Smoke 30 1011 55 3000 2.1 70 21:38 16.10.2019
6082 Smoke 30 1011 55 3000 2.1 70 21:20 16.10.2019
6083 Smoke 30 1011 58 3000 3.1 90 20:58 16.10.2019
6084 Smoke 31 1011 52 3000 2.1 140 20:40 16.10.2019
6085 Smoke 31 1011 52 3000 2.1 140 20:21 16.10.2019
6086 Smoke 31 1011 55 3000 1.5 30 19:59 16.10.2019
6087 Smoke 31 1011 55 3000 2.6 60 19:39 16.10.2019
6088 Smoke 31 1011 55 3000 2.6 60 19:39 16.10.2019
6089 Smoke 31 1011 55 3000 2.6 60 19:21 16.10.2019
6090 Smoke 31 1010 55 3000 1.5 30 18:55 16.10.2019
6091 Smoke 32 1010 55 3000 2.6 40 18:36 16.10.2019
6092 Smoke 32 1010 59 3000 3.1 10 18:18 16.10.2019
6093 Smoke 32 1010 59 3000 3.1 10 17:54 16.10.2019
6094 Smoke 32 1010 59 3000 3.1 10 17:54 16.10.2019
6095 Smoke 31 1010 58 3000 3.1 340 17:36 16.10.2019
6096 Smoke 31 1010 58 3000 3.1 340 17:18 16.10.2019
6097 Smoke 32 1010 55 3000 3.6 40 16:43 16.10.2019
6098 Smoke 32 1009 55 4000 4.1 340 16:21 16.10.2019
6099 Smoke 34 1009 49 4000 3.6 330 15:58 16.10.2019
6100 Smoke 34 1008 38 4000 3.6 30 15:39 16.10.2019
6101 Smoke 34 1008 38 4000 3.6 30 15:19 16.10.2019
6102 Smoke 34 1008 38 4000 3.6 30 15:19 16.10.2019
6103 Smoke 34 1008 38 4000 3.6 30 14:58 16.10.2019
6104 Smoke 35 1008 38 4000 3.6 30 14:39 16.10.2019
6105 Smoke 35 1008 39 4000 2.6 10 14:20 16.10.2019
6106 Smoke 35 1008 36 4000 4.1 50 13:57 16.10.2019
6107 Smoke 35 1008 36 4000 4.1 50 13:39 16.10.2019
6108 Smoke 35 1008 36 4000 5.1 70 13:20 16.10.2019
6109 Smoke 35 1008 36 4000 6.2 80 12:42 16.10.2019
6110 Smoke 36 1008 39 4000 5.1 60 12:20 16.10.2019
6111 Smoke 35 1008 36 4000 2.6 70 11:45 16.10.2019
6112 Smoke 36 1008 36 4000 2.6 70 11:45 16.10.2019
6113 Smoke 36 1009 39 3000 3.6 50 11:19 16.10.2019
6114 Smoke 36 1009 39 3000 4.6 110 10:56 16.10.2019
6115 Smoke 36 1009 39 3000 4.6 110 10:36 16.10.2019
6116 Smoke 35 1010 41 3000 4.1 110 10:18 16.10.2019
6117 Smoke 35 1010 39 3000 5.1 110 09:40 16.10.2019
6118 Smoke 35 1010 39 3000 5.1 110 09:40 16.10.2019
6119 Smoke 35 1011 41 3000 5.7 120 09:21 16.10.2019
6120 Smoke 35 1011 41 3000 5.1 90 08:46 16.10.2019
6121 Smoke 34 1011 41 3000 4.6 120 08:26 16.10.2019
6122 Smoke 34 1012 43 2500 5.1 90 07:59 16.10.2019
6123 Smoke 34 1012 43 2500 5.1 90 07:41 16.10.2019
6124 Smoke 33 1012 43 2500 3.6 90 07:22 16.10.2019
6125 Smoke 33 1012 43 2500 4.1 100 06:47 16.10.2019
6126 Smoke 32 1012 45 2500 4.1 70 06:28 16.10.2019
6127 Smoke 30 1011 48 3000 2.6 70 04:25 16.10.2019
6128 Smoke 29 1010 48 3000 3.1 70 02:51 16.10.2019
6129 Smoke 28 1010 51 3000 1.5 0 01:20 16.10.2019
6130 Smoke 28 1010 58 3000 2.968 58 00:59 16.10.2019
6131 Smoke 28 1010 58 3000 2.968 58 00:40 16.10.2019
6132 Smoke 29 1010 51 3000 2.386 63 23:58 15.10.2019
6133 Smoke 29 1010 51 3000 2.386 63 23:38 15.10.2019
6134 Smoke 30 1010 45 3000 2.386 63 23:19 15.10.2019
6135 Smoke 30 1011 51 3000 2.1 210 22:55 15.10.2019
6136 Smoke 30 1011 51 3000 2.1 210 22:55 15.10.2019
6137 Smoke 30 1011 51 3000 2.1 210 22:37 15.10.2019
6138 Smoke 30 1011 51 3000 2.386 63 22:18 15.10.2019
6139 Smoke 30 1011 51 3000 2.1 40 21:54 15.10.2019
6140 Smoke 30 1011 51 3000 2.1 40 21:54 15.10.2019
6141 Smoke 30 1011 51 3000 2.1 40 21:36 15.10.2019
6142 Smoke 30 1011 51 3000 2.1 40 21:36 15.10.2019
6143 Smoke 31 1011 48 3000 2.6 60 21:18 15.10.2019
6144 Smoke 31 1011 52 3000 3.6 90 20:54 15.10.2019
6145 Smoke 31 1011 52 3000 3.6 90 20:54 15.10.2019
6146 Smoke 31 1011 52 3000 3.6 90 20:54 15.10.2019
6147 Smoke 30 1011 58 3000 2.267 94 20:36 15.10.2019
6148 Smoke 30 1011 58 3000 2.267 94 20:18 15.10.2019
6149 Smoke 31 1011 55 3000 2.267 94 19:41 15.10.2019
6150 Smoke 31 1011 55 3000 2.267 94 19:41 15.10.2019
6151 Smoke 32 1011 52 3000 3.1 40 19:20 15.10.2019
6152 Smoke 32 1011 52 3000 3.1 40 19:20 15.10.2019
6153 -273 0 0 0 0 0 18:57 15.10.2019
6154 Smoke 32 1011 49 3000 1.5 80 18:39 15.10.2019
6155 Smoke 31 1011 55 3000 2.1 100 18:20 15.10.2019
6156 Smoke 31 1011 58 3000 2.6 10 17:43 15.10.2019
6157 Smoke 31 1011 58 3000 2.6 10 17:43 15.10.2019
6158 Smoke 32 1010 59 3000 2.6 350 17:21 15.10.2019
6159 Smoke 33 1010 52 3000 3.1 10 16:59 15.10.2019
6160 Smoke 33 1010 52 3000 3.1 10 16:41 15.10.2019
6161 Smoke 33 1010 49 3000 3.1 340 16:21 15.10.2019
6162 Smoke 34 1009 41 3000 2.6 20 15:56 15.10.2019
6163 Smoke 34 1009 41 3000 2.6 20 15:38 15.10.2019
6164 Smoke 34 1009 41 3500 3.6 10 15:19 15.10.2019
6165 Smoke 35 1009 39 3500 3.6 40 14:55 15.10.2019
6166 Smoke 35 1009 39 3500 3.6 40 14:36 15.10.2019
6167 Smoke 35 1009 36 4000 3.6 50 14:18 15.10.2019
6168 Smoke 36 1009 34 4000 4.1 290 13:43 15.10.2019
6169 Smoke 36 1009 34 4000 4.1 290 13:43 15.10.2019
6170 Smoke 36 1009 36 3500 2.829 358 13:20 15.10.2019
6171 Smoke 36 1009 36 3500 2.829 358 13:20 15.10.2019
6172 Smoke 36 1009 37 3500 2.1 180 12:56 15.10.2019
6173 Smoke 36 1009 37 3500 2.1 180 12:56 15.10.2019
6174 Smoke 36 1009 34 3000 3.6 100 12:38 15.10.2019
6175 Smoke 36 1009 34 3000 3.6 100 12:19 15.10.2019
6176 Smoke 36 1009 39 3000 2.1 70 11:42 15.10.2019
6177 Smoke 36 1009 39 3000 2.1 70 11:42 15.10.2019
6178 Smoke 36 1009 39 3500 3.6 120 11:20 15.10.2019
6179 Smoke 36 1010 37 4000 3.1 100 10:55 15.10.2019
6180 Smoke 36 1010 39 5000 6.2 80 10:37 15.10.2019
6181 Smoke 36 1010 39 4000 4.1 110 10:18 15.10.2019
6182 Smoke 36 1011 41 3000 4.6 90 09:41 15.10.2019
6183 Smoke 36 1011 41 3000 4.6 90 09:21 15.10.2019
6184 Smoke 36 1011 41 3000 4.6 90 09:21 15.10.2019
6185 Smoke 35 1011 39 3000 5.1 110 08:58 15.10.2019
6186 Smoke 35 1011 39 3000 5.1 110 08:58 15.10.2019
6187 Smoke 35 1011 39 3000 5.1 110 08:58 15.10.2019
6188 Smoke 35 1011 41 3000 5.7 130 08:40 15.10.2019
6189 Smoke 35 1011 41 3000 5.7 130 08:20 15.10.2019
6190 Smoke 35 1011 41 3000 5.7 130 08:19 15.10.2019
6191 Smoke 34 1012 44 3000 5.7 70 07:43 15.10.2019
6192 Smoke 34 1012 41 3000 5.7 90 07:23 15.10.2019
6193 Smoke 34 1012 43 3000 4.6 90 06:57 15.10.2019
6194 Smoke 33 1012 43 3000 4.6 90 06:39 15.10.2019
6195 Smoke 33 1012 43 3000 3.6 110 05:56 15.10.2019
6196 Smoke 33 1012 43 3000 3.6 110 05:36 15.10.2019
6197 Smoke 31 1011 55 3000 2.1 130 04:49 15.10.2019
6198 Smoke 30 1011 54 3000 2.1 120 04:19 15.10.2019
6199 Smoke 30 1011 54 2500 2.6 40 03:35 15.10.2019
6200 Smoke 29 1010 51 2500 5.62 83.851 01:57 15.10.2019
6201 Smoke 29 1010 51 2500 5.62 83.851 01:39 15.10.2019
6202 Smoke 29 1009 54 2500 1.5 0 00:59 15.10.2019
6203 Smoke 30 1010 51 2500 2.1 60 00:25 15.10.2019
6204 Smoke 30 1010 55 2500 3.1 50 23:59 14.10.2019
6205 Smoke 30 1010 55 2500 3.1 50 23:37 14.10.2019
6206 Smoke 30 1010 55 2500 3.1 50 23:37 14.10.2019
6207 Haze 30 1010 58 2500 2.1 50 23:18 14.10.2019
6208 Haze 30 1010 58 2500 1.5 60 22:39 14.10.2019
6209 Haze 30 1010 58 2500 1.5 40 22:21 14.10.2019
6210 Haze 30 1010 62 2500 27.8 40 21:58 14.10.2019
6211 Haze 30 1010 66 2500 2.1 90 21:40 14.10.2019
6212 Haze 30 1010 66 2500 2.1 90 21:21 14.10.2019
6213 Haze 30 1010 70 3000 2.6 120 20:58 14.10.2019
6214 Haze 30 1010 70 3000 2.6 120 20:38 14.10.2019
6215 Haze 31 1011 58 2500 2.6 140 20:19 14.10.2019
6216 Haze 31 1011 58 2500 1.5 90 19:55 14.10.2019
6217 Haze 31 1011 58 2500 1.5 90 19:54 14.10.2019
6218 Haze 31 1011 58 2500 1.5 90 19:36 14.10.2019
6219 Haze 31 1011 62 2500 3.1 20 19:18 14.10.2019
6220 Haze 31 1011 66 2500 3.1 30 18:54 14.10.2019
6221 Haze 31 1011 66 2500 3.1 230 18:36 14.10.2019
6222 Haze 31 1011 66 2500 3.1 230 18:18 14.10.2019
6223 Haze 32 1011 62 2500 2.6 260 17:41 14.10.2019
6224 Haze 32 1011 62 2500 2.6 270 17:22 14.10.2019
6225 Haze 33 1010 59 2500 4.1 50 16:46 14.10.2019
6226 Haze 33 1010 59 2500 4.1 50 16:23 14.10.2019
6227 Haze 33 1010 62 2500 3.6 330 15:59 14.10.2019
6228 Haze 33 1010 63 2500 1.5 0 15:40 14.10.2019
6229 Haze 33 1010 63 2500 1.5 0 15:40 14.10.2019
6230 Haze 33 1010 63 2500 1.5 0 15:21 14.10.2019
6231 Smoke 33 1009 59 2500 3.1 320 14:44 14.10.2019
6232 Smoke 34 1009 56 2500 3.6 320 14:25 14.10.2019
6233 Smoke 34 1009 59 2500 4.6 310 13:57 14.10.2019
6234 Smoke 33 1009 59 2500 4.6 310 13:39 14.10.2019
6235 Smoke 33 1009 59 2500 4.6 310 13:20 14.10.2019
6236 Smoke 33 1009 59 2500 4.6 310 13:20 14.10.2019
6237 Smoke 34 1009 59 2500 4.6 320 12:41 14.10.2019
6238 Smoke 35 1009 56 2500 3.6 300 12:21 14.10.2019
6239 Smoke 35 1009 56 2500 5.1 270 11:55 14.10.2019
6240 Smoke 35 1009 56 2500 5.7 270 11:36 14.10.2019
6241 Smoke 35 1009 56 2500 5.7 270 11:18 14.10.2019
6242 Smoke 35 1010 56 2500 5.1 290 10:44 14.10.2019
6243 Smoke 35 1010 56 2500 5.1 290 10:44 14.10.2019
6244 Smoke 35 1010 44 3000 2.1 70 10:21 14.10.2019
6245 Smoke 35 1011 47 3000 2.6 100 09:59 14.10.2019
6246 Smoke 35 1011 47 3000 2.6 100 09:59 14.10.2019
6247 Smoke 36 1011 47 3000 3.6 120 09:38 14.10.2019
6248 Smoke 36 1011 47 3000 3.6 120 09:38 14.10.2019
6249 Smoke 36 1011 47 3000 3.6 120 09:20 14.10.2019
6250 Smoke 35 1012 52 3000 3.6 100 08:48 14.10.2019
6251 Smoke 34 1012 49 3000 3.1 140 08:23 14.10.2019
6252 Smoke 34 1012 52 3000 4.1 80 07:44 14.10.2019
6253 Haze 34 1013 52 2500 2.6 90 07:22 14.10.2019
6254 Haze 33 1013 55 2500 3.1 70 06:55 14.10.2019
6255 Haze 32 1013 62 2500 3.6 80 06:27 14.10.2019
6256 Haze 31 1013 66 2500 3.1 80 05:52 14.10.2019
6257 Haze 30 1012 74 2500 1.5 40 04:53 14.10.2019
6258 Haze 28 1012 78 2500 2.1 130 03:49 14.10.2019
6259 Haze 28 1011 78 2500 1.5 100 03:22 14.10.2019
6260 Haze 28 1010 78 2500 1 130 01:52 14.10.2019
6261 Haze 28 1010 78 2500 1.5 80 01:18 14.10.2019
6262 Haze 28 1010 83 2500 2.6 80 00:40 14.10.2019
6263 Haze 28 1010 83 2500 2.6 80 00:18 14.10.2019
6264 Haze 29 1010 79 3000 3.1 120 23:40 13.10.2019
6265 Haze 29 1010 79 3000 3.1 120 23:19 13.10.2019
6266 Haze 30 1011 70 3000 3.46 54.891 22:55 13.10.2019
6267 Haze 29 1011 79 3000 2.1 90 22:37 13.10.2019
6268 Haze 29 1011 79 3000 2.1 90 22:19 13.10.2019
6269 Haze 29 1011 74 3000 2.1 330 21:55 13.10.2019
6270 Haze 30 1012 70 3000 3.46 54.891 21:36 13.10.2019
6271 Haze 30 1012 70 3000 4.5 359.121 21:18 13.10.2019
6272 Haze 30 1012 70 3000 4.5 359.121 21:18 13.10.2019
6273 Haze 29 1012 74 3000 1.5 140 20:55 13.10.2019
6274 Haze 29 1012 74 3000 2.1 150 20:37 13.10.2019
6275 Haze 29 1012 74 3000 2.1 150 20:18 13.10.2019
6276 Thunderstorm 29 1012 74 3000 3.6 110 19:54 13.10.2019
6277 Thunderstorm 30 1013 74 3000 2.1 110 19:36 13.10.2019
6278 Thunderstorm 30 1013 74 3000 2.1 110 19:18 13.10.2019
6279 Haze 31 1012 70 3000 1.5 90 18:39 13.10.2019
6280 Haze 31 1012 70 3000 1.5 90 18:20 13.10.2019
6281 Haze 31 1012 70 3000 4.62 346.171 18:20 13.10.2019
6282 Haze 31 1012 70 3000 4.62 346.171 17:59 13.10.2019
6283 Haze 32 1011 62 3000 2.1 330 17:41 13.10.2019
6284 Haze 32 1011 62 3000 2.1 330 17:22 13.10.2019
6285 Haze 31 1011 70 3000 1.5 300 16:43 13.10.2019
6286 Haze 32 1010 66 3000 3.1 330 16:19 13.10.2019
6287 Haze 32 1010 66 3000 2.1 290 15:57 13.10.2019
6288 Haze 32 1010 59 3000 3.1 270 15:39 13.10.2019
6289 -273 0 0 0 0 0 15:20 13.10.2019
6290 Haze 32 1010 59 3500 3.1 280 15:20 13.10.2019
6291 Haze 32 1010 59 3500 3.1 280 14:58 13.10.2019
6292 Haze 32 1010 62 3500 3.1 270 14:39 13.10.2019
6293 Haze 32 1010 62 3500 3.1 270 14:20 13.10.2019
6294 Haze 32 1009 62 3500 4.1 260 13:56 13.10.2019
6295 Smoke 33 1009 59 3500 4.1 280 13:37 13.10.2019
6296 Smoke 33 1009 59 3500 4.1 280 13:18 13.10.2019
6297 Smoke 33 1008 59 3500 5.1 260 12:55 13.10.2019
6298 Smoke 34 1008 59 3500 5.1 250 12:37 13.10.2019
6299 Smoke 34 1008 59 3500 5.1 250 12:18 13.10.2019
6300 Smoke 34 1009 56 3500 4.1 270 11:55 13.10.2019
6301 Smoke 35 1009 56 3500 3.6 270 11:36 13.10.2019
6302 Smoke 35 1009 56 3500 3.6 270 11:18 13.10.2019
6303 Smoke 35 1010 50 3000 2.6 220 10:41 13.10.2019
6304 Smoke 35 1010 50 3000 2.6 220 10:22 13.10.2019
6305 Smoke 35 1010 47 3000 2.1 180 09:41 13.10.2019
6306 Smoke 34 1011 52 3000 2.6 210 09:21 13.10.2019
6307 Smoke 34 1011 49 3000 2.6 160 08:57 13.10.2019
6308 Smoke 33 1012 52 2500 2.6 100 08:38 13.10.2019
6309 Smoke 33 1012 52 2500 2.6 100 08:19 13.10.2019
6310 Haze 33 1012 55 2500 2.6 110 07:46 13.10.2019
6311 Haze 31 1012 62 2500 1.5 80 06:59 13.10.2019
6312 Haze 30 1012 70 2500 1.5 120 06:40 13.10.2019
6313 Haze 29 1012 70 2500 2.6 90 05:34 13.10.2019
6314 Haze 28 1011 74 2500 2.1 40 04:46 13.10.2019
6315 Haze 26 1011 78 2200 1.88 26.388 03:40 13.10.2019
6316 Haze 26 1010 78 2500 1.5 140 02:39 13.10.2019
6317 Haze 26 1010 78 2500 1.5 150 01:53 13.10.2019
6318 Haze 26 1010 78 2500 1.5 120 01:26 13.10.2019
6319 Haze 26 1010 78 2500 1.5 120 01:26 13.10.2019
6320 Haze 26 1010 78 2500 2.6 120 00:46 13.10.2019
6321 Haze 26 1010 78 2500 1.5 140 00:21 13.10.2019
6322 Haze 26 1010 78 2500 1.5 110 23:56 12.10.2019
6323 Haze 27 1010 74 2500 2.1 130 23:37 12.10.2019
6324 Haze 27 1010 74 2500 2.1 130 23:19 12.10.2019
6325 Haze 27 1010 74 2500 2.1 120 22:57 12.10.2019
6326 Haze 27 1010 74 2500 2.1 140 22:38 12.10.2019
6327 Haze 27 1010 74 2500 2.1 140 22:20 12.10.2019
6328 Haze 27 1011 74 2500 1.5 130 21:54 12.10.2019
6329 Haze 27 1011 74 2500 2.6 110 21:36 12.10.2019
6330 Haze 27 1011 74 2500 2.6 110 21:18 12.10.2019
6331 Haze 27 1011 74 2500 3.1 100 20:40 12.10.2019
6332 Haze 27 1011 74 2500 3.1 100 20:22 12.10.2019
6333 Haze 31 1011 69 2500 2.1 180 19:38 12.10.2019
6334 Haze 31 1011 69 2500 2.1 180 19:20 12.10.2019
6335 Haze 30 1011 69 2500 2.1 70 18:57 12.10.2019
6336 Haze 30 1012 69 2500 3.1 70 18:38 12.10.2019
6337 Haze 30 1012 69 2500 3.1 70 18:20 12.10.2019
6338 Haze 29 1011 74 2500 4.1 90 17:43 12.10.2019
6339 Haze 29 1011 74 2500 4.1 90 17:19 12.10.2019
6340 Thunderstorm 29 1011 74 2500 4.18 339.381 16:54 12.10.2019
6341 Thunderstorm 28 1010 78 2500 2.6 130 16:36 12.10.2019
6342 Thunderstorm 28 1010 78 2500 2.6 130 16:36 12.10.2019
6343 Thunderstorm 29 1010 78 2500 2.6 130 16:18 12.10.2019
6344 Thunderstorm 30 1010 65 2200 4.1 110 15:43 12.10.2019
6345 Thunderstorm 30 1010 65 2200 4.1 110 15:23 12.10.2019
6346 Haze 31 1009 74 3000 3.6 300 14:43 12.10.2019
6347 Haze 31 1009 66 3000 4.1 290 14:22 12.10.2019
6348 Haze 32 1008 62 3000 3.1 310 13:58 12.10.2019
6349 Haze 32 1008 66 2500 5.7 270 13:40 12.10.2019
6350 Haze 32 1008 66 2500 5.7 270 13:40 12.10.2019
6351 Haze 32 1008 66 2500 5.7 270 13:21 12.10.2019
6352 Haze 32 1008 66 2500 4.1 280 12:39 12.10.2019
6353 Haze 33 1008 66 2500 4.1 280 12:21 12.10.2019
6354 Haze 33 1008 66 2500 4.6 270 11:58 12.10.2019
6355 Haze 33 1008 66 2500 5.1 290 11:39 12.10.2019
6356 Haze 34 1008 66 2500 5.1 290 11:20 12.10.2019
6357 Haze 33 1009 70 2500 5.1 280 10:44 12.10.2019
6358 Haze 34 1009 63 2500 4.6 290 10:24 12.10.2019
6359 Smoke 34 1009 49 2500 3.1 250 09:58 12.10.2019
6360 Smoke 34 1009 49 2500 3.1 250 09:58 12.10.2019
6361 Smoke 34 1010 49 3000 2.1 120 09:39 12.10.2019
6362 Smoke 34 1010 49 3000 2.1 120 09:21 12.10.2019
6363 Smoke 34 1010 49 3000 4.1 100 08:57 12.10.2019
6364 Smoke 34 1011 55 3000 4.1 110 08:38 12.10.2019
6365 Smoke 33 1011 55 3000 4.1 110 08:20 12.10.2019
6366 Haze 32 1011 62 2500 2.6 120 07:35 12.10.2019
6367 Haze 32 1011 70 2500 2.6 90 06:56 12.10.2019
6368 Haze 30 1011 79 2500 3.1 100 05:47 12.10.2019
6369 Haze 29 1011 74 2500 3.1 100 05:23 12.10.2019
6370 Haze 29 1010 83 2500 2.1 90 04:24 12.10.2019
6371 Haze 29 1009 83 3000 2.1 90 03:31 12.10.2019
6372 Haze 28 1008 83 3000 1.5 90 01:45 12.10.2019
6373 Haze 28 1008 83 3000 2.6 100 01:21 12.10.2019
6374 Haze 28 1008 83 3000 2.6 100 01:21 12.10.2019
6375 Haze 28 1008 83 3000 2.1 110 00:42 12.10.2019
6376 Haze 28 1008 83 3000 1.5 120 23:59 11.10.2019
6377 Haze 28 1009 83 3000 1.5 110 23:40 11.10.2019
6378 Haze 28 1009 83 3000 1.5 110 23:20 11.10.2019
6379 Haze 28 1009 83 3500 2.1 120 22:41 11.10.2019
6380 Haze 28 1009 83 3500 3.6 130 22:21 11.10.2019
6381 Haze 29 1009 79 3500 3.1 110 21:58 11.10.2019
6382 Haze 29 1010 79 4000 2.1 120 21:39 11.10.2019
6383 Haze 29 1010 79 4000 2.1 120 21:21 11.10.2019
6384 Haze 29 1010 79 4000 1.5 0 20:45 11.10.2019
6385 Haze 29 1010 79 4000 1.5 0 20:27 11.10.2019
6386 Haze 29 1010 79 4000 0.98 324.679 19:58 11.10.2019
6387 Haze 30 1010 74 4000 1.5 0 19:39 11.10.2019
6388 Haze 30 1010 74 4000 1.5 0 19:39 11.10.2019
6389 Haze 30 1010 74 4000 2.1 70 19:18 11.10.2019
6390 Haze 30 1010 74 4000 1.5 0 19:18 11.10.2019
6391 Haze 30 1010 74 4000 2.1 70 19:18 11.10.2019
6392 Haze 30 1010 74 4000 2.1 70 18:59 11.10.2019
6393 Haze 30 1010 74 4000 2.1 70 18:59 11.10.2019
6394 Haze 30 1010 74 4000 1.5 290 18:38 11.10.2019
6395 Haze 30 1010 74 4000 1.5 290 18:19 11.10.2019
6396 Haze 31 1009 66 3500 1.5 20 17:59 11.10.2019
6397 Haze 30 1009 70 3500 2.1 300 17:38 11.10.2019
6398 Haze 30 1009 70 3500 2.1 300 17:19 11.10.2019
6399 Haze 30 1009 70 3500 3.1 270 16:58 11.10.2019
6400 Haze 30 1008 70 4000 2.6 280 16:39 11.10.2019
6401 Haze 30 1008 70 4000 2.6 280 16:19 11.10.2019
6402 Haze 31 1008 70 4000 3.1 290 15:42 11.10.2019
6403 Haze 31 1008 70 4000 3.6 280 15:22 11.10.2019
6404 Haze 31 1008 62 4000 3.6 300 14:59 11.10.2019
6405 Haze 31 1007 62 4000 4.1 280 14:40 11.10.2019
6406 Haze 31 1007 62 4000 4.1 280 14:21 11.10.2019
6407 Smoke 31 1008 55 5000 5.1 290 13:45 11.10.2019
6408 Smoke 32 1007 62 4000 4.1 270 13:25 11.10.2019
6409 Smoke 33 1007 59 4000 4.1 270 12:58 11.10.2019
6410 Smoke 33 1007 55 4000 4.6 270 12:39 11.10.2019
6411 Smoke 33 1007 55 4000 4.6 270 12:20 11.10.2019
6412 Smoke 34 1008 55 4000 4.6 260 11:59 11.10.2019
6413 Smoke 34 1008 55 4000 4.6 250 11:39 11.10.2019
6414 Smoke 33 1008 55 4000 4.6 250 11:21 11.10.2019
6415 Smoke 34 1008 55 4000 4.6 250 10:56 11.10.2019
6416 Smoke 33 1009 55 4000 4.1 250 10:36 11.10.2019
6417 Smoke 33 1009 55 4000 4.1 250 10:18 11.10.2019
6418 Smoke 33 1010 49 4500 1.5 0 09:42 11.10.2019
6419 Smoke 33 1010 49 4500 1.5 0 09:21 11.10.2019
6420 Smoke 33 1010 49 4500 2.1 140 08:59 11.10.2019
6421 Smoke 32 1011 55 4500 2.6 120 08:39 11.10.2019
6422 Smoke 32 1011 55 4500 2.6 120 08:20 11.10.2019
6423 Haze 32 1011 52 4000 2.6 160 07:54 11.10.2019
6424 Haze 32 1011 55 4000 2.6 150 07:34 11.10.2019
6425 Haze 31 1012 58 3000 2.1 130 06:50 11.10.2019
6426 Haze 30 1012 66 3000 2.6 110 06:25 11.10.2019
6427 Haze 29 1011 69 3000 3.1 100 05:48 11.10.2019
6428 Haze 28 1011 78 3000 2.6 90 05:30 11.10.2019
6429 Haze 27 1011 78 3000 2.1 100 04:58 11.10.2019
6430 Haze 27 1010 88 2500 2.1 110 03:45 11.10.2019
6431 Haze 27 1010 74 2500 2.1 140 01:28 11.10.2019
6432 Haze 27 1009 78 2500 2.1 90 00:42 11.10.2019
6433 Haze 27 1009 78 2500 2.1 90 00:20 11.10.2019
6434 Haze 28 1009 78 2500 1.5 130 23:41 10.10.2019
6435 Haze 28 1009 78 2500 1.5 130 23:20 10.10.2019
6436 Haze 28 1010 78 2500 1.5 160 22:57 10.10.2019
6437 Haze 28 1010 78 2500 2.1 180 22:37 10.10.2019
6438 Haze 28 1010 78 2500 2.1 180 22:19 10.10.2019
6439 Haze 28 1010 74 2500 2.6 160 21:54 10.10.2019
6440 Haze 28 1010 74 2500 2.6 140 21:36 10.10.2019
6441 Haze 30 1010 74 2500 2.6 140 21:18 10.10.2019
6442 Haze 30 1011 83 2500 1.5 130 20:41 10.10.2019
6443 Haze 30 1011 83 2500 1.5 130 20:20 10.10.2019
6444 Haze 30 1011 83 2500 1.5 130 20:20 10.10.2019
6445 Haze 30 1011 83 2500 1.5 130 20:20 10.10.2019
6446 Haze 30 1010 83 2500 2.1 190 19:57 10.10.2019
6447 Haze 30 1010 83 2500 1.5 120 19:39 10.10.2019
6448 Haze 30 1010 83 2500 2.1 110 19:19 10.10.2019
6449 Haze 28 1010 83 2500 2.1 110 18:54 10.10.2019
6450 Haze 28 1010 83 2500 2.1 110 18:54 10.10.2019
6451 Haze 28 1010 83 2500 2.1 110 18:54 10.10.2019
6452 Haze 29 1010 79 2500 2.1 120 18:36 10.10.2019
6453 Haze 31 1010 79 2500 2.1 120 18:18 10.10.2019
6454 Haze 30 1010 70 3000 2.6 180 17:40 10.10.2019
6455 Haze 30 1010 70 3000 2.6 180 17:20 10.10.2019
6456 Haze 30 1009 70 3000 2.6 210 16:58 10.10.2019
6457 Haze 30 1009 70 3000 1.5 0 16:39 10.10.2019
6458 Haze 30 1009 70 3000 1.5 0 16:21 10.10.2019
6459 Haze 30 1008 70 3000 3.1 140 15:43 10.10.2019
6460 Haze 30 1008 70 3000 3.1 140 15:23 10.10.2019
6461 Rain 31 1008 66 3500 5.1 110 14:59 10.10.2019
6462 Haze 32 1008 70 4000 3.6 300 14:37 10.10.2019
6463 Haze 32 1008 70 4000 3.6 300 14:37 10.10.2019
6464 Haze 32 1008 70 4000 3.6 300 14:19 10.10.2019
6465 Haze 32 1008 70 4000 3.6 300 14:19 10.10.2019
6466 Haze 33 1007 66 4000 3.6 280 13:59 10.10.2019
6467 Haze 33 1007 66 3500 4.1 270 13:39 10.10.2019
6468 Haze 33 1007 66 3500 4.1 270 13:18 10.10.2019
6469 Haze 33 1007 62 3500 4.6 290 13:18 10.10.2019
6470 Haze 33 1007 62 3500 4.6 290 12:54 10.10.2019
6471 Haze 33 1007 62 3500 4.1 280 12:36 10.10.2019
6472 Haze 33 1007 62 3500 4.1 280 12:18 10.10.2019
6473 Haze 33 1008 62 3500 5.1 280 11:41 10.10.2019
6474 Haze 33 1008 66 3500 5.1 290 11:20 10.10.2019
6475 Haze 33 1008 66 3500 5.1 290 11:20 10.10.2019
6476 Haze 33 1009 63 3500 4.6 270 10:58 10.10.2019
6477 Haze 33 1009 62 3500 4.1 250 10:40 10.10.2019
6478 Haze 33 1009 62 3500 4.1 250 10:21 10.10.2019
6479 Haze 34 1010 56 3000 4.1 210 09:41 10.10.2019
6480 Haze 33 1009 66 3000 4.6 270 09:41 10.10.2019
6481 Haze 33 1010 56 3000 4.1 210 09:23 10.10.2019
6482 Haze 33 1010 49 3000 2.6 100 08:59 10.10.2019
6483 Haze 33 1010 49 3000 2.6 100 08:41 10.10.2019
6484 Haze 33 1010 59 3000 2.1 110 08:21 10.10.2019
6485 Haze 32 1011 62 3000 1.5 60 07:57 10.10.2019
6486 Haze 32 1011 62 3000 3.1 120 07:36 10.10.2019
6487 Haze 31 1011 70 3000 3.1 70 07:18 10.10.2019
6488 Haze 30 1011 74 3000 2.1 140 06:39 10.10.2019
6489 Haze 29 1011 74 2500 1.5 130 05:56 10.10.2019
6490 Haze 28 1011 74 2500 2.1 60 05:21 10.10.2019
6491 Haze 28 1010 83 2500 2.1 60 04:36 10.10.2019
6492 Haze 26 1009 88 2500 1.5 130 02:46 10.10.2019
6493 Haze 26 1009 83 2500 2.1 140 01:39 10.10.2019
6494 Haze 26 1009 83 2500 2.1 140 01:39 10.10.2019
6495 Haze 26 1009 83 2500 2.1 140 01:21 10.10.2019
6496 Haze 26 1009 83 2500 1.5 100 00:41 10.10.2019
6497 Haze 27 1009 78 2500 1.5 40 23:57 09.10.2019
6498 Haze 26 1009 83 2500 2.1 70 23:36 09.10.2019
6499 Haze 26 1009 83 2500 2.1 70 23:18 09.10.2019
6500 Haze 27 1009 78 2500 2.1 150 22:42 09.10.2019
6501 Haze 27 1009 83 2500 1.5 60 22:22 09.10.2019
6502 Haze 27 1009 78 2500 1.5 120 21:58 09.10.2019
6503 Haze 27 1010 83 2500 2.1 110 21:39 09.10.2019
6504 Haze 29 1010 83 2500 2.1 110 21:19 09.10.2019
6505 Haze 29 1010 83 2500 3.6 110 20:55 09.10.2019
6506 Haze 27 1010 78 2500 2.1 100 20:37 09.10.2019
6507 Haze 29 1010 78 2500 2.1 100 20:18 09.10.2019
6508 Drizzle 29 1010 74 2500 2.1 120 20:18 09.10.2019
6509 Drizzle 27 1010 74 2500 2.1 120 19:45 09.10.2019
6510 Thunderstorm 29 1010 83 2500 1.5 130 19:23 09.10.2019
6511 Thunderstorm 29 1010 83 2500 2.6 110 18:57 09.10.2019
6512 Thunderstorm 29 1011 83 2500 4.6 80 18:37 09.10.2019
6513 Thunderstorm 29 1011 83 2500 4.6 80 18:18 09.10.2019
6514 Haze 29 1010 83 2500 3.1 110 17:54 09.10.2019
6515 Haze 29 1010 78 2500 3.6 100 17:36 09.10.2019
6516 Haze 29 1010 78 2500 3.6 100 17:18 09.10.2019
6517 Thunderstorm 29 1009 78 2500 2.6 150 16:40 09.10.2019
6518 Thunderstorm 29 1009 78 2500 2.6 150 16:21 09.10.2019
6519 Thunderstorm 29 1009 78 2500 2.6 150 16:21 09.10.2019
6520 Thunderstorm 30 1009 69 2500 3.1 160 15:57 09.10.2019
6521 Thunderstorm 30 1009 69 2500 3.1 160 15:57 09.10.2019
6522 Thunderstorm 30 1009 69 2500 5.1 110 15:39 09.10.2019
6523 Thunderstorm 30 1009 69 2500 5.1 110 15:19 09.10.2019
6524 Haze 30 1008 58 3000 4.1 110 14:56 09.10.2019
6525 Haze 31 1008 66 3500 2.6 70 14:37 09.10.2019
6526 Haze 32 1007 70 4000 4.6 280 14:18 09.10.2019
6527 Haze 32 1007 70 4000 4.6 280 14:18 09.10.2019
6528 Haze 32 1007 66 4000 4.6 280 13:39 09.10.2019
6529 Haze 32 1007 66 4000 4.6 280 13:21 09.10.2019
6530 Haze 33 1007 62 4000 4.6 280 12:58 09.10.2019
6531 Haze 33 1007 66 4000 5.7 270 12:40 09.10.2019
6532 Haze 33 1007 66 4000 5.7 270 12:21 09.10.2019
6533 Haze 33 1007 66 4000 3.6 270 11:55 09.10.2019
6534 Haze 33 1008 66 4000 4.1 280 11:36 09.10.2019
6535 Haze 33 1008 66 4000 4.1 280 11:18 09.10.2019
6536 Haze 33 1008 62 4000 4.6 270 10:43 09.10.2019
6537 Haze 33 1009 62 4000 3.6 260 10:21 09.10.2019
6538 Haze 33 1009 66 4000 3.6 270 09:57 09.10.2019
6539 Haze 33 1009 66 4000 3.6 270 09:57 09.10.2019
6540 Haze 33 1010 62 4000 3.6 240 09:38 09.10.2019
6541 Haze 33 1010 62 4000 3.6 240 09:18 09.10.2019
6542 Haze 32 1011 62 3000 1.5 210 08:40 09.10.2019
6543 Haze 33 1011 62 3000 1.5 210 08:21 09.10.2019
6544 Haze 33 1011 62 3000 3.17 106.375 07:54 09.10.2019
6545 Haze 32 1011 62 3000 3.17 106.375 07:36 09.10.2019
6546 Haze 31 1011 70 3000 2.6 250 07:18 09.10.2019
6547 Haze 31 1011 70 3000 2.6 250 06:47 09.10.2019
6548 Haze 29 1011 74 3000 1.5 190 05:55 09.10.2019
6549 Mist 28 1011 74 3000 3.29 85.011 05:23 09.10.2019
6550 Mist 29 1011 78 3000 3.1 120 04:20 09.10.2019
6551 Haze 26 1009 83 3000 4.91 34.913 02:45 09.10.2019
6552 Haze 27 1009 78 3000 2.1 30 01:43 09.10.2019
6553 Haze 26 1008 88 3000 1.5 130 01:19 09.10.2019
6554 Haze 26 1008 88 3000 1.5 130 00:56 09.10.2019
6555 Haze 28 1008 88 3000 2.6 110 00:38 09.10.2019
6556 Haze 28 1008 88 3000 2.6 110 00:38 09.10.2019
6557 Haze 28 1008 88 3000 2.6 110 00:19 09.10.2019
6558 Haze 28 1009 83 3000 2.1 70 23:39 08.10.2019
6559 Haze 28 1009 83 3000 2.1 70 23:18 08.10.2019
6560 Haze 26 1009 83 3000 1.5 70 22:56 08.10.2019
6561 Thunderstorm 28 1009 83 3000 2.1 100 22:38 08.10.2019
6562 Thunderstorm 26 1009 83 3000 2.1 100 22:19 08.10.2019
6563 Thunderstorm 28 1010 83 3000 3.6 100 21:57 08.10.2019
6564 Thunderstorm 26 1010 83 3000 3.1 130 21:38 08.10.2019
6565 Thunderstorm 28 1010 83 3000 3.1 130 21:19 08.10.2019
6566 Thunderstorm 29 1011 88 3000 2.1 140 20:56 08.10.2019
6567 Thunderstorm 28 1011 88 3000 2.1 120 20:37 08.10.2019
6568 Thunderstorm 28 1011 88 3000 2.1 120 20:19 08.10.2019
6569 Thunderstorm 28 1011 88 2500 2.1 70 19:56 08.10.2019
6570 Thunderstorm 28 1011 78 2200 5.1 80 19:37 08.10.2019
6571 Thunderstorm 28 1011 78 2200 5.1 80 19:18 08.10.2019
6572 Thunderstorm 29 1012 65 2200 7.7 110 18:46 08.10.2019
6573 Thunderstorm 31 1011 74 2500 3.1 80 18:25 08.10.2019
6574 Thunderstorm 31 1010 74 2500 6.74 355.837 17:58 08.10.2019
6575 Thunderstorm 32 1010 70 3000 2.6 250 17:39 08.10.2019
6576 Thunderstorm 32 1010 70 3000 2.6 250 17:39 08.10.2019
6577 Thunderstorm 32 1010 70 3000 2.6 250 17:20 08.10.2019
6578 Thunderstorm 32 1010 70 3000 3.1 210 16:56 08.10.2019
6579 Thunderstorm 32 1010 70 3000 3.1 210 16:56 08.10.2019
6580 Thunderstorm 31 1009 66 3000 2.1 320 16:37 08.10.2019
6581 Thunderstorm 31 1009 66 3000 2.1 320 16:19 08.10.2019
6582 Thunderstorm 32 1009 62 3500 3.6 300 15:40 08.10.2019
6583 Thunderstorm 32 1009 62 3500 3.6 300 15:20 08.10.2019
6584 Haze 32 1008 66 4000 3.1 340 14:57 08.10.2019
6585 Haze 32 1007 66 4000 4.1 310 14:38 08.10.2019
6586 Haze 32 1007 66 4000 4.1 310 14:38 08.10.2019
6587 Haze 32 1007 66 4000 4.1 310 14:20 08.10.2019
6588 Haze 33 1007 70 4000 5.1 300 13:55 08.10.2019
6589 Haze 33 1007 70 4000 5.1 300 13:55 08.10.2019
6590 Haze 33 1007 66 4000 4.6 290 13:37 08.10.2019
6591 Haze 33 1007 66 4000 4.6 290 13:18 08.10.2019
6592 Haze 33 1007 66 4000 4.6 290 12:41 08.10.2019
6593 Haze 34 1007 66 4000 4.6 280 12:21 08.10.2019
6594 -273 0 0 0 0 0 11:59 08.10.2019
6595 Haze 34 1008 70 2500 4.1 280 11:40 08.10.2019
6596 Haze 34 1008 70 2500 4.1 280 11:21 08.10.2019
6597 Haze 34 1008 66 2500 6.2 250 10:55 08.10.2019
6598 Haze 34 1009 66 2500 2.6 270 10:36 08.10.2019
6599 Haze 34 1009 66 2500 2.6 270 10:18 08.10.2019
6600 Haze 34 1010 63 2500 3.1 270 09:41 08.10.2019
6601 Haze 34 1010 63 2500 3.1 270 09:22 08.10.2019
6602 Haze 33 1010 66 2500 3.1 250 08:54 08.10.2019
6603 Haze 34 1011 63 2500 2.6 200 08:36 08.10.2019
6604 Haze 33 1011 63 2500 2.6 200 08:18 08.10.2019
6605 Haze 33 1012 63 2500 2.6 150 07:41 08.10.2019
6606 Haze 32 1012 66 2500 1.5 30 07:19 08.10.2019
6607 Haze 32 1012 66 2500 1.5 30 06:46 08.10.2019
6608 Haze 31 1012 70 2500 2.1 10 06:23 08.10.2019
6609 Haze 29 1012 79 1600 1.5 140 05:44 08.10.2019
6610 Haze 29 1012 79 1600 1.5 140 05:21 08.10.2019
6611 Haze 29 1012 79 1600 1.5 140 05:21 08.10.2019
6612 Mist 28 1010 83 1500 5.2 24.585 03:32 08.10.2019
6613 Mist 28 1009 88 1500 2.6 50 02:44 08.10.2019
6614 Mist 28 1009 88 1500 2.6 50 02:25 08.10.2019
6615 Mist 28 1009 88 1500 2.6 80 01:42 08.10.2019
6616 Mist 28 1009 88 2500 2.1 110 00:57 08.10.2019
6617 Mist 28 1009 83 2500 2.6 70 00:25 08.10.2019
6618 Mist 29 1009 79 2500 2.1 30 23:58 07.10.2019
6619 Mist 29 1009 83 2500 2.6 30 23:38 07.10.2019
6620 Mist 29 1009 83 2500 2.6 30 23:19 07.10.2019
6621 Mist 29 1009 83 2500 2.6 30 23:19 07.10.2019
6622 Mist 29 1010 83 2500 2.1 80 22:55 07.10.2019
6623 Haze 29 1010 83 2500 2.1 10 22:37 07.10.2019
6624 Haze 29 1010 83 2500 2.1 10 22:18 07.10.2019
6625 Haze 29 1010 83 2500 2.1 350 21:54 07.10.2019
6626 Haze 29 1011 79 2500 1.5 330 21:36 07.10.2019
6627 Haze 29 1011 79 2500 1.5 330 21:36 07.10.2019
6628 Haze 29 1011 79 2500 1.5 330 21:18 07.10.2019
6629 Haze 29 1011 83 2500 5.92 353.551 20:56 07.10.2019
6630 Haze 29 1011 83 2500 5.92 353.551 20:56 07.10.2019
6631 Haze 29 1011 83 2500 2.1 80 20:37 07.10.2019
6632 Haze 29 1011 83 2500 2.1 80 20:18 07.10.2019
6633 Haze 30 1011 79 2100 1.5 20 19:42 07.10.2019
6634 Haze 30 1011 79 2100 1.5 20 19:21 07.10.2019
6635 Haze 30 1011 79 2500 2.1 20 18:59 07.10.2019
6636 Haze 30 1011 79 2500 2.1 350 18:41 07.10.2019
6637 Haze 30 1011 74 2500 3.1 330 18:19 07.10.2019
6638 Haze 30 1011 74 2500 3.1 330 17:58 07.10.2019
6639 Haze 31 1011 70 2500 3.1 350 17:40 07.10.2019
6640 Haze 31 1011 70 2500 3.1 350 17:18 07.10.2019
6641 Thunderstorm 30 1011 74 2500 3.6 350 16:44 07.10.2019
6642 Thunderstorm 31 1010 70 2500 3.6 330 16:26 07.10.2019
6643 Thunderstorm 31 1010 70 2500 3.6 320 15:57 07.10.2019
6644 Haze 31 1010 70 2500 4.1 300 15:38 07.10.2019
6645 Haze 31 1010 70 2500 4.1 300 15:20 07.10.2019
6646 Haze 31 1009 70 3000 4.1 300 14:41 07.10.2019
6647 Haze 32 1009 62 3000 4.6 320 14:23 07.10.2019
6648 Haze 32 1009 66 3000 5.1 300 13:45 07.10.2019
6649 Haze 32 1009 66 3000 5.1 300 13:21 07.10.2019
6650 Haze 33 1008 63 3000 5.1 230 12:58 07.10.2019
6651 Haze 33 1008 63 3000 5.1 230 12:58 07.10.2019
6652 Haze 33 1008 66 3000 5.7 300 12:40 07.10.2019
6653 Haze 33 1008 66 3000 5.7 300 12:21 07.10.2019
6654 Haze 33 1009 62 3000 3.6 310 11:59 07.10.2019
6655 Haze 33 1009 62 3000 3.6 310 11:40 07.10.2019
6656 Haze 33 1009 62 3000 3.6 310 11:21 07.10.2019
6657 Haze 33 1010 62 3000 5.1 300 10:56 07.10.2019
6658 Haze 33 1010 66 3000 5.1 280 10:37 07.10.2019
6659 Haze 33 1010 66 3000 5.1 280 10:37 07.10.2019
6660 Haze 34 1010 66 3000 5.1 280 10:19 07.10.2019
6661 Haze 33 1011 62 3000 4.1 270 09:38 07.10.2019
6662 Haze 33 1011 62 3000 4.1 270 09:20 07.10.2019
6663 Haze 33 1012 62 3000 4.1 280 08:44 07.10.2019
6664 Haze 33 1012 66 3000 2.6 260 08:21 07.10.2019
6665 Haze 33 1012 59 3000 1.5 0 07:55 07.10.2019
6666 Haze 33 1013 59 2500 2.1 320 07:36 07.10.2019
6667 Haze 33 1013 59 2500 2.1 320 07:18 07.10.2019
6668 Haze 32 1013 62 2500 2.6 330 06:43 07.10.2019
6669 Haze 32 1013 62 2500 2.6 40 06:20 07.10.2019
6670 Haze 29 1012 74 2200 2.1 110 05:27 07.10.2019
6671 Haze 30 1012 74 2200 1 0 04:54 07.10.2019
6672 Haze 29 1011 74 2100 2.86 5.258 03:48 07.10.2019
6673 Haze 29 1011 74 1900 1.5 130 03:30 07.10.2019
6674 Haze 27 1010 83 2200 1.5 0 02:53 07.10.2019
6675 Mist 27 1010 83 2200 1.5 190 02:19 07.10.2019
6676 Mist 27 1010 88 2200 2.6 140 01:24 07.10.2019
6677 Mist 27 1010 83 2200 2.1 130 00:53 07.10.2019
6678 Mist 28 1010 83 2500 4.27 345.769 00:26 07.10.2019
6679 Mist 28 1010 78 2500 2.1 120 23:59 06.10.2019
6680 Mist 28 1010 83 2500 1.5 90 23:40 06.10.2019
6681 Mist 28 1010 83 2500 1.5 90 23:20 06.10.2019
6682 Mist 28 1010 83 2500 2.1 60 22:57 06.10.2019
6683 Mist 28 1011 83 3000 2.1 80 22:39 06.10.2019
6684 Mist 28 1011 83 3000 2.1 80 22:20 06.10.2019
6685 Mist 28 1011 83 3000 2.1 90 21:55 06.10.2019
6686 Mist 29 1011 79 3000 3.6 100 21:37 06.10.2019
6687 Mist 29 1011 79 3000 3.6 100 21:19 06.10.2019
6688 Haze 29 1011 79 3000 3.1 130 20:56 06.10.2019
6689 Haze 29 1011 79 3000 1.5 340 20:38 06.10.2019
6690 Haze 29 1011 79 3000 1.5 340 20:38 06.10.2019
6691 Haze 29 1011 79 3000 1.5 340 20:19 06.10.2019
6692 Haze 29 1011 79 3000 1.5 340 20:19 06.10.2019
6693 Haze 29 1011 79 3000 2.1 340 19:56 06.10.2019
6694 Haze 30 1011 74 3000 2.6 300 19:37 06.10.2019
6695 Haze 30 1011 74 3000 2.1 320 19:18 06.10.2019
6696 -273 0 0 0 0 0 18:55 06.10.2019
6697 Haze 30 1011 74 3000 2.1 350 18:37 06.10.2019
6698 Haze 30 1011 74 3000 2.1 350 18:18 06.10.2019
6699 Haze 30 1011 74 3000 2.6 310 17:43 06.10.2019
6700 Haze 30 1010 74 3000 2.1 320 17:20 06.10.2019
6701 Haze 30 1010 74 3000 2.6 300 16:56 06.10.2019
6702 Haze 30 1010 74 3000 3.1 340 16:38 06.10.2019
6703 Haze 30 1010 74 3000 3.1 340 16:19 06.10.2019
6704 Haze 31 1009 70 3000 2.1 280 15:43 06.10.2019
6705 Haze 31 1009 74 3500 2.6 260 15:22 06.10.2019
6706 Haze 31 1008 70 3500 3.6 260 14:57 06.10.2019
6707 Haze 31 1008 66 3500 4.6 260 14:39 06.10.2019
6708 Haze 31 1008 66 3500 4.6 260 14:20 06.10.2019
6709 Haze 32 1008 66 3500 4.6 270 13:54 06.10.2019
6710 Smoke 33 1008 62 3500 5.1 260 13:36 06.10.2019
6711 Smoke 33 1008 62 3500 5.1 260 13:18 06.10.2019
6712 Smoke 33 1008 62 3500 6.2 250 12:55 06.10.2019
6713 Smoke 33 1008 62 3500 6.2 250 12:54 06.10.2019
6714 Smoke 33 1008 62 3500 5.1 270 12:36 06.10.2019
6715 Smoke 33 1008 62 3500 5.1 270 12:36 06.10.2019
6716 Smoke 33 1008 62 3500 4.6 240 12:18 06.10.2019
6717 Smoke 33 1009 62 3500 5.7 240 11:42 06.10.2019
6718 Smoke 33 1009 62 3500 5.7 240 11:24 06.10.2019
6719 Smoke 33 1009 55 4000 1.5 220 10:56 06.10.2019
6720 Smoke 33 1009 55 4000 3.6 170 10:37 06.10.2019
6721 Smoke 33 1009 55 4000 3.6 170 10:19 06.10.2019
6722 Smoke 33 1010 55 4000 2.6 130 09:41 06.10.2019
6723 Smoke 33 1010 55 4000 2.6 130 09:19 06.10.2019
6724 Smoke 33 1010 55 4000 2.6 130 09:19 06.10.2019
6725 Smoke 32 1011 59 4000 2.1 140 08:49 06.10.2019
6726 Haze 32 1011 59 4000 3.1 180 08:24 06.10.2019
6727 Haze 32 1012 59 3500 1.5 190 07:58 06.10.2019
6728 Haze 32 1012 59 3500 1.5 140 07:40 06.10.2019
6729 Haze 31 1012 66 3000 2.6 130 06:53 06.10.2019
6730 Haze 28 1012 74 3000 1.5 150 05:41 06.10.2019
6731 Mist 27 1011 83 2500 2.1 150 04:40 06.10.2019
6732 Mist 25 1010 88 2500 2.1 120 02:56 06.10.2019
6733 Mist 26 1010 83 2500 2.1 100 02:32 06.10.2019
6734 Mist 26 1009 83 2500 1.5 80 01:49 06.10.2019
6735 Mist 26 1009 83 2500 1.5 100 01:30 06.10.2019
6736 Mist 26 1009 83 2500 1.5 100 01:30 06.10.2019
6737 Haze 26 1009 83 2500 2.1 90 00:59 06.10.2019
6738 Haze 26 1009 83 2500 2.1 110 00:36 06.10.2019
6739 Haze 26 1009 83 2500 2.1 110 00:18 06.10.2019
6740 Haze 26 1009 83 3000 2.6 110 23:41 05.10.2019
6741 Haze 26 1009 83 3000 2.6 110 23:19 05.10.2019
6742 Haze 26 1010 83 3000 2.6 110 22:55 05.10.2019
6743 Haze 26 1010 83 3000 2.6 130 22:36 05.10.2019
6744 Haze 26 1010 83 3000 2.6 130 22:18 05.10.2019
6745 Haze 27 1010 78 3000 2.6 130 21:41 05.10.2019
6746 Haze 27 1010 78 3000 2.6 130 21:41 05.10.2019
6747 Haze 29 1010 78 3000 1.5 100 21:22 05.10.2019
6748 Haze 29 1010 74 3000 1 0 20:57 05.10.2019
6749 Thunderstorm 29 1010 74 3000 4.83 335.183 20:39 05.10.2019
6750 Thunderstorm 27 1010 74 3000 4.83 335.183 20:19 05.10.2019
6751 Haze 27 1010 74 3000 2.1 130